<?xml version="1.0" encoding="UTF-8" standalone="no" ?>
<gpx xmlns="http://www.topografix.com/GPX/1/1" xmlns:xsi="http://www.w3.org/2001/XMLSchema-instance" xsi:schemaLocation="http://www.topografix.com/GPX/1/1 http://www.topografix.com/GPX/1/1/gpx.xsd" version="1.1" creator="VisuGPX - https://www.visugpx.com">
  <metadata>
    <name>Cadaques J10</name>
    <desc><![CDATA[File with points/tracks from Locus Map/4.25.1]]></desc>
  </metadata>
  <trk>
    <name><![CDATA[2024-09-25 Ripoll J10]]></name>
    <extensions>
      <line xmlns="http://www.topografix.com/GPX/gpx_style/0/2">
        <color>0000FF</color>
        <opacity>0.70</opacity>
        <width>6.0</width>
      </line>
    </extensions>
    <trkseg>
      <trkpt lat="42.26423" lon="2.95945">
        <ele>79.81</ele>
        <time>2024-09-25T07:00:32.999Z</time>
      </trkpt>
      <trkpt lat="42.26432" lon="2.95943">
        <ele>78.37</ele>
        <time>2024-09-25T07:02:31.000Z</time>
      </trkpt>
      <trkpt lat="42.26434" lon="2.9593">
        <ele>79.35</ele>
        <time>2024-09-25T07:02:42.000Z</time>
      </trkpt>
      <trkpt lat="42.26434" lon="2.95918">
        <ele>80.04</ele>
        <time>2024-09-25T07:03:07.000Z</time>
      </trkpt>
      <trkpt lat="42.26433" lon="2.95903">
        <ele>80.15</ele>
        <time>2024-09-25T07:03:12.000Z</time>
      </trkpt>
      <trkpt lat="42.26431" lon="2.95883">
        <ele>80.15</ele>
        <time>2024-09-25T07:03:17.000Z</time>
      </trkpt>
      <trkpt lat="42.26419" lon="2.95878">
        <ele>79.84</ele>
        <time>2024-09-25T07:03:22.000Z</time>
      </trkpt>
      <trkpt lat="42.26406" lon="2.9588">
        <ele>79.51</ele>
        <time>2024-09-25T07:03:27.000Z</time>
      </trkpt>
      <trkpt lat="42.26397" lon="2.95884">
        <ele>79.14</ele>
        <time>2024-09-25T07:03:32.000Z</time>
      </trkpt>
      <trkpt lat="42.26385" lon="2.95884">
        <ele>78.7</ele>
        <time>2024-09-25T07:03:37.000Z</time>
      </trkpt>
      <trkpt lat="42.26372" lon="2.95883">
        <ele>78.23</ele>
        <time>2024-09-25T07:03:42.000Z</time>
      </trkpt>
      <trkpt lat="42.26363" lon="2.95884">
        <ele>77.41</ele>
        <time>2024-09-25T07:03:53.000Z</time>
      </trkpt>
      <trkpt lat="42.26364" lon="2.959">
        <ele>75.35</ele>
        <time>2024-09-25T07:04:23.000Z</time>
      </trkpt>
      <trkpt lat="42.26368" lon="2.95925">
        <ele>74.95</ele>
        <time>2024-09-25T07:04:28.000Z</time>
      </trkpt>
      <trkpt lat="42.26371" lon="2.95949">
        <ele>74.57</ele>
        <time>2024-09-25T07:04:33.000Z</time>
      </trkpt>
      <trkpt lat="42.26375" lon="2.95972">
        <ele>73.36</ele>
        <time>2024-09-25T07:04:38.000Z</time>
      </trkpt>
      <trkpt lat="42.26376" lon="2.95998">
        <ele>72.25</ele>
        <time>2024-09-25T07:04:43.000Z</time>
      </trkpt>
      <trkpt lat="42.26385" lon="2.96024">
        <ele>71.29</ele>
        <time>2024-09-25T07:04:48.000Z</time>
      </trkpt>
      <trkpt lat="42.26395" lon="2.96057">
        <ele>70.62</ele>
        <time>2024-09-25T07:04:53.000Z</time>
      </trkpt>
      <trkpt lat="42.26397" lon="2.9608">
        <ele>70.55</ele>
        <time>2024-09-25T07:04:58.000Z</time>
      </trkpt>
      <trkpt lat="42.26401" lon="2.96106">
        <ele>70.26</ele>
        <time>2024-09-25T07:05:03.000Z</time>
      </trkpt>
      <trkpt lat="42.26406" lon="2.96145">
        <ele>69.76</ele>
        <time>2024-09-25T07:05:08.000Z</time>
      </trkpt>
      <trkpt lat="42.26412" lon="2.96173">
        <ele>69.43</ele>
        <time>2024-09-25T07:05:13.000Z</time>
      </trkpt>
      <trkpt lat="42.26403" lon="2.96181">
        <ele>68.98</ele>
        <time>2024-09-25T07:05:20.000Z</time>
      </trkpt>
      <trkpt lat="42.26385" lon="2.96185">
        <ele>68.29</ele>
        <time>2024-09-25T07:05:25.000Z</time>
      </trkpt>
      <trkpt lat="42.26362" lon="2.96192">
        <ele>67.53</ele>
        <time>2024-09-25T07:05:30.000Z</time>
      </trkpt>
      <trkpt lat="42.26346" lon="2.96198">
        <ele>66.82</ele>
        <time>2024-09-25T07:05:35.000Z</time>
      </trkpt>
      <trkpt lat="42.26328" lon="2.96204">
        <ele>66.19</ele>
        <time>2024-09-25T07:05:40.000Z</time>
      </trkpt>
      <trkpt lat="42.26309" lon="2.9621">
        <ele>65.65</ele>
        <time>2024-09-25T07:05:45.000Z</time>
      </trkpt>
      <trkpt lat="42.26288" lon="2.96218">
        <ele>63.75</ele>
        <time>2024-09-25T07:05:50.000Z</time>
      </trkpt>
      <trkpt lat="42.26268" lon="2.96224">
        <ele>62.36</ele>
        <time>2024-09-25T07:05:55.000Z</time>
      </trkpt>
      <trkpt lat="42.26245" lon="2.9623">
        <ele>61.3</ele>
        <time>2024-09-25T07:06:00.000Z</time>
      </trkpt>
      <trkpt lat="42.26225" lon="2.96237">
        <ele>60.94</ele>
        <time>2024-09-25T07:06:05.000Z</time>
      </trkpt>
      <trkpt lat="42.26212" lon="2.96245">
        <ele>60.91</ele>
        <time>2024-09-25T07:06:10.000Z</time>
      </trkpt>
      <trkpt lat="42.26191" lon="2.9625">
        <ele>60.8</ele>
        <time>2024-09-25T07:06:15.000Z</time>
      </trkpt>
      <trkpt lat="42.26172" lon="2.96253">
        <ele>60.73</ele>
        <time>2024-09-25T07:06:20.000Z</time>
      </trkpt>
      <trkpt lat="42.26152" lon="2.9626">
        <ele>60.66</ele>
        <time>2024-09-25T07:06:25.000Z</time>
      </trkpt>
      <trkpt lat="42.26127" lon="2.96268">
        <ele>60.56</ele>
        <time>2024-09-25T07:06:30.000Z</time>
      </trkpt>
      <trkpt lat="42.26106" lon="2.96274">
        <ele>60.53</ele>
        <time>2024-09-25T07:06:35.000Z</time>
      </trkpt>
      <trkpt lat="42.26082" lon="2.9628">
        <ele>60.45</ele>
        <time>2024-09-25T07:06:40.000Z</time>
      </trkpt>
      <trkpt lat="42.26058" lon="2.96289">
        <ele>60.37</ele>
        <time>2024-09-25T07:06:45.000Z</time>
      </trkpt>
      <trkpt lat="42.26032" lon="2.96298">
        <ele>60.26</ele>
        <time>2024-09-25T07:06:50.000Z</time>
      </trkpt>
      <trkpt lat="42.26019" lon="2.96303">
        <ele>60.2</ele>
        <time>2024-09-25T07:06:55.000Z</time>
      </trkpt>
      <trkpt lat="42.26006" lon="2.96305">
        <ele>60.16</ele>
        <time>2024-09-25T07:07:00.000Z</time>
      </trkpt>
      <trkpt lat="42.25986" lon="2.96311">
        <ele>59.94</ele>
        <time>2024-09-25T07:07:05.000Z</time>
      </trkpt>
      <trkpt lat="42.25965" lon="2.96315">
        <ele>59.65</ele>
        <time>2024-09-25T07:07:10.000Z</time>
      </trkpt>
      <trkpt lat="42.25941" lon="2.96321">
        <ele>59.33</ele>
        <time>2024-09-25T07:07:15.000Z</time>
      </trkpt>
      <trkpt lat="42.25918" lon="2.96327">
        <ele>58.8</ele>
        <time>2024-09-25T07:07:20.000Z</time>
      </trkpt>
      <trkpt lat="42.2589" lon="2.96336">
        <ele>58.29</ele>
        <time>2024-09-25T07:07:25.000Z</time>
      </trkpt>
      <trkpt lat="42.25863" lon="2.96346">
        <ele>57.85</ele>
        <time>2024-09-25T07:07:30.000Z</time>
      </trkpt>
      <trkpt lat="42.25835" lon="2.96358">
        <ele>57.55</ele>
        <time>2024-09-25T07:07:35.000Z</time>
      </trkpt>
      <trkpt lat="42.25808" lon="2.96368">
        <ele>57.33</ele>
        <time>2024-09-25T07:07:40.000Z</time>
      </trkpt>
      <trkpt lat="42.25783" lon="2.96376">
        <ele>57.01</ele>
        <time>2024-09-25T07:07:45.000Z</time>
      </trkpt>
      <trkpt lat="42.25759" lon="2.96385">
        <ele>56.71</ele>
        <time>2024-09-25T07:07:50.000Z</time>
      </trkpt>
      <trkpt lat="42.25743" lon="2.96388">
        <ele>56.56</ele>
        <time>2024-09-25T07:07:55.000Z</time>
      </trkpt>
      <trkpt lat="42.25731" lon="2.9639">
        <ele>56.49</ele>
        <time>2024-09-25T07:08:00.000Z</time>
      </trkpt>
      <trkpt lat="42.25722" lon="2.96376">
        <ele>56.39</ele>
        <time>2024-09-25T07:08:05.000Z</time>
      </trkpt>
      <trkpt lat="42.25711" lon="2.96377">
        <ele>56.21</ele>
        <time>2024-09-25T07:08:10.000Z</time>
      </trkpt>
      <trkpt lat="42.25704" lon="2.96393">
        <ele>55.98</ele>
        <time>2024-09-25T07:08:15.000Z</time>
      </trkpt>
      <trkpt lat="42.25701" lon="2.96405">
        <ele>55.63</ele>
        <time>2024-09-25T07:08:21.000Z</time>
      </trkpt>
      <trkpt lat="42.25705" lon="2.96419">
        <ele>54.81</ele>
        <time>2024-09-25T07:09:17.000Z</time>
      </trkpt>
      <trkpt lat="42.25702" lon="2.96443">
        <ele>54.55</ele>
        <time>2024-09-25T07:09:22.000Z</time>
      </trkpt>
      <trkpt lat="42.25693" lon="2.9647">
        <ele>53.22</ele>
        <time>2024-09-25T07:09:27.000Z</time>
      </trkpt>
      <trkpt lat="42.25683" lon="2.96497">
        <ele>52.43</ele>
        <time>2024-09-25T07:09:32.000Z</time>
      </trkpt>
      <trkpt lat="42.25675" lon="2.96523">
        <ele>52.08</ele>
        <time>2024-09-25T07:09:37.000Z</time>
      </trkpt>
      <trkpt lat="42.25668" lon="2.96545">
        <ele>51.97</ele>
        <time>2024-09-25T07:09:42.000Z</time>
      </trkpt>
      <trkpt lat="42.25655" lon="2.96553">
        <ele>51.74</ele>
        <time>2024-09-25T07:09:47.000Z</time>
      </trkpt>
      <trkpt lat="42.2563" lon="2.96542">
        <ele>50.63</ele>
        <time>2024-09-25T07:09:52.000Z</time>
      </trkpt>
      <trkpt lat="42.25603" lon="2.96533">
        <ele>50.45</ele>
        <time>2024-09-25T07:09:57.000Z</time>
      </trkpt>
      <trkpt lat="42.25577" lon="2.96521">
        <ele>50.29</ele>
        <time>2024-09-25T07:10:02.000Z</time>
      </trkpt>
      <trkpt lat="42.25552" lon="2.96509">
        <ele>50.05</ele>
        <time>2024-09-25T07:10:07.000Z</time>
      </trkpt>
      <trkpt lat="42.25527" lon="2.96494">
        <ele>49.73</ele>
        <time>2024-09-25T07:10:12.000Z</time>
      </trkpt>
      <trkpt lat="42.25502" lon="2.96478">
        <ele>49.39</ele>
        <time>2024-09-25T07:10:17.000Z</time>
      </trkpt>
      <trkpt lat="42.25478" lon="2.96461">
        <ele>49.07</ele>
        <time>2024-09-25T07:10:22.000Z</time>
      </trkpt>
      <trkpt lat="42.25453" lon="2.96444">
        <ele>49.27</ele>
        <time>2024-09-25T07:10:27.000Z</time>
      </trkpt>
      <trkpt lat="42.25428" lon="2.96428">
        <ele>49.67</ele>
        <time>2024-09-25T07:10:32.000Z</time>
      </trkpt>
      <trkpt lat="42.25404" lon="2.96414">
        <ele>50.17</ele>
        <time>2024-09-25T07:10:37.000Z</time>
      </trkpt>
      <trkpt lat="42.2538" lon="2.964">
        <ele>50.75</ele>
        <time>2024-09-25T07:10:42.000Z</time>
      </trkpt>
      <trkpt lat="42.25358" lon="2.96388">
        <ele>51.13</ele>
        <time>2024-09-25T07:10:47.000Z</time>
      </trkpt>
      <trkpt lat="42.25336" lon="2.96376">
        <ele>51.29</ele>
        <time>2024-09-25T07:10:52.000Z</time>
      </trkpt>
      <trkpt lat="42.25315" lon="2.96364">
        <ele>51.4</ele>
        <time>2024-09-25T07:10:57.000Z</time>
      </trkpt>
      <trkpt lat="42.25294" lon="2.96351">
        <ele>51.56</ele>
        <time>2024-09-25T07:11:02.000Z</time>
      </trkpt>
      <trkpt lat="42.25272" lon="2.9634">
        <ele>51.7</ele>
        <time>2024-09-25T07:11:07.000Z</time>
      </trkpt>
      <trkpt lat="42.25253" lon="2.96328">
        <ele>51.75</ele>
        <time>2024-09-25T07:11:12.000Z</time>
      </trkpt>
      <trkpt lat="42.25234" lon="2.96315">
        <ele>51.66</ele>
        <time>2024-09-25T07:11:17.000Z</time>
      </trkpt>
      <trkpt lat="42.25214" lon="2.96303">
        <ele>51.67</ele>
        <time>2024-09-25T07:11:22.000Z</time>
      </trkpt>
      <trkpt lat="42.25194" lon="2.96291">
        <ele>51.54</ele>
        <time>2024-09-25T07:11:27.000Z</time>
      </trkpt>
      <trkpt lat="42.25175" lon="2.96279">
        <ele>51.47</ele>
        <time>2024-09-25T07:11:32.000Z</time>
      </trkpt>
      <trkpt lat="42.25157" lon="2.96268">
        <ele>51.62</ele>
        <time>2024-09-25T07:11:37.000Z</time>
      </trkpt>
      <trkpt lat="42.25139" lon="2.96258">
        <ele>51.79</ele>
        <time>2024-09-25T07:11:42.000Z</time>
      </trkpt>
      <trkpt lat="42.2512" lon="2.96247">
        <ele>51.99</ele>
        <time>2024-09-25T07:11:47.000Z</time>
      </trkpt>
      <trkpt lat="42.25102" lon="2.96236">
        <ele>52.01</ele>
        <time>2024-09-25T07:11:52.000Z</time>
      </trkpt>
      <trkpt lat="42.25084" lon="2.96226">
        <ele>51.85</ele>
        <time>2024-09-25T07:11:57.000Z</time>
      </trkpt>
      <trkpt lat="42.25065" lon="2.96216">
        <ele>51.76</ele>
        <time>2024-09-25T07:12:02.000Z</time>
      </trkpt>
      <trkpt lat="42.25045" lon="2.96206">
        <ele>51.87</ele>
        <time>2024-09-25T07:12:07.000Z</time>
      </trkpt>
      <trkpt lat="42.25024" lon="2.96191">
        <ele>51.88</ele>
        <time>2024-09-25T07:12:12.000Z</time>
      </trkpt>
      <trkpt lat="42.25001" lon="2.96172">
        <ele>51.57</ele>
        <time>2024-09-25T07:12:17.000Z</time>
      </trkpt>
      <trkpt lat="42.24976" lon="2.96151">
        <ele>51.32</ele>
        <time>2024-09-25T07:12:22.000Z</time>
      </trkpt>
      <trkpt lat="42.24956" lon="2.96132">
        <ele>51.23</ele>
        <time>2024-09-25T07:12:27.000Z</time>
      </trkpt>
      <trkpt lat="42.24941" lon="2.96119">
        <ele>51.13</ele>
        <time>2024-09-25T07:12:32.000Z</time>
      </trkpt>
      <trkpt lat="42.24929" lon="2.96109">
        <ele>51.1</ele>
        <time>2024-09-25T07:12:37.000Z</time>
      </trkpt>
      <trkpt lat="42.24917" lon="2.961">
        <ele>51.1</ele>
        <time>2024-09-25T07:12:42.000Z</time>
      </trkpt>
      <trkpt lat="42.24906" lon="2.9609">
        <ele>51.16</ele>
        <time>2024-09-25T07:12:47.000Z</time>
      </trkpt>
      <trkpt lat="42.24896" lon="2.96083">
        <ele>51.23</ele>
        <time>2024-09-25T07:12:52.000Z</time>
      </trkpt>
      <trkpt lat="42.24884" lon="2.96078">
        <ele>51.3</ele>
        <time>2024-09-25T07:12:57.000Z</time>
      </trkpt>
      <trkpt lat="42.24871" lon="2.96076">
        <ele>51.41</ele>
        <time>2024-09-25T07:13:02.000Z</time>
      </trkpt>
      <trkpt lat="42.24858" lon="2.96072">
        <ele>51.63</ele>
        <time>2024-09-25T07:13:07.000Z</time>
      </trkpt>
      <trkpt lat="42.24846" lon="2.96069">
        <ele>51.91</ele>
        <time>2024-09-25T07:13:12.000Z</time>
      </trkpt>
      <trkpt lat="42.24832" lon="2.96065">
        <ele>52.19</ele>
        <time>2024-09-25T07:13:17.000Z</time>
      </trkpt>
      <trkpt lat="42.24817" lon="2.96062">
        <ele>52.45</ele>
        <time>2024-09-25T07:13:22.000Z</time>
      </trkpt>
      <trkpt lat="42.24803" lon="2.96057">
        <ele>52.66</ele>
        <time>2024-09-25T07:13:27.000Z</time>
      </trkpt>
      <trkpt lat="42.24787" lon="2.96051">
        <ele>52.86</ele>
        <time>2024-09-25T07:13:32.000Z</time>
      </trkpt>
      <trkpt lat="42.2477" lon="2.96047">
        <ele>53.04</ele>
        <time>2024-09-25T07:13:37.000Z</time>
      </trkpt>
      <trkpt lat="42.24753" lon="2.96041">
        <ele>53.22</ele>
        <time>2024-09-25T07:13:42.000Z</time>
      </trkpt>
      <trkpt lat="42.24735" lon="2.96035">
        <ele>53.82</ele>
        <time>2024-09-25T07:13:47.000Z</time>
      </trkpt>
      <trkpt lat="42.24716" lon="2.96026">
        <ele>54.54</ele>
        <time>2024-09-25T07:13:52.000Z</time>
      </trkpt>
      <trkpt lat="42.24698" lon="2.96017">
        <ele>54.93</ele>
        <time>2024-09-25T07:13:57.000Z</time>
      </trkpt>
      <trkpt lat="42.2468" lon="2.96008">
        <ele>55.09</ele>
        <time>2024-09-25T07:14:02.000Z</time>
      </trkpt>
      <trkpt lat="42.24658" lon="2.95997">
        <ele>55.17</ele>
        <time>2024-09-25T07:14:07.999Z</time>
      </trkpt>
      <trkpt lat="42.24639" lon="2.95987">
        <ele>55.2</ele>
        <time>2024-09-25T07:14:12.999Z</time>
      </trkpt>
      <trkpt lat="42.24621" lon="2.95978">
        <ele>55.24</ele>
        <time>2024-09-25T07:14:17.999Z</time>
      </trkpt>
      <trkpt lat="42.24602" lon="2.95968">
        <ele>55.29</ele>
        <time>2024-09-25T07:14:22.999Z</time>
      </trkpt>
      <trkpt lat="42.24583" lon="2.95958">
        <ele>55.32</ele>
        <time>2024-09-25T07:14:27.999Z</time>
      </trkpt>
      <trkpt lat="42.24565" lon="2.95951">
        <ele>55.37</ele>
        <time>2024-09-25T07:14:32.999Z</time>
      </trkpt>
      <trkpt lat="42.24546" lon="2.95945">
        <ele>55.47</ele>
        <time>2024-09-25T07:14:37.999Z</time>
      </trkpt>
      <trkpt lat="42.24527" lon="2.95938">
        <ele>55.57</ele>
        <time>2024-09-25T07:14:42.999Z</time>
      </trkpt>
      <trkpt lat="42.24506" lon="2.95931">
        <ele>55.63</ele>
        <time>2024-09-25T07:14:47.999Z</time>
      </trkpt>
      <trkpt lat="42.24485" lon="2.95924">
        <ele>55.73</ele>
        <time>2024-09-25T07:14:52.999Z</time>
      </trkpt>
      <trkpt lat="42.24463" lon="2.95916">
        <ele>55.82</ele>
        <time>2024-09-25T07:14:57.999Z</time>
      </trkpt>
      <trkpt lat="42.2444" lon="2.9591">
        <ele>55.9</ele>
        <time>2024-09-25T07:15:02.999Z</time>
      </trkpt>
      <trkpt lat="42.24419" lon="2.95904">
        <ele>55.94</ele>
        <time>2024-09-25T07:15:07.999Z</time>
      </trkpt>
      <trkpt lat="42.24399" lon="2.95891">
        <ele>55.91</ele>
        <time>2024-09-25T07:15:12.999Z</time>
      </trkpt>
      <trkpt lat="42.24375" lon="2.95886">
        <ele>55.83</ele>
        <time>2024-09-25T07:15:17.999Z</time>
      </trkpt>
      <trkpt lat="42.24355" lon="2.95871">
        <ele>55.83</ele>
        <time>2024-09-25T07:15:22.999Z</time>
      </trkpt>
      <trkpt lat="42.24339" lon="2.95859">
        <ele>55.86</ele>
        <time>2024-09-25T07:15:27.999Z</time>
      </trkpt>
      <trkpt lat="42.24324" lon="2.9585">
        <ele>55.86</ele>
        <time>2024-09-25T07:15:32.999Z</time>
      </trkpt>
      <trkpt lat="42.24308" lon="2.95841">
        <ele>55.88</ele>
        <time>2024-09-25T07:15:37.999Z</time>
      </trkpt>
      <trkpt lat="42.24289" lon="2.95832">
        <ele>55.95</ele>
        <time>2024-09-25T07:15:42.999Z</time>
      </trkpt>
      <trkpt lat="42.24268" lon="2.9582">
        <ele>56.03</ele>
        <time>2024-09-25T07:15:47.999Z</time>
      </trkpt>
      <trkpt lat="42.24243" lon="2.95806">
        <ele>56.07</ele>
        <time>2024-09-25T07:15:52.999Z</time>
      </trkpt>
      <trkpt lat="42.24218" lon="2.95792">
        <ele>56.09</ele>
        <time>2024-09-25T07:15:57.999Z</time>
      </trkpt>
      <trkpt lat="42.24194" lon="2.95781">
        <ele>56.1</ele>
        <time>2024-09-25T07:16:02.999Z</time>
      </trkpt>
      <trkpt lat="42.2417" lon="2.9577">
        <ele>56.21</ele>
        <time>2024-09-25T07:16:07.999Z</time>
      </trkpt>
      <trkpt lat="42.24141" lon="2.95761">
        <ele>56.43</ele>
        <time>2024-09-25T07:16:12.999Z</time>
      </trkpt>
      <trkpt lat="42.24117" lon="2.95748">
        <ele>56.47</ele>
        <time>2024-09-25T07:16:17.999Z</time>
      </trkpt>
      <trkpt lat="42.24093" lon="2.95733">
        <ele>56.44</ele>
        <time>2024-09-25T07:16:22.999Z</time>
      </trkpt>
      <trkpt lat="42.24067" lon="2.95716">
        <ele>56.37</ele>
        <time>2024-09-25T07:16:27.999Z</time>
      </trkpt>
      <trkpt lat="42.24042" lon="2.95699">
        <ele>56.27</ele>
        <time>2024-09-25T07:16:32.999Z</time>
      </trkpt>
      <trkpt lat="42.24014" lon="2.95678">
        <ele>56.14</ele>
        <time>2024-09-25T07:16:37.999Z</time>
      </trkpt>
      <trkpt lat="42.23989" lon="2.95653">
        <ele>56.05</ele>
        <time>2024-09-25T07:16:42.999Z</time>
      </trkpt>
      <trkpt lat="42.23967" lon="2.95633">
        <ele>56.26</ele>
        <time>2024-09-25T07:16:47.999Z</time>
      </trkpt>
      <trkpt lat="42.23945" lon="2.95611">
        <ele>56.36</ele>
        <time>2024-09-25T07:16:52.999Z</time>
      </trkpt>
      <trkpt lat="42.23924" lon="2.95592">
        <ele>56.35</ele>
        <time>2024-09-25T07:16:57.999Z</time>
      </trkpt>
      <trkpt lat="42.23904" lon="2.95575">
        <ele>56.2</ele>
        <time>2024-09-25T07:17:02.999Z</time>
      </trkpt>
      <trkpt lat="42.23883" lon="2.95557">
        <ele>55.9</ele>
        <time>2024-09-25T07:17:07.999Z</time>
      </trkpt>
      <trkpt lat="42.23862" lon="2.9554">
        <ele>56</ele>
        <time>2024-09-25T07:17:12.999Z</time>
      </trkpt>
      <trkpt lat="42.23842" lon="2.95523">
        <ele>56.23</ele>
        <time>2024-09-25T07:17:17.999Z</time>
      </trkpt>
      <trkpt lat="42.23822" lon="2.95509">
        <ele>56.49</ele>
        <time>2024-09-25T07:17:22.999Z</time>
      </trkpt>
      <trkpt lat="42.23804" lon="2.95495">
        <ele>56.8</ele>
        <time>2024-09-25T07:17:27.999Z</time>
      </trkpt>
      <trkpt lat="42.23786" lon="2.95481">
        <ele>57.17</ele>
        <time>2024-09-25T07:17:32.999Z</time>
      </trkpt>
      <trkpt lat="42.23767" lon="2.95466">
        <ele>57.24</ele>
        <time>2024-09-25T07:17:37.999Z</time>
      </trkpt>
      <trkpt lat="42.23749" lon="2.95453">
        <ele>57.36</ele>
        <time>2024-09-25T07:17:42.999Z</time>
      </trkpt>
      <trkpt lat="42.2373" lon="2.95438">
        <ele>57.54</ele>
        <time>2024-09-25T07:17:47.999Z</time>
      </trkpt>
      <trkpt lat="42.23714" lon="2.95424">
        <ele>57.68</ele>
        <time>2024-09-25T07:17:52.999Z</time>
      </trkpt>
      <trkpt lat="42.23702" lon="2.95408">
        <ele>57.86</ele>
        <time>2024-09-25T07:17:57.999Z</time>
      </trkpt>
      <trkpt lat="42.23684" lon="2.95402">
        <ele>58.02</ele>
        <time>2024-09-25T07:18:02.999Z</time>
      </trkpt>
      <trkpt lat="42.23667" lon="2.95389">
        <ele>58.39</ele>
        <time>2024-09-25T07:18:07.999Z</time>
      </trkpt>
      <trkpt lat="42.2365" lon="2.95374">
        <ele>58.65</ele>
        <time>2024-09-25T07:18:12.999Z</time>
      </trkpt>
      <trkpt lat="42.23636" lon="2.9536">
        <ele>58.71</ele>
        <time>2024-09-25T07:18:17.999Z</time>
      </trkpt>
      <trkpt lat="42.23619" lon="2.95344">
        <ele>58.78</ele>
        <time>2024-09-25T07:18:22.999Z</time>
      </trkpt>
      <trkpt lat="42.23603" lon="2.95329">
        <ele>58.78</ele>
        <time>2024-09-25T07:18:27.999Z</time>
      </trkpt>
      <trkpt lat="42.23584" lon="2.95313">
        <ele>58.72</ele>
        <time>2024-09-25T07:18:32.999Z</time>
      </trkpt>
      <trkpt lat="42.23566" lon="2.95297">
        <ele>58.61</ele>
        <time>2024-09-25T07:18:37.999Z</time>
      </trkpt>
      <trkpt lat="42.23547" lon="2.95281">
        <ele>58.44</ele>
        <time>2024-09-25T07:18:42.999Z</time>
      </trkpt>
      <trkpt lat="42.23531" lon="2.95266">
        <ele>58.27</ele>
        <time>2024-09-25T07:18:47.999Z</time>
      </trkpt>
      <trkpt lat="42.23514" lon="2.9525">
        <ele>58.12</ele>
        <time>2024-09-25T07:18:52.999Z</time>
      </trkpt>
      <trkpt lat="42.23496" lon="2.95234">
        <ele>57.97</ele>
        <time>2024-09-25T07:18:57.999Z</time>
      </trkpt>
      <trkpt lat="42.23479" lon="2.95219">
        <ele>57.83</ele>
        <time>2024-09-25T07:19:02.999Z</time>
      </trkpt>
      <trkpt lat="42.23461" lon="2.95204">
        <ele>57.72</ele>
        <time>2024-09-25T07:19:07.999Z</time>
      </trkpt>
      <trkpt lat="42.23444" lon="2.95189">
        <ele>57.57</ele>
        <time>2024-09-25T07:19:12.999Z</time>
      </trkpt>
      <trkpt lat="42.23427" lon="2.95173">
        <ele>57.41</ele>
        <time>2024-09-25T07:19:17.999Z</time>
      </trkpt>
      <trkpt lat="42.2341" lon="2.95156">
        <ele>57.29</ele>
        <time>2024-09-25T07:19:22.999Z</time>
      </trkpt>
      <trkpt lat="42.23394" lon="2.95141">
        <ele>57.23</ele>
        <time>2024-09-25T07:19:27.999Z</time>
      </trkpt>
      <trkpt lat="42.23379" lon="2.95129">
        <ele>57.17</ele>
        <time>2024-09-25T07:19:32.999Z</time>
      </trkpt>
      <trkpt lat="42.2337" lon="2.95115">
        <ele>57.14</ele>
        <time>2024-09-25T07:19:37.999Z</time>
      </trkpt>
      <trkpt lat="42.23371" lon="2.95102">
        <ele>57.12</ele>
        <time>2024-09-25T07:19:42.999Z</time>
      </trkpt>
      <trkpt lat="42.23372" lon="2.95088">
        <ele>57.04</ele>
        <time>2024-09-25T07:20:31.999Z</time>
      </trkpt>
      <trkpt lat="42.23374" lon="2.9506">
        <ele>57.02</ele>
        <time>2024-09-25T07:20:36.999Z</time>
      </trkpt>
      <trkpt lat="42.23375" lon="2.95035">
        <ele>57.03</ele>
        <time>2024-09-25T07:20:41.999Z</time>
      </trkpt>
      <trkpt lat="42.23375" lon="2.9501">
        <ele>57.16</ele>
        <time>2024-09-25T07:20:46.999Z</time>
      </trkpt>
      <trkpt lat="42.23376" lon="2.94985">
        <ele>57.41</ele>
        <time>2024-09-25T07:20:51.999Z</time>
      </trkpt>
      <trkpt lat="42.23377" lon="2.94961">
        <ele>57.67</ele>
        <time>2024-09-25T07:20:56.999Z</time>
      </trkpt>
      <trkpt lat="42.23377" lon="2.94935">
        <ele>57.72</ele>
        <time>2024-09-25T07:21:01.999Z</time>
      </trkpt>
      <trkpt lat="42.23379" lon="2.94912">
        <ele>57.92</ele>
        <time>2024-09-25T07:21:06.999Z</time>
      </trkpt>
      <trkpt lat="42.23385" lon="2.94887">
        <ele>58.29</ele>
        <time>2024-09-25T07:21:11.999Z</time>
      </trkpt>
      <trkpt lat="42.23394" lon="2.94862">
        <ele>58.67</ele>
        <time>2024-09-25T07:21:16.999Z</time>
      </trkpt>
      <trkpt lat="42.23407" lon="2.94839">
        <ele>59.06</ele>
        <time>2024-09-25T07:21:21.999Z</time>
      </trkpt>
      <trkpt lat="42.2342" lon="2.94816">
        <ele>59.35</ele>
        <time>2024-09-25T07:21:26.999Z</time>
      </trkpt>
      <trkpt lat="42.23432" lon="2.9479">
        <ele>59.41</ele>
        <time>2024-09-25T07:21:31.999Z</time>
      </trkpt>
      <trkpt lat="42.23441" lon="2.9476">
        <ele>59.48</ele>
        <time>2024-09-25T07:21:36.999Z</time>
      </trkpt>
      <trkpt lat="42.23447" lon="2.9473">
        <ele>59.65</ele>
        <time>2024-09-25T07:21:41.999Z</time>
      </trkpt>
      <trkpt lat="42.23455" lon="2.947">
        <ele>59.82</ele>
        <time>2024-09-25T07:21:46.999Z</time>
      </trkpt>
      <trkpt lat="42.23467" lon="2.94672">
        <ele>60.04</ele>
        <time>2024-09-25T07:21:51.999Z</time>
      </trkpt>
      <trkpt lat="42.23481" lon="2.94645">
        <ele>60.19</ele>
        <time>2024-09-25T07:21:56.999Z</time>
      </trkpt>
      <trkpt lat="42.23493" lon="2.94619">
        <ele>60.32</ele>
        <time>2024-09-25T07:22:01.999Z</time>
      </trkpt>
      <trkpt lat="42.23504" lon="2.94597">
        <ele>60.41</ele>
        <time>2024-09-25T07:22:06.999Z</time>
      </trkpt>
      <trkpt lat="42.23516" lon="2.94576">
        <ele>60.43</ele>
        <time>2024-09-25T07:22:11.999Z</time>
      </trkpt>
      <trkpt lat="42.2353" lon="2.94554">
        <ele>60.47</ele>
        <time>2024-09-25T07:22:16.999Z</time>
      </trkpt>
      <trkpt lat="42.23544" lon="2.94531">
        <ele>60.48</ele>
        <time>2024-09-25T07:22:21.999Z</time>
      </trkpt>
      <trkpt lat="42.23561" lon="2.94508">
        <ele>60.46</ele>
        <time>2024-09-25T07:22:26.999Z</time>
      </trkpt>
      <trkpt lat="42.23579" lon="2.94485">
        <ele>60.46</ele>
        <time>2024-09-25T07:22:31.999Z</time>
      </trkpt>
      <trkpt lat="42.23595" lon="2.9446">
        <ele>60.44</ele>
        <time>2024-09-25T07:22:36.999Z</time>
      </trkpt>
      <trkpt lat="42.23609" lon="2.94434">
        <ele>60.46</ele>
        <time>2024-09-25T07:22:41.999Z</time>
      </trkpt>
      <trkpt lat="42.23623" lon="2.94409">
        <ele>60.52</ele>
        <time>2024-09-25T07:22:46.999Z</time>
      </trkpt>
      <trkpt lat="42.23638" lon="2.94384">
        <ele>60.64</ele>
        <time>2024-09-25T07:22:51.999Z</time>
      </trkpt>
      <trkpt lat="42.2365" lon="2.94364">
        <ele>60.73</ele>
        <time>2024-09-25T07:22:56.999Z</time>
      </trkpt>
      <trkpt lat="42.23661" lon="2.94349">
        <ele>60.75</ele>
        <time>2024-09-25T07:23:01.999Z</time>
      </trkpt>
      <trkpt lat="42.23658" lon="2.94334">
        <ele>60.78</ele>
        <time>2024-09-25T07:23:06.999Z</time>
      </trkpt>
      <trkpt lat="42.23645" lon="2.94315">
        <ele>60.95</ele>
        <time>2024-09-25T07:23:11.999Z</time>
      </trkpt>
      <trkpt lat="42.23629" lon="2.94296">
        <ele>61.02</ele>
        <time>2024-09-25T07:23:16.999Z</time>
      </trkpt>
      <trkpt lat="42.23612" lon="2.94275">
        <ele>61.04</ele>
        <time>2024-09-25T07:23:21.999Z</time>
      </trkpt>
      <trkpt lat="42.23595" lon="2.94252">
        <ele>61.08</ele>
        <time>2024-09-25T07:23:26.999Z</time>
      </trkpt>
      <trkpt lat="42.23577" lon="2.94231">
        <ele>61.14</ele>
        <time>2024-09-25T07:23:31.999Z</time>
      </trkpt>
      <trkpt lat="42.23557" lon="2.9421">
        <ele>61.18</ele>
        <time>2024-09-25T07:23:36.999Z</time>
      </trkpt>
      <trkpt lat="42.23537" lon="2.94191">
        <ele>61.24</ele>
        <time>2024-09-25T07:23:41.999Z</time>
      </trkpt>
      <trkpt lat="42.23516" lon="2.94173">
        <ele>61.3</ele>
        <time>2024-09-25T07:23:46.999Z</time>
      </trkpt>
      <trkpt lat="42.23496" lon="2.94152">
        <ele>61.33</ele>
        <time>2024-09-25T07:23:51.999Z</time>
      </trkpt>
      <trkpt lat="42.23475" lon="2.94132">
        <ele>61.39</ele>
        <time>2024-09-25T07:23:56.999Z</time>
      </trkpt>
      <trkpt lat="42.23454" lon="2.94112">
        <ele>61.48</ele>
        <time>2024-09-25T07:24:01.999Z</time>
      </trkpt>
      <trkpt lat="42.23435" lon="2.94093">
        <ele>61.58</ele>
        <time>2024-09-25T07:24:06.999Z</time>
      </trkpt>
      <trkpt lat="42.23414" lon="2.94075">
        <ele>61.67</ele>
        <time>2024-09-25T07:24:11.999Z</time>
      </trkpt>
      <trkpt lat="42.23394" lon="2.94056">
        <ele>61.79</ele>
        <time>2024-09-25T07:24:16.999Z</time>
      </trkpt>
      <trkpt lat="42.23374" lon="2.94038">
        <ele>61.95</ele>
        <time>2024-09-25T07:24:21.999Z</time>
      </trkpt>
      <trkpt lat="42.23354" lon="2.9402">
        <ele>62.12</ele>
        <time>2024-09-25T07:24:26.999Z</time>
      </trkpt>
      <trkpt lat="42.23336" lon="2.94">
        <ele>62.27</ele>
        <time>2024-09-25T07:24:31.999Z</time>
      </trkpt>
      <trkpt lat="42.23319" lon="2.93977">
        <ele>62.35</ele>
        <time>2024-09-25T07:24:36.999Z</time>
      </trkpt>
      <trkpt lat="42.23302" lon="2.93953">
        <ele>62.48</ele>
        <time>2024-09-25T07:24:41.999Z</time>
      </trkpt>
      <trkpt lat="42.23284" lon="2.93928">
        <ele>62.63</ele>
        <time>2024-09-25T07:24:46.999Z</time>
      </trkpt>
      <trkpt lat="42.23267" lon="2.93906">
        <ele>62.76</ele>
        <time>2024-09-25T07:24:51.999Z</time>
      </trkpt>
      <trkpt lat="42.23252" lon="2.93886">
        <ele>62.85</ele>
        <time>2024-09-25T07:24:56.999Z</time>
      </trkpt>
      <trkpt lat="42.2324" lon="2.93864">
        <ele>62.92</ele>
        <time>2024-09-25T07:25:01.999Z</time>
      </trkpt>
      <trkpt lat="42.23232" lon="2.93843">
        <ele>62.96</ele>
        <time>2024-09-25T07:25:06.999Z</time>
      </trkpt>
      <trkpt lat="42.23228" lon="2.93829">
        <ele>62.99</ele>
        <time>2024-09-25T07:25:11.999Z</time>
      </trkpt>
      <trkpt lat="42.23224" lon="2.93816">
        <ele>63.04</ele>
        <time>2024-09-25T07:25:17.999Z</time>
      </trkpt>
      <trkpt lat="42.23221" lon="2.93803">
        <ele>63.1</ele>
        <time>2024-09-25T07:25:22.999Z</time>
      </trkpt>
      <trkpt lat="42.23219" lon="2.93789">
        <ele>63.16</ele>
        <time>2024-09-25T07:25:27.999Z</time>
      </trkpt>
      <trkpt lat="42.23217" lon="2.93776">
        <ele>63.22</ele>
        <time>2024-09-25T07:25:32.999Z</time>
      </trkpt>
      <trkpt lat="42.23216" lon="2.93761">
        <ele>63.28</ele>
        <time>2024-09-25T07:25:37.999Z</time>
      </trkpt>
      <trkpt lat="42.23215" lon="2.93747">
        <ele>63.35</ele>
        <time>2024-09-25T07:25:42.999Z</time>
      </trkpt>
      <trkpt lat="42.23215" lon="2.93733">
        <ele>63.41</ele>
        <time>2024-09-25T07:25:47.999Z</time>
      </trkpt>
      <trkpt lat="42.23213" lon="2.93719">
        <ele>63.48</ele>
        <time>2024-09-25T07:25:52.999Z</time>
      </trkpt>
      <trkpt lat="42.23211" lon="2.93704">
        <ele>63.56</ele>
        <time>2024-09-25T07:25:57.999Z</time>
      </trkpt>
      <trkpt lat="42.2321" lon="2.93687">
        <ele>63.63</ele>
        <time>2024-09-25T07:26:02.999Z</time>
      </trkpt>
      <trkpt lat="42.23208" lon="2.93669">
        <ele>63.71</ele>
        <time>2024-09-25T07:26:07.999Z</time>
      </trkpt>
      <trkpt lat="42.23206" lon="2.93647">
        <ele>63.9</ele>
        <time>2024-09-25T07:26:12.999Z</time>
      </trkpt>
      <trkpt lat="42.23199" lon="2.93617">
        <ele>64.37</ele>
        <time>2024-09-25T07:26:17.999Z</time>
      </trkpt>
      <trkpt lat="42.23182" lon="2.93582">
        <ele>64.61</ele>
        <time>2024-09-25T07:26:23.000Z</time>
      </trkpt>
      <trkpt lat="42.23155" lon="2.93543">
        <ele>64.77</ele>
        <time>2024-09-25T07:26:28.000Z</time>
      </trkpt>
      <trkpt lat="42.23128" lon="2.93504">
        <ele>65.05</ele>
        <time>2024-09-25T07:26:33.000Z</time>
      </trkpt>
      <trkpt lat="42.23105" lon="2.93469">
        <ele>65.52</ele>
        <time>2024-09-25T07:26:38.000Z</time>
      </trkpt>
      <trkpt lat="42.23084" lon="2.9344">
        <ele>65.91</ele>
        <time>2024-09-25T07:26:43.000Z</time>
      </trkpt>
      <trkpt lat="42.23064" lon="2.93417">
        <ele>66.2</ele>
        <time>2024-09-25T07:26:48.000Z</time>
      </trkpt>
      <trkpt lat="42.23047" lon="2.93396">
        <ele>66.35</ele>
        <time>2024-09-25T07:26:53.000Z</time>
      </trkpt>
      <trkpt lat="42.23031" lon="2.93376">
        <ele>66.46</ele>
        <time>2024-09-25T07:26:58.000Z</time>
      </trkpt>
      <trkpt lat="42.23016" lon="2.93358">
        <ele>66.5</ele>
        <time>2024-09-25T07:27:03.000Z</time>
      </trkpt>
      <trkpt lat="42.23001" lon="2.9334">
        <ele>66.54</ele>
        <time>2024-09-25T07:27:08.000Z</time>
      </trkpt>
      <trkpt lat="42.22989" lon="2.93326">
        <ele>66.57</ele>
        <time>2024-09-25T07:27:13.000Z</time>
      </trkpt>
      <trkpt lat="42.22979" lon="2.93311">
        <ele>66.58</ele>
        <time>2024-09-25T07:27:18.000Z</time>
      </trkpt>
      <trkpt lat="42.22987" lon="2.93304">
        <ele>66.69</ele>
        <time>2024-09-25T07:27:37.000Z</time>
      </trkpt>
      <trkpt lat="42.23006" lon="2.93298">
        <ele>67.07</ele>
        <time>2024-09-25T07:27:42.000Z</time>
      </trkpt>
      <trkpt lat="42.23021" lon="2.93287">
        <ele>67.2</ele>
        <time>2024-09-25T07:27:47.000Z</time>
      </trkpt>
      <trkpt lat="42.23018" lon="2.93272">
        <ele>67.3</ele>
        <time>2024-09-25T07:27:52.000Z</time>
      </trkpt>
      <trkpt lat="42.23" lon="2.9327">
        <ele>67.41</ele>
        <time>2024-09-25T07:27:57.000Z</time>
      </trkpt>
      <trkpt lat="42.22984" lon="2.93265">
        <ele>67.53</ele>
        <time>2024-09-25T07:28:02.000Z</time>
      </trkpt>
      <trkpt lat="42.22968" lon="2.93261">
        <ele>67.64</ele>
        <time>2024-09-25T07:28:07.000Z</time>
      </trkpt>
      <trkpt lat="42.22953" lon="2.93257">
        <ele>67.75</ele>
        <time>2024-09-25T07:28:12.000Z</time>
      </trkpt>
      <trkpt lat="42.22937" lon="2.93253">
        <ele>67.87</ele>
        <time>2024-09-25T07:28:17.000Z</time>
      </trkpt>
      <trkpt lat="42.22919" lon="2.93248">
        <ele>67.98</ele>
        <time>2024-09-25T07:28:22.000Z</time>
      </trkpt>
      <trkpt lat="42.22903" lon="2.93244">
        <ele>68.06</ele>
        <time>2024-09-25T07:28:27.000Z</time>
      </trkpt>
      <trkpt lat="42.22888" lon="2.93239">
        <ele>68.12</ele>
        <time>2024-09-25T07:28:32.000Z</time>
      </trkpt>
      <trkpt lat="42.2287" lon="2.93234">
        <ele>68.23</ele>
        <time>2024-09-25T07:28:37.000Z</time>
      </trkpt>
      <trkpt lat="42.2285" lon="2.93228">
        <ele>68.57</ele>
        <time>2024-09-25T07:28:42.000Z</time>
      </trkpt>
      <trkpt lat="42.22834" lon="2.93223">
        <ele>68.64</ele>
        <time>2024-09-25T07:28:47.000Z</time>
      </trkpt>
      <trkpt lat="42.22816" lon="2.93217">
        <ele>68.7</ele>
        <time>2024-09-25T07:28:52.000Z</time>
      </trkpt>
      <trkpt lat="42.22798" lon="2.93211">
        <ele>68.77</ele>
        <time>2024-09-25T07:28:57.000Z</time>
      </trkpt>
      <trkpt lat="42.22782" lon="2.93205">
        <ele>68.86</ele>
        <time>2024-09-25T07:29:02.000Z</time>
      </trkpt>
      <trkpt lat="42.22766" lon="2.93199">
        <ele>68.99</ele>
        <time>2024-09-25T07:29:07.000Z</time>
      </trkpt>
      <trkpt lat="42.22752" lon="2.93194">
        <ele>69.13</ele>
        <time>2024-09-25T07:29:12.000Z</time>
      </trkpt>
      <trkpt lat="42.22737" lon="2.93189">
        <ele>69.29</ele>
        <time>2024-09-25T07:29:17.000Z</time>
      </trkpt>
      <trkpt lat="42.22722" lon="2.93183">
        <ele>69.48</ele>
        <time>2024-09-25T07:29:22.000Z</time>
      </trkpt>
      <trkpt lat="42.22707" lon="2.93177">
        <ele>69.7</ele>
        <time>2024-09-25T07:29:27.000Z</time>
      </trkpt>
      <trkpt lat="42.22692" lon="2.93172">
        <ele>69.93</ele>
        <time>2024-09-25T07:29:32.000Z</time>
      </trkpt>
      <trkpt lat="42.22678" lon="2.93166">
        <ele>70.18</ele>
        <time>2024-09-25T07:29:37.000Z</time>
      </trkpt>
      <trkpt lat="42.22663" lon="2.93161">
        <ele>70.44</ele>
        <time>2024-09-25T07:29:42.000Z</time>
      </trkpt>
      <trkpt lat="42.22649" lon="2.93155">
        <ele>70.71</ele>
        <time>2024-09-25T07:29:47.000Z</time>
      </trkpt>
      <trkpt lat="42.22635" lon="2.93146">
        <ele>70.98</ele>
        <time>2024-09-25T07:29:52.000Z</time>
      </trkpt>
      <trkpt lat="42.22622" lon="2.93134">
        <ele>71.25</ele>
        <time>2024-09-25T07:29:57.000Z</time>
      </trkpt>
      <trkpt lat="42.2261" lon="2.9312">
        <ele>71.51</ele>
        <time>2024-09-25T07:30:02.000Z</time>
      </trkpt>
      <trkpt lat="42.226" lon="2.93105">
        <ele>71.76</ele>
        <time>2024-09-25T07:30:07.000Z</time>
      </trkpt>
      <trkpt lat="42.22591" lon="2.93087">
        <ele>72</ele>
        <time>2024-09-25T07:30:12.000Z</time>
      </trkpt>
      <trkpt lat="42.22582" lon="2.93068">
        <ele>72.23</ele>
        <time>2024-09-25T07:30:17.000Z</time>
      </trkpt>
      <trkpt lat="42.22573" lon="2.93049">
        <ele>72.47</ele>
        <time>2024-09-25T07:30:22.000Z</time>
      </trkpt>
      <trkpt lat="42.22561" lon="2.93032">
        <ele>72.74</ele>
        <time>2024-09-25T07:30:27.000Z</time>
      </trkpt>
      <trkpt lat="42.22547" lon="2.93016">
        <ele>73.37</ele>
        <time>2024-09-25T07:30:32.000Z</time>
      </trkpt>
      <trkpt lat="42.22531" lon="2.92999">
        <ele>74.88</ele>
        <time>2024-09-25T07:30:37.000Z</time>
      </trkpt>
      <trkpt lat="42.22517" lon="2.92983">
        <ele>74.99</ele>
        <time>2024-09-25T07:30:42.000Z</time>
      </trkpt>
      <trkpt lat="42.22503" lon="2.92967">
        <ele>75.38</ele>
        <time>2024-09-25T07:30:47.000Z</time>
      </trkpt>
      <trkpt lat="42.22487" lon="2.92951">
        <ele>75.58</ele>
        <time>2024-09-25T07:30:52.000Z</time>
      </trkpt>
      <trkpt lat="42.22478" lon="2.92931">
        <ele>75.63</ele>
        <time>2024-09-25T07:30:57.000Z</time>
      </trkpt>
      <trkpt lat="42.22474" lon="2.92913">
        <ele>75.69</ele>
        <time>2024-09-25T07:31:02.000Z</time>
      </trkpt>
      <trkpt lat="42.22466" lon="2.92901">
        <ele>75.77</ele>
        <time>2024-09-25T07:31:07.000Z</time>
      </trkpt>
      <trkpt lat="42.22468" lon="2.92916">
        <ele>75.89</ele>
        <time>2024-09-25T07:31:15.000Z</time>
      </trkpt>
      <trkpt lat="42.22462" lon="2.9293">
        <ele>75.95</ele>
        <time>2024-09-25T07:31:20.000Z</time>
      </trkpt>
      <trkpt lat="42.22449" lon="2.92924">
        <ele>76.02</ele>
        <time>2024-09-25T07:31:25.000Z</time>
      </trkpt>
      <trkpt lat="42.22436" lon="2.92914">
        <ele>76.07</ele>
        <time>2024-09-25T07:31:30.000Z</time>
      </trkpt>
      <trkpt lat="42.22424" lon="2.92902">
        <ele>76.13</ele>
        <time>2024-09-25T07:31:35.000Z</time>
      </trkpt>
      <trkpt lat="42.2241" lon="2.92891">
        <ele>76.18</ele>
        <time>2024-09-25T07:31:40.000Z</time>
      </trkpt>
      <trkpt lat="42.22396" lon="2.92879">
        <ele>76.23</ele>
        <time>2024-09-25T07:31:45.000Z</time>
      </trkpt>
      <trkpt lat="42.22382" lon="2.92864">
        <ele>76.28</ele>
        <time>2024-09-25T07:31:50.000Z</time>
      </trkpt>
      <trkpt lat="42.22375" lon="2.92844">
        <ele>76.33</ele>
        <time>2024-09-25T07:31:55.000Z</time>
      </trkpt>
      <trkpt lat="42.22372" lon="2.92822">
        <ele>76.38</ele>
        <time>2024-09-25T07:32:00.000Z</time>
      </trkpt>
      <trkpt lat="42.22367" lon="2.92802">
        <ele>76.43</ele>
        <time>2024-09-25T07:32:05.000Z</time>
      </trkpt>
      <trkpt lat="42.22362" lon="2.92782">
        <ele>76.48</ele>
        <time>2024-09-25T07:32:10.000Z</time>
      </trkpt>
      <trkpt lat="42.22356" lon="2.92764">
        <ele>76.52</ele>
        <time>2024-09-25T07:32:15.000Z</time>
      </trkpt>
      <trkpt lat="42.22352" lon="2.92735">
        <ele>76.57</ele>
        <time>2024-09-25T07:32:20.000Z</time>
      </trkpt>
      <trkpt lat="42.22348" lon="2.92712">
        <ele>76.61</ele>
        <time>2024-09-25T07:32:25.000Z</time>
      </trkpt>
      <trkpt lat="42.22343" lon="2.92691">
        <ele>76.65</ele>
        <time>2024-09-25T07:32:30.000Z</time>
      </trkpt>
      <trkpt lat="42.22341" lon="2.92669">
        <ele>76.73</ele>
        <time>2024-09-25T07:32:35.000Z</time>
      </trkpt>
      <trkpt lat="42.22341" lon="2.92651">
        <ele>76.84</ele>
        <time>2024-09-25T07:32:40.000Z</time>
      </trkpt>
      <trkpt lat="42.22343" lon="2.92635">
        <ele>76.97</ele>
        <time>2024-09-25T07:32:45.000Z</time>
      </trkpt>
      <trkpt lat="42.22338" lon="2.92646">
        <ele>77.18</ele>
        <time>2024-09-25T07:32:53.000Z</time>
      </trkpt>
      <trkpt lat="42.22335" lon="2.92659">
        <ele>77.32</ele>
        <time>2024-09-25T07:32:58.000Z</time>
      </trkpt>
      <trkpt lat="42.22333" lon="2.92675">
        <ele>77.46</ele>
        <time>2024-09-25T07:33:03.000Z</time>
      </trkpt>
      <trkpt lat="42.2232" lon="2.92678">
        <ele>77.6</ele>
        <time>2024-09-25T07:33:08.000Z</time>
      </trkpt>
      <trkpt lat="42.22309" lon="2.9267">
        <ele>77.73</ele>
        <time>2024-09-25T07:33:13.000Z</time>
      </trkpt>
      <trkpt lat="42.22296" lon="2.92655">
        <ele>77.87</ele>
        <time>2024-09-25T07:33:18.000Z</time>
      </trkpt>
      <trkpt lat="42.22288" lon="2.92636">
        <ele>77.99</ele>
        <time>2024-09-25T07:33:23.000Z</time>
      </trkpt>
      <trkpt lat="42.2228" lon="2.92617">
        <ele>78.1</ele>
        <time>2024-09-25T07:33:28.000Z</time>
      </trkpt>
      <trkpt lat="42.22268" lon="2.92607">
        <ele>78.2</ele>
        <time>2024-09-25T07:33:33.000Z</time>
      </trkpt>
      <trkpt lat="42.22252" lon="2.92605">
        <ele>78.3</ele>
        <time>2024-09-25T07:33:38.000Z</time>
      </trkpt>
      <trkpt lat="42.22231" lon="2.92598">
        <ele>79.05</ele>
        <time>2024-09-25T07:33:43.000Z</time>
      </trkpt>
      <trkpt lat="42.22212" lon="2.92587">
        <ele>79.21</ele>
        <time>2024-09-25T07:33:48.000Z</time>
      </trkpt>
      <trkpt lat="42.222" lon="2.92582">
        <ele>79.21</ele>
        <time>2024-09-25T07:33:53.000Z</time>
      </trkpt>
      <trkpt lat="42.22194" lon="2.9257">
        <ele>79.21</ele>
        <time>2024-09-25T07:33:59.000Z</time>
      </trkpt>
      <trkpt lat="42.2219" lon="2.9255">
        <ele>79.21</ele>
        <time>2024-09-25T07:34:04.000Z</time>
      </trkpt>
      <trkpt lat="42.22189" lon="2.92525">
        <ele>79.21</ele>
        <time>2024-09-25T07:34:09.000Z</time>
      </trkpt>
      <trkpt lat="42.22188" lon="2.92499">
        <ele>79.21</ele>
        <time>2024-09-25T07:34:14.000Z</time>
      </trkpt>
      <trkpt lat="42.22186" lon="2.92473">
        <ele>79.23</ele>
        <time>2024-09-25T07:34:19.000Z</time>
      </trkpt>
      <trkpt lat="42.22182" lon="2.92449">
        <ele>79.25</ele>
        <time>2024-09-25T07:34:24.000Z</time>
      </trkpt>
      <trkpt lat="42.22178" lon="2.92429">
        <ele>79.26</ele>
        <time>2024-09-25T07:34:29.000Z</time>
      </trkpt>
      <trkpt lat="42.22173" lon="2.92403">
        <ele>79.44</ele>
        <time>2024-09-25T07:34:34.000Z</time>
      </trkpt>
      <trkpt lat="42.22166" lon="2.92378">
        <ele>79.61</ele>
        <time>2024-09-25T07:34:39.000Z</time>
      </trkpt>
      <trkpt lat="42.2216" lon="2.92355">
        <ele>79.68</ele>
        <time>2024-09-25T07:34:44.000Z</time>
      </trkpt>
      <trkpt lat="42.22153" lon="2.92333">
        <ele>79.71</ele>
        <time>2024-09-25T07:34:49.000Z</time>
      </trkpt>
      <trkpt lat="42.22144" lon="2.92308">
        <ele>79.94</ele>
        <time>2024-09-25T07:34:54.000Z</time>
      </trkpt>
      <trkpt lat="42.22135" lon="2.92286">
        <ele>80.06</ele>
        <time>2024-09-25T07:34:59.000Z</time>
      </trkpt>
      <trkpt lat="42.22126" lon="2.92262">
        <ele>80.82</ele>
        <time>2024-09-25T07:35:04.000Z</time>
      </trkpt>
      <trkpt lat="42.22116" lon="2.9224">
        <ele>81.09</ele>
        <time>2024-09-25T07:35:09.000Z</time>
      </trkpt>
      <trkpt lat="42.22106" lon="2.92217">
        <ele>81.71</ele>
        <time>2024-09-25T07:35:14.000Z</time>
      </trkpt>
      <trkpt lat="42.22096" lon="2.92197">
        <ele>81.91</ele>
        <time>2024-09-25T07:35:19.000Z</time>
      </trkpt>
      <trkpt lat="42.22085" lon="2.92174">
        <ele>82.51</ele>
        <time>2024-09-25T07:35:24.000Z</time>
      </trkpt>
      <trkpt lat="42.22074" lon="2.92154">
        <ele>82.73</ele>
        <time>2024-09-25T07:35:29.000Z</time>
      </trkpt>
      <trkpt lat="42.22063" lon="2.92131">
        <ele>83.9</ele>
        <time>2024-09-25T07:35:34.000Z</time>
      </trkpt>
      <trkpt lat="42.22053" lon="2.92109">
        <ele>84.34</ele>
        <time>2024-09-25T07:35:39.000Z</time>
      </trkpt>
      <trkpt lat="42.22046" lon="2.92089">
        <ele>84.42</ele>
        <time>2024-09-25T07:35:44.000Z</time>
      </trkpt>
      <trkpt lat="42.22039" lon="2.9207">
        <ele>84.52</ele>
        <time>2024-09-25T07:35:49.000Z</time>
      </trkpt>
      <trkpt lat="42.22035" lon="2.92052">
        <ele>84.62</ele>
        <time>2024-09-25T07:35:54.000Z</time>
      </trkpt>
      <trkpt lat="42.22029" lon="2.92032">
        <ele>84.72</ele>
        <time>2024-09-25T07:35:59.000Z</time>
      </trkpt>
      <trkpt lat="42.22023" lon="2.92016">
        <ele>84.82</ele>
        <time>2024-09-25T07:36:04.000Z</time>
      </trkpt>
      <trkpt lat="42.22018" lon="2.91999">
        <ele>84.94</ele>
        <time>2024-09-25T07:36:09.000Z</time>
      </trkpt>
      <trkpt lat="42.22013" lon="2.91982">
        <ele>85.07</ele>
        <time>2024-09-25T07:36:14.000Z</time>
      </trkpt>
      <trkpt lat="42.22009" lon="2.91967">
        <ele>85.2</ele>
        <time>2024-09-25T07:36:19.000Z</time>
      </trkpt>
      <trkpt lat="42.22006" lon="2.91951">
        <ele>85.35</ele>
        <time>2024-09-25T07:36:24.000Z</time>
      </trkpt>
      <trkpt lat="42.22002" lon="2.91935">
        <ele>85.51</ele>
        <time>2024-09-25T07:36:29.000Z</time>
      </trkpt>
      <trkpt lat="42.21998" lon="2.9192">
        <ele>85.68</ele>
        <time>2024-09-25T07:36:34.000Z</time>
      </trkpt>
      <trkpt lat="42.21994" lon="2.91905">
        <ele>85.87</ele>
        <time>2024-09-25T07:36:39.000Z</time>
      </trkpt>
      <trkpt lat="42.2199" lon="2.91891">
        <ele>86.07</ele>
        <time>2024-09-25T07:36:44.000Z</time>
      </trkpt>
      <trkpt lat="42.21987" lon="2.91876">
        <ele>86.28</ele>
        <time>2024-09-25T07:36:49.000Z</time>
      </trkpt>
      <trkpt lat="42.21982" lon="2.91861">
        <ele>86.51</ele>
        <time>2024-09-25T07:36:54.000Z</time>
      </trkpt>
      <trkpt lat="42.21976" lon="2.91847">
        <ele>86.75</ele>
        <time>2024-09-25T07:36:59.000Z</time>
      </trkpt>
      <trkpt lat="42.21971" lon="2.91832">
        <ele>87</ele>
        <time>2024-09-25T07:37:04.000Z</time>
      </trkpt>
      <trkpt lat="42.21965" lon="2.91818">
        <ele>87.25</ele>
        <time>2024-09-25T07:37:09.000Z</time>
      </trkpt>
      <trkpt lat="42.2196" lon="2.91803">
        <ele>87.52</ele>
        <time>2024-09-25T07:37:14.000Z</time>
      </trkpt>
      <trkpt lat="42.2196" lon="2.91785">
        <ele>87.79</ele>
        <time>2024-09-25T07:37:19.000Z</time>
      </trkpt>
      <trkpt lat="42.21964" lon="2.91767">
        <ele>88.07</ele>
        <time>2024-09-25T07:37:24.000Z</time>
      </trkpt>
      <trkpt lat="42.21964" lon="2.9175">
        <ele>88.37</ele>
        <time>2024-09-25T07:37:29.000Z</time>
      </trkpt>
      <trkpt lat="42.21958" lon="2.91731">
        <ele>88.68</ele>
        <time>2024-09-25T07:37:34.000Z</time>
      </trkpt>
      <trkpt lat="42.21945" lon="2.91714">
        <ele>88.99</ele>
        <time>2024-09-25T07:37:39.000Z</time>
      </trkpt>
      <trkpt lat="42.21931" lon="2.91706">
        <ele>89.3</ele>
        <time>2024-09-25T07:37:44.000Z</time>
      </trkpt>
      <trkpt lat="42.21924" lon="2.91696">
        <ele>92.61</ele>
        <time>2024-09-25T07:40:25.999Z</time>
      </trkpt>
      <trkpt lat="42.21919" lon="2.91677">
        <ele>93.02</ele>
        <time>2024-09-25T07:40:30.999Z</time>
      </trkpt>
      <trkpt lat="42.21915" lon="2.91653">
        <ele>95.26</ele>
        <time>2024-09-25T07:40:35.999Z</time>
      </trkpt>
      <trkpt lat="42.21908" lon="2.91626">
        <ele>96.48</ele>
        <time>2024-09-25T07:40:40.999Z</time>
      </trkpt>
      <trkpt lat="42.21898" lon="2.916">
        <ele>96.97</ele>
        <time>2024-09-25T07:40:45.999Z</time>
      </trkpt>
      <trkpt lat="42.21888" lon="2.91573">
        <ele>97.23</ele>
        <time>2024-09-25T07:40:50.999Z</time>
      </trkpt>
      <trkpt lat="42.21878" lon="2.91548">
        <ele>97.4</ele>
        <time>2024-09-25T07:40:55.999Z</time>
      </trkpt>
      <trkpt lat="42.21869" lon="2.91523">
        <ele>97.59</ele>
        <time>2024-09-25T07:41:00.999Z</time>
      </trkpt>
      <trkpt lat="42.2186" lon="2.915">
        <ele>97.74</ele>
        <time>2024-09-25T07:41:05.999Z</time>
      </trkpt>
      <trkpt lat="42.21852" lon="2.91477">
        <ele>97.8</ele>
        <time>2024-09-25T07:41:10.999Z</time>
      </trkpt>
      <trkpt lat="42.21846" lon="2.91454">
        <ele>97.87</ele>
        <time>2024-09-25T07:41:15.999Z</time>
      </trkpt>
      <trkpt lat="42.21842" lon="2.91429">
        <ele>97.97</ele>
        <time>2024-09-25T07:41:20.999Z</time>
      </trkpt>
      <trkpt lat="42.2184" lon="2.91405">
        <ele>98.12</ele>
        <time>2024-09-25T07:41:25.999Z</time>
      </trkpt>
      <trkpt lat="42.2184" lon="2.91381">
        <ele>98.29</ele>
        <time>2024-09-25T07:41:30.999Z</time>
      </trkpt>
      <trkpt lat="42.21842" lon="2.91357">
        <ele>99.24</ele>
        <time>2024-09-25T07:41:35.999Z</time>
      </trkpt>
      <trkpt lat="42.21845" lon="2.91328">
        <ele>100.09</ele>
        <time>2024-09-25T07:41:40.999Z</time>
      </trkpt>
      <trkpt lat="42.21849" lon="2.91295">
        <ele>100.49</ele>
        <time>2024-09-25T07:41:45.999Z</time>
      </trkpt>
      <trkpt lat="42.21853" lon="2.9126">
        <ele>100.71</ele>
        <time>2024-09-25T07:41:50.999Z</time>
      </trkpt>
      <trkpt lat="42.21854" lon="2.91224">
        <ele>100.88</ele>
        <time>2024-09-25T07:41:55.999Z</time>
      </trkpt>
      <trkpt lat="42.21852" lon="2.91187">
        <ele>101.09</ele>
        <time>2024-09-25T07:42:00.999Z</time>
      </trkpt>
      <trkpt lat="42.21851" lon="2.91151">
        <ele>101.34</ele>
        <time>2024-09-25T07:42:05.999Z</time>
      </trkpt>
      <trkpt lat="42.21847" lon="2.91118">
        <ele>101.71</ele>
        <time>2024-09-25T07:42:10.999Z</time>
      </trkpt>
      <trkpt lat="42.21845" lon="2.9109">
        <ele>102.05</ele>
        <time>2024-09-25T07:42:15.999Z</time>
      </trkpt>
      <trkpt lat="42.21842" lon="2.91059">
        <ele>102.35</ele>
        <time>2024-09-25T07:42:20.999Z</time>
      </trkpt>
      <trkpt lat="42.21836" lon="2.91028">
        <ele>102.59</ele>
        <time>2024-09-25T07:42:25.999Z</time>
      </trkpt>
      <trkpt lat="42.21825" lon="2.90996">
        <ele>102.82</ele>
        <time>2024-09-25T07:42:30.999Z</time>
      </trkpt>
      <trkpt lat="42.21817" lon="2.90968">
        <ele>102.97</ele>
        <time>2024-09-25T07:42:35.999Z</time>
      </trkpt>
      <trkpt lat="42.21812" lon="2.90943">
        <ele>103.14</ele>
        <time>2024-09-25T07:42:40.999Z</time>
      </trkpt>
      <trkpt lat="42.21806" lon="2.90916">
        <ele>103.37</ele>
        <time>2024-09-25T07:42:45.999Z</time>
      </trkpt>
      <trkpt lat="42.21802" lon="2.9089">
        <ele>103.59</ele>
        <time>2024-09-25T07:42:50.999Z</time>
      </trkpt>
      <trkpt lat="42.21798" lon="2.90864">
        <ele>103.79</ele>
        <time>2024-09-25T07:42:55.999Z</time>
      </trkpt>
      <trkpt lat="42.21794" lon="2.90836">
        <ele>104.02</ele>
        <time>2024-09-25T07:43:00.999Z</time>
      </trkpt>
      <trkpt lat="42.21789" lon="2.90806">
        <ele>104.26</ele>
        <time>2024-09-25T07:43:05.999Z</time>
      </trkpt>
      <trkpt lat="42.21792" lon="2.90778">
        <ele>104.47</ele>
        <time>2024-09-25T07:43:10.999Z</time>
      </trkpt>
      <trkpt lat="42.21799" lon="2.90747">
        <ele>104.62</ele>
        <time>2024-09-25T07:43:15.999Z</time>
      </trkpt>
      <trkpt lat="42.21811" lon="2.90726">
        <ele>104.64</ele>
        <time>2024-09-25T07:43:20.999Z</time>
      </trkpt>
      <trkpt lat="42.2181" lon="2.90711">
        <ele>104.67</ele>
        <time>2024-09-25T07:43:25.999Z</time>
      </trkpt>
      <trkpt lat="42.21808" lon="2.90698">
        <ele>104.7</ele>
        <time>2024-09-25T07:43:33.999Z</time>
      </trkpt>
      <trkpt lat="42.21808" lon="2.90684">
        <ele>104.72</ele>
        <time>2024-09-25T07:43:39.999Z</time>
      </trkpt>
      <trkpt lat="42.21811" lon="2.90671">
        <ele>104.73</ele>
        <time>2024-09-25T07:43:44.999Z</time>
      </trkpt>
      <trkpt lat="42.21805" lon="2.90682">
        <ele>104.77</ele>
        <time>2024-09-25T07:43:52.999Z</time>
      </trkpt>
      <trkpt lat="42.21808" lon="2.90697">
        <ele>104.79</ele>
        <time>2024-09-25T07:43:57.999Z</time>
      </trkpt>
      <trkpt lat="42.21811" lon="2.9071">
        <ele>104.82</ele>
        <time>2024-09-25T07:44:02.999Z</time>
      </trkpt>
      <trkpt lat="42.2182" lon="2.90707">
        <ele>104.84</ele>
        <time>2024-09-25T07:44:07.999Z</time>
      </trkpt>
      <trkpt lat="42.21831" lon="2.90703">
        <ele>104.85</ele>
        <time>2024-09-25T07:44:12.999Z</time>
      </trkpt>
      <trkpt lat="42.2184" lon="2.90698">
        <ele>104.87</ele>
        <time>2024-09-25T07:44:17.999Z</time>
      </trkpt>
      <trkpt lat="42.21851" lon="2.90685">
        <ele>104.88</ele>
        <time>2024-09-25T07:44:22.999Z</time>
      </trkpt>
      <trkpt lat="42.21854" lon="2.90672">
        <ele>104.89</ele>
        <time>2024-09-25T07:44:27.999Z</time>
      </trkpt>
      <trkpt lat="42.21856" lon="2.9066">
        <ele>104.97</ele>
        <time>2024-09-25T07:44:56.999Z</time>
      </trkpt>
      <trkpt lat="42.21856" lon="2.90644">
        <ele>105.05</ele>
        <time>2024-09-25T07:45:07.999Z</time>
      </trkpt>
      <trkpt lat="42.21857" lon="2.90622">
        <ele>105.09</ele>
        <time>2024-09-25T07:45:12.999Z</time>
      </trkpt>
      <trkpt lat="42.21861" lon="2.90605">
        <ele>105.12</ele>
        <time>2024-09-25T07:45:17.999Z</time>
      </trkpt>
      <trkpt lat="42.21865" lon="2.9059">
        <ele>105.16</ele>
        <time>2024-09-25T07:45:22.999Z</time>
      </trkpt>
      <trkpt lat="42.21869" lon="2.90575">
        <ele>105.2</ele>
        <time>2024-09-25T07:45:27.999Z</time>
      </trkpt>
      <trkpt lat="42.21874" lon="2.90561">
        <ele>105.24</ele>
        <time>2024-09-25T07:45:32.999Z</time>
      </trkpt>
      <trkpt lat="42.21878" lon="2.90544">
        <ele>105.28</ele>
        <time>2024-09-25T07:45:37.999Z</time>
      </trkpt>
      <trkpt lat="42.21884" lon="2.90527">
        <ele>105.32</ele>
        <time>2024-09-25T07:45:42.999Z</time>
      </trkpt>
      <trkpt lat="42.21888" lon="2.90513">
        <ele>105.37</ele>
        <time>2024-09-25T07:45:47.999Z</time>
      </trkpt>
      <trkpt lat="42.21892" lon="2.90502">
        <ele>105.43</ele>
        <time>2024-09-25T07:45:52.999Z</time>
      </trkpt>
      <trkpt lat="42.21893" lon="2.90489">
        <ele>105.68</ele>
        <time>2024-09-25T07:46:18.999Z</time>
      </trkpt>
      <trkpt lat="42.21894" lon="2.90467">
        <ele>105.86</ele>
        <time>2024-09-25T07:46:23.999Z</time>
      </trkpt>
      <trkpt lat="42.21897" lon="2.9045">
        <ele>106.04</ele>
        <time>2024-09-25T07:46:28.999Z</time>
      </trkpt>
      <trkpt lat="42.21902" lon="2.90437">
        <ele>106.22</ele>
        <time>2024-09-25T07:46:33.999Z</time>
      </trkpt>
      <trkpt lat="42.21909" lon="2.90427">
        <ele>106.39</ele>
        <time>2024-09-25T07:46:38.999Z</time>
      </trkpt>
      <trkpt lat="42.21919" lon="2.90414">
        <ele>106.57</ele>
        <time>2024-09-25T07:46:43.999Z</time>
      </trkpt>
      <trkpt lat="42.21932" lon="2.90401">
        <ele>106.74</ele>
        <time>2024-09-25T07:46:48.999Z</time>
      </trkpt>
      <trkpt lat="42.21945" lon="2.90386">
        <ele>106.92</ele>
        <time>2024-09-25T07:46:53.999Z</time>
      </trkpt>
      <trkpt lat="42.21956" lon="2.90373">
        <ele>107.11</ele>
        <time>2024-09-25T07:46:58.999Z</time>
      </trkpt>
      <trkpt lat="42.21967" lon="2.90356">
        <ele>107.29</ele>
        <time>2024-09-25T07:47:03.999Z</time>
      </trkpt>
      <trkpt lat="42.21979" lon="2.90339">
        <ele>107.46</ele>
        <time>2024-09-25T07:47:08.999Z</time>
      </trkpt>
      <trkpt lat="42.2199" lon="2.90325">
        <ele>107.65</ele>
        <time>2024-09-25T07:47:13.999Z</time>
      </trkpt>
      <trkpt lat="42.21999" lon="2.90311">
        <ele>107.83</ele>
        <time>2024-09-25T07:47:18.999Z</time>
      </trkpt>
      <trkpt lat="42.22007" lon="2.90297">
        <ele>108</ele>
        <time>2024-09-25T07:47:23.999Z</time>
      </trkpt>
      <trkpt lat="42.22015" lon="2.90281">
        <ele>108.17</ele>
        <time>2024-09-25T07:47:28.999Z</time>
      </trkpt>
      <trkpt lat="42.22021" lon="2.90268">
        <ele>108.32</ele>
        <time>2024-09-25T07:47:33.999Z</time>
      </trkpt>
      <trkpt lat="42.22027" lon="2.90249">
        <ele>108.45</ele>
        <time>2024-09-25T07:47:38.999Z</time>
      </trkpt>
      <trkpt lat="42.22033" lon="2.9023">
        <ele>108.56</ele>
        <time>2024-09-25T07:47:43.999Z</time>
      </trkpt>
      <trkpt lat="42.22039" lon="2.90216">
        <ele>108.67</ele>
        <time>2024-09-25T07:47:48.999Z</time>
      </trkpt>
      <trkpt lat="42.22045" lon="2.90207">
        <ele>108.88</ele>
        <time>2024-09-25T07:47:58.999Z</time>
      </trkpt>
      <trkpt lat="42.22054" lon="2.90202">
        <ele>109.3</ele>
        <time>2024-09-25T07:48:26.999Z</time>
      </trkpt>
      <trkpt lat="42.22061" lon="2.9019">
        <ele>109.38</ele>
        <time>2024-09-25T07:48:31.999Z</time>
      </trkpt>
      <trkpt lat="42.22067" lon="2.90176">
        <ele>109.46</ele>
        <time>2024-09-25T07:48:36.999Z</time>
      </trkpt>
      <trkpt lat="42.22074" lon="2.90163">
        <ele>109.53</ele>
        <time>2024-09-25T07:48:41.999Z</time>
      </trkpt>
      <trkpt lat="42.22081" lon="2.90146">
        <ele>109.61</ele>
        <time>2024-09-25T07:48:46.999Z</time>
      </trkpt>
      <trkpt lat="42.22088" lon="2.90129">
        <ele>109.69</ele>
        <time>2024-09-25T07:48:51.999Z</time>
      </trkpt>
      <trkpt lat="42.22096" lon="2.90113">
        <ele>109.76</ele>
        <time>2024-09-25T07:48:56.999Z</time>
      </trkpt>
      <trkpt lat="42.22106" lon="2.90096">
        <ele>109.83</ele>
        <time>2024-09-25T07:49:01.999Z</time>
      </trkpt>
      <trkpt lat="42.22116" lon="2.90079">
        <ele>109.89</ele>
        <time>2024-09-25T07:49:06.999Z</time>
      </trkpt>
      <trkpt lat="42.22126" lon="2.90062">
        <ele>109.96</ele>
        <time>2024-09-25T07:49:11.999Z</time>
      </trkpt>
      <trkpt lat="42.22134" lon="2.90045">
        <ele>110.04</ele>
        <time>2024-09-25T07:49:16.999Z</time>
      </trkpt>
      <trkpt lat="42.22141" lon="2.9003">
        <ele>110.11</ele>
        <time>2024-09-25T07:49:21.999Z</time>
      </trkpt>
      <trkpt lat="42.22148" lon="2.90015">
        <ele>110.19</ele>
        <time>2024-09-25T07:49:26.999Z</time>
      </trkpt>
      <trkpt lat="42.22155" lon="2.90001">
        <ele>110.26</ele>
        <time>2024-09-25T07:49:31.999Z</time>
      </trkpt>
      <trkpt lat="42.22162" lon="2.89988">
        <ele>110.34</ele>
        <time>2024-09-25T07:49:36.999Z</time>
      </trkpt>
      <trkpt lat="42.22168" lon="2.89974">
        <ele>110.42</ele>
        <time>2024-09-25T07:49:41.999Z</time>
      </trkpt>
      <trkpt lat="42.22174" lon="2.89958">
        <ele>110.5</ele>
        <time>2024-09-25T07:49:46.999Z</time>
      </trkpt>
      <trkpt lat="42.22181" lon="2.89943">
        <ele>110.58</ele>
        <time>2024-09-25T07:49:51.999Z</time>
      </trkpt>
      <trkpt lat="42.22188" lon="2.89928">
        <ele>110.67</ele>
        <time>2024-09-25T07:49:56.999Z</time>
      </trkpt>
      <trkpt lat="42.22195" lon="2.89912">
        <ele>110.75</ele>
        <time>2024-09-25T07:50:01.999Z</time>
      </trkpt>
      <trkpt lat="42.22201" lon="2.89896">
        <ele>110.84</ele>
        <time>2024-09-25T07:50:06.999Z</time>
      </trkpt>
      <trkpt lat="42.22208" lon="2.8988">
        <ele>110.93</ele>
        <time>2024-09-25T07:50:11.999Z</time>
      </trkpt>
      <trkpt lat="42.22213" lon="2.89864">
        <ele>111.02</ele>
        <time>2024-09-25T07:50:16.999Z</time>
      </trkpt>
      <trkpt lat="42.22217" lon="2.8985">
        <ele>111.11</ele>
        <time>2024-09-25T07:50:21.999Z</time>
      </trkpt>
      <trkpt lat="42.22222" lon="2.89836">
        <ele>111.2</ele>
        <time>2024-09-25T07:50:26.999Z</time>
      </trkpt>
      <trkpt lat="42.22227" lon="2.89822">
        <ele>111.29</ele>
        <time>2024-09-25T07:50:31.999Z</time>
      </trkpt>
      <trkpt lat="42.22232" lon="2.89809">
        <ele>111.38</ele>
        <time>2024-09-25T07:50:36.999Z</time>
      </trkpt>
      <trkpt lat="42.22239" lon="2.89795">
        <ele>111.46</ele>
        <time>2024-09-25T07:50:42.000Z</time>
      </trkpt>
      <trkpt lat="42.22245" lon="2.89782">
        <ele>111.55</ele>
        <time>2024-09-25T07:50:47.000Z</time>
      </trkpt>
      <trkpt lat="42.22252" lon="2.8977">
        <ele>111.63</ele>
        <time>2024-09-25T07:50:52.000Z</time>
      </trkpt>
      <trkpt lat="42.22259" lon="2.89757">
        <ele>111.71</ele>
        <time>2024-09-25T07:50:57.000Z</time>
      </trkpt>
      <trkpt lat="42.22265" lon="2.89742">
        <ele>111.79</ele>
        <time>2024-09-25T07:51:02.000Z</time>
      </trkpt>
      <trkpt lat="42.22271" lon="2.89728">
        <ele>111.87</ele>
        <time>2024-09-25T07:51:07.000Z</time>
      </trkpt>
      <trkpt lat="42.22276" lon="2.89715">
        <ele>111.94</ele>
        <time>2024-09-25T07:51:12.000Z</time>
      </trkpt>
      <trkpt lat="42.22282" lon="2.89702">
        <ele>112.02</ele>
        <time>2024-09-25T07:51:17.000Z</time>
      </trkpt>
      <trkpt lat="42.22287" lon="2.8969">
        <ele>112.1</ele>
        <time>2024-09-25T07:51:22.000Z</time>
      </trkpt>
      <trkpt lat="42.22293" lon="2.89678">
        <ele>112.19</ele>
        <time>2024-09-25T07:51:27.000Z</time>
      </trkpt>
      <trkpt lat="42.22299" lon="2.89667">
        <ele>112.27</ele>
        <time>2024-09-25T07:51:32.000Z</time>
      </trkpt>
      <trkpt lat="42.22306" lon="2.89656">
        <ele>112.35</ele>
        <time>2024-09-25T07:51:37.000Z</time>
      </trkpt>
      <trkpt lat="42.22312" lon="2.89644">
        <ele>112.44</ele>
        <time>2024-09-25T07:51:42.000Z</time>
      </trkpt>
      <trkpt lat="42.22315" lon="2.89631">
        <ele>112.52</ele>
        <time>2024-09-25T07:51:47.000Z</time>
      </trkpt>
      <trkpt lat="42.22318" lon="2.89616">
        <ele>112.6</ele>
        <time>2024-09-25T07:51:52.000Z</time>
      </trkpt>
      <trkpt lat="42.22322" lon="2.89602">
        <ele>112.68</ele>
        <time>2024-09-25T07:51:57.000Z</time>
      </trkpt>
      <trkpt lat="42.22326" lon="2.89588">
        <ele>112.76</ele>
        <time>2024-09-25T07:52:02.000Z</time>
      </trkpt>
      <trkpt lat="42.2233" lon="2.89574">
        <ele>112.84</ele>
        <time>2024-09-25T07:52:07.000Z</time>
      </trkpt>
      <trkpt lat="42.22335" lon="2.89561">
        <ele>112.93</ele>
        <time>2024-09-25T07:52:12.000Z</time>
      </trkpt>
      <trkpt lat="42.22339" lon="2.89546">
        <ele>113.02</ele>
        <time>2024-09-25T07:52:17.000Z</time>
      </trkpt>
      <trkpt lat="42.22344" lon="2.89531">
        <ele>113.11</ele>
        <time>2024-09-25T07:52:22.000Z</time>
      </trkpt>
      <trkpt lat="42.22348" lon="2.89518">
        <ele>113.2</ele>
        <time>2024-09-25T07:52:27.000Z</time>
      </trkpt>
      <trkpt lat="42.22354" lon="2.89507">
        <ele>113.3</ele>
        <time>2024-09-25T07:52:32.000Z</time>
      </trkpt>
      <trkpt lat="42.22361" lon="2.89497">
        <ele>113.39</ele>
        <time>2024-09-25T07:52:37.000Z</time>
      </trkpt>
      <trkpt lat="42.22368" lon="2.89487">
        <ele>113.49</ele>
        <time>2024-09-25T07:52:42.000Z</time>
      </trkpt>
      <trkpt lat="42.22373" lon="2.89474">
        <ele>113.59</ele>
        <time>2024-09-25T07:52:47.000Z</time>
      </trkpt>
      <trkpt lat="42.22378" lon="2.89461">
        <ele>113.7</ele>
        <time>2024-09-25T07:52:52.000Z</time>
      </trkpt>
      <trkpt lat="42.22382" lon="2.89447">
        <ele>113.81</ele>
        <time>2024-09-25T07:52:57.000Z</time>
      </trkpt>
      <trkpt lat="42.22385" lon="2.89434">
        <ele>113.92</ele>
        <time>2024-09-25T07:53:02.000Z</time>
      </trkpt>
      <trkpt lat="42.22387" lon="2.89418">
        <ele>114.03</ele>
        <time>2024-09-25T07:53:07.000Z</time>
      </trkpt>
      <trkpt lat="42.22392" lon="2.89404">
        <ele>114.14</ele>
        <time>2024-09-25T07:53:12.000Z</time>
      </trkpt>
      <trkpt lat="42.22399" lon="2.89393">
        <ele>114.26</ele>
        <time>2024-09-25T07:53:17.000Z</time>
      </trkpt>
      <trkpt lat="42.22404" lon="2.89382">
        <ele>114.37</ele>
        <time>2024-09-25T07:53:22.000Z</time>
      </trkpt>
      <trkpt lat="42.22404" lon="2.89366">
        <ele>114.49</ele>
        <time>2024-09-25T07:53:27.000Z</time>
      </trkpt>
      <trkpt lat="42.22405" lon="2.89345">
        <ele>114.61</ele>
        <time>2024-09-25T07:53:32.000Z</time>
      </trkpt>
      <trkpt lat="42.22405" lon="2.89323">
        <ele>114.73</ele>
        <time>2024-09-25T07:53:37.000Z</time>
      </trkpt>
      <trkpt lat="42.22407" lon="2.89296">
        <ele>115.54</ele>
        <time>2024-09-25T07:53:42.000Z</time>
      </trkpt>
      <trkpt lat="42.22408" lon="2.89265">
        <ele>115.89</ele>
        <time>2024-09-25T07:53:47.000Z</time>
      </trkpt>
      <trkpt lat="42.22408" lon="2.89234">
        <ele>116.07</ele>
        <time>2024-09-25T07:53:52.000Z</time>
      </trkpt>
      <trkpt lat="42.22408" lon="2.89204">
        <ele>116.2</ele>
        <time>2024-09-25T07:53:57.000Z</time>
      </trkpt>
      <trkpt lat="42.22408" lon="2.89177">
        <ele>116.32</ele>
        <time>2024-09-25T07:54:02.000Z</time>
      </trkpt>
      <trkpt lat="42.22409" lon="2.89152">
        <ele>116.34</ele>
        <time>2024-09-25T07:54:07.000Z</time>
      </trkpt>
      <trkpt lat="42.22409" lon="2.89126">
        <ele>116.5</ele>
        <time>2024-09-25T07:54:12.000Z</time>
      </trkpt>
      <trkpt lat="42.22409" lon="2.89102">
        <ele>116.52</ele>
        <time>2024-09-25T07:54:17.000Z</time>
      </trkpt>
      <trkpt lat="42.22407" lon="2.89082">
        <ele>116.56</ele>
        <time>2024-09-25T07:54:22.000Z</time>
      </trkpt>
      <trkpt lat="42.22405" lon="2.89067">
        <ele>116.6</ele>
        <time>2024-09-25T07:54:27.000Z</time>
      </trkpt>
      <trkpt lat="42.224" lon="2.89053">
        <ele>116.65</ele>
        <time>2024-09-25T07:54:32.000Z</time>
      </trkpt>
      <trkpt lat="42.22392" lon="2.8904">
        <ele>116.71</ele>
        <time>2024-09-25T07:54:37.000Z</time>
      </trkpt>
      <trkpt lat="42.22384" lon="2.89029">
        <ele>116.78</ele>
        <time>2024-09-25T07:54:42.000Z</time>
      </trkpt>
      <trkpt lat="42.22378" lon="2.89018">
        <ele>117.17</ele>
        <time>2024-09-25T07:55:24.000Z</time>
      </trkpt>
      <trkpt lat="42.2237" lon="2.89012">
        <ele>117.36</ele>
        <time>2024-09-25T07:55:29.000Z</time>
      </trkpt>
      <trkpt lat="42.22361" lon="2.89005">
        <ele>117.53</ele>
        <time>2024-09-25T07:55:34.000Z</time>
      </trkpt>
      <trkpt lat="42.22349" lon="2.89001">
        <ele>117.69</ele>
        <time>2024-09-25T07:55:39.000Z</time>
      </trkpt>
      <trkpt lat="42.22341" lon="2.88992">
        <ele>117.85</ele>
        <time>2024-09-25T07:55:44.000Z</time>
      </trkpt>
      <trkpt lat="42.22339" lon="2.88979">
        <ele>118</ele>
        <time>2024-09-25T07:55:49.000Z</time>
      </trkpt>
      <trkpt lat="42.22342" lon="2.88966">
        <ele>118.15</ele>
        <time>2024-09-25T07:55:54.000Z</time>
      </trkpt>
      <trkpt lat="42.22347" lon="2.8895">
        <ele>118.29</ele>
        <time>2024-09-25T07:55:59.000Z</time>
      </trkpt>
      <trkpt lat="42.22352" lon="2.88938">
        <ele>118.43</ele>
        <time>2024-09-25T07:56:04.000Z</time>
      </trkpt>
      <trkpt lat="42.22359" lon="2.88929">
        <ele>118.56</ele>
        <time>2024-09-25T07:56:09.000Z</time>
      </trkpt>
      <trkpt lat="42.22368" lon="2.8892">
        <ele>118.71</ele>
        <time>2024-09-25T07:56:15.000Z</time>
      </trkpt>
      <trkpt lat="42.22379" lon="2.88912">
        <ele>118.83</ele>
        <time>2024-09-25T07:56:20.000Z</time>
      </trkpt>
      <trkpt lat="42.22387" lon="2.88903">
        <ele>118.96</ele>
        <time>2024-09-25T07:56:26.000Z</time>
      </trkpt>
      <trkpt lat="42.22399" lon="2.88898">
        <ele>119.07</ele>
        <time>2024-09-25T07:56:31.000Z</time>
      </trkpt>
      <trkpt lat="42.22387" lon="2.88899">
        <ele>119.28</ele>
        <time>2024-09-25T07:56:41.000Z</time>
      </trkpt>
      <trkpt lat="42.22374" lon="2.88908">
        <ele>119.38</ele>
        <time>2024-09-25T07:56:46.000Z</time>
      </trkpt>
      <trkpt lat="42.22364" lon="2.8891">
        <ele>119.48</ele>
        <time>2024-09-25T07:56:51.000Z</time>
      </trkpt>
      <trkpt lat="42.22367" lon="2.88897">
        <ele>119.58</ele>
        <time>2024-09-25T07:56:56.000Z</time>
      </trkpt>
      <trkpt lat="42.22374" lon="2.88884">
        <ele>119.68</ele>
        <time>2024-09-25T07:57:01.000Z</time>
      </trkpt>
      <trkpt lat="42.22381" lon="2.88867">
        <ele>119.77</ele>
        <time>2024-09-25T07:57:06.000Z</time>
      </trkpt>
      <trkpt lat="42.22386" lon="2.88851">
        <ele>119.86</ele>
        <time>2024-09-25T07:57:11.000Z</time>
      </trkpt>
      <trkpt lat="42.22395" lon="2.88833">
        <ele>119.96</ele>
        <time>2024-09-25T07:57:16.000Z</time>
      </trkpt>
      <trkpt lat="42.22399" lon="2.88804">
        <ele>120.05</ele>
        <time>2024-09-25T07:57:21.000Z</time>
      </trkpt>
      <trkpt lat="42.22395" lon="2.88766">
        <ele>120.29</ele>
        <time>2024-09-25T07:57:26.000Z</time>
      </trkpt>
      <trkpt lat="42.22396" lon="2.88746">
        <ele>120.37</ele>
        <time>2024-09-25T07:57:31.000Z</time>
      </trkpt>
      <trkpt lat="42.22394" lon="2.88731">
        <ele>120.45</ele>
        <time>2024-09-25T07:57:36.000Z</time>
      </trkpt>
      <trkpt lat="42.2239" lon="2.88713">
        <ele>120.54</ele>
        <time>2024-09-25T07:57:41.000Z</time>
      </trkpt>
      <trkpt lat="42.22381" lon="2.88697">
        <ele>120.63</ele>
        <time>2024-09-25T07:57:46.000Z</time>
      </trkpt>
      <trkpt lat="42.22376" lon="2.88682">
        <ele>120.72</ele>
        <time>2024-09-25T07:57:51.000Z</time>
      </trkpt>
      <trkpt lat="42.22374" lon="2.88669">
        <ele>120.81</ele>
        <time>2024-09-25T07:57:56.000Z</time>
      </trkpt>
      <trkpt lat="42.22372" lon="2.88657">
        <ele>120.93</ele>
        <time>2024-09-25T07:58:02.000Z</time>
      </trkpt>
      <trkpt lat="42.22368" lon="2.88644">
        <ele>121.04</ele>
        <time>2024-09-25T07:58:07.000Z</time>
      </trkpt>
      <trkpt lat="42.22366" lon="2.88632">
        <ele>121.22</ele>
        <time>2024-09-25T07:58:15.000Z</time>
      </trkpt>
      <trkpt lat="42.22361" lon="2.8862">
        <ele>121.38</ele>
        <time>2024-09-25T07:58:22.000Z</time>
      </trkpt>
      <trkpt lat="42.22351" lon="2.88609">
        <ele>121.49</ele>
        <time>2024-09-25T07:58:27.000Z</time>
      </trkpt>
      <trkpt lat="42.22344" lon="2.88597">
        <ele>121.6</ele>
        <time>2024-09-25T07:58:32.000Z</time>
      </trkpt>
      <trkpt lat="42.22339" lon="2.8858">
        <ele>121.72</ele>
        <time>2024-09-25T07:58:37.000Z</time>
      </trkpt>
      <trkpt lat="42.22336" lon="2.88562">
        <ele>121.86</ele>
        <time>2024-09-25T07:58:42.000Z</time>
      </trkpt>
      <trkpt lat="42.22333" lon="2.88543">
        <ele>122.02</ele>
        <time>2024-09-25T07:58:47.000Z</time>
      </trkpt>
      <trkpt lat="42.22331" lon="2.88524">
        <ele>122.21</ele>
        <time>2024-09-25T07:58:52.000Z</time>
      </trkpt>
      <trkpt lat="42.22329" lon="2.88503">
        <ele>122.42</ele>
        <time>2024-09-25T07:58:57.000Z</time>
      </trkpt>
      <trkpt lat="42.22324" lon="2.88486">
        <ele>122.62</ele>
        <time>2024-09-25T07:59:02.000Z</time>
      </trkpt>
      <trkpt lat="42.22321" lon="2.88467">
        <ele>122.82</ele>
        <time>2024-09-25T07:59:07.000Z</time>
      </trkpt>
      <trkpt lat="42.22318" lon="2.88453">
        <ele>123.02</ele>
        <time>2024-09-25T07:59:12.000Z</time>
      </trkpt>
      <trkpt lat="42.22314" lon="2.88435">
        <ele>123.22</ele>
        <time>2024-09-25T07:59:17.000Z</time>
      </trkpt>
      <trkpt lat="42.2231" lon="2.8842">
        <ele>123.42</ele>
        <time>2024-09-25T07:59:22.000Z</time>
      </trkpt>
      <trkpt lat="42.22304" lon="2.88401">
        <ele>123.61</ele>
        <time>2024-09-25T07:59:27.000Z</time>
      </trkpt>
      <trkpt lat="42.22298" lon="2.88383">
        <ele>123.81</ele>
        <time>2024-09-25T07:59:32.000Z</time>
      </trkpt>
      <trkpt lat="42.22294" lon="2.88365">
        <ele>124.03</ele>
        <time>2024-09-25T07:59:37.000Z</time>
      </trkpt>
      <trkpt lat="42.22289" lon="2.88349">
        <ele>124.23</ele>
        <time>2024-09-25T07:59:42.000Z</time>
      </trkpt>
      <trkpt lat="42.22284" lon="2.88335">
        <ele>124.44</ele>
        <time>2024-09-25T07:59:47.000Z</time>
      </trkpt>
      <trkpt lat="42.2228" lon="2.8832">
        <ele>124.63</ele>
        <time>2024-09-25T07:59:52.000Z</time>
      </trkpt>
      <trkpt lat="42.22274" lon="2.88304">
        <ele>124.82</ele>
        <time>2024-09-25T07:59:57.000Z</time>
      </trkpt>
      <trkpt lat="42.2227" lon="2.88289">
        <ele>125.02</ele>
        <time>2024-09-25T08:00:02.000Z</time>
      </trkpt>
      <trkpt lat="42.2226" lon="2.88277">
        <ele>125.25</ele>
        <time>2024-09-25T08:00:07.000Z</time>
      </trkpt>
      <trkpt lat="42.22252" lon="2.88264">
        <ele>125.49</ele>
        <time>2024-09-25T08:00:12.000Z</time>
      </trkpt>
      <trkpt lat="42.22245" lon="2.8825">
        <ele>125.77</ele>
        <time>2024-09-25T08:00:17.000Z</time>
      </trkpt>
      <trkpt lat="42.22239" lon="2.88236">
        <ele>126.06</ele>
        <time>2024-09-25T08:00:22.000Z</time>
      </trkpt>
      <trkpt lat="42.22234" lon="2.88222">
        <ele>126.4</ele>
        <time>2024-09-25T08:00:27.000Z</time>
      </trkpt>
      <trkpt lat="42.22228" lon="2.88212">
        <ele>126.78</ele>
        <time>2024-09-25T08:00:32.000Z</time>
      </trkpt>
      <trkpt lat="42.22222" lon="2.88197">
        <ele>127.19</ele>
        <time>2024-09-25T08:00:37.000Z</time>
      </trkpt>
      <trkpt lat="42.22218" lon="2.88181">
        <ele>127.57</ele>
        <time>2024-09-25T08:00:42.000Z</time>
      </trkpt>
      <trkpt lat="42.22218" lon="2.88164">
        <ele>127.96</ele>
        <time>2024-09-25T08:00:47.000Z</time>
      </trkpt>
      <trkpt lat="42.22212" lon="2.88149">
        <ele>128.37</ele>
        <time>2024-09-25T08:00:52.000Z</time>
      </trkpt>
      <trkpt lat="42.22208" lon="2.88137">
        <ele>128.79</ele>
        <time>2024-09-25T08:00:57.000Z</time>
      </trkpt>
      <trkpt lat="42.22204" lon="2.88126">
        <ele>129.23</ele>
        <time>2024-09-25T08:01:02.000Z</time>
      </trkpt>
      <trkpt lat="42.222" lon="2.88113">
        <ele>129.68</ele>
        <time>2024-09-25T08:01:07.000Z</time>
      </trkpt>
      <trkpt lat="42.22195" lon="2.88099">
        <ele>130.13</ele>
        <time>2024-09-25T08:01:12.000Z</time>
      </trkpt>
      <trkpt lat="42.22193" lon="2.88083">
        <ele>130.61</ele>
        <time>2024-09-25T08:01:17.000Z</time>
      </trkpt>
      <trkpt lat="42.2219" lon="2.88066">
        <ele>131.13</ele>
        <time>2024-09-25T08:01:22.000Z</time>
      </trkpt>
      <trkpt lat="42.22189" lon="2.8805">
        <ele>131.66</ele>
        <time>2024-09-25T08:01:27.000Z</time>
      </trkpt>
      <trkpt lat="42.22188" lon="2.88033">
        <ele>132.21</ele>
        <time>2024-09-25T08:01:32.000Z</time>
      </trkpt>
      <trkpt lat="42.22189" lon="2.88018">
        <ele>132.79</ele>
        <time>2024-09-25T08:01:37.000Z</time>
      </trkpt>
      <trkpt lat="42.2219" lon="2.88001">
        <ele>133.38</ele>
        <time>2024-09-25T08:01:42.000Z</time>
      </trkpt>
      <trkpt lat="42.22194" lon="2.87983">
        <ele>133.96</ele>
        <time>2024-09-25T08:01:47.000Z</time>
      </trkpt>
      <trkpt lat="42.22193" lon="2.8796">
        <ele>136.16</ele>
        <time>2024-09-25T08:01:52.000Z</time>
      </trkpt>
      <trkpt lat="42.22193" lon="2.87934">
        <ele>137.48</ele>
        <time>2024-09-25T08:01:57.000Z</time>
      </trkpt>
      <trkpt lat="42.22196" lon="2.87916">
        <ele>137.81</ele>
        <time>2024-09-25T08:02:02.000Z</time>
      </trkpt>
      <trkpt lat="42.22199" lon="2.87903">
        <ele>138.12</ele>
        <time>2024-09-25T08:02:07.000Z</time>
      </trkpt>
      <trkpt lat="42.22199" lon="2.87887">
        <ele>138.42</ele>
        <time>2024-09-25T08:02:12.000Z</time>
      </trkpt>
      <trkpt lat="42.22197" lon="2.87872">
        <ele>138.71</ele>
        <time>2024-09-25T08:02:17.000Z</time>
      </trkpt>
      <trkpt lat="42.22196" lon="2.87855">
        <ele>139</ele>
        <time>2024-09-25T08:02:22.000Z</time>
      </trkpt>
      <trkpt lat="42.22195" lon="2.87834">
        <ele>139.28</ele>
        <time>2024-09-25T08:02:27.000Z</time>
      </trkpt>
      <trkpt lat="42.22199" lon="2.87812">
        <ele>139.92</ele>
        <time>2024-09-25T08:02:32.000Z</time>
      </trkpt>
      <trkpt lat="42.222" lon="2.87785">
        <ele>141.52</ele>
        <time>2024-09-25T08:02:37.000Z</time>
      </trkpt>
      <trkpt lat="42.22199" lon="2.87759">
        <ele>142.2</ele>
        <time>2024-09-25T08:02:42.000Z</time>
      </trkpt>
      <trkpt lat="42.22199" lon="2.87732">
        <ele>142.51</ele>
        <time>2024-09-25T08:02:47.000Z</time>
      </trkpt>
      <trkpt lat="42.22198" lon="2.87704">
        <ele>142.58</ele>
        <time>2024-09-25T08:02:52.999Z</time>
      </trkpt>
      <trkpt lat="42.22197" lon="2.87685">
        <ele>142.63</ele>
        <time>2024-09-25T08:02:57.999Z</time>
      </trkpt>
      <trkpt lat="42.22197" lon="2.87667">
        <ele>142.69</ele>
        <time>2024-09-25T08:03:02.999Z</time>
      </trkpt>
      <trkpt lat="42.22197" lon="2.87648">
        <ele>142.76</ele>
        <time>2024-09-25T08:03:07.999Z</time>
      </trkpt>
      <trkpt lat="42.22194" lon="2.8763">
        <ele>142.84</ele>
        <time>2024-09-25T08:03:12.999Z</time>
      </trkpt>
      <trkpt lat="42.22193" lon="2.87612">
        <ele>142.93</ele>
        <time>2024-09-25T08:03:17.999Z</time>
      </trkpt>
      <trkpt lat="42.22191" lon="2.87594">
        <ele>143.04</ele>
        <time>2024-09-25T08:03:22.999Z</time>
      </trkpt>
      <trkpt lat="42.2219" lon="2.87578">
        <ele>143.18</ele>
        <time>2024-09-25T08:03:27.999Z</time>
      </trkpt>
      <trkpt lat="42.22189" lon="2.87562">
        <ele>143.33</ele>
        <time>2024-09-25T08:03:32.999Z</time>
      </trkpt>
      <trkpt lat="42.22185" lon="2.87546">
        <ele>143.5</ele>
        <time>2024-09-25T08:03:37.999Z</time>
      </trkpt>
      <trkpt lat="42.22177" lon="2.8753">
        <ele>143.68</ele>
        <time>2024-09-25T08:03:42.999Z</time>
      </trkpt>
      <trkpt lat="42.22168" lon="2.87513">
        <ele>143.85</ele>
        <time>2024-09-25T08:03:47.999Z</time>
      </trkpt>
      <trkpt lat="42.22164" lon="2.87496">
        <ele>144.03</ele>
        <time>2024-09-25T08:03:52.999Z</time>
      </trkpt>
      <trkpt lat="42.22162" lon="2.87478">
        <ele>144.21</ele>
        <time>2024-09-25T08:03:57.999Z</time>
      </trkpt>
      <trkpt lat="42.22165" lon="2.87458">
        <ele>144.4</ele>
        <time>2024-09-25T08:04:02.999Z</time>
      </trkpt>
      <trkpt lat="42.22166" lon="2.87439">
        <ele>144.59</ele>
        <time>2024-09-25T08:04:07.999Z</time>
      </trkpt>
      <trkpt lat="42.22168" lon="2.8742">
        <ele>144.79</ele>
        <time>2024-09-25T08:04:12.999Z</time>
      </trkpt>
      <trkpt lat="42.22171" lon="2.87399">
        <ele>144.99</ele>
        <time>2024-09-25T08:04:17.999Z</time>
      </trkpt>
      <trkpt lat="42.22173" lon="2.87377">
        <ele>145.2</ele>
        <time>2024-09-25T08:04:22.999Z</time>
      </trkpt>
      <trkpt lat="42.22174" lon="2.87356">
        <ele>145.41</ele>
        <time>2024-09-25T08:04:27.999Z</time>
      </trkpt>
      <trkpt lat="42.22176" lon="2.87333">
        <ele>145.63</ele>
        <time>2024-09-25T08:04:32.999Z</time>
      </trkpt>
      <trkpt lat="42.22179" lon="2.87308">
        <ele>146.46</ele>
        <time>2024-09-25T08:04:37.999Z</time>
      </trkpt>
      <trkpt lat="42.2218" lon="2.87282">
        <ele>147.61</ele>
        <time>2024-09-25T08:04:42.999Z</time>
      </trkpt>
      <trkpt lat="42.22181" lon="2.87255">
        <ele>148.15</ele>
        <time>2024-09-25T08:04:47.999Z</time>
      </trkpt>
      <trkpt lat="42.22184" lon="2.87228">
        <ele>148.48</ele>
        <time>2024-09-25T08:04:52.999Z</time>
      </trkpt>
      <trkpt lat="42.22185" lon="2.87201">
        <ele>148.7</ele>
        <time>2024-09-25T08:04:57.999Z</time>
      </trkpt>
      <trkpt lat="42.22189" lon="2.87176">
        <ele>148.9</ele>
        <time>2024-09-25T08:05:02.999Z</time>
      </trkpt>
      <trkpt lat="42.22191" lon="2.8715">
        <ele>149.07</ele>
        <time>2024-09-25T08:05:07.999Z</time>
      </trkpt>
      <trkpt lat="42.22193" lon="2.87126">
        <ele>149.1</ele>
        <time>2024-09-25T08:05:12.999Z</time>
      </trkpt>
      <trkpt lat="42.22196" lon="2.87102">
        <ele>149.15</ele>
        <time>2024-09-25T08:05:17.999Z</time>
      </trkpt>
      <trkpt lat="42.22197" lon="2.87083">
        <ele>149.19</ele>
        <time>2024-09-25T08:05:22.999Z</time>
      </trkpt>
      <trkpt lat="42.22199" lon="2.87063">
        <ele>149.24</ele>
        <time>2024-09-25T08:05:27.999Z</time>
      </trkpt>
      <trkpt lat="42.222" lon="2.8704">
        <ele>149.29</ele>
        <time>2024-09-25T08:05:32.999Z</time>
      </trkpt>
      <trkpt lat="42.22202" lon="2.87026">
        <ele>149.34</ele>
        <time>2024-09-25T08:05:37.999Z</time>
      </trkpt>
      <trkpt lat="42.22205" lon="2.87014">
        <ele>149.82</ele>
        <time>2024-09-25T08:07:03.999Z</time>
      </trkpt>
      <trkpt lat="42.22207" lon="2.86994">
        <ele>150</ele>
        <time>2024-09-25T08:07:08.999Z</time>
      </trkpt>
      <trkpt lat="42.22209" lon="2.86977">
        <ele>150.17</ele>
        <time>2024-09-25T08:07:13.999Z</time>
      </trkpt>
      <trkpt lat="42.22211" lon="2.86962">
        <ele>150.35</ele>
        <time>2024-09-25T08:07:18.999Z</time>
      </trkpt>
      <trkpt lat="42.22216" lon="2.86948">
        <ele>150.52</ele>
        <time>2024-09-25T08:07:23.999Z</time>
      </trkpt>
      <trkpt lat="42.22221" lon="2.86931">
        <ele>150.69</ele>
        <time>2024-09-25T08:07:28.999Z</time>
      </trkpt>
      <trkpt lat="42.22224" lon="2.86917">
        <ele>151.04</ele>
        <time>2024-09-25T08:07:48.999Z</time>
      </trkpt>
      <trkpt lat="42.22227" lon="2.86897">
        <ele>151.25</ele>
        <time>2024-09-25T08:07:53.999Z</time>
      </trkpt>
      <trkpt lat="42.2223" lon="2.86876">
        <ele>151.45</ele>
        <time>2024-09-25T08:07:58.999Z</time>
      </trkpt>
      <trkpt lat="42.22233" lon="2.86854">
        <ele>151.65</ele>
        <time>2024-09-25T08:08:03.999Z</time>
      </trkpt>
      <trkpt lat="42.22237" lon="2.86833">
        <ele>151.85</ele>
        <time>2024-09-25T08:08:08.999Z</time>
      </trkpt>
      <trkpt lat="42.22242" lon="2.8681">
        <ele>152.04</ele>
        <time>2024-09-25T08:08:13.999Z</time>
      </trkpt>
      <trkpt lat="42.22246" lon="2.86786">
        <ele>152.22</ele>
        <time>2024-09-25T08:08:18.999Z</time>
      </trkpt>
      <trkpt lat="42.2225" lon="2.86762">
        <ele>153.13</ele>
        <time>2024-09-25T08:08:23.999Z</time>
      </trkpt>
      <trkpt lat="42.22254" lon="2.86733">
        <ele>153.84</ele>
        <time>2024-09-25T08:08:28.999Z</time>
      </trkpt>
      <trkpt lat="42.22259" lon="2.86701">
        <ele>154.09</ele>
        <time>2024-09-25T08:08:33.999Z</time>
      </trkpt>
      <trkpt lat="42.22276" lon="2.86678">
        <ele>154.16</ele>
        <time>2024-09-25T08:08:38.999Z</time>
      </trkpt>
      <trkpt lat="42.22296" lon="2.86673">
        <ele>154.22</ele>
        <time>2024-09-25T08:08:43.999Z</time>
      </trkpt>
      <trkpt lat="42.22307" lon="2.86672">
        <ele>154.23</ele>
        <time>2024-09-25T08:08:48.999Z</time>
      </trkpt>
      <trkpt lat="42.22307" lon="2.86659">
        <ele>154.26</ele>
        <time>2024-09-25T08:09:14.999Z</time>
      </trkpt>
      <trkpt lat="42.2231" lon="2.86637">
        <ele>154.3</ele>
        <time>2024-09-25T08:09:19.999Z</time>
      </trkpt>
      <trkpt lat="42.22315" lon="2.8661">
        <ele>154.41</ele>
        <time>2024-09-25T08:09:24.999Z</time>
      </trkpt>
      <trkpt lat="42.22318" lon="2.86583">
        <ele>154.46</ele>
        <time>2024-09-25T08:09:29.999Z</time>
      </trkpt>
      <trkpt lat="42.22316" lon="2.86558">
        <ele>154.49</ele>
        <time>2024-09-25T08:09:34.999Z</time>
      </trkpt>
      <trkpt lat="42.22315" lon="2.86539">
        <ele>154.51</ele>
        <time>2024-09-25T08:09:39.999Z</time>
      </trkpt>
      <trkpt lat="42.22312" lon="2.86523">
        <ele>154.54</ele>
        <time>2024-09-25T08:09:44.999Z</time>
      </trkpt>
      <trkpt lat="42.22309" lon="2.86504">
        <ele>154.57</ele>
        <time>2024-09-25T08:09:49.999Z</time>
      </trkpt>
      <trkpt lat="42.22305" lon="2.86484">
        <ele>154.6</ele>
        <time>2024-09-25T08:09:54.999Z</time>
      </trkpt>
      <trkpt lat="42.22301" lon="2.86464">
        <ele>154.64</ele>
        <time>2024-09-25T08:09:59.999Z</time>
      </trkpt>
      <trkpt lat="42.22295" lon="2.86442">
        <ele>154.75</ele>
        <time>2024-09-25T08:10:04.999Z</time>
      </trkpt>
      <trkpt lat="42.2229" lon="2.86416">
        <ele>155.08</ele>
        <time>2024-09-25T08:10:09.999Z</time>
      </trkpt>
      <trkpt lat="42.22284" lon="2.86393">
        <ele>155.2</ele>
        <time>2024-09-25T08:10:14.999Z</time>
      </trkpt>
      <trkpt lat="42.22278" lon="2.86369">
        <ele>155.36</ele>
        <time>2024-09-25T08:10:19.999Z</time>
      </trkpt>
      <trkpt lat="42.22274" lon="2.86342">
        <ele>155.54</ele>
        <time>2024-09-25T08:10:24.999Z</time>
      </trkpt>
      <trkpt lat="42.22269" lon="2.86318">
        <ele>155.64</ele>
        <time>2024-09-25T08:10:29.999Z</time>
      </trkpt>
      <trkpt lat="42.22264" lon="2.86296">
        <ele>155.67</ele>
        <time>2024-09-25T08:10:34.999Z</time>
      </trkpt>
      <trkpt lat="42.22261" lon="2.86277">
        <ele>155.7</ele>
        <time>2024-09-25T08:10:39.999Z</time>
      </trkpt>
      <trkpt lat="42.22267" lon="2.86258">
        <ele>155.74</ele>
        <time>2024-09-25T08:10:44.999Z</time>
      </trkpt>
      <trkpt lat="42.22276" lon="2.86241">
        <ele>155.79</ele>
        <time>2024-09-25T08:10:49.999Z</time>
      </trkpt>
      <trkpt lat="42.22285" lon="2.86221">
        <ele>155.84</ele>
        <time>2024-09-25T08:10:54.999Z</time>
      </trkpt>
      <trkpt lat="42.22292" lon="2.86201">
        <ele>155.9</ele>
        <time>2024-09-25T08:10:59.999Z</time>
      </trkpt>
      <trkpt lat="42.22299" lon="2.86184">
        <ele>155.96</ele>
        <time>2024-09-25T08:11:04.999Z</time>
      </trkpt>
      <trkpt lat="42.22307" lon="2.86171">
        <ele>156.02</ele>
        <time>2024-09-25T08:11:09.999Z</time>
      </trkpt>
      <trkpt lat="42.22316" lon="2.86171">
        <ele>156.13</ele>
        <time>2024-09-25T08:11:22.999Z</time>
      </trkpt>
      <trkpt lat="42.22331" lon="2.86181">
        <ele>156.21</ele>
        <time>2024-09-25T08:11:27.999Z</time>
      </trkpt>
      <trkpt lat="42.22345" lon="2.86192">
        <ele>156.29</ele>
        <time>2024-09-25T08:11:32.999Z</time>
      </trkpt>
      <trkpt lat="42.22354" lon="2.86201">
        <ele>156.37</ele>
        <time>2024-09-25T08:11:37.999Z</time>
      </trkpt>
      <trkpt lat="42.22362" lon="2.86208">
        <ele>156.54</ele>
        <time>2024-09-25T08:11:49.999Z</time>
      </trkpt>
      <trkpt lat="42.2237" lon="2.86202">
        <ele>156.86</ele>
        <time>2024-09-25T08:12:13.999Z</time>
      </trkpt>
      <trkpt lat="42.22361" lon="2.86205">
        <ele>157.94</ele>
        <time>2024-09-25T08:14:38.999Z</time>
      </trkpt>
      <trkpt lat="42.2236" lon="2.86217">
        <ele>163.75</ele>
        <time>2024-09-25T08:26:51.000Z</time>
      </trkpt>
      <trkpt lat="42.22366" lon="2.86227">
        <ele>163.84</ele>
        <time>2024-09-25T08:26:57.000Z</time>
      </trkpt>
      <trkpt lat="42.22372" lon="2.8624">
        <ele>163.91</ele>
        <time>2024-09-25T08:27:02.000Z</time>
      </trkpt>
      <trkpt lat="42.22381" lon="2.86257">
        <ele>163.99</ele>
        <time>2024-09-25T08:27:07.999Z</time>
      </trkpt>
      <trkpt lat="42.2238" lon="2.86269">
        <ele>164.47</ele>
        <time>2024-09-25T08:27:57.999Z</time>
      </trkpt>
      <trkpt lat="42.22383" lon="2.86258">
        <ele>164.91</ele>
        <time>2024-09-25T08:31:00.999Z</time>
      </trkpt>
      <trkpt lat="42.22379" lon="2.86245">
        <ele>165.13</ele>
        <time>2024-09-25T08:32:39.999Z</time>
      </trkpt>
      <trkpt lat="42.22369" lon="2.86222">
        <ele>165.29</ele>
        <time>2024-09-25T08:32:44.999Z</time>
      </trkpt>
      <trkpt lat="42.22356" lon="2.86198">
        <ele>165.45</ele>
        <time>2024-09-25T08:32:49.999Z</time>
      </trkpt>
      <trkpt lat="42.22337" lon="2.86179">
        <ele>165.46</ele>
        <time>2024-09-25T08:32:54.999Z</time>
      </trkpt>
      <trkpt lat="42.22318" lon="2.86162">
        <ele>165.41</ele>
        <time>2024-09-25T08:32:59.999Z</time>
      </trkpt>
      <trkpt lat="42.223" lon="2.86139">
        <ele>165.36</ele>
        <time>2024-09-25T08:33:04.999Z</time>
      </trkpt>
      <trkpt lat="42.22283" lon="2.86118">
        <ele>165.31</ele>
        <time>2024-09-25T08:33:09.999Z</time>
      </trkpt>
      <trkpt lat="42.22267" lon="2.86102">
        <ele>165.26</ele>
        <time>2024-09-25T08:33:14.999Z</time>
      </trkpt>
      <trkpt lat="42.22251" lon="2.86086">
        <ele>165.22</ele>
        <time>2024-09-25T08:33:19.999Z</time>
      </trkpt>
      <trkpt lat="42.22235" lon="2.86069">
        <ele>165.2</ele>
        <time>2024-09-25T08:33:24.999Z</time>
      </trkpt>
      <trkpt lat="42.2222" lon="2.86053">
        <ele>165.18</ele>
        <time>2024-09-25T08:33:29.999Z</time>
      </trkpt>
      <trkpt lat="42.22204" lon="2.86038">
        <ele>165.16</ele>
        <time>2024-09-25T08:33:34.999Z</time>
      </trkpt>
      <trkpt lat="42.22192" lon="2.86026">
        <ele>165.15</ele>
        <time>2024-09-25T08:33:39.999Z</time>
      </trkpt>
      <trkpt lat="42.22178" lon="2.8601">
        <ele>165.12</ele>
        <time>2024-09-25T08:33:44.999Z</time>
      </trkpt>
      <trkpt lat="42.22163" lon="2.85997">
        <ele>165.11</ele>
        <time>2024-09-25T08:33:49.999Z</time>
      </trkpt>
      <trkpt lat="42.22154" lon="2.85991">
        <ele>165.1</ele>
        <time>2024-09-25T08:33:54.999Z</time>
      </trkpt>
      <trkpt lat="42.2216" lon="2.85979">
        <ele>165.07</ele>
        <time>2024-09-25T08:35:04.999Z</time>
      </trkpt>
      <trkpt lat="42.22157" lon="2.85956">
        <ele>165.02</ele>
        <time>2024-09-25T08:35:09.999Z</time>
      </trkpt>
      <trkpt lat="42.22152" lon="2.8593">
        <ele>164.99</ele>
        <time>2024-09-25T08:35:14.999Z</time>
      </trkpt>
      <trkpt lat="42.22146" lon="2.85906">
        <ele>164.94</ele>
        <time>2024-09-25T08:35:19.999Z</time>
      </trkpt>
      <trkpt lat="42.22164" lon="2.85893">
        <ele>164.84</ele>
        <time>2024-09-25T08:35:24.999Z</time>
      </trkpt>
      <trkpt lat="42.22183" lon="2.85886">
        <ele>164.77</ele>
        <time>2024-09-25T08:35:29.999Z</time>
      </trkpt>
      <trkpt lat="42.22206" lon="2.85877">
        <ele>164.78</ele>
        <time>2024-09-25T08:35:34.999Z</time>
      </trkpt>
      <trkpt lat="42.22231" lon="2.85869">
        <ele>164.78</ele>
        <time>2024-09-25T08:35:39.999Z</time>
      </trkpt>
      <trkpt lat="42.22257" lon="2.8586">
        <ele>164.78</ele>
        <time>2024-09-25T08:35:44.999Z</time>
      </trkpt>
      <trkpt lat="42.22284" lon="2.8585">
        <ele>164.79</ele>
        <time>2024-09-25T08:35:49.999Z</time>
      </trkpt>
      <trkpt lat="42.22313" lon="2.85841">
        <ele>164.79</ele>
        <time>2024-09-25T08:35:54.999Z</time>
      </trkpt>
      <trkpt lat="42.22338" lon="2.85831">
        <ele>164.8</ele>
        <time>2024-09-25T08:35:59.999Z</time>
      </trkpt>
      <trkpt lat="42.22348" lon="2.8583">
        <ele>164.8</ele>
        <time>2024-09-25T08:36:11.999Z</time>
      </trkpt>
      <trkpt lat="42.22363" lon="2.85831">
        <ele>164.79</ele>
        <time>2024-09-25T08:36:16.999Z</time>
      </trkpt>
      <trkpt lat="42.22385" lon="2.85829">
        <ele>164.73</ele>
        <time>2024-09-25T08:36:21.999Z</time>
      </trkpt>
      <trkpt lat="42.22411" lon="2.85827">
        <ele>164.63</ele>
        <time>2024-09-25T08:36:26.999Z</time>
      </trkpt>
      <trkpt lat="42.22433" lon="2.85828">
        <ele>164.54</ele>
        <time>2024-09-25T08:36:31.999Z</time>
      </trkpt>
      <trkpt lat="42.22449" lon="2.85826">
        <ele>164.51</ele>
        <time>2024-09-25T08:36:36.999Z</time>
      </trkpt>
      <trkpt lat="42.22455" lon="2.85815">
        <ele>164.5</ele>
        <time>2024-09-25T08:36:43.999Z</time>
      </trkpt>
      <trkpt lat="42.22453" lon="2.85797">
        <ele>164.49</ele>
        <time>2024-09-25T08:36:48.999Z</time>
      </trkpt>
      <trkpt lat="42.22451" lon="2.85769">
        <ele>164.38</ele>
        <time>2024-09-25T08:36:53.999Z</time>
      </trkpt>
      <trkpt lat="42.22449" lon="2.85737">
        <ele>164.28</ele>
        <time>2024-09-25T08:36:58.999Z</time>
      </trkpt>
      <trkpt lat="42.22454" lon="2.85707">
        <ele>164.22</ele>
        <time>2024-09-25T08:37:03.999Z</time>
      </trkpt>
      <trkpt lat="42.22479" lon="2.85699">
        <ele>164.2</ele>
        <time>2024-09-25T08:37:08.999Z</time>
      </trkpt>
      <trkpt lat="42.22495" lon="2.85695">
        <ele>164.2</ele>
        <time>2024-09-25T08:37:13.999Z</time>
      </trkpt>
      <trkpt lat="42.22498" lon="2.85674">
        <ele>164.17</ele>
        <time>2024-09-25T08:37:18.999Z</time>
      </trkpt>
      <trkpt lat="42.22496" lon="2.85649">
        <ele>164.14</ele>
        <time>2024-09-25T08:37:23.999Z</time>
      </trkpt>
      <trkpt lat="42.22494" lon="2.85627">
        <ele>164.12</ele>
        <time>2024-09-25T08:37:28.999Z</time>
      </trkpt>
      <trkpt lat="42.22493" lon="2.85605">
        <ele>164.1</ele>
        <time>2024-09-25T08:37:33.999Z</time>
      </trkpt>
      <trkpt lat="42.22491" lon="2.8559">
        <ele>164.07</ele>
        <time>2024-09-25T08:37:38.999Z</time>
      </trkpt>
      <trkpt lat="42.22491" lon="2.85576">
        <ele>164.04</ele>
        <time>2024-09-25T08:37:43.999Z</time>
      </trkpt>
      <trkpt lat="42.22488" lon="2.85563">
        <ele>164</ele>
        <time>2024-09-25T08:37:48.999Z</time>
      </trkpt>
      <trkpt lat="42.22487" lon="2.85547">
        <ele>163.96</ele>
        <time>2024-09-25T08:37:53.999Z</time>
      </trkpt>
      <trkpt lat="42.22485" lon="2.85527">
        <ele>163.92</ele>
        <time>2024-09-25T08:37:58.999Z</time>
      </trkpt>
      <trkpt lat="42.22483" lon="2.85505">
        <ele>163.88</ele>
        <time>2024-09-25T08:38:03.999Z</time>
      </trkpt>
      <trkpt lat="42.22482" lon="2.85482">
        <ele>163.84</ele>
        <time>2024-09-25T08:38:08.999Z</time>
      </trkpt>
      <trkpt lat="42.2248" lon="2.8546">
        <ele>163.81</ele>
        <time>2024-09-25T08:38:13.999Z</time>
      </trkpt>
      <trkpt lat="42.2248" lon="2.8544">
        <ele>163.78</ele>
        <time>2024-09-25T08:38:18.999Z</time>
      </trkpt>
      <trkpt lat="42.22478" lon="2.8542">
        <ele>163.76</ele>
        <time>2024-09-25T08:38:23.999Z</time>
      </trkpt>
      <trkpt lat="42.22476" lon="2.854">
        <ele>163.75</ele>
        <time>2024-09-25T08:38:28.999Z</time>
      </trkpt>
      <trkpt lat="42.22475" lon="2.85383">
        <ele>163.75</ele>
        <time>2024-09-25T08:38:33.999Z</time>
      </trkpt>
      <trkpt lat="42.22475" lon="2.85365">
        <ele>163.75</ele>
        <time>2024-09-25T08:38:38.999Z</time>
      </trkpt>
      <trkpt lat="42.22473" lon="2.85347">
        <ele>163.76</ele>
        <time>2024-09-25T08:38:43.999Z</time>
      </trkpt>
      <trkpt lat="42.22473" lon="2.85329">
        <ele>163.77</ele>
        <time>2024-09-25T08:38:48.999Z</time>
      </trkpt>
      <trkpt lat="42.22471" lon="2.85311">
        <ele>163.78</ele>
        <time>2024-09-25T08:38:53.999Z</time>
      </trkpt>
      <trkpt lat="42.2247" lon="2.85292">
        <ele>163.81</ele>
        <time>2024-09-25T08:38:58.999Z</time>
      </trkpt>
      <trkpt lat="42.22469" lon="2.85274">
        <ele>163.83</ele>
        <time>2024-09-25T08:39:03.999Z</time>
      </trkpt>
      <trkpt lat="42.22467" lon="2.85255">
        <ele>163.87</ele>
        <time>2024-09-25T08:39:08.999Z</time>
      </trkpt>
      <trkpt lat="42.22465" lon="2.85237">
        <ele>163.91</ele>
        <time>2024-09-25T08:39:13.999Z</time>
      </trkpt>
      <trkpt lat="42.22465" lon="2.85221">
        <ele>163.95</ele>
        <time>2024-09-25T08:39:18.999Z</time>
      </trkpt>
      <trkpt lat="42.22464" lon="2.85204">
        <ele>163.99</ele>
        <time>2024-09-25T08:39:24.000Z</time>
      </trkpt>
      <trkpt lat="42.22462" lon="2.85187">
        <ele>164.03</ele>
        <time>2024-09-25T08:39:29.000Z</time>
      </trkpt>
      <trkpt lat="42.22461" lon="2.85165">
        <ele>164.07</ele>
        <time>2024-09-25T08:39:34.000Z</time>
      </trkpt>
      <trkpt lat="42.2246" lon="2.85144">
        <ele>164.11</ele>
        <time>2024-09-25T08:39:39.000Z</time>
      </trkpt>
      <trkpt lat="42.22463" lon="2.85132">
        <ele>164.16</ele>
        <time>2024-09-25T08:39:52.000Z</time>
      </trkpt>
      <trkpt lat="42.22465" lon="2.85112">
        <ele>164.19</ele>
        <time>2024-09-25T08:39:57.000Z</time>
      </trkpt>
      <trkpt lat="42.22461" lon="2.85087">
        <ele>164.39</ele>
        <time>2024-09-25T08:40:02.000Z</time>
      </trkpt>
      <trkpt lat="42.22457" lon="2.85061">
        <ele>164.44</ele>
        <time>2024-09-25T08:40:07.000Z</time>
      </trkpt>
      <trkpt lat="42.22454" lon="2.85029">
        <ele>164.44</ele>
        <time>2024-09-25T08:40:12.000Z</time>
      </trkpt>
      <trkpt lat="42.2245" lon="2.84995">
        <ele>164.42</ele>
        <time>2024-09-25T08:40:17.000Z</time>
      </trkpt>
      <trkpt lat="42.22448" lon="2.84958">
        <ele>164.4</ele>
        <time>2024-09-25T08:40:22.000Z</time>
      </trkpt>
      <trkpt lat="42.22445" lon="2.84921">
        <ele>164.38</ele>
        <time>2024-09-25T08:40:27.000Z</time>
      </trkpt>
      <trkpt lat="42.22442" lon="2.84883">
        <ele>164.36</ele>
        <time>2024-09-25T08:40:32.000Z</time>
      </trkpt>
      <trkpt lat="42.22439" lon="2.84849">
        <ele>164.33</ele>
        <time>2024-09-25T08:40:37.000Z</time>
      </trkpt>
      <trkpt lat="42.22437" lon="2.84815">
        <ele>164.3</ele>
        <time>2024-09-25T08:40:42.000Z</time>
      </trkpt>
      <trkpt lat="42.22435" lon="2.84782">
        <ele>164.27</ele>
        <time>2024-09-25T08:40:47.000Z</time>
      </trkpt>
      <trkpt lat="42.22433" lon="2.84751">
        <ele>164.25</ele>
        <time>2024-09-25T08:40:52.000Z</time>
      </trkpt>
      <trkpt lat="42.22431" lon="2.84723">
        <ele>164.25</ele>
        <time>2024-09-25T08:40:57.000Z</time>
      </trkpt>
      <trkpt lat="42.22429" lon="2.84695">
        <ele>164.27</ele>
        <time>2024-09-25T08:41:02.000Z</time>
      </trkpt>
      <trkpt lat="42.22427" lon="2.84668">
        <ele>164.3</ele>
        <time>2024-09-25T08:41:07.000Z</time>
      </trkpt>
      <trkpt lat="42.22425" lon="2.8464">
        <ele>164.35</ele>
        <time>2024-09-25T08:41:12.000Z</time>
      </trkpt>
      <trkpt lat="42.22424" lon="2.84612">
        <ele>164.41</ele>
        <time>2024-09-25T08:41:17.000Z</time>
      </trkpt>
      <trkpt lat="42.22422" lon="2.84583">
        <ele>164.44</ele>
        <time>2024-09-25T08:41:22.000Z</time>
      </trkpt>
      <trkpt lat="42.2242" lon="2.84551">
        <ele>164.48</ele>
        <time>2024-09-25T08:41:27.000Z</time>
      </trkpt>
      <trkpt lat="42.22417" lon="2.84513">
        <ele>164.54</ele>
        <time>2024-09-25T08:41:32.000Z</time>
      </trkpt>
      <trkpt lat="42.22415" lon="2.84471">
        <ele>164.61</ele>
        <time>2024-09-25T08:41:37.000Z</time>
      </trkpt>
      <trkpt lat="42.22413" lon="2.84425">
        <ele>164.61</ele>
        <time>2024-09-25T08:41:42.000Z</time>
      </trkpt>
      <trkpt lat="42.2241" lon="2.8438">
        <ele>164.63</ele>
        <time>2024-09-25T08:41:47.000Z</time>
      </trkpt>
      <trkpt lat="42.22407" lon="2.84334">
        <ele>164.74</ele>
        <time>2024-09-25T08:41:52.000Z</time>
      </trkpt>
      <trkpt lat="42.22403" lon="2.84285">
        <ele>164.69</ele>
        <time>2024-09-25T08:41:57.000Z</time>
      </trkpt>
      <trkpt lat="42.22397" lon="2.84232">
        <ele>164.89</ele>
        <time>2024-09-25T08:42:02.000Z</time>
      </trkpt>
      <trkpt lat="42.22393" lon="2.8418">
        <ele>164.91</ele>
        <time>2024-09-25T08:42:07.000Z</time>
      </trkpt>
      <trkpt lat="42.2239" lon="2.84129">
        <ele>164.61</ele>
        <time>2024-09-25T08:42:12.000Z</time>
      </trkpt>
      <trkpt lat="42.22388" lon="2.84079">
        <ele>164.48</ele>
        <time>2024-09-25T08:42:17.000Z</time>
      </trkpt>
      <trkpt lat="42.22384" lon="2.84031">
        <ele>164.45</ele>
        <time>2024-09-25T08:42:22.000Z</time>
      </trkpt>
      <trkpt lat="42.22381" lon="2.83982">
        <ele>164.39</ele>
        <time>2024-09-25T08:42:27.000Z</time>
      </trkpt>
      <trkpt lat="42.22377" lon="2.83933">
        <ele>164.3</ele>
        <time>2024-09-25T08:42:32.000Z</time>
      </trkpt>
      <trkpt lat="42.22374" lon="2.83883">
        <ele>164.19</ele>
        <time>2024-09-25T08:42:37.000Z</time>
      </trkpt>
      <trkpt lat="42.2237" lon="2.83835">
        <ele>164.15</ele>
        <time>2024-09-25T08:42:42.000Z</time>
      </trkpt>
      <trkpt lat="42.22367" lon="2.8379">
        <ele>164.13</ele>
        <time>2024-09-25T08:42:47.000Z</time>
      </trkpt>
      <trkpt lat="42.22364" lon="2.83747">
        <ele>163.93</ele>
        <time>2024-09-25T08:42:52.000Z</time>
      </trkpt>
      <trkpt lat="42.22361" lon="2.83705">
        <ele>163.77</ele>
        <time>2024-09-25T08:42:57.000Z</time>
      </trkpt>
      <trkpt lat="42.22358" lon="2.83665">
        <ele>163.69</ele>
        <time>2024-09-25T08:43:02.000Z</time>
      </trkpt>
      <trkpt lat="42.22356" lon="2.83627">
        <ele>163.92</ele>
        <time>2024-09-25T08:43:07.000Z</time>
      </trkpt>
      <trkpt lat="42.22353" lon="2.83591">
        <ele>164.09</ele>
        <time>2024-09-25T08:43:12.000Z</time>
      </trkpt>
      <trkpt lat="42.22351" lon="2.83556">
        <ele>164.05</ele>
        <time>2024-09-25T08:43:17.000Z</time>
      </trkpt>
      <trkpt lat="42.22348" lon="2.83522">
        <ele>164.34</ele>
        <time>2024-09-25T08:43:22.000Z</time>
      </trkpt>
      <trkpt lat="42.22347" lon="2.83492">
        <ele>164.56</ele>
        <time>2024-09-25T08:43:27.000Z</time>
      </trkpt>
      <trkpt lat="42.22345" lon="2.83469">
        <ele>164.57</ele>
        <time>2024-09-25T08:43:32.000Z</time>
      </trkpt>
      <trkpt lat="42.22343" lon="2.8345">
        <ele>164.62</ele>
        <time>2024-09-25T08:43:37.000Z</time>
      </trkpt>
      <trkpt lat="42.22342" lon="2.83431">
        <ele>164.7</ele>
        <time>2024-09-25T08:43:42.000Z</time>
      </trkpt>
      <trkpt lat="42.22341" lon="2.83415">
        <ele>164.79</ele>
        <time>2024-09-25T08:43:47.000Z</time>
      </trkpt>
      <trkpt lat="42.2234" lon="2.83398">
        <ele>164.89</ele>
        <time>2024-09-25T08:43:52.000Z</time>
      </trkpt>
      <trkpt lat="42.22339" lon="2.83381">
        <ele>165.02</ele>
        <time>2024-09-25T08:43:57.000Z</time>
      </trkpt>
      <trkpt lat="42.22337" lon="2.83365">
        <ele>165.17</ele>
        <time>2024-09-25T08:44:02.000Z</time>
      </trkpt>
      <trkpt lat="42.22336" lon="2.83348">
        <ele>165.3</ele>
        <time>2024-09-25T08:44:07.000Z</time>
      </trkpt>
      <trkpt lat="42.22335" lon="2.83331">
        <ele>165.46</ele>
        <time>2024-09-25T08:44:12.000Z</time>
      </trkpt>
      <trkpt lat="42.22333" lon="2.83315">
        <ele>165.64</ele>
        <time>2024-09-25T08:44:17.000Z</time>
      </trkpt>
      <trkpt lat="42.22331" lon="2.83299">
        <ele>165.79</ele>
        <time>2024-09-25T08:44:22.000Z</time>
      </trkpt>
      <trkpt lat="42.22329" lon="2.83283">
        <ele>165.93</ele>
        <time>2024-09-25T08:44:27.000Z</time>
      </trkpt>
      <trkpt lat="42.22328" lon="2.83266">
        <ele>166.05</ele>
        <time>2024-09-25T08:44:32.000Z</time>
      </trkpt>
      <trkpt lat="42.22326" lon="2.83249">
        <ele>166.19</ele>
        <time>2024-09-25T08:44:37.000Z</time>
      </trkpt>
      <trkpt lat="42.22323" lon="2.83232">
        <ele>166.36</ele>
        <time>2024-09-25T08:44:42.000Z</time>
      </trkpt>
      <trkpt lat="42.22321" lon="2.83215">
        <ele>166.56</ele>
        <time>2024-09-25T08:44:47.000Z</time>
      </trkpt>
      <trkpt lat="42.22317" lon="2.83199">
        <ele>166.78</ele>
        <time>2024-09-25T08:44:52.000Z</time>
      </trkpt>
      <trkpt lat="42.22314" lon="2.83182">
        <ele>167.03</ele>
        <time>2024-09-25T08:44:57.000Z</time>
      </trkpt>
      <trkpt lat="42.2231" lon="2.83163">
        <ele>167.29</ele>
        <time>2024-09-25T08:45:02.000Z</time>
      </trkpt>
      <trkpt lat="42.22306" lon="2.83142">
        <ele>167.56</ele>
        <time>2024-09-25T08:45:07.000Z</time>
      </trkpt>
      <trkpt lat="42.22301" lon="2.8312">
        <ele>167.83</ele>
        <time>2024-09-25T08:45:12.000Z</time>
      </trkpt>
      <trkpt lat="42.22295" lon="2.83098">
        <ele>168.12</ele>
        <time>2024-09-25T08:45:17.000Z</time>
      </trkpt>
      <trkpt lat="42.22291" lon="2.83081">
        <ele>168.41</ele>
        <time>2024-09-25T08:45:22.000Z</time>
      </trkpt>
      <trkpt lat="42.22288" lon="2.83064">
        <ele>168.71</ele>
        <time>2024-09-25T08:45:27.000Z</time>
      </trkpt>
      <trkpt lat="42.22284" lon="2.83048">
        <ele>169</ele>
        <time>2024-09-25T08:45:32.000Z</time>
      </trkpt>
      <trkpt lat="42.2228" lon="2.83031">
        <ele>169.32</ele>
        <time>2024-09-25T08:45:37.000Z</time>
      </trkpt>
      <trkpt lat="42.22276" lon="2.83014">
        <ele>169.66</ele>
        <time>2024-09-25T08:45:42.000Z</time>
      </trkpt>
      <trkpt lat="42.22272" lon="2.82997">
        <ele>170.03</ele>
        <time>2024-09-25T08:45:47.000Z</time>
      </trkpt>
      <trkpt lat="42.22269" lon="2.82981">
        <ele>170.43</ele>
        <time>2024-09-25T08:45:52.000Z</time>
      </trkpt>
      <trkpt lat="42.22264" lon="2.82964">
        <ele>170.84</ele>
        <time>2024-09-25T08:45:57.000Z</time>
      </trkpt>
      <trkpt lat="42.2226" lon="2.82947">
        <ele>171.24</ele>
        <time>2024-09-25T08:46:02.000Z</time>
      </trkpt>
      <trkpt lat="42.22256" lon="2.82931">
        <ele>171.65</ele>
        <time>2024-09-25T08:46:07.000Z</time>
      </trkpt>
      <trkpt lat="42.22252" lon="2.82914">
        <ele>172.07</ele>
        <time>2024-09-25T08:46:12.000Z</time>
      </trkpt>
      <trkpt lat="42.22248" lon="2.82898">
        <ele>172.49</ele>
        <time>2024-09-25T08:46:17.000Z</time>
      </trkpt>
      <trkpt lat="42.22244" lon="2.82881">
        <ele>172.9</ele>
        <time>2024-09-25T08:46:22.000Z</time>
      </trkpt>
      <trkpt lat="42.22241" lon="2.82864">
        <ele>173.32</ele>
        <time>2024-09-25T08:46:27.000Z</time>
      </trkpt>
      <trkpt lat="42.22238" lon="2.82847">
        <ele>173.76</ele>
        <time>2024-09-25T08:46:32.000Z</time>
      </trkpt>
      <trkpt lat="42.22233" lon="2.82831">
        <ele>174.2</ele>
        <time>2024-09-25T08:46:37.000Z</time>
      </trkpt>
      <trkpt lat="42.2223" lon="2.82814">
        <ele>174.66</ele>
        <time>2024-09-25T08:46:42.000Z</time>
      </trkpt>
      <trkpt lat="42.22226" lon="2.82798">
        <ele>175.12</ele>
        <time>2024-09-25T08:46:47.000Z</time>
      </trkpt>
      <trkpt lat="42.22223" lon="2.82782">
        <ele>175.59</ele>
        <time>2024-09-25T08:46:52.000Z</time>
      </trkpt>
      <trkpt lat="42.2222" lon="2.8277">
        <ele>176.08</ele>
        <time>2024-09-25T08:46:57.000Z</time>
      </trkpt>
      <trkpt lat="42.22217" lon="2.82757">
        <ele>176.57</ele>
        <time>2024-09-25T08:47:02.000Z</time>
      </trkpt>
      <trkpt lat="42.22215" lon="2.82742">
        <ele>177.08</ele>
        <time>2024-09-25T08:47:07.000Z</time>
      </trkpt>
      <trkpt lat="42.22213" lon="2.82728">
        <ele>177.65</ele>
        <time>2024-09-25T08:47:12.000Z</time>
      </trkpt>
      <trkpt lat="42.22208" lon="2.82715">
        <ele>178.23</ele>
        <time>2024-09-25T08:47:17.000Z</time>
      </trkpt>
      <trkpt lat="42.22205" lon="2.82701">
        <ele>178.81</ele>
        <time>2024-09-25T08:47:22.000Z</time>
      </trkpt>
      <trkpt lat="42.22201" lon="2.82687">
        <ele>179.38</ele>
        <time>2024-09-25T08:47:27.000Z</time>
      </trkpt>
      <trkpt lat="42.22197" lon="2.82673">
        <ele>179.94</ele>
        <time>2024-09-25T08:47:32.000Z</time>
      </trkpt>
      <trkpt lat="42.22193" lon="2.82659">
        <ele>180.5</ele>
        <time>2024-09-25T08:47:37.000Z</time>
      </trkpt>
      <trkpt lat="42.2219" lon="2.82644">
        <ele>181.04</ele>
        <time>2024-09-25T08:47:42.000Z</time>
      </trkpt>
      <trkpt lat="42.22187" lon="2.82632">
        <ele>181.92</ele>
        <time>2024-09-25T08:47:56.000Z</time>
      </trkpt>
      <trkpt lat="42.22183" lon="2.82619">
        <ele>182.43</ele>
        <time>2024-09-25T08:48:01.000Z</time>
      </trkpt>
      <trkpt lat="42.2218" lon="2.82604">
        <ele>182.94</ele>
        <time>2024-09-25T08:48:06.000Z</time>
      </trkpt>
      <trkpt lat="42.22177" lon="2.82586">
        <ele>183.44</ele>
        <time>2024-09-25T08:48:11.000Z</time>
      </trkpt>
      <trkpt lat="42.22173" lon="2.82568">
        <ele>183.94</ele>
        <time>2024-09-25T08:48:16.000Z</time>
      </trkpt>
      <trkpt lat="42.22168" lon="2.82549">
        <ele>184.42</ele>
        <time>2024-09-25T08:48:21.000Z</time>
      </trkpt>
      <trkpt lat="42.22163" lon="2.82527">
        <ele>184.89</ele>
        <time>2024-09-25T08:48:26.000Z</time>
      </trkpt>
      <trkpt lat="42.22157" lon="2.82502">
        <ele>187.15</ele>
        <time>2024-09-25T08:48:31.000Z</time>
      </trkpt>
      <trkpt lat="42.22151" lon="2.82476">
        <ele>189</ele>
        <time>2024-09-25T08:48:36.000Z</time>
      </trkpt>
      <trkpt lat="42.22145" lon="2.82449">
        <ele>189.76</ele>
        <time>2024-09-25T08:48:41.000Z</time>
      </trkpt>
      <trkpt lat="42.22139" lon="2.82422">
        <ele>190.15</ele>
        <time>2024-09-25T08:48:46.000Z</time>
      </trkpt>
      <trkpt lat="42.22135" lon="2.82398">
        <ele>190.29</ele>
        <time>2024-09-25T08:48:51.000Z</time>
      </trkpt>
      <trkpt lat="42.2213" lon="2.82373">
        <ele>190.55</ele>
        <time>2024-09-25T08:48:56.000Z</time>
      </trkpt>
      <trkpt lat="42.22125" lon="2.82343">
        <ele>190.79</ele>
        <time>2024-09-25T08:49:01.000Z</time>
      </trkpt>
      <trkpt lat="42.2212" lon="2.82311">
        <ele>190.98</ele>
        <time>2024-09-25T08:49:06.000Z</time>
      </trkpt>
      <trkpt lat="42.22115" lon="2.82279">
        <ele>191.16</ele>
        <time>2024-09-25T08:49:11.000Z</time>
      </trkpt>
      <trkpt lat="42.22111" lon="2.82249">
        <ele>191.32</ele>
        <time>2024-09-25T08:49:16.000Z</time>
      </trkpt>
      <trkpt lat="42.22106" lon="2.82216">
        <ele>191.47</ele>
        <time>2024-09-25T08:49:21.000Z</time>
      </trkpt>
      <trkpt lat="42.22102" lon="2.82182">
        <ele>191.58</ele>
        <time>2024-09-25T08:49:26.000Z</time>
      </trkpt>
      <trkpt lat="42.22098" lon="2.82146">
        <ele>191.65</ele>
        <time>2024-09-25T08:49:31.000Z</time>
      </trkpt>
      <trkpt lat="42.22094" lon="2.82109">
        <ele>191.71</ele>
        <time>2024-09-25T08:49:36.000Z</time>
      </trkpt>
      <trkpt lat="42.22091" lon="2.8208">
        <ele>191.73</ele>
        <time>2024-09-25T08:49:41.000Z</time>
      </trkpt>
      <trkpt lat="42.22089" lon="2.82064">
        <ele>191.73</ele>
        <time>2024-09-25T08:49:46.000Z</time>
      </trkpt>
      <trkpt lat="42.22088" lon="2.82051">
        <ele>191.47</ele>
        <time>2024-09-25T08:51:30.999Z</time>
      </trkpt>
      <trkpt lat="42.22084" lon="2.82026">
        <ele>191.4</ele>
        <time>2024-09-25T08:51:35.999Z</time>
      </trkpt>
      <trkpt lat="42.22081" lon="2.82">
        <ele>191</ele>
        <time>2024-09-25T08:51:40.999Z</time>
      </trkpt>
      <trkpt lat="42.22078" lon="2.81967">
        <ele>190.75</ele>
        <time>2024-09-25T08:51:45.999Z</time>
      </trkpt>
      <trkpt lat="42.22074" lon="2.8193">
        <ele>190.65</ele>
        <time>2024-09-25T08:51:50.999Z</time>
      </trkpt>
      <trkpt lat="42.2207" lon="2.81889">
        <ele>190.57</ele>
        <time>2024-09-25T08:51:55.999Z</time>
      </trkpt>
      <trkpt lat="42.22065" lon="2.81842">
        <ele>190.42</ele>
        <time>2024-09-25T08:52:00.999Z</time>
      </trkpt>
      <trkpt lat="42.22059" lon="2.81792">
        <ele>190.18</ele>
        <time>2024-09-25T08:52:05.999Z</time>
      </trkpt>
      <trkpt lat="42.22055" lon="2.81742">
        <ele>189.88</ele>
        <time>2024-09-25T08:52:10.999Z</time>
      </trkpt>
      <trkpt lat="42.22049" lon="2.81691">
        <ele>189.66</ele>
        <time>2024-09-25T08:52:15.999Z</time>
      </trkpt>
      <trkpt lat="42.22044" lon="2.81641">
        <ele>189.25</ele>
        <time>2024-09-25T08:52:20.999Z</time>
      </trkpt>
      <trkpt lat="42.2204" lon="2.81592">
        <ele>189.6</ele>
        <time>2024-09-25T08:52:25.999Z</time>
      </trkpt>
      <trkpt lat="42.22034" lon="2.81544">
        <ele>189.95</ele>
        <time>2024-09-25T08:52:30.999Z</time>
      </trkpt>
      <trkpt lat="42.22029" lon="2.81503">
        <ele>190.22</ele>
        <time>2024-09-25T08:52:35.999Z</time>
      </trkpt>
      <trkpt lat="42.22026" lon="2.81467">
        <ele>190.17</ele>
        <time>2024-09-25T08:52:40.999Z</time>
      </trkpt>
      <trkpt lat="42.22023" lon="2.81437">
        <ele>190.28</ele>
        <time>2024-09-25T08:52:45.999Z</time>
      </trkpt>
      <trkpt lat="42.22022" lon="2.8141">
        <ele>190.29</ele>
        <time>2024-09-25T08:52:50.999Z</time>
      </trkpt>
      <trkpt lat="42.22019" lon="2.81384">
        <ele>190.6</ele>
        <time>2024-09-25T08:52:55.999Z</time>
      </trkpt>
      <trkpt lat="42.22017" lon="2.81357">
        <ele>190.9</ele>
        <time>2024-09-25T08:53:00.999Z</time>
      </trkpt>
      <trkpt lat="42.22013" lon="2.8133">
        <ele>190.65</ele>
        <time>2024-09-25T08:53:05.999Z</time>
      </trkpt>
      <trkpt lat="42.22009" lon="2.81299">
        <ele>190.04</ele>
        <time>2024-09-25T08:53:10.999Z</time>
      </trkpt>
      <trkpt lat="42.22003" lon="2.81265">
        <ele>189.49</ele>
        <time>2024-09-25T08:53:15.999Z</time>
      </trkpt>
      <trkpt lat="42.21996" lon="2.81225">
        <ele>188.84</ele>
        <time>2024-09-25T08:53:20.999Z</time>
      </trkpt>
      <trkpt lat="42.21985" lon="2.81177">
        <ele>187.57</ele>
        <time>2024-09-25T08:53:25.999Z</time>
      </trkpt>
      <trkpt lat="42.21969" lon="2.81127">
        <ele>186.38</ele>
        <time>2024-09-25T08:53:30.999Z</time>
      </trkpt>
      <trkpt lat="42.2195" lon="2.81076">
        <ele>185.55</ele>
        <time>2024-09-25T08:53:35.999Z</time>
      </trkpt>
      <trkpt lat="42.2193" lon="2.81025">
        <ele>184.89</ele>
        <time>2024-09-25T08:53:40.999Z</time>
      </trkpt>
      <trkpt lat="42.21909" lon="2.80975">
        <ele>184.36</ele>
        <time>2024-09-25T08:53:45.999Z</time>
      </trkpt>
      <trkpt lat="42.21886" lon="2.80924">
        <ele>183.46</ele>
        <time>2024-09-25T08:53:50.999Z</time>
      </trkpt>
      <trkpt lat="42.21861" lon="2.80872">
        <ele>183.18</ele>
        <time>2024-09-25T08:53:55.999Z</time>
      </trkpt>
      <trkpt lat="42.21837" lon="2.80825">
        <ele>182.79</ele>
        <time>2024-09-25T08:54:00.999Z</time>
      </trkpt>
      <trkpt lat="42.21815" lon="2.80786">
        <ele>182.5</ele>
        <time>2024-09-25T08:54:05.999Z</time>
      </trkpt>
      <trkpt lat="42.21798" lon="2.80756">
        <ele>182.12</ele>
        <time>2024-09-25T08:54:10.999Z</time>
      </trkpt>
      <trkpt lat="42.21785" lon="2.80736">
        <ele>181.88</ele>
        <time>2024-09-25T08:54:15.999Z</time>
      </trkpt>
      <trkpt lat="42.21774" lon="2.80718">
        <ele>181.83</ele>
        <time>2024-09-25T08:54:20.999Z</time>
      </trkpt>
      <trkpt lat="42.21762" lon="2.80702">
        <ele>181.73</ele>
        <time>2024-09-25T08:54:25.999Z</time>
      </trkpt>
      <trkpt lat="42.21752" lon="2.80685">
        <ele>181.61</ele>
        <time>2024-09-25T08:54:30.999Z</time>
      </trkpt>
      <trkpt lat="42.2174" lon="2.80669">
        <ele>181.49</ele>
        <time>2024-09-25T08:54:35.999Z</time>
      </trkpt>
      <trkpt lat="42.2173" lon="2.80655">
        <ele>181.41</ele>
        <time>2024-09-25T08:54:40.999Z</time>
      </trkpt>
      <trkpt lat="42.21719" lon="2.8064">
        <ele>181.35</ele>
        <time>2024-09-25T08:54:45.999Z</time>
      </trkpt>
      <trkpt lat="42.21709" lon="2.80628">
        <ele>181.32</ele>
        <time>2024-09-25T08:54:50.999Z</time>
      </trkpt>
      <trkpt lat="42.21698" lon="2.80615">
        <ele>181.35</ele>
        <time>2024-09-25T08:54:55.999Z</time>
      </trkpt>
      <trkpt lat="42.21687" lon="2.80602">
        <ele>181.41</ele>
        <time>2024-09-25T08:55:00.999Z</time>
      </trkpt>
      <trkpt lat="42.21677" lon="2.80589">
        <ele>181.51</ele>
        <time>2024-09-25T08:55:05.999Z</time>
      </trkpt>
      <trkpt lat="42.21666" lon="2.80576">
        <ele>181.65</ele>
        <time>2024-09-25T08:55:10.999Z</time>
      </trkpt>
      <trkpt lat="42.21655" lon="2.80564">
        <ele>181.82</ele>
        <time>2024-09-25T08:55:15.999Z</time>
      </trkpt>
      <trkpt lat="42.21643" lon="2.80552">
        <ele>182.02</ele>
        <time>2024-09-25T08:55:20.999Z</time>
      </trkpt>
      <trkpt lat="42.21631" lon="2.8054">
        <ele>182.25</ele>
        <time>2024-09-25T08:55:25.999Z</time>
      </trkpt>
      <trkpt lat="42.2162" lon="2.80527">
        <ele>182.49</ele>
        <time>2024-09-25T08:55:30.999Z</time>
      </trkpt>
      <trkpt lat="42.21609" lon="2.80515">
        <ele>182.76</ele>
        <time>2024-09-25T08:55:35.999Z</time>
      </trkpt>
      <trkpt lat="42.21596" lon="2.80504">
        <ele>183.06</ele>
        <time>2024-09-25T08:55:40.999Z</time>
      </trkpt>
      <trkpt lat="42.21583" lon="2.80492">
        <ele>183.39</ele>
        <time>2024-09-25T08:55:45.999Z</time>
      </trkpt>
      <trkpt lat="42.21572" lon="2.8048">
        <ele>183.74</ele>
        <time>2024-09-25T08:55:50.999Z</time>
      </trkpt>
      <trkpt lat="42.21561" lon="2.80468">
        <ele>184.1</ele>
        <time>2024-09-25T08:55:55.999Z</time>
      </trkpt>
      <trkpt lat="42.21548" lon="2.80456">
        <ele>184.48</ele>
        <time>2024-09-25T08:56:00.999Z</time>
      </trkpt>
      <trkpt lat="42.21536" lon="2.80444">
        <ele>184.88</ele>
        <time>2024-09-25T08:56:05.999Z</time>
      </trkpt>
      <trkpt lat="42.21523" lon="2.80433">
        <ele>185.3</ele>
        <time>2024-09-25T08:56:10.999Z</time>
      </trkpt>
      <trkpt lat="42.21511" lon="2.80421">
        <ele>185.73</ele>
        <time>2024-09-25T08:56:15.999Z</time>
      </trkpt>
      <trkpt lat="42.215" lon="2.80409">
        <ele>186.18</ele>
        <time>2024-09-25T08:56:20.999Z</time>
      </trkpt>
      <trkpt lat="42.21488" lon="2.80397">
        <ele>186.66</ele>
        <time>2024-09-25T08:56:25.999Z</time>
      </trkpt>
      <trkpt lat="42.21476" lon="2.80385">
        <ele>187.14</ele>
        <time>2024-09-25T08:56:30.999Z</time>
      </trkpt>
      <trkpt lat="42.21464" lon="2.80373">
        <ele>187.6</ele>
        <time>2024-09-25T08:56:35.999Z</time>
      </trkpt>
      <trkpt lat="42.21451" lon="2.80361">
        <ele>187.99</ele>
        <time>2024-09-25T08:56:40.999Z</time>
      </trkpt>
      <trkpt lat="42.21438" lon="2.80348">
        <ele>188.33</ele>
        <time>2024-09-25T08:56:45.999Z</time>
      </trkpt>
      <trkpt lat="42.21424" lon="2.80335">
        <ele>188.64</ele>
        <time>2024-09-25T08:56:50.999Z</time>
      </trkpt>
      <trkpt lat="42.2141" lon="2.80322">
        <ele>188.93</ele>
        <time>2024-09-25T08:56:55.999Z</time>
      </trkpt>
      <trkpt lat="42.21396" lon="2.80308">
        <ele>189.17</ele>
        <time>2024-09-25T08:57:00.999Z</time>
      </trkpt>
      <trkpt lat="42.21383" lon="2.80295">
        <ele>189.39</ele>
        <time>2024-09-25T08:57:05.999Z</time>
      </trkpt>
      <trkpt lat="42.21369" lon="2.80281">
        <ele>189.58</ele>
        <time>2024-09-25T08:57:10.999Z</time>
      </trkpt>
      <trkpt lat="42.21355" lon="2.80267">
        <ele>189.94</ele>
        <time>2024-09-25T08:57:15.999Z</time>
      </trkpt>
      <trkpt lat="42.21339" lon="2.80251">
        <ele>190.73</ele>
        <time>2024-09-25T08:57:20.999Z</time>
      </trkpt>
      <trkpt lat="42.21321" lon="2.80234">
        <ele>191.14</ele>
        <time>2024-09-25T08:57:25.999Z</time>
      </trkpt>
      <trkpt lat="42.21299" lon="2.80215">
        <ele>191.13</ele>
        <time>2024-09-25T08:57:30.999Z</time>
      </trkpt>
      <trkpt lat="42.21275" lon="2.80192">
        <ele>190.7</ele>
        <time>2024-09-25T08:57:35.999Z</time>
      </trkpt>
      <trkpt lat="42.21251" lon="2.80168">
        <ele>190.1</ele>
        <time>2024-09-25T08:57:40.999Z</time>
      </trkpt>
      <trkpt lat="42.21234" lon="2.80151">
        <ele>189.8</ele>
        <time>2024-09-25T08:57:45.999Z</time>
      </trkpt>
      <trkpt lat="42.21227" lon="2.80143">
        <ele>189.79</ele>
        <time>2024-09-25T08:58:04.999Z</time>
      </trkpt>
      <trkpt lat="42.21215" lon="2.80132">
        <ele>189.76</ele>
        <time>2024-09-25T08:58:09.999Z</time>
      </trkpt>
      <trkpt lat="42.21199" lon="2.80116">
        <ele>189.54</ele>
        <time>2024-09-25T08:58:14.999Z</time>
      </trkpt>
      <trkpt lat="42.21179" lon="2.80097">
        <ele>189.39</ele>
        <time>2024-09-25T08:58:19.999Z</time>
      </trkpt>
      <trkpt lat="42.21158" lon="2.80075">
        <ele>189.19</ele>
        <time>2024-09-25T08:58:24.999Z</time>
      </trkpt>
      <trkpt lat="42.21133" lon="2.80049">
        <ele>188.98</ele>
        <time>2024-09-25T08:58:29.999Z</time>
      </trkpt>
      <trkpt lat="42.21106" lon="2.80016">
        <ele>188.61</ele>
        <time>2024-09-25T08:58:34.999Z</time>
      </trkpt>
      <trkpt lat="42.2108" lon="2.7998">
        <ele>188.06</ele>
        <time>2024-09-25T08:58:39.999Z</time>
      </trkpt>
      <trkpt lat="42.21054" lon="2.79941">
        <ele>187.55</ele>
        <time>2024-09-25T08:58:44.999Z</time>
      </trkpt>
      <trkpt lat="42.21029" lon="2.79896">
        <ele>186.94</ele>
        <time>2024-09-25T08:58:49.999Z</time>
      </trkpt>
      <trkpt lat="42.21005" lon="2.79846">
        <ele>186.24</ele>
        <time>2024-09-25T08:58:54.999Z</time>
      </trkpt>
      <trkpt lat="42.20982" lon="2.79795">
        <ele>185.54</ele>
        <time>2024-09-25T08:58:59.999Z</time>
      </trkpt>
      <trkpt lat="42.20963" lon="2.79745">
        <ele>184.96</ele>
        <time>2024-09-25T08:59:04.999Z</time>
      </trkpt>
      <trkpt lat="42.20946" lon="2.79698">
        <ele>184.42</ele>
        <time>2024-09-25T08:59:09.999Z</time>
      </trkpt>
      <trkpt lat="42.20935" lon="2.79654">
        <ele>184.04</ele>
        <time>2024-09-25T08:59:14.999Z</time>
      </trkpt>
      <trkpt lat="42.20925" lon="2.79614">
        <ele>183.56</ele>
        <time>2024-09-25T08:59:19.999Z</time>
      </trkpt>
      <trkpt lat="42.20919" lon="2.79575">
        <ele>183.12</ele>
        <time>2024-09-25T08:59:24.999Z</time>
      </trkpt>
      <trkpt lat="42.20914" lon="2.79538">
        <ele>182.43</ele>
        <time>2024-09-25T08:59:29.999Z</time>
      </trkpt>
      <trkpt lat="42.2091" lon="2.79502">
        <ele>181.56</ele>
        <time>2024-09-25T08:59:34.999Z</time>
      </trkpt>
      <trkpt lat="42.20906" lon="2.79465">
        <ele>180.61</ele>
        <time>2024-09-25T08:59:39.999Z</time>
      </trkpt>
      <trkpt lat="42.20904" lon="2.7943">
        <ele>180.37</ele>
        <time>2024-09-25T08:59:44.999Z</time>
      </trkpt>
      <trkpt lat="42.20902" lon="2.79398">
        <ele>180.65</ele>
        <time>2024-09-25T08:59:49.999Z</time>
      </trkpt>
      <trkpt lat="42.20899" lon="2.79368">
        <ele>181.11</ele>
        <time>2024-09-25T08:59:54.999Z</time>
      </trkpt>
      <trkpt lat="42.20896" lon="2.79339">
        <ele>181.56</ele>
        <time>2024-09-25T08:59:59.999Z</time>
      </trkpt>
      <trkpt lat="42.20894" lon="2.79311">
        <ele>181.7</ele>
        <time>2024-09-25T09:00:04.999Z</time>
      </trkpt>
      <trkpt lat="42.20892" lon="2.79284">
        <ele>181.27</ele>
        <time>2024-09-25T09:00:09.999Z</time>
      </trkpt>
      <trkpt lat="42.20888" lon="2.79258">
        <ele>181.08</ele>
        <time>2024-09-25T09:00:14.999Z</time>
      </trkpt>
      <trkpt lat="42.20884" lon="2.79234">
        <ele>181.05</ele>
        <time>2024-09-25T09:00:19.999Z</time>
      </trkpt>
      <trkpt lat="42.20879" lon="2.79212">
        <ele>181.04</ele>
        <time>2024-09-25T09:00:24.999Z</time>
      </trkpt>
      <trkpt lat="42.20873" lon="2.7919">
        <ele>181.04</ele>
        <time>2024-09-25T09:00:29.999Z</time>
      </trkpt>
      <trkpt lat="42.20867" lon="2.7917">
        <ele>181.05</ele>
        <time>2024-09-25T09:00:34.999Z</time>
      </trkpt>
      <trkpt lat="42.20861" lon="2.79149">
        <ele>181.06</ele>
        <time>2024-09-25T09:00:39.999Z</time>
      </trkpt>
      <trkpt lat="42.20855" lon="2.79129">
        <ele>181.11</ele>
        <time>2024-09-25T09:00:44.999Z</time>
      </trkpt>
      <trkpt lat="42.20848" lon="2.79108">
        <ele>181.24</ele>
        <time>2024-09-25T09:00:49.999Z</time>
      </trkpt>
      <trkpt lat="42.2084" lon="2.79088">
        <ele>181.44</ele>
        <time>2024-09-25T09:00:54.999Z</time>
      </trkpt>
      <trkpt lat="42.20833" lon="2.79069">
        <ele>181.71</ele>
        <time>2024-09-25T09:00:59.999Z</time>
      </trkpt>
      <trkpt lat="42.20824" lon="2.79053">
        <ele>182.06</ele>
        <time>2024-09-25T09:01:04.999Z</time>
      </trkpt>
      <trkpt lat="42.20815" lon="2.79034">
        <ele>182.47</ele>
        <time>2024-09-25T09:01:09.999Z</time>
      </trkpt>
      <trkpt lat="42.20807" lon="2.79017">
        <ele>182.9</ele>
        <time>2024-09-25T09:01:14.999Z</time>
      </trkpt>
      <trkpt lat="42.20799" lon="2.79">
        <ele>183.32</ele>
        <time>2024-09-25T09:01:19.999Z</time>
      </trkpt>
      <trkpt lat="42.20791" lon="2.78982">
        <ele>183.75</ele>
        <time>2024-09-25T09:01:24.999Z</time>
      </trkpt>
      <trkpt lat="42.20783" lon="2.78966">
        <ele>184.24</ele>
        <time>2024-09-25T09:01:29.999Z</time>
      </trkpt>
      <trkpt lat="42.20776" lon="2.7895">
        <ele>184.74</ele>
        <time>2024-09-25T09:01:34.999Z</time>
      </trkpt>
      <trkpt lat="42.20767" lon="2.78934">
        <ele>185.27</ele>
        <time>2024-09-25T09:01:39.999Z</time>
      </trkpt>
      <trkpt lat="42.20759" lon="2.78918">
        <ele>185.83</ele>
        <time>2024-09-25T09:01:44.999Z</time>
      </trkpt>
      <trkpt lat="42.20752" lon="2.78903">
        <ele>186.44</ele>
        <time>2024-09-25T09:01:49.999Z</time>
      </trkpt>
      <trkpt lat="42.20746" lon="2.78889">
        <ele>187.07</ele>
        <time>2024-09-25T09:01:54.999Z</time>
      </trkpt>
      <trkpt lat="42.20739" lon="2.78874">
        <ele>187.74</ele>
        <time>2024-09-25T09:01:59.999Z</time>
      </trkpt>
      <trkpt lat="42.20732" lon="2.78859">
        <ele>188.44</ele>
        <time>2024-09-25T09:02:04.999Z</time>
      </trkpt>
      <trkpt lat="42.20725" lon="2.78845">
        <ele>189.16</ele>
        <time>2024-09-25T09:02:09.999Z</time>
      </trkpt>
      <trkpt lat="42.20717" lon="2.78829">
        <ele>189.88</ele>
        <time>2024-09-25T09:02:14.999Z</time>
      </trkpt>
      <trkpt lat="42.2071" lon="2.78813">
        <ele>190.59</ele>
        <time>2024-09-25T09:02:19.999Z</time>
      </trkpt>
      <trkpt lat="42.20704" lon="2.78797">
        <ele>191.31</ele>
        <time>2024-09-25T09:02:24.999Z</time>
      </trkpt>
      <trkpt lat="42.20698" lon="2.78782">
        <ele>192</ele>
        <time>2024-09-25T09:02:29.999Z</time>
      </trkpt>
      <trkpt lat="42.20693" lon="2.78766">
        <ele>192.65</ele>
        <time>2024-09-25T09:02:34.999Z</time>
      </trkpt>
      <trkpt lat="42.20688" lon="2.7875">
        <ele>193.28</ele>
        <time>2024-09-25T09:02:39.999Z</time>
      </trkpt>
      <trkpt lat="42.20684" lon="2.78733">
        <ele>193.9</ele>
        <time>2024-09-25T09:02:44.999Z</time>
      </trkpt>
      <trkpt lat="42.20679" lon="2.78718">
        <ele>194.5</ele>
        <time>2024-09-25T09:02:49.999Z</time>
      </trkpt>
      <trkpt lat="42.20674" lon="2.78701">
        <ele>195.09</ele>
        <time>2024-09-25T09:02:54.999Z</time>
      </trkpt>
      <trkpt lat="42.20668" lon="2.78684">
        <ele>195.68</ele>
        <time>2024-09-25T09:02:59.999Z</time>
      </trkpt>
      <trkpt lat="42.20664" lon="2.78668">
        <ele>196.23</ele>
        <time>2024-09-25T09:03:04.999Z</time>
      </trkpt>
      <trkpt lat="42.20659" lon="2.78651">
        <ele>196.77</ele>
        <time>2024-09-25T09:03:09.999Z</time>
      </trkpt>
      <trkpt lat="42.20655" lon="2.78634">
        <ele>197.29</ele>
        <time>2024-09-25T09:03:14.999Z</time>
      </trkpt>
      <trkpt lat="42.2065" lon="2.78617">
        <ele>197.81</ele>
        <time>2024-09-25T09:03:19.999Z</time>
      </trkpt>
      <trkpt lat="42.20645" lon="2.786">
        <ele>198.31</ele>
        <time>2024-09-25T09:03:24.999Z</time>
      </trkpt>
      <trkpt lat="42.2064" lon="2.78583">
        <ele>198.79</ele>
        <time>2024-09-25T09:03:29.999Z</time>
      </trkpt>
      <trkpt lat="42.20636" lon="2.78566">
        <ele>199.28</ele>
        <time>2024-09-25T09:03:34.999Z</time>
      </trkpt>
      <trkpt lat="42.20631" lon="2.78549">
        <ele>199.75</ele>
        <time>2024-09-25T09:03:39.999Z</time>
      </trkpt>
      <trkpt lat="42.20626" lon="2.78534">
        <ele>200.18</ele>
        <time>2024-09-25T09:03:44.999Z</time>
      </trkpt>
      <trkpt lat="42.20622" lon="2.78517">
        <ele>200.58</ele>
        <time>2024-09-25T09:03:50.000Z</time>
      </trkpt>
      <trkpt lat="42.20618" lon="2.785">
        <ele>200.95</ele>
        <time>2024-09-25T09:03:55.000Z</time>
      </trkpt>
      <trkpt lat="42.20614" lon="2.78483">
        <ele>201.32</ele>
        <time>2024-09-25T09:04:00.000Z</time>
      </trkpt>
      <trkpt lat="42.20611" lon="2.78467">
        <ele>201.69</ele>
        <time>2024-09-25T09:04:05.000Z</time>
      </trkpt>
      <trkpt lat="42.20606" lon="2.7845">
        <ele>202.05</ele>
        <time>2024-09-25T09:04:10.000Z</time>
      </trkpt>
      <trkpt lat="42.20602" lon="2.78432">
        <ele>202.44</ele>
        <time>2024-09-25T09:04:15.000Z</time>
      </trkpt>
      <trkpt lat="42.20599" lon="2.78414">
        <ele>202.82</ele>
        <time>2024-09-25T09:04:20.000Z</time>
      </trkpt>
      <trkpt lat="42.20594" lon="2.78398">
        <ele>203.2</ele>
        <time>2024-09-25T09:04:25.000Z</time>
      </trkpt>
      <trkpt lat="42.2059" lon="2.78381">
        <ele>203.58</ele>
        <time>2024-09-25T09:04:30.000Z</time>
      </trkpt>
      <trkpt lat="42.20586" lon="2.78364">
        <ele>203.95</ele>
        <time>2024-09-25T09:04:35.000Z</time>
      </trkpt>
      <trkpt lat="42.20581" lon="2.78347">
        <ele>204.32</ele>
        <time>2024-09-25T09:04:40.000Z</time>
      </trkpt>
      <trkpt lat="42.20577" lon="2.7833">
        <ele>204.71</ele>
        <time>2024-09-25T09:04:45.000Z</time>
      </trkpt>
      <trkpt lat="42.20573" lon="2.78314">
        <ele>205.09</ele>
        <time>2024-09-25T09:04:50.000Z</time>
      </trkpt>
      <trkpt lat="42.20569" lon="2.78298">
        <ele>205.48</ele>
        <time>2024-09-25T09:04:55.000Z</time>
      </trkpt>
      <trkpt lat="42.20564" lon="2.78281">
        <ele>205.88</ele>
        <time>2024-09-25T09:05:00.000Z</time>
      </trkpt>
      <trkpt lat="42.2056" lon="2.78264">
        <ele>206.29</ele>
        <time>2024-09-25T09:05:05.000Z</time>
      </trkpt>
      <trkpt lat="42.20557" lon="2.78248">
        <ele>206.7</ele>
        <time>2024-09-25T09:05:10.000Z</time>
      </trkpt>
      <trkpt lat="42.20553" lon="2.78231">
        <ele>207.11</ele>
        <time>2024-09-25T09:05:15.000Z</time>
      </trkpt>
      <trkpt lat="42.20549" lon="2.78214">
        <ele>207.52</ele>
        <time>2024-09-25T09:05:20.000Z</time>
      </trkpt>
      <trkpt lat="42.20545" lon="2.78199">
        <ele>207.92</ele>
        <time>2024-09-25T09:05:25.000Z</time>
      </trkpt>
      <trkpt lat="42.2054" lon="2.78181">
        <ele>208.3</ele>
        <time>2024-09-25T09:05:30.000Z</time>
      </trkpt>
      <trkpt lat="42.20536" lon="2.78162">
        <ele>208.68</ele>
        <time>2024-09-25T09:05:35.000Z</time>
      </trkpt>
      <trkpt lat="42.20532" lon="2.78144">
        <ele>209.05</ele>
        <time>2024-09-25T09:05:40.000Z</time>
      </trkpt>
      <trkpt lat="42.20528" lon="2.78126">
        <ele>209.41</ele>
        <time>2024-09-25T09:05:45.000Z</time>
      </trkpt>
      <trkpt lat="42.20523" lon="2.7811">
        <ele>209.74</ele>
        <time>2024-09-25T09:05:50.000Z</time>
      </trkpt>
      <trkpt lat="42.20519" lon="2.78089">
        <ele>210.05</ele>
        <time>2024-09-25T09:05:55.000Z</time>
      </trkpt>
      <trkpt lat="42.20515" lon="2.78067">
        <ele>210.34</ele>
        <time>2024-09-25T09:06:00.000Z</time>
      </trkpt>
      <trkpt lat="42.20511" lon="2.78042">
        <ele>211.68</ele>
        <time>2024-09-25T09:06:05.000Z</time>
      </trkpt>
      <trkpt lat="42.20508" lon="2.78015">
        <ele>212.7</ele>
        <time>2024-09-25T09:06:10.000Z</time>
      </trkpt>
      <trkpt lat="42.20505" lon="2.77987">
        <ele>213.03</ele>
        <time>2024-09-25T09:06:15.000Z</time>
      </trkpt>
      <trkpt lat="42.20503" lon="2.77956">
        <ele>213.18</ele>
        <time>2024-09-25T09:06:20.000Z</time>
      </trkpt>
      <trkpt lat="42.20501" lon="2.7792">
        <ele>213.32</ele>
        <time>2024-09-25T09:06:25.000Z</time>
      </trkpt>
      <trkpt lat="42.205" lon="2.77877">
        <ele>213.38</ele>
        <time>2024-09-25T09:06:30.000Z</time>
      </trkpt>
      <trkpt lat="42.205" lon="2.77831">
        <ele>213.42</ele>
        <time>2024-09-25T09:06:35.000Z</time>
      </trkpt>
      <trkpt lat="42.20506" lon="2.7778">
        <ele>213.18</ele>
        <time>2024-09-25T09:06:40.000Z</time>
      </trkpt>
      <trkpt lat="42.2051" lon="2.77728">
        <ele>212.95</ele>
        <time>2024-09-25T09:06:45.000Z</time>
      </trkpt>
      <trkpt lat="42.20515" lon="2.77673">
        <ele>212.6</ele>
        <time>2024-09-25T09:06:50.000Z</time>
      </trkpt>
      <trkpt lat="42.2052" lon="2.77619">
        <ele>211.91</ele>
        <time>2024-09-25T09:06:55.000Z</time>
      </trkpt>
      <trkpt lat="42.20525" lon="2.77563">
        <ele>211</ele>
        <time>2024-09-25T09:07:00.000Z</time>
      </trkpt>
      <trkpt lat="42.2053" lon="2.77502">
        <ele>209.79</ele>
        <time>2024-09-25T09:07:05.000Z</time>
      </trkpt>
      <trkpt lat="42.20539" lon="2.7744">
        <ele>208.86</ele>
        <time>2024-09-25T09:07:10.000Z</time>
      </trkpt>
      <trkpt lat="42.20545" lon="2.77377">
        <ele>208.25</ele>
        <time>2024-09-25T09:07:15.000Z</time>
      </trkpt>
      <trkpt lat="42.20547" lon="2.77316">
        <ele>207.5</ele>
        <time>2024-09-25T09:07:20.000Z</time>
      </trkpt>
      <trkpt lat="42.20549" lon="2.77263">
        <ele>206.84</ele>
        <time>2024-09-25T09:07:25.000Z</time>
      </trkpt>
      <trkpt lat="42.2055" lon="2.77218">
        <ele>206.21</ele>
        <time>2024-09-25T09:07:30.000Z</time>
      </trkpt>
      <trkpt lat="42.20551" lon="2.77177">
        <ele>205.87</ele>
        <time>2024-09-25T09:07:35.000Z</time>
      </trkpt>
      <trkpt lat="42.20552" lon="2.77142">
        <ele>205.49</ele>
        <time>2024-09-25T09:07:40.000Z</time>
      </trkpt>
      <trkpt lat="42.20553" lon="2.77108">
        <ele>205.2</ele>
        <time>2024-09-25T09:07:45.000Z</time>
      </trkpt>
      <trkpt lat="42.20554" lon="2.77073">
        <ele>205.3</ele>
        <time>2024-09-25T09:07:50.000Z</time>
      </trkpt>
      <trkpt lat="42.20555" lon="2.77036">
        <ele>205.46</ele>
        <time>2024-09-25T09:07:55.000Z</time>
      </trkpt>
      <trkpt lat="42.20555" lon="2.76999">
        <ele>205.15</ele>
        <time>2024-09-25T09:08:00.000Z</time>
      </trkpt>
      <trkpt lat="42.20556" lon="2.76959">
        <ele>204.63</ele>
        <time>2024-09-25T09:08:05.000Z</time>
      </trkpt>
      <trkpt lat="42.20556" lon="2.76917">
        <ele>204.26</ele>
        <time>2024-09-25T09:08:10.000Z</time>
      </trkpt>
      <trkpt lat="42.20557" lon="2.76873">
        <ele>203.62</ele>
        <time>2024-09-25T09:08:15.000Z</time>
      </trkpt>
      <trkpt lat="42.20557" lon="2.76829">
        <ele>202.7</ele>
        <time>2024-09-25T09:08:20.000Z</time>
      </trkpt>
      <trkpt lat="42.20557" lon="2.76782">
        <ele>201.15</ele>
        <time>2024-09-25T09:08:25.000Z</time>
      </trkpt>
      <trkpt lat="42.20558" lon="2.76734">
        <ele>198.63</ele>
        <time>2024-09-25T09:08:30.000Z</time>
      </trkpt>
      <trkpt lat="42.20561" lon="2.76682">
        <ele>198.05</ele>
        <time>2024-09-25T09:08:35.000Z</time>
      </trkpt>
      <trkpt lat="42.20562" lon="2.76632">
        <ele>198.71</ele>
        <time>2024-09-25T09:08:40.000Z</time>
      </trkpt>
      <trkpt lat="42.20563" lon="2.76583">
        <ele>198.88</ele>
        <time>2024-09-25T09:08:45.000Z</time>
      </trkpt>
      <trkpt lat="42.20564" lon="2.76536">
        <ele>199.66</ele>
        <time>2024-09-25T09:08:50.000Z</time>
      </trkpt>
      <trkpt lat="42.20565" lon="2.76491">
        <ele>201.21</ele>
        <time>2024-09-25T09:08:55.000Z</time>
      </trkpt>
      <trkpt lat="42.20566" lon="2.76445">
        <ele>202.2</ele>
        <time>2024-09-25T09:09:00.000Z</time>
      </trkpt>
      <trkpt lat="42.20568" lon="2.76401">
        <ele>201.92</ele>
        <time>2024-09-25T09:09:05.000Z</time>
      </trkpt>
      <trkpt lat="42.2057" lon="2.76358">
        <ele>200.72</ele>
        <time>2024-09-25T09:09:10.000Z</time>
      </trkpt>
      <trkpt lat="42.20571" lon="2.76314">
        <ele>200.19</ele>
        <time>2024-09-25T09:09:15.000Z</time>
      </trkpt>
      <trkpt lat="42.20573" lon="2.76269">
        <ele>200.25</ele>
        <time>2024-09-25T09:09:20.000Z</time>
      </trkpt>
      <trkpt lat="42.20576" lon="2.76225">
        <ele>200.55</ele>
        <time>2024-09-25T09:09:25.000Z</time>
      </trkpt>
      <trkpt lat="42.20577" lon="2.76184">
        <ele>201.37</ele>
        <time>2024-09-25T09:09:30.000Z</time>
      </trkpt>
      <trkpt lat="42.20578" lon="2.76143">
        <ele>202.33</ele>
        <time>2024-09-25T09:09:35.000Z</time>
      </trkpt>
      <trkpt lat="42.20579" lon="2.76102">
        <ele>202.5</ele>
        <time>2024-09-25T09:09:40.000Z</time>
      </trkpt>
      <trkpt lat="42.2058" lon="2.7606">
        <ele>202.5</ele>
        <time>2024-09-25T09:09:45.000Z</time>
      </trkpt>
      <trkpt lat="42.20581" lon="2.76017">
        <ele>202.38</ele>
        <time>2024-09-25T09:09:50.000Z</time>
      </trkpt>
      <trkpt lat="42.20582" lon="2.75974">
        <ele>202.08</ele>
        <time>2024-09-25T09:09:55.000Z</time>
      </trkpt>
      <trkpt lat="42.20583" lon="2.75932">
        <ele>201.72</ele>
        <time>2024-09-25T09:10:00.000Z</time>
      </trkpt>
      <trkpt lat="42.20582" lon="2.75891">
        <ele>201.2</ele>
        <time>2024-09-25T09:10:05.000Z</time>
      </trkpt>
      <trkpt lat="42.20583" lon="2.75848">
        <ele>200.42</ele>
        <time>2024-09-25T09:10:10.000Z</time>
      </trkpt>
      <trkpt lat="42.20584" lon="2.758">
        <ele>199.68</ele>
        <time>2024-09-25T09:10:15.000Z</time>
      </trkpt>
      <trkpt lat="42.20585" lon="2.75749">
        <ele>198.94</ele>
        <time>2024-09-25T09:10:20.000Z</time>
      </trkpt>
      <trkpt lat="42.20586" lon="2.75694">
        <ele>198.05</ele>
        <time>2024-09-25T09:10:25.000Z</time>
      </trkpt>
      <trkpt lat="42.20585" lon="2.75639">
        <ele>196.7</ele>
        <time>2024-09-25T09:10:30.000Z</time>
      </trkpt>
      <trkpt lat="42.20586" lon="2.75581">
        <ele>195.36</ele>
        <time>2024-09-25T09:10:35.000Z</time>
      </trkpt>
      <trkpt lat="42.20587" lon="2.75523">
        <ele>194.46</ele>
        <time>2024-09-25T09:10:40.000Z</time>
      </trkpt>
      <trkpt lat="42.20587" lon="2.75465">
        <ele>193.24</ele>
        <time>2024-09-25T09:10:45.000Z</time>
      </trkpt>
      <trkpt lat="42.20586" lon="2.75409">
        <ele>193.77</ele>
        <time>2024-09-25T09:10:50.000Z</time>
      </trkpt>
      <trkpt lat="42.20588" lon="2.75358">
        <ele>194.05</ele>
        <time>2024-09-25T09:10:55.000Z</time>
      </trkpt>
      <trkpt lat="42.20591" lon="2.75309">
        <ele>194.28</ele>
        <time>2024-09-25T09:11:00.000Z</time>
      </trkpt>
      <trkpt lat="42.20596" lon="2.75267">
        <ele>193.41</ele>
        <time>2024-09-25T09:11:05.000Z</time>
      </trkpt>
      <trkpt lat="42.20601" lon="2.75229">
        <ele>192.43</ele>
        <time>2024-09-25T09:11:10.000Z</time>
      </trkpt>
      <trkpt lat="42.20607" lon="2.75196">
        <ele>191.79</ele>
        <time>2024-09-25T09:11:15.000Z</time>
      </trkpt>
      <trkpt lat="42.20612" lon="2.75167">
        <ele>191.38</ele>
        <time>2024-09-25T09:11:20.000Z</time>
      </trkpt>
      <trkpt lat="42.20617" lon="2.75138">
        <ele>191.19</ele>
        <time>2024-09-25T09:11:25.000Z</time>
      </trkpt>
      <trkpt lat="42.20621" lon="2.7511">
        <ele>191.13</ele>
        <time>2024-09-25T09:11:30.000Z</time>
      </trkpt>
      <trkpt lat="42.20624" lon="2.75084">
        <ele>191.13</ele>
        <time>2024-09-25T09:11:35.000Z</time>
      </trkpt>
      <trkpt lat="42.20628" lon="2.75057">
        <ele>191.08</ele>
        <time>2024-09-25T09:11:40.000Z</time>
      </trkpt>
      <trkpt lat="42.20631" lon="2.75027">
        <ele>191.11</ele>
        <time>2024-09-25T09:11:45.000Z</time>
      </trkpt>
      <trkpt lat="42.20636" lon="2.74998">
        <ele>191.14</ele>
        <time>2024-09-25T09:11:50.000Z</time>
      </trkpt>
      <trkpt lat="42.20641" lon="2.74969">
        <ele>191.29</ele>
        <time>2024-09-25T09:11:55.000Z</time>
      </trkpt>
      <trkpt lat="42.20645" lon="2.74942">
        <ele>191.47</ele>
        <time>2024-09-25T09:12:00.000Z</time>
      </trkpt>
      <trkpt lat="42.20647" lon="2.74916">
        <ele>191.69</ele>
        <time>2024-09-25T09:12:05.000Z</time>
      </trkpt>
      <trkpt lat="42.20649" lon="2.74891">
        <ele>191.85</ele>
        <time>2024-09-25T09:12:10.000Z</time>
      </trkpt>
      <trkpt lat="42.2065" lon="2.74867">
        <ele>191.89</ele>
        <time>2024-09-25T09:12:15.000Z</time>
      </trkpt>
      <trkpt lat="42.20649" lon="2.7484">
        <ele>192.16</ele>
        <time>2024-09-25T09:12:20.000Z</time>
      </trkpt>
      <trkpt lat="42.20646" lon="2.74811">
        <ele>192.41</ele>
        <time>2024-09-25T09:12:25.000Z</time>
      </trkpt>
      <trkpt lat="42.20643" lon="2.7478">
        <ele>192.64</ele>
        <time>2024-09-25T09:12:30.000Z</time>
      </trkpt>
      <trkpt lat="42.2064" lon="2.74747">
        <ele>192.91</ele>
        <time>2024-09-25T09:12:35.000Z</time>
      </trkpt>
      <trkpt lat="42.20636" lon="2.74711">
        <ele>193.09</ele>
        <time>2024-09-25T09:12:40.000Z</time>
      </trkpt>
      <trkpt lat="42.20633" lon="2.74674">
        <ele>193.21</ele>
        <time>2024-09-25T09:12:45.000Z</time>
      </trkpt>
      <trkpt lat="42.20631" lon="2.74635">
        <ele>193.37</ele>
        <time>2024-09-25T09:12:50.000Z</time>
      </trkpt>
      <trkpt lat="42.20628" lon="2.74598">
        <ele>193.5</ele>
        <time>2024-09-25T09:12:55.000Z</time>
      </trkpt>
      <trkpt lat="42.20626" lon="2.74558">
        <ele>193.53</ele>
        <time>2024-09-25T09:13:00.000Z</time>
      </trkpt>
      <trkpt lat="42.20624" lon="2.74519">
        <ele>193.5</ele>
        <time>2024-09-25T09:13:05.000Z</time>
      </trkpt>
      <trkpt lat="42.20622" lon="2.7448">
        <ele>193.33</ele>
        <time>2024-09-25T09:13:10.000Z</time>
      </trkpt>
      <trkpt lat="42.20619" lon="2.74439">
        <ele>193.14</ele>
        <time>2024-09-25T09:13:15.000Z</time>
      </trkpt>
      <trkpt lat="42.20616" lon="2.74398">
        <ele>192.96</ele>
        <time>2024-09-25T09:13:20.000Z</time>
      </trkpt>
      <trkpt lat="42.20612" lon="2.74358">
        <ele>192.81</ele>
        <time>2024-09-25T09:13:25.000Z</time>
      </trkpt>
      <trkpt lat="42.20609" lon="2.74318">
        <ele>192.64</ele>
        <time>2024-09-25T09:13:30.000Z</time>
      </trkpt>
      <trkpt lat="42.20606" lon="2.74277">
        <ele>192.49</ele>
        <time>2024-09-25T09:13:35.000Z</time>
      </trkpt>
      <trkpt lat="42.20604" lon="2.74237">
        <ele>192.51</ele>
        <time>2024-09-25T09:13:40.000Z</time>
      </trkpt>
      <trkpt lat="42.20601" lon="2.74197">
        <ele>192.61</ele>
        <time>2024-09-25T09:13:45.000Z</time>
      </trkpt>
      <trkpt lat="42.20598" lon="2.7416">
        <ele>192.6</ele>
        <time>2024-09-25T09:13:50.000Z</time>
      </trkpt>
      <trkpt lat="42.20596" lon="2.7412">
        <ele>192.46</ele>
        <time>2024-09-25T09:13:55.000Z</time>
      </trkpt>
      <trkpt lat="42.20593" lon="2.7408">
        <ele>192.33</ele>
        <time>2024-09-25T09:14:00.000Z</time>
      </trkpt>
      <trkpt lat="42.2059" lon="2.74039">
        <ele>192.04</ele>
        <time>2024-09-25T09:14:05.000Z</time>
      </trkpt>
      <trkpt lat="42.20588" lon="2.74">
        <ele>191.64</ele>
        <time>2024-09-25T09:14:10.000Z</time>
      </trkpt>
      <trkpt lat="42.20585" lon="2.73957">
        <ele>191.19</ele>
        <time>2024-09-25T09:14:15.000Z</time>
      </trkpt>
      <trkpt lat="42.20582" lon="2.73916">
        <ele>190.52</ele>
        <time>2024-09-25T09:14:20.000Z</time>
      </trkpt>
      <trkpt lat="42.20579" lon="2.73877">
        <ele>190.15</ele>
        <time>2024-09-25T09:14:25.000Z</time>
      </trkpt>
      <trkpt lat="42.20576" lon="2.73839">
        <ele>189.75</ele>
        <time>2024-09-25T09:14:30.000Z</time>
      </trkpt>
      <trkpt lat="42.20574" lon="2.73797">
        <ele>189.18</ele>
        <time>2024-09-25T09:14:35.000Z</time>
      </trkpt>
      <trkpt lat="42.20571" lon="2.73752">
        <ele>188.57</ele>
        <time>2024-09-25T09:14:40.000Z</time>
      </trkpt>
      <trkpt lat="42.20569" lon="2.73707">
        <ele>187.98</ele>
        <time>2024-09-25T09:14:45.000Z</time>
      </trkpt>
      <trkpt lat="42.20565" lon="2.73664">
        <ele>187.17</ele>
        <time>2024-09-25T09:14:50.000Z</time>
      </trkpt>
      <trkpt lat="42.20563" lon="2.73617">
        <ele>186.33</ele>
        <time>2024-09-25T09:14:55.000Z</time>
      </trkpt>
      <trkpt lat="42.2056" lon="2.73568">
        <ele>185.81</ele>
        <time>2024-09-25T09:15:00.000Z</time>
      </trkpt>
      <trkpt lat="42.20557" lon="2.7352">
        <ele>185.82</ele>
        <time>2024-09-25T09:15:05.000Z</time>
      </trkpt>
      <trkpt lat="42.20554" lon="2.73469">
        <ele>185.76</ele>
        <time>2024-09-25T09:15:10.000Z</time>
      </trkpt>
      <trkpt lat="42.20551" lon="2.73419">
        <ele>185.58</ele>
        <time>2024-09-25T09:15:15.000Z</time>
      </trkpt>
      <trkpt lat="42.20547" lon="2.73374">
        <ele>184.87</ele>
        <time>2024-09-25T09:15:20.000Z</time>
      </trkpt>
      <trkpt lat="42.20544" lon="2.73333">
        <ele>184.15</ele>
        <time>2024-09-25T09:15:25.000Z</time>
      </trkpt>
      <trkpt lat="42.20541" lon="2.73295">
        <ele>183.1</ele>
        <time>2024-09-25T09:15:30.000Z</time>
      </trkpt>
      <trkpt lat="42.20538" lon="2.7326">
        <ele>183</ele>
        <time>2024-09-25T09:15:35.000Z</time>
      </trkpt>
      <trkpt lat="42.20536" lon="2.73225">
        <ele>183.53</ele>
        <time>2024-09-25T09:15:40.000Z</time>
      </trkpt>
      <trkpt lat="42.20534" lon="2.73188">
        <ele>184.09</ele>
        <time>2024-09-25T09:15:45.000Z</time>
      </trkpt>
      <trkpt lat="42.20531" lon="2.73154">
        <ele>184.55</ele>
        <time>2024-09-25T09:15:50.000Z</time>
      </trkpt>
      <trkpt lat="42.20528" lon="2.73119">
        <ele>184.71</ele>
        <time>2024-09-25T09:15:55.000Z</time>
      </trkpt>
      <trkpt lat="42.20526" lon="2.73081">
        <ele>185.12</ele>
        <time>2024-09-25T09:16:00.999Z</time>
      </trkpt>
      <trkpt lat="42.20525" lon="2.73049">
        <ele>185.2</ele>
        <time>2024-09-25T09:16:05.999Z</time>
      </trkpt>
      <trkpt lat="42.20523" lon="2.73018">
        <ele>185.51</ele>
        <time>2024-09-25T09:16:10.999Z</time>
      </trkpt>
      <trkpt lat="42.20521" lon="2.72988">
        <ele>185.91</ele>
        <time>2024-09-25T09:16:15.999Z</time>
      </trkpt>
      <trkpt lat="42.2052" lon="2.72957">
        <ele>186.24</ele>
        <time>2024-09-25T09:16:20.999Z</time>
      </trkpt>
      <trkpt lat="42.20518" lon="2.72921">
        <ele>186.38</ele>
        <time>2024-09-25T09:16:25.999Z</time>
      </trkpt>
      <trkpt lat="42.20518" lon="2.72884">
        <ele>186.8</ele>
        <time>2024-09-25T09:16:30.999Z</time>
      </trkpt>
      <trkpt lat="42.20517" lon="2.72848">
        <ele>186.81</ele>
        <time>2024-09-25T09:16:35.999Z</time>
      </trkpt>
      <trkpt lat="42.20516" lon="2.72814">
        <ele>186.58</ele>
        <time>2024-09-25T09:16:40.999Z</time>
      </trkpt>
      <trkpt lat="42.20515" lon="2.72777">
        <ele>186.38</ele>
        <time>2024-09-25T09:16:45.999Z</time>
      </trkpt>
      <trkpt lat="42.20514" lon="2.72738">
        <ele>186.21</ele>
        <time>2024-09-25T09:16:50.999Z</time>
      </trkpt>
      <trkpt lat="42.20514" lon="2.72702">
        <ele>186.3</ele>
        <time>2024-09-25T09:16:55.999Z</time>
      </trkpt>
      <trkpt lat="42.20513" lon="2.72668">
        <ele>186.54</ele>
        <time>2024-09-25T09:17:00.999Z</time>
      </trkpt>
      <trkpt lat="42.20513" lon="2.72639">
        <ele>186.98</ele>
        <time>2024-09-25T09:17:05.999Z</time>
      </trkpt>
      <trkpt lat="42.20512" lon="2.72608">
        <ele>187.32</ele>
        <time>2024-09-25T09:17:10.999Z</time>
      </trkpt>
      <trkpt lat="42.20512" lon="2.72577">
        <ele>187.42</ele>
        <time>2024-09-25T09:17:15.999Z</time>
      </trkpt>
      <trkpt lat="42.20511" lon="2.72546">
        <ele>187.34</ele>
        <time>2024-09-25T09:17:20.999Z</time>
      </trkpt>
      <trkpt lat="42.20511" lon="2.72511">
        <ele>187.24</ele>
        <time>2024-09-25T09:17:25.999Z</time>
      </trkpt>
      <trkpt lat="42.20512" lon="2.72472">
        <ele>187.12</ele>
        <time>2024-09-25T09:17:30.999Z</time>
      </trkpt>
      <trkpt lat="42.20515" lon="2.72426">
        <ele>186.82</ele>
        <time>2024-09-25T09:17:35.999Z</time>
      </trkpt>
      <trkpt lat="42.20519" lon="2.72375">
        <ele>186.31</ele>
        <time>2024-09-25T09:17:40.999Z</time>
      </trkpt>
      <trkpt lat="42.20524" lon="2.72332">
        <ele>185.45</ele>
        <time>2024-09-25T09:17:45.999Z</time>
      </trkpt>
      <trkpt lat="42.20527" lon="2.72297">
        <ele>184.92</ele>
        <time>2024-09-25T09:17:50.999Z</time>
      </trkpt>
      <trkpt lat="42.2053" lon="2.72285">
        <ele>185.15</ele>
        <time>2024-09-25T09:18:50.999Z</time>
      </trkpt>
      <trkpt lat="42.20529" lon="2.72268">
        <ele>185.28</ele>
        <time>2024-09-25T09:18:55.999Z</time>
      </trkpt>
      <trkpt lat="42.2053" lon="2.72241">
        <ele>185.79</ele>
        <time>2024-09-25T09:19:00.999Z</time>
      </trkpt>
      <trkpt lat="42.20528" lon="2.72205">
        <ele>185.73</ele>
        <time>2024-09-25T09:19:05.999Z</time>
      </trkpt>
      <trkpt lat="42.20524" lon="2.72162">
        <ele>185.07</ele>
        <time>2024-09-25T09:19:10.999Z</time>
      </trkpt>
      <trkpt lat="42.20517" lon="2.72112">
        <ele>183.97</ele>
        <time>2024-09-25T09:19:15.999Z</time>
      </trkpt>
      <trkpt lat="42.20509" lon="2.72067">
        <ele>182.87</ele>
        <time>2024-09-25T09:19:20.999Z</time>
      </trkpt>
      <trkpt lat="42.205" lon="2.72022">
        <ele>181.87</ele>
        <time>2024-09-25T09:19:25.999Z</time>
      </trkpt>
      <trkpt lat="42.20492" lon="2.71972">
        <ele>180.77</ele>
        <time>2024-09-25T09:19:30.999Z</time>
      </trkpt>
      <trkpt lat="42.20484" lon="2.71919">
        <ele>179.42</ele>
        <time>2024-09-25T09:19:35.999Z</time>
      </trkpt>
      <trkpt lat="42.20476" lon="2.71864">
        <ele>177.88</ele>
        <time>2024-09-25T09:19:40.999Z</time>
      </trkpt>
      <trkpt lat="42.20468" lon="2.71809">
        <ele>176.33</ele>
        <time>2024-09-25T09:19:45.999Z</time>
      </trkpt>
      <trkpt lat="42.20461" lon="2.71759">
        <ele>174.79</ele>
        <time>2024-09-25T09:19:50.999Z</time>
      </trkpt>
      <trkpt lat="42.20454" lon="2.71713">
        <ele>173.55</ele>
        <time>2024-09-25T09:19:55.999Z</time>
      </trkpt>
      <trkpt lat="42.2045" lon="2.71673">
        <ele>172.68</ele>
        <time>2024-09-25T09:20:00.999Z</time>
      </trkpt>
      <trkpt lat="42.20445" lon="2.71642">
        <ele>171.9</ele>
        <time>2024-09-25T09:20:05.999Z</time>
      </trkpt>
      <trkpt lat="42.20444" lon="2.71629">
        <ele>168.66</ele>
        <time>2024-09-25T09:24:29.999Z</time>
      </trkpt>
      <trkpt lat="42.20442" lon="2.71608">
        <ele>168.19</ele>
        <time>2024-09-25T09:24:34.999Z</time>
      </trkpt>
      <trkpt lat="42.20441" lon="2.71583">
        <ele>167.77</ele>
        <time>2024-09-25T09:24:39.999Z</time>
      </trkpt>
      <trkpt lat="42.20441" lon="2.7156">
        <ele>167.38</ele>
        <time>2024-09-25T09:24:44.999Z</time>
      </trkpt>
      <trkpt lat="42.20442" lon="2.71547">
        <ele>167.04</ele>
        <time>2024-09-25T09:24:49.999Z</time>
      </trkpt>
      <trkpt lat="42.20441" lon="2.71531">
        <ele>165.8</ele>
        <time>2024-09-25T09:26:13.999Z</time>
      </trkpt>
      <trkpt lat="42.20445" lon="2.71508">
        <ele>165.6</ele>
        <time>2024-09-25T09:26:18.999Z</time>
      </trkpt>
      <trkpt lat="42.20449" lon="2.71486">
        <ele>165.43</ele>
        <time>2024-09-25T09:26:23.999Z</time>
      </trkpt>
      <trkpt lat="42.20456" lon="2.71463">
        <ele>165.27</ele>
        <time>2024-09-25T09:26:28.999Z</time>
      </trkpt>
      <trkpt lat="42.20461" lon="2.71443">
        <ele>165.13</ele>
        <time>2024-09-25T09:26:33.999Z</time>
      </trkpt>
      <trkpt lat="42.20467" lon="2.71425">
        <ele>165.01</ele>
        <time>2024-09-25T09:26:38.999Z</time>
      </trkpt>
      <trkpt lat="42.20473" lon="2.71407">
        <ele>164.91</ele>
        <time>2024-09-25T09:26:43.999Z</time>
      </trkpt>
      <trkpt lat="42.20479" lon="2.7139">
        <ele>164.83</ele>
        <time>2024-09-25T09:26:48.999Z</time>
      </trkpt>
      <trkpt lat="42.20484" lon="2.7137">
        <ele>164.77</ele>
        <time>2024-09-25T09:26:53.999Z</time>
      </trkpt>
      <trkpt lat="42.20486" lon="2.71342">
        <ele>164.52</ele>
        <time>2024-09-25T09:26:58.999Z</time>
      </trkpt>
      <trkpt lat="42.20478" lon="2.71308">
        <ele>164.43</ele>
        <time>2024-09-25T09:27:03.999Z</time>
      </trkpt>
      <trkpt lat="42.20458" lon="2.71277">
        <ele>164.54</ele>
        <time>2024-09-25T09:27:08.999Z</time>
      </trkpt>
      <trkpt lat="42.20429" lon="2.71254">
        <ele>164.65</ele>
        <time>2024-09-25T09:27:13.999Z</time>
      </trkpt>
      <trkpt lat="42.20395" lon="2.71228">
        <ele>164.66</ele>
        <time>2024-09-25T09:27:18.999Z</time>
      </trkpt>
      <trkpt lat="42.20372" lon="2.71183">
        <ele>164.9</ele>
        <time>2024-09-25T09:27:23.999Z</time>
      </trkpt>
      <trkpt lat="42.2036" lon="2.71135">
        <ele>165.17</ele>
        <time>2024-09-25T09:27:28.999Z</time>
      </trkpt>
      <trkpt lat="42.20357" lon="2.71095">
        <ele>165.61</ele>
        <time>2024-09-25T09:27:33.999Z</time>
      </trkpt>
      <trkpt lat="42.20356" lon="2.71068">
        <ele>166.18</ele>
        <time>2024-09-25T09:27:38.999Z</time>
      </trkpt>
      <trkpt lat="42.20355" lon="2.71048">
        <ele>166.25</ele>
        <time>2024-09-25T09:27:43.999Z</time>
      </trkpt>
      <trkpt lat="42.20356" lon="2.71031">
        <ele>166.31</ele>
        <time>2024-09-25T09:27:48.999Z</time>
      </trkpt>
      <trkpt lat="42.20357" lon="2.71012">
        <ele>166.4</ele>
        <time>2024-09-25T09:27:53.999Z</time>
      </trkpt>
      <trkpt lat="42.20358" lon="2.70993">
        <ele>166.53</ele>
        <time>2024-09-25T09:27:58.999Z</time>
      </trkpt>
      <trkpt lat="42.2036" lon="2.70974">
        <ele>166.69</ele>
        <time>2024-09-25T09:28:04.000Z</time>
      </trkpt>
      <trkpt lat="42.20362" lon="2.70955">
        <ele>166.93</ele>
        <time>2024-09-25T09:28:09.000Z</time>
      </trkpt>
      <trkpt lat="42.20365" lon="2.70936">
        <ele>167.18</ele>
        <time>2024-09-25T09:28:14.000Z</time>
      </trkpt>
      <trkpt lat="42.20367" lon="2.70919">
        <ele>167.45</ele>
        <time>2024-09-25T09:28:19.000Z</time>
      </trkpt>
      <trkpt lat="42.20369" lon="2.70901">
        <ele>167.76</ele>
        <time>2024-09-25T09:28:24.000Z</time>
      </trkpt>
      <trkpt lat="42.20372" lon="2.70884">
        <ele>168.08</ele>
        <time>2024-09-25T09:28:29.000Z</time>
      </trkpt>
      <trkpt lat="42.20375" lon="2.70868">
        <ele>168.4</ele>
        <time>2024-09-25T09:28:34.000Z</time>
      </trkpt>
      <trkpt lat="42.2038" lon="2.70851">
        <ele>168.72</ele>
        <time>2024-09-25T09:28:39.000Z</time>
      </trkpt>
      <trkpt lat="42.20386" lon="2.70835">
        <ele>169.01</ele>
        <time>2024-09-25T09:28:44.000Z</time>
      </trkpt>
      <trkpt lat="42.20392" lon="2.70816">
        <ele>169.28</ele>
        <time>2024-09-25T09:28:49.000Z</time>
      </trkpt>
      <trkpt lat="42.20397" lon="2.70802">
        <ele>169.54</ele>
        <time>2024-09-25T09:28:54.000Z</time>
      </trkpt>
      <trkpt lat="42.20404" lon="2.70788">
        <ele>169.78</ele>
        <time>2024-09-25T09:28:59.000Z</time>
      </trkpt>
      <trkpt lat="42.20413" lon="2.70772">
        <ele>169.98</ele>
        <time>2024-09-25T09:29:04.000Z</time>
      </trkpt>
      <trkpt lat="42.20421" lon="2.70758">
        <ele>170.17</ele>
        <time>2024-09-25T09:29:09.000Z</time>
      </trkpt>
      <trkpt lat="42.2043" lon="2.70743">
        <ele>170.33</ele>
        <time>2024-09-25T09:29:14.000Z</time>
      </trkpt>
      <trkpt lat="42.20439" lon="2.70729">
        <ele>170.47</ele>
        <time>2024-09-25T09:29:19.000Z</time>
      </trkpt>
      <trkpt lat="42.20448" lon="2.70715">
        <ele>170.6</ele>
        <time>2024-09-25T09:29:24.000Z</time>
      </trkpt>
      <trkpt lat="42.20455" lon="2.70701">
        <ele>170.71</ele>
        <time>2024-09-25T09:29:29.000Z</time>
      </trkpt>
      <trkpt lat="42.20464" lon="2.70687">
        <ele>170.81</ele>
        <time>2024-09-25T09:29:34.000Z</time>
      </trkpt>
      <trkpt lat="42.20477" lon="2.70679">
        <ele>170.9</ele>
        <time>2024-09-25T09:29:39.000Z</time>
      </trkpt>
      <trkpt lat="42.20489" lon="2.70666">
        <ele>170.98</ele>
        <time>2024-09-25T09:29:44.000Z</time>
      </trkpt>
      <trkpt lat="42.20488" lon="2.70643">
        <ele>171.05</ele>
        <time>2024-09-25T09:29:49.000Z</time>
      </trkpt>
      <trkpt lat="42.20476" lon="2.70634">
        <ele>171.12</ele>
        <time>2024-09-25T09:29:54.000Z</time>
      </trkpt>
      <trkpt lat="42.20462" lon="2.70633">
        <ele>171.18</ele>
        <time>2024-09-25T09:29:59.000Z</time>
      </trkpt>
      <trkpt lat="42.20444" lon="2.70632">
        <ele>171.33</ele>
        <time>2024-09-25T09:30:04.000Z</time>
      </trkpt>
      <trkpt lat="42.20427" lon="2.70623">
        <ele>171.48</ele>
        <time>2024-09-25T09:30:09.000Z</time>
      </trkpt>
      <trkpt lat="42.20415" lon="2.70609">
        <ele>171.6</ele>
        <time>2024-09-25T09:30:14.000Z</time>
      </trkpt>
      <trkpt lat="42.20409" lon="2.70599">
        <ele>171.67</ele>
        <time>2024-09-25T09:30:21.000Z</time>
      </trkpt>
      <trkpt lat="42.20393" lon="2.70601">
        <ele>171.69</ele>
        <time>2024-09-25T09:30:26.000Z</time>
      </trkpt>
      <trkpt lat="42.20379" lon="2.70593">
        <ele>171.74</ele>
        <time>2024-09-25T09:30:31.000Z</time>
      </trkpt>
      <trkpt lat="42.2037" lon="2.70584">
        <ele>171.84</ele>
        <time>2024-09-25T09:30:36.000Z</time>
      </trkpt>
      <trkpt lat="42.20362" lon="2.70571">
        <ele>171.99</ele>
        <time>2024-09-25T09:30:41.000Z</time>
      </trkpt>
      <trkpt lat="42.20357" lon="2.70555">
        <ele>172.18</ele>
        <time>2024-09-25T09:30:46.000Z</time>
      </trkpt>
      <trkpt lat="42.20345" lon="2.70544">
        <ele>172.39</ele>
        <time>2024-09-25T09:30:51.000Z</time>
      </trkpt>
      <trkpt lat="42.20331" lon="2.70541">
        <ele>172.61</ele>
        <time>2024-09-25T09:30:56.000Z</time>
      </trkpt>
      <trkpt lat="42.20323" lon="2.70536">
        <ele>173.45</ele>
        <time>2024-09-25T09:31:29.000Z</time>
      </trkpt>
      <trkpt lat="42.20315" lon="2.70522">
        <ele>173.73</ele>
        <time>2024-09-25T09:31:34.000Z</time>
      </trkpt>
      <trkpt lat="42.20309" lon="2.70498">
        <ele>174.02</ele>
        <time>2024-09-25T09:31:39.000Z</time>
      </trkpt>
      <trkpt lat="42.20304" lon="2.70476">
        <ele>174.69</ele>
        <time>2024-09-25T09:31:44.000Z</time>
      </trkpt>
      <trkpt lat="42.203" lon="2.70448">
        <ele>176.23</ele>
        <time>2024-09-25T09:31:49.000Z</time>
      </trkpt>
      <trkpt lat="42.20297" lon="2.70418">
        <ele>176.98</ele>
        <time>2024-09-25T09:31:54.000Z</time>
      </trkpt>
      <trkpt lat="42.20294" lon="2.70384">
        <ele>177.18</ele>
        <time>2024-09-25T09:31:59.000Z</time>
      </trkpt>
      <trkpt lat="42.20289" lon="2.70348">
        <ele>177.18</ele>
        <time>2024-09-25T09:32:04.000Z</time>
      </trkpt>
      <trkpt lat="42.20284" lon="2.70309">
        <ele>177.15</ele>
        <time>2024-09-25T09:32:09.000Z</time>
      </trkpt>
      <trkpt lat="42.20278" lon="2.7027">
        <ele>177.11</ele>
        <time>2024-09-25T09:32:14.000Z</time>
      </trkpt>
      <trkpt lat="42.20268" lon="2.70231">
        <ele>177.05</ele>
        <time>2024-09-25T09:32:19.000Z</time>
      </trkpt>
      <trkpt lat="42.20255" lon="2.70188">
        <ele>176.98</ele>
        <time>2024-09-25T09:32:24.000Z</time>
      </trkpt>
      <trkpt lat="42.20238" lon="2.70147">
        <ele>176.82</ele>
        <time>2024-09-25T09:32:29.000Z</time>
      </trkpt>
      <trkpt lat="42.20218" lon="2.70106">
        <ele>176.45</ele>
        <time>2024-09-25T09:32:34.000Z</time>
      </trkpt>
      <trkpt lat="42.20198" lon="2.7006">
        <ele>176.34</ele>
        <time>2024-09-25T09:32:39.000Z</time>
      </trkpt>
      <trkpt lat="42.20177" lon="2.70012">
        <ele>176.11</ele>
        <time>2024-09-25T09:32:44.000Z</time>
      </trkpt>
      <trkpt lat="42.20156" lon="2.69965">
        <ele>175.78</ele>
        <time>2024-09-25T09:32:49.000Z</time>
      </trkpt>
      <trkpt lat="42.20132" lon="2.69922">
        <ele>175.33</ele>
        <time>2024-09-25T09:32:54.000Z</time>
      </trkpt>
      <trkpt lat="42.20096" lon="2.69903">
        <ele>175.27</ele>
        <time>2024-09-25T09:32:59.000Z</time>
      </trkpt>
      <trkpt lat="42.20065" lon="2.69887">
        <ele>175.01</ele>
        <time>2024-09-25T09:33:04.000Z</time>
      </trkpt>
      <trkpt lat="42.20049" lon="2.69874">
        <ele>174.91</ele>
        <time>2024-09-25T09:33:09.000Z</time>
      </trkpt>
      <trkpt lat="42.20044" lon="2.69854">
        <ele>174.8</ele>
        <time>2024-09-25T09:33:14.000Z</time>
      </trkpt>
      <trkpt lat="42.20041" lon="2.6983">
        <ele>174.6</ele>
        <time>2024-09-25T09:33:19.000Z</time>
      </trkpt>
      <trkpt lat="42.20038" lon="2.69808">
        <ele>174.4</ele>
        <time>2024-09-25T09:33:24.000Z</time>
      </trkpt>
      <trkpt lat="42.20037" lon="2.69783">
        <ele>174.25</ele>
        <time>2024-09-25T09:33:29.000Z</time>
      </trkpt>
      <trkpt lat="42.20035" lon="2.69763">
        <ele>174.11</ele>
        <time>2024-09-25T09:33:34.000Z</time>
      </trkpt>
      <trkpt lat="42.20031" lon="2.69743">
        <ele>173.94</ele>
        <time>2024-09-25T09:33:39.000Z</time>
      </trkpt>
      <trkpt lat="42.20029" lon="2.69719">
        <ele>173.8</ele>
        <time>2024-09-25T09:33:44.000Z</time>
      </trkpt>
      <trkpt lat="42.2003" lon="2.69695">
        <ele>173.76</ele>
        <time>2024-09-25T09:33:49.000Z</time>
      </trkpt>
      <trkpt lat="42.2003" lon="2.69669">
        <ele>173.78</ele>
        <time>2024-09-25T09:33:54.000Z</time>
      </trkpt>
      <trkpt lat="42.20032" lon="2.69647">
        <ele>174.05</ele>
        <time>2024-09-25T09:33:59.000Z</time>
      </trkpt>
      <trkpt lat="42.20034" lon="2.69619">
        <ele>174.21</ele>
        <time>2024-09-25T09:34:04.000Z</time>
      </trkpt>
      <trkpt lat="42.20034" lon="2.69592">
        <ele>174.45</ele>
        <time>2024-09-25T09:34:09.000Z</time>
      </trkpt>
      <trkpt lat="42.20036" lon="2.69568">
        <ele>174.56</ele>
        <time>2024-09-25T09:34:14.000Z</time>
      </trkpt>
      <trkpt lat="42.2004" lon="2.69549">
        <ele>174.67</ele>
        <time>2024-09-25T09:34:19.000Z</time>
      </trkpt>
      <trkpt lat="42.20045" lon="2.69533">
        <ele>174.8</ele>
        <time>2024-09-25T09:34:24.000Z</time>
      </trkpt>
      <trkpt lat="42.20051" lon="2.69514">
        <ele>174.9</ele>
        <time>2024-09-25T09:34:29.000Z</time>
      </trkpt>
      <trkpt lat="42.20061" lon="2.6949">
        <ele>175.37</ele>
        <time>2024-09-25T09:34:34.000Z</time>
      </trkpt>
      <trkpt lat="42.20074" lon="2.69465">
        <ele>175.39</ele>
        <time>2024-09-25T09:34:39.000Z</time>
      </trkpt>
      <trkpt lat="42.20088" lon="2.69441">
        <ele>175.35</ele>
        <time>2024-09-25T09:34:44.000Z</time>
      </trkpt>
      <trkpt lat="42.20102" lon="2.69419">
        <ele>175.37</ele>
        <time>2024-09-25T09:34:49.000Z</time>
      </trkpt>
      <trkpt lat="42.20115" lon="2.69395">
        <ele>175.44</ele>
        <time>2024-09-25T09:34:54.000Z</time>
      </trkpt>
      <trkpt lat="42.20129" lon="2.69372">
        <ele>175.51</ele>
        <time>2024-09-25T09:34:59.000Z</time>
      </trkpt>
      <trkpt lat="42.20142" lon="2.69348">
        <ele>175.57</ele>
        <time>2024-09-25T09:35:04.000Z</time>
      </trkpt>
      <trkpt lat="42.20157" lon="2.69324">
        <ele>175.49</ele>
        <time>2024-09-25T09:35:09.000Z</time>
      </trkpt>
      <trkpt lat="42.20171" lon="2.69301">
        <ele>175.29</ele>
        <time>2024-09-25T09:35:14.000Z</time>
      </trkpt>
      <trkpt lat="42.20184" lon="2.69277">
        <ele>175.05</ele>
        <time>2024-09-25T09:35:19.000Z</time>
      </trkpt>
      <trkpt lat="42.20197" lon="2.69254">
        <ele>174.8</ele>
        <time>2024-09-25T09:35:24.000Z</time>
      </trkpt>
      <trkpt lat="42.2021" lon="2.69231">
        <ele>174.62</ele>
        <time>2024-09-25T09:35:29.000Z</time>
      </trkpt>
      <trkpt lat="42.20223" lon="2.6921">
        <ele>174.57</ele>
        <time>2024-09-25T09:35:34.000Z</time>
      </trkpt>
      <trkpt lat="42.20234" lon="2.6919">
        <ele>174.57</ele>
        <time>2024-09-25T09:35:39.000Z</time>
      </trkpt>
      <trkpt lat="42.20246" lon="2.6917">
        <ele>174.58</ele>
        <time>2024-09-25T09:35:44.000Z</time>
      </trkpt>
      <trkpt lat="42.20257" lon="2.69151">
        <ele>174.59</ele>
        <time>2024-09-25T09:35:49.000Z</time>
      </trkpt>
      <trkpt lat="42.20268" lon="2.6913">
        <ele>174.63</ele>
        <time>2024-09-25T09:35:54.000Z</time>
      </trkpt>
      <trkpt lat="42.20279" lon="2.6911">
        <ele>174.66</ele>
        <time>2024-09-25T09:35:59.000Z</time>
      </trkpt>
      <trkpt lat="42.2029" lon="2.6909">
        <ele>174.71</ele>
        <time>2024-09-25T09:36:04.000Z</time>
      </trkpt>
      <trkpt lat="42.20301" lon="2.69071">
        <ele>174.76</ele>
        <time>2024-09-25T09:36:09.000Z</time>
      </trkpt>
      <trkpt lat="42.20312" lon="2.69055">
        <ele>174.83</ele>
        <time>2024-09-25T09:36:14.000Z</time>
      </trkpt>
      <trkpt lat="42.20322" lon="2.69038">
        <ele>174.9</ele>
        <time>2024-09-25T09:36:19.000Z</time>
      </trkpt>
      <trkpt lat="42.20331" lon="2.69021">
        <ele>174.99</ele>
        <time>2024-09-25T09:36:24.000Z</time>
      </trkpt>
      <trkpt lat="42.20341" lon="2.69004">
        <ele>175.08</ele>
        <time>2024-09-25T09:36:29.000Z</time>
      </trkpt>
      <trkpt lat="42.20349" lon="2.68988">
        <ele>175.19</ele>
        <time>2024-09-25T09:36:34.000Z</time>
      </trkpt>
      <trkpt lat="42.20358" lon="2.68973">
        <ele>175.32</ele>
        <time>2024-09-25T09:36:39.000Z</time>
      </trkpt>
      <trkpt lat="42.20367" lon="2.68958">
        <ele>175.46</ele>
        <time>2024-09-25T09:36:44.000Z</time>
      </trkpt>
      <trkpt lat="42.20374" lon="2.68947">
        <ele>175.63</ele>
        <time>2024-09-25T09:36:49.000Z</time>
      </trkpt>
      <trkpt lat="42.20382" lon="2.68935">
        <ele>175.8</ele>
        <time>2024-09-25T09:36:54.000Z</time>
      </trkpt>
      <trkpt lat="42.20389" lon="2.68923">
        <ele>176</ele>
        <time>2024-09-25T09:36:59.000Z</time>
      </trkpt>
      <trkpt lat="42.20396" lon="2.6891">
        <ele>176.2</ele>
        <time>2024-09-25T09:37:04.000Z</time>
      </trkpt>
      <trkpt lat="42.20404" lon="2.68897">
        <ele>176.42</ele>
        <time>2024-09-25T09:37:09.000Z</time>
      </trkpt>
      <trkpt lat="42.20411" lon="2.68883">
        <ele>176.64</ele>
        <time>2024-09-25T09:37:14.000Z</time>
      </trkpt>
      <trkpt lat="42.20419" lon="2.6887">
        <ele>176.86</ele>
        <time>2024-09-25T09:37:19.000Z</time>
      </trkpt>
      <trkpt lat="42.20426" lon="2.68857">
        <ele>177.09</ele>
        <time>2024-09-25T09:37:24.000Z</time>
      </trkpt>
      <trkpt lat="42.20435" lon="2.68844">
        <ele>177.33</ele>
        <time>2024-09-25T09:37:29.000Z</time>
      </trkpt>
      <trkpt lat="42.20442" lon="2.6883">
        <ele>177.58</ele>
        <time>2024-09-25T09:37:34.000Z</time>
      </trkpt>
      <trkpt lat="42.20449" lon="2.68816">
        <ele>177.83</ele>
        <time>2024-09-25T09:37:39.000Z</time>
      </trkpt>
      <trkpt lat="42.20457" lon="2.68803">
        <ele>178.09</ele>
        <time>2024-09-25T09:37:44.000Z</time>
      </trkpt>
      <trkpt lat="42.20464" lon="2.68788">
        <ele>178.35</ele>
        <time>2024-09-25T09:37:49.000Z</time>
      </trkpt>
      <trkpt lat="42.20471" lon="2.68775">
        <ele>178.6</ele>
        <time>2024-09-25T09:37:54.000Z</time>
      </trkpt>
      <trkpt lat="42.2048" lon="2.68762">
        <ele>178.86</ele>
        <time>2024-09-25T09:37:59.000Z</time>
      </trkpt>
      <trkpt lat="42.20487" lon="2.68749">
        <ele>179.13</ele>
        <time>2024-09-25T09:38:04.000Z</time>
      </trkpt>
      <trkpt lat="42.20495" lon="2.68735">
        <ele>179.39</ele>
        <time>2024-09-25T09:38:09.000Z</time>
      </trkpt>
      <trkpt lat="42.20503" lon="2.68722">
        <ele>179.65</ele>
        <time>2024-09-25T09:38:14.000Z</time>
      </trkpt>
      <trkpt lat="42.2051" lon="2.68707">
        <ele>179.92</ele>
        <time>2024-09-25T09:38:19.000Z</time>
      </trkpt>
      <trkpt lat="42.20516" lon="2.68691">
        <ele>180.2</ele>
        <time>2024-09-25T09:38:24.000Z</time>
      </trkpt>
      <trkpt lat="42.2052" lon="2.68676">
        <ele>180.47</ele>
        <time>2024-09-25T09:38:29.000Z</time>
      </trkpt>
      <trkpt lat="42.20524" lon="2.68659">
        <ele>180.75</ele>
        <time>2024-09-25T09:38:34.000Z</time>
      </trkpt>
      <trkpt lat="42.20526" lon="2.6864">
        <ele>181.02</ele>
        <time>2024-09-25T09:38:39.000Z</time>
      </trkpt>
      <trkpt lat="42.20528" lon="2.68623">
        <ele>181.29</ele>
        <time>2024-09-25T09:38:44.000Z</time>
      </trkpt>
      <trkpt lat="42.20529" lon="2.68609">
        <ele>181.57</ele>
        <time>2024-09-25T09:38:49.000Z</time>
      </trkpt>
      <trkpt lat="42.20525" lon="2.68599">
        <ele>182.05</ele>
        <time>2024-09-25T09:39:07.000Z</time>
      </trkpt>
      <trkpt lat="42.20523" lon="2.6858">
        <ele>182.34</ele>
        <time>2024-09-25T09:39:12.000Z</time>
      </trkpt>
      <trkpt lat="42.20522" lon="2.6856">
        <ele>182.62</ele>
        <time>2024-09-25T09:39:17.000Z</time>
      </trkpt>
      <trkpt lat="42.2052" lon="2.68541">
        <ele>182.93</ele>
        <time>2024-09-25T09:39:22.000Z</time>
      </trkpt>
      <trkpt lat="42.20519" lon="2.68522">
        <ele>183.25</ele>
        <time>2024-09-25T09:39:27.000Z</time>
      </trkpt>
      <trkpt lat="42.20519" lon="2.68502">
        <ele>183.6</ele>
        <time>2024-09-25T09:39:32.000Z</time>
      </trkpt>
      <trkpt lat="42.20518" lon="2.68484">
        <ele>183.95</ele>
        <time>2024-09-25T09:39:37.000Z</time>
      </trkpt>
      <trkpt lat="42.2052" lon="2.68467">
        <ele>184.31</ele>
        <time>2024-09-25T09:39:42.000Z</time>
      </trkpt>
      <trkpt lat="42.20522" lon="2.6845">
        <ele>184.67</ele>
        <time>2024-09-25T09:39:47.000Z</time>
      </trkpt>
      <trkpt lat="42.20527" lon="2.68433">
        <ele>185.03</ele>
        <time>2024-09-25T09:39:52.000Z</time>
      </trkpt>
      <trkpt lat="42.20533" lon="2.68416">
        <ele>185.38</ele>
        <time>2024-09-25T09:39:57.000Z</time>
      </trkpt>
      <trkpt lat="42.20543" lon="2.68399">
        <ele>185.81</ele>
        <time>2024-09-25T09:40:02.999Z</time>
      </trkpt>
      <trkpt lat="42.20553" lon="2.68385">
        <ele>186.16</ele>
        <time>2024-09-25T09:40:07.999Z</time>
      </trkpt>
      <trkpt lat="42.20565" lon="2.68373">
        <ele>186.52</ele>
        <time>2024-09-25T09:40:12.999Z</time>
      </trkpt>
      <trkpt lat="42.20577" lon="2.68362">
        <ele>186.89</ele>
        <time>2024-09-25T09:40:17.999Z</time>
      </trkpt>
      <trkpt lat="42.20589" lon="2.68352">
        <ele>187.26</ele>
        <time>2024-09-25T09:40:22.999Z</time>
      </trkpt>
      <trkpt lat="42.206" lon="2.68343">
        <ele>187.64</ele>
        <time>2024-09-25T09:40:27.999Z</time>
      </trkpt>
      <trkpt lat="42.20613" lon="2.68333">
        <ele>188.01</ele>
        <time>2024-09-25T09:40:32.999Z</time>
      </trkpt>
      <trkpt lat="42.20628" lon="2.6832">
        <ele>188.38</ele>
        <time>2024-09-25T09:40:37.999Z</time>
      </trkpt>
      <trkpt lat="42.20643" lon="2.68304">
        <ele>190.58</ele>
        <time>2024-09-25T09:40:42.999Z</time>
      </trkpt>
      <trkpt lat="42.20659" lon="2.68288">
        <ele>191.9</ele>
        <time>2024-09-25T09:40:47.999Z</time>
      </trkpt>
      <trkpt lat="42.20674" lon="2.68267">
        <ele>192.59</ele>
        <time>2024-09-25T09:40:52.999Z</time>
      </trkpt>
      <trkpt lat="42.2069" lon="2.68243">
        <ele>193.07</ele>
        <time>2024-09-25T09:40:57.999Z</time>
      </trkpt>
      <trkpt lat="42.20711" lon="2.68208">
        <ele>193.48</ele>
        <time>2024-09-25T09:41:02.999Z</time>
      </trkpt>
      <trkpt lat="42.20729" lon="2.68165">
        <ele>193.82</ele>
        <time>2024-09-25T09:41:07.999Z</time>
      </trkpt>
      <trkpt lat="42.20741" lon="2.68112">
        <ele>193.88</ele>
        <time>2024-09-25T09:41:12.999Z</time>
      </trkpt>
      <trkpt lat="42.20746" lon="2.68057">
        <ele>194.29</ele>
        <time>2024-09-25T09:41:17.999Z</time>
      </trkpt>
      <trkpt lat="42.20749" lon="2.68009">
        <ele>195.33</ele>
        <time>2024-09-25T09:41:22.999Z</time>
      </trkpt>
      <trkpt lat="42.20768" lon="2.67979">
        <ele>196.36</ele>
        <time>2024-09-25T09:41:27.999Z</time>
      </trkpt>
      <trkpt lat="42.20773" lon="2.67953">
        <ele>196.91</ele>
        <time>2024-09-25T09:41:32.999Z</time>
      </trkpt>
      <trkpt lat="42.20776" lon="2.67933">
        <ele>197</ele>
        <time>2024-09-25T09:41:37.999Z</time>
      </trkpt>
      <trkpt lat="42.20782" lon="2.67919">
        <ele>197.15</ele>
        <time>2024-09-25T09:41:42.999Z</time>
      </trkpt>
      <trkpt lat="42.20788" lon="2.67904">
        <ele>197.35</ele>
        <time>2024-09-25T09:41:47.999Z</time>
      </trkpt>
      <trkpt lat="42.20792" lon="2.67887">
        <ele>197.62</ele>
        <time>2024-09-25T09:41:52.999Z</time>
      </trkpt>
      <trkpt lat="42.20795" lon="2.67873">
        <ele>198</ele>
        <time>2024-09-25T09:41:57.999Z</time>
      </trkpt>
      <trkpt lat="42.20798" lon="2.67861">
        <ele>198.58</ele>
        <time>2024-09-25T09:42:47.999Z</time>
      </trkpt>
      <trkpt lat="42.20798" lon="2.67845">
        <ele>198.79</ele>
        <time>2024-09-25T09:42:53.999Z</time>
      </trkpt>
      <trkpt lat="42.20798" lon="2.67828">
        <ele>199</ele>
        <time>2024-09-25T09:42:58.999Z</time>
      </trkpt>
      <trkpt lat="42.20795" lon="2.67809">
        <ele>199.24</ele>
        <time>2024-09-25T09:43:03.999Z</time>
      </trkpt>
      <trkpt lat="42.20793" lon="2.67789">
        <ele>199.52</ele>
        <time>2024-09-25T09:43:08.999Z</time>
      </trkpt>
      <trkpt lat="42.20794" lon="2.67768">
        <ele>199.84</ele>
        <time>2024-09-25T09:43:13.999Z</time>
      </trkpt>
      <trkpt lat="42.20796" lon="2.67748">
        <ele>200.2</ele>
        <time>2024-09-25T09:43:18.999Z</time>
      </trkpt>
      <trkpt lat="42.20799" lon="2.67727">
        <ele>200.6</ele>
        <time>2024-09-25T09:43:23.999Z</time>
      </trkpt>
      <trkpt lat="42.20803" lon="2.67704">
        <ele>200.99</ele>
        <time>2024-09-25T09:43:28.999Z</time>
      </trkpt>
      <trkpt lat="42.20809" lon="2.67681">
        <ele>201.93</ele>
        <time>2024-09-25T09:43:33.999Z</time>
      </trkpt>
      <trkpt lat="42.20816" lon="2.67656">
        <ele>204.24</ele>
        <time>2024-09-25T09:43:38.999Z</time>
      </trkpt>
      <trkpt lat="42.20825" lon="2.67628">
        <ele>205.16</ele>
        <time>2024-09-25T09:43:43.999Z</time>
      </trkpt>
      <trkpt lat="42.20836" lon="2.67598">
        <ele>205.6</ele>
        <time>2024-09-25T09:43:48.999Z</time>
      </trkpt>
      <trkpt lat="42.20847" lon="2.67567">
        <ele>205.89</ele>
        <time>2024-09-25T09:43:53.999Z</time>
      </trkpt>
      <trkpt lat="42.20859" lon="2.67539">
        <ele>206.18</ele>
        <time>2024-09-25T09:43:58.999Z</time>
      </trkpt>
      <trkpt lat="42.20871" lon="2.67511">
        <ele>206.56</ele>
        <time>2024-09-25T09:44:03.999Z</time>
      </trkpt>
      <trkpt lat="42.20885" lon="2.67484">
        <ele>206.89</ele>
        <time>2024-09-25T09:44:08.999Z</time>
      </trkpt>
      <trkpt lat="42.20899" lon="2.67458">
        <ele>207.16</ele>
        <time>2024-09-25T09:44:13.999Z</time>
      </trkpt>
      <trkpt lat="42.20916" lon="2.67428">
        <ele>207.2</ele>
        <time>2024-09-25T09:44:18.999Z</time>
      </trkpt>
      <trkpt lat="42.20934" lon="2.67394">
        <ele>207.08</ele>
        <time>2024-09-25T09:44:23.999Z</time>
      </trkpt>
      <trkpt lat="42.20953" lon="2.67355">
        <ele>206.96</ele>
        <time>2024-09-25T09:44:28.999Z</time>
      </trkpt>
      <trkpt lat="42.20972" lon="2.67318">
        <ele>206.85</ele>
        <time>2024-09-25T09:44:33.999Z</time>
      </trkpt>
      <trkpt lat="42.20989" lon="2.67287">
        <ele>207.22</ele>
        <time>2024-09-25T09:44:38.999Z</time>
      </trkpt>
      <trkpt lat="42.21003" lon="2.6726">
        <ele>207.42</ele>
        <time>2024-09-25T09:44:43.999Z</time>
      </trkpt>
      <trkpt lat="42.21017" lon="2.67234">
        <ele>207.8</ele>
        <time>2024-09-25T09:44:48.999Z</time>
      </trkpt>
      <trkpt lat="42.21031" lon="2.67208">
        <ele>208.2</ele>
        <time>2024-09-25T09:44:53.999Z</time>
      </trkpt>
      <trkpt lat="42.21045" lon="2.67182">
        <ele>208.36</ele>
        <time>2024-09-25T09:44:58.999Z</time>
      </trkpt>
      <trkpt lat="42.21059" lon="2.67155">
        <ele>208.3</ele>
        <time>2024-09-25T09:45:03.999Z</time>
      </trkpt>
      <trkpt lat="42.21072" lon="2.67126">
        <ele>208.25</ele>
        <time>2024-09-25T09:45:08.999Z</time>
      </trkpt>
      <trkpt lat="42.21085" lon="2.67095">
        <ele>208.39</ele>
        <time>2024-09-25T09:45:13.999Z</time>
      </trkpt>
      <trkpt lat="42.21097" lon="2.67062">
        <ele>208.46</ele>
        <time>2024-09-25T09:45:18.999Z</time>
      </trkpt>
      <trkpt lat="42.2111" lon="2.67027">
        <ele>208.44</ele>
        <time>2024-09-25T09:45:23.999Z</time>
      </trkpt>
      <trkpt lat="42.2112" lon="2.66993">
        <ele>208.57</ele>
        <time>2024-09-25T09:45:28.999Z</time>
      </trkpt>
      <trkpt lat="42.21132" lon="2.66958">
        <ele>208.63</ele>
        <time>2024-09-25T09:45:33.999Z</time>
      </trkpt>
      <trkpt lat="42.21143" lon="2.66925">
        <ele>208.79</ele>
        <time>2024-09-25T09:45:38.999Z</time>
      </trkpt>
      <trkpt lat="42.21156" lon="2.66889">
        <ele>209.03</ele>
        <time>2024-09-25T09:45:43.999Z</time>
      </trkpt>
      <trkpt lat="42.21167" lon="2.66854">
        <ele>209.18</ele>
        <time>2024-09-25T09:45:48.999Z</time>
      </trkpt>
      <trkpt lat="42.21174" lon="2.66818">
        <ele>209.33</ele>
        <time>2024-09-25T09:45:53.999Z</time>
      </trkpt>
      <trkpt lat="42.21177" lon="2.66778">
        <ele>209.46</ele>
        <time>2024-09-25T09:45:58.999Z</time>
      </trkpt>
      <trkpt lat="42.21178" lon="2.66736">
        <ele>209.44</ele>
        <time>2024-09-25T09:46:03.999Z</time>
      </trkpt>
      <trkpt lat="42.21182" lon="2.66693">
        <ele>209.38</ele>
        <time>2024-09-25T09:46:08.999Z</time>
      </trkpt>
      <trkpt lat="42.2119" lon="2.66654">
        <ele>209.32</ele>
        <time>2024-09-25T09:46:13.999Z</time>
      </trkpt>
      <trkpt lat="42.21203" lon="2.6662">
        <ele>209.52</ele>
        <time>2024-09-25T09:46:18.999Z</time>
      </trkpt>
      <trkpt lat="42.21215" lon="2.66589">
        <ele>209.89</ele>
        <time>2024-09-25T09:46:23.999Z</time>
      </trkpt>
      <trkpt lat="42.2123" lon="2.66558">
        <ele>210.09</ele>
        <time>2024-09-25T09:46:28.999Z</time>
      </trkpt>
      <trkpt lat="42.21243" lon="2.66526">
        <ele>209.98</ele>
        <time>2024-09-25T09:46:33.999Z</time>
      </trkpt>
      <trkpt lat="42.21259" lon="2.66494">
        <ele>209.76</ele>
        <time>2024-09-25T09:46:38.999Z</time>
      </trkpt>
      <trkpt lat="42.21278" lon="2.66465">
        <ele>209.55</ele>
        <time>2024-09-25T09:46:43.999Z</time>
      </trkpt>
      <trkpt lat="42.213" lon="2.66439">
        <ele>209.34</ele>
        <time>2024-09-25T09:46:48.999Z</time>
      </trkpt>
      <trkpt lat="42.21324" lon="2.66418">
        <ele>209.1</ele>
        <time>2024-09-25T09:46:53.999Z</time>
      </trkpt>
      <trkpt lat="42.2135" lon="2.66401">
        <ele>208.78</ele>
        <time>2024-09-25T09:46:58.999Z</time>
      </trkpt>
      <trkpt lat="42.2138" lon="2.66386">
        <ele>208.33</ele>
        <time>2024-09-25T09:47:03.999Z</time>
      </trkpt>
      <trkpt lat="42.21411" lon="2.66369">
        <ele>207.96</ele>
        <time>2024-09-25T09:47:08.999Z</time>
      </trkpt>
      <trkpt lat="42.21444" lon="2.66351">
        <ele>207.99</ele>
        <time>2024-09-25T09:47:13.999Z</time>
      </trkpt>
      <trkpt lat="42.21477" lon="2.6633">
        <ele>208</ele>
        <time>2024-09-25T09:47:18.999Z</time>
      </trkpt>
      <trkpt lat="42.21501" lon="2.66295">
        <ele>208.24</ele>
        <time>2024-09-25T09:47:23.999Z</time>
      </trkpt>
      <trkpt lat="42.21511" lon="2.66253">
        <ele>208.31</ele>
        <time>2024-09-25T09:47:28.999Z</time>
      </trkpt>
      <trkpt lat="42.21521" lon="2.66212">
        <ele>208.46</ele>
        <time>2024-09-25T09:47:33.999Z</time>
      </trkpt>
      <trkpt lat="42.2153" lon="2.66173">
        <ele>208.42</ele>
        <time>2024-09-25T09:47:38.999Z</time>
      </trkpt>
      <trkpt lat="42.21527" lon="2.66133">
        <ele>208.38</ele>
        <time>2024-09-25T09:47:43.999Z</time>
      </trkpt>
      <trkpt lat="42.21516" lon="2.66102">
        <ele>208.71</ele>
        <time>2024-09-25T09:47:48.999Z</time>
      </trkpt>
      <trkpt lat="42.21507" lon="2.66076">
        <ele>208.89</ele>
        <time>2024-09-25T09:47:53.999Z</time>
      </trkpt>
      <trkpt lat="42.21501" lon="2.66065">
        <ele>208.75</ele>
        <time>2024-09-25T09:48:27.999Z</time>
      </trkpt>
      <trkpt lat="42.21494" lon="2.66045">
        <ele>208.47</ele>
        <time>2024-09-25T09:48:32.999Z</time>
      </trkpt>
      <trkpt lat="42.21485" lon="2.66018">
        <ele>207.93</ele>
        <time>2024-09-25T09:48:37.999Z</time>
      </trkpt>
      <trkpt lat="42.21479" lon="2.65988">
        <ele>207.74</ele>
        <time>2024-09-25T09:48:42.999Z</time>
      </trkpt>
      <trkpt lat="42.21478" lon="2.65955">
        <ele>207.78</ele>
        <time>2024-09-25T09:48:47.999Z</time>
      </trkpt>
      <trkpt lat="42.21483" lon="2.65922">
        <ele>207.71</ele>
        <time>2024-09-25T09:48:52.999Z</time>
      </trkpt>
      <trkpt lat="42.21492" lon="2.65889">
        <ele>207.43</ele>
        <time>2024-09-25T09:48:57.999Z</time>
      </trkpt>
      <trkpt lat="42.21506" lon="2.6585">
        <ele>206.51</ele>
        <time>2024-09-25T09:49:02.999Z</time>
      </trkpt>
      <trkpt lat="42.21521" lon="2.65802">
        <ele>205.46</ele>
        <time>2024-09-25T09:49:07.999Z</time>
      </trkpt>
      <trkpt lat="42.21539" lon="2.65751">
        <ele>204.68</ele>
        <time>2024-09-25T09:49:12.999Z</time>
      </trkpt>
      <trkpt lat="42.21557" lon="2.65703">
        <ele>204.07</ele>
        <time>2024-09-25T09:49:17.999Z</time>
      </trkpt>
      <trkpt lat="42.21575" lon="2.65656">
        <ele>203.03</ele>
        <time>2024-09-25T09:49:22.999Z</time>
      </trkpt>
      <trkpt lat="42.21592" lon="2.65606">
        <ele>202.12</ele>
        <time>2024-09-25T09:49:27.999Z</time>
      </trkpt>
      <trkpt lat="42.21608" lon="2.65556">
        <ele>200.87</ele>
        <time>2024-09-25T09:49:32.999Z</time>
      </trkpt>
      <trkpt lat="42.21624" lon="2.65508">
        <ele>200.2</ele>
        <time>2024-09-25T09:49:37.999Z</time>
      </trkpt>
      <trkpt lat="42.21636" lon="2.65464">
        <ele>199.53</ele>
        <time>2024-09-25T09:49:42.999Z</time>
      </trkpt>
      <trkpt lat="42.21641" lon="2.65414">
        <ele>199.63</ele>
        <time>2024-09-25T09:49:47.999Z</time>
      </trkpt>
      <trkpt lat="42.21645" lon="2.65365">
        <ele>199.1</ele>
        <time>2024-09-25T09:49:52.999Z</time>
      </trkpt>
      <trkpt lat="42.21646" lon="2.65318">
        <ele>197.94</ele>
        <time>2024-09-25T09:49:57.999Z</time>
      </trkpt>
      <trkpt lat="42.21625" lon="2.65285">
        <ele>196.69</ele>
        <time>2024-09-25T09:50:02.999Z</time>
      </trkpt>
      <trkpt lat="42.21609" lon="2.65248">
        <ele>195.81</ele>
        <time>2024-09-25T09:50:07.999Z</time>
      </trkpt>
      <trkpt lat="42.21595" lon="2.6521">
        <ele>195.05</ele>
        <time>2024-09-25T09:50:12.999Z</time>
      </trkpt>
      <trkpt lat="42.2158" lon="2.65176">
        <ele>194.71</ele>
        <time>2024-09-25T09:50:17.999Z</time>
      </trkpt>
      <trkpt lat="42.21567" lon="2.65141">
        <ele>194.28</ele>
        <time>2024-09-25T09:50:22.999Z</time>
      </trkpt>
      <trkpt lat="42.21561" lon="2.65104">
        <ele>193.77</ele>
        <time>2024-09-25T09:50:27.999Z</time>
      </trkpt>
      <trkpt lat="42.21558" lon="2.65066">
        <ele>193.32</ele>
        <time>2024-09-25T09:50:32.999Z</time>
      </trkpt>
      <trkpt lat="42.21559" lon="2.6503">
        <ele>192.83</ele>
        <time>2024-09-25T09:50:37.999Z</time>
      </trkpt>
      <trkpt lat="42.21562" lon="2.64991">
        <ele>192.57</ele>
        <time>2024-09-25T09:50:42.999Z</time>
      </trkpt>
      <trkpt lat="42.21563" lon="2.64956">
        <ele>192.95</ele>
        <time>2024-09-25T09:50:47.999Z</time>
      </trkpt>
      <trkpt lat="42.21564" lon="2.64923">
        <ele>193.32</ele>
        <time>2024-09-25T09:50:52.999Z</time>
      </trkpt>
      <trkpt lat="42.21566" lon="2.64888">
        <ele>193.53</ele>
        <time>2024-09-25T09:50:57.999Z</time>
      </trkpt>
      <trkpt lat="42.21576" lon="2.64858">
        <ele>193.66</ele>
        <time>2024-09-25T09:51:02.999Z</time>
      </trkpt>
      <trkpt lat="42.2159" lon="2.64841">
        <ele>193.77</ele>
        <time>2024-09-25T09:51:07.999Z</time>
      </trkpt>
      <trkpt lat="42.21598" lon="2.64831">
        <ele>193.85</ele>
        <time>2024-09-25T09:51:12.999Z</time>
      </trkpt>
      <trkpt lat="42.21605" lon="2.6482">
        <ele>193.97</ele>
        <time>2024-09-25T09:51:17.999Z</time>
      </trkpt>
      <trkpt lat="42.21611" lon="2.64809">
        <ele>194.1</ele>
        <time>2024-09-25T09:51:22.999Z</time>
      </trkpt>
      <trkpt lat="42.21615" lon="2.64795">
        <ele>194.25</ele>
        <time>2024-09-25T09:51:27.999Z</time>
      </trkpt>
      <trkpt lat="42.21617" lon="2.6478">
        <ele>194.42</ele>
        <time>2024-09-25T09:51:32.999Z</time>
      </trkpt>
      <trkpt lat="42.21616" lon="2.64765">
        <ele>194.62</ele>
        <time>2024-09-25T09:51:37.999Z</time>
      </trkpt>
      <trkpt lat="42.21613" lon="2.64749">
        <ele>194.82</ele>
        <time>2024-09-25T09:51:42.999Z</time>
      </trkpt>
      <trkpt lat="42.21607" lon="2.64733">
        <ele>195.04</ele>
        <time>2024-09-25T09:51:47.999Z</time>
      </trkpt>
      <trkpt lat="42.21599" lon="2.64719">
        <ele>195.25</ele>
        <time>2024-09-25T09:51:52.999Z</time>
      </trkpt>
      <trkpt lat="42.21589" lon="2.64703">
        <ele>195.45</ele>
        <time>2024-09-25T09:51:57.999Z</time>
      </trkpt>
      <trkpt lat="42.2158" lon="2.64687">
        <ele>195.66</ele>
        <time>2024-09-25T09:52:02.999Z</time>
      </trkpt>
      <trkpt lat="42.21573" lon="2.6467">
        <ele>195.86</ele>
        <time>2024-09-25T09:52:08.000Z</time>
      </trkpt>
      <trkpt lat="42.21575" lon="2.64654">
        <ele>196.07</ele>
        <time>2024-09-25T09:52:13.000Z</time>
      </trkpt>
      <trkpt lat="42.21575" lon="2.64636">
        <ele>196.27</ele>
        <time>2024-09-25T09:52:18.000Z</time>
      </trkpt>
      <trkpt lat="42.21573" lon="2.64619">
        <ele>196.47</ele>
        <time>2024-09-25T09:52:23.000Z</time>
      </trkpt>
      <trkpt lat="42.21573" lon="2.64605">
        <ele>196.64</ele>
        <time>2024-09-25T09:52:28.000Z</time>
      </trkpt>
      <trkpt lat="42.21577" lon="2.64592">
        <ele>196.97</ele>
        <time>2024-09-25T09:52:41.000Z</time>
      </trkpt>
      <trkpt lat="42.21581" lon="2.64572">
        <ele>197.18</ele>
        <time>2024-09-25T09:52:46.000Z</time>
      </trkpt>
      <trkpt lat="42.21585" lon="2.64553">
        <ele>197.38</ele>
        <time>2024-09-25T09:52:51.000Z</time>
      </trkpt>
      <trkpt lat="42.21587" lon="2.64534">
        <ele>197.58</ele>
        <time>2024-09-25T09:52:56.000Z</time>
      </trkpt>
      <trkpt lat="42.21588" lon="2.64508">
        <ele>198.19</ele>
        <time>2024-09-25T09:53:01.000Z</time>
      </trkpt>
      <trkpt lat="42.21587" lon="2.6448">
        <ele>199.83</ele>
        <time>2024-09-25T09:53:06.000Z</time>
      </trkpt>
      <trkpt lat="42.21588" lon="2.64453">
        <ele>200.49</ele>
        <time>2024-09-25T09:53:11.000Z</time>
      </trkpt>
      <trkpt lat="42.21591" lon="2.64426">
        <ele>201.01</ele>
        <time>2024-09-25T09:53:16.000Z</time>
      </trkpt>
      <trkpt lat="42.21592" lon="2.64397">
        <ele>201.52</ele>
        <time>2024-09-25T09:53:21.000Z</time>
      </trkpt>
      <trkpt lat="42.21593" lon="2.6437">
        <ele>201.82</ele>
        <time>2024-09-25T09:53:26.000Z</time>
      </trkpt>
      <trkpt lat="42.21595" lon="2.64343">
        <ele>202.13</ele>
        <time>2024-09-25T09:53:31.000Z</time>
      </trkpt>
      <trkpt lat="42.21596" lon="2.64312">
        <ele>202.43</ele>
        <time>2024-09-25T09:53:36.000Z</time>
      </trkpt>
      <trkpt lat="42.21599" lon="2.64279">
        <ele>202.75</ele>
        <time>2024-09-25T09:53:41.000Z</time>
      </trkpt>
      <trkpt lat="42.21603" lon="2.64244">
        <ele>203.1</ele>
        <time>2024-09-25T09:53:46.000Z</time>
      </trkpt>
      <trkpt lat="42.21604" lon="2.6421">
        <ele>203.4</ele>
        <time>2024-09-25T09:53:51.000Z</time>
      </trkpt>
      <trkpt lat="42.21606" lon="2.6418">
        <ele>203.64</ele>
        <time>2024-09-25T09:53:56.000Z</time>
      </trkpt>
      <trkpt lat="42.21608" lon="2.64153">
        <ele>203.72</ele>
        <time>2024-09-25T09:54:01.000Z</time>
      </trkpt>
      <trkpt lat="42.21611" lon="2.64127">
        <ele>203.83</ele>
        <time>2024-09-25T09:54:06.000Z</time>
      </trkpt>
      <trkpt lat="42.21613" lon="2.64115">
        <ele>203.9</ele>
        <time>2024-09-25T09:54:11.000Z</time>
      </trkpt>
      <trkpt lat="42.21611" lon="2.64129">
        <ele>204.23</ele>
        <time>2024-09-25T09:54:27.000Z</time>
      </trkpt>
      <trkpt lat="42.21609" lon="2.64142">
        <ele>204.52</ele>
        <time>2024-09-25T09:54:33.000Z</time>
      </trkpt>
      <trkpt lat="42.21618" lon="2.64148">
        <ele>204.8</ele>
        <time>2024-09-25T09:54:38.000Z</time>
      </trkpt>
      <trkpt lat="42.21628" lon="2.64151">
        <ele>205.08</ele>
        <time>2024-09-25T09:54:43.000Z</time>
      </trkpt>
      <trkpt lat="42.21638" lon="2.64154">
        <ele>205.33</ele>
        <time>2024-09-25T09:54:48.000Z</time>
      </trkpt>
      <trkpt lat="42.21648" lon="2.64156">
        <ele>205.57</ele>
        <time>2024-09-25T09:54:53.000Z</time>
      </trkpt>
      <trkpt lat="42.21658" lon="2.64158">
        <ele>205.79</ele>
        <time>2024-09-25T09:54:58.000Z</time>
      </trkpt>
      <trkpt lat="42.21668" lon="2.64158">
        <ele>206.02</ele>
        <time>2024-09-25T09:55:03.000Z</time>
      </trkpt>
      <trkpt lat="42.21677" lon="2.64158">
        <ele>206.25</ele>
        <time>2024-09-25T09:55:08.000Z</time>
      </trkpt>
      <trkpt lat="42.21687" lon="2.64157">
        <ele>206.48</ele>
        <time>2024-09-25T09:55:13.000Z</time>
      </trkpt>
      <trkpt lat="42.21696" lon="2.64154">
        <ele>206.72</ele>
        <time>2024-09-25T09:55:18.000Z</time>
      </trkpt>
      <trkpt lat="42.21706" lon="2.6415">
        <ele>206.95</ele>
        <time>2024-09-25T09:55:23.000Z</time>
      </trkpt>
      <trkpt lat="42.21713" lon="2.64144">
        <ele>207.18</ele>
        <time>2024-09-25T09:55:28.000Z</time>
      </trkpt>
      <trkpt lat="42.21723" lon="2.64136">
        <ele>207.42</ele>
        <time>2024-09-25T09:55:33.000Z</time>
      </trkpt>
      <trkpt lat="42.2173" lon="2.64127">
        <ele>207.65</ele>
        <time>2024-09-25T09:55:38.000Z</time>
      </trkpt>
      <trkpt lat="42.21736" lon="2.64117">
        <ele>207.92</ele>
        <time>2024-09-25T09:55:44.000Z</time>
      </trkpt>
      <trkpt lat="42.21743" lon="2.64104">
        <ele>208.14</ele>
        <time>2024-09-25T09:55:49.000Z</time>
      </trkpt>
      <trkpt lat="42.21749" lon="2.64089">
        <ele>208.36</ele>
        <time>2024-09-25T09:55:54.000Z</time>
      </trkpt>
      <trkpt lat="42.21753" lon="2.64072">
        <ele>208.56</ele>
        <time>2024-09-25T09:55:59.000Z</time>
      </trkpt>
      <trkpt lat="42.21757" lon="2.64055">
        <ele>208.76</ele>
        <time>2024-09-25T09:56:04.000Z</time>
      </trkpt>
      <trkpt lat="42.21764" lon="2.6404">
        <ele>208.95</ele>
        <time>2024-09-25T09:56:09.000Z</time>
      </trkpt>
      <trkpt lat="42.21772" lon="2.6403">
        <ele>209.15</ele>
        <time>2024-09-25T09:56:14.000Z</time>
      </trkpt>
      <trkpt lat="42.21777" lon="2.64016">
        <ele>209.34</ele>
        <time>2024-09-25T09:56:19.000Z</time>
      </trkpt>
      <trkpt lat="42.21774" lon="2.64002">
        <ele>209.81</ele>
        <time>2024-09-25T09:56:46.000Z</time>
      </trkpt>
      <trkpt lat="42.2176" lon="2.63989">
        <ele>210.26</ele>
        <time>2024-09-25T09:56:51.000Z</time>
      </trkpt>
      <trkpt lat="42.21747" lon="2.63964">
        <ele>211.46</ele>
        <time>2024-09-25T09:56:56.000Z</time>
      </trkpt>
      <trkpt lat="42.21733" lon="2.63933">
        <ele>211.97</ele>
        <time>2024-09-25T09:57:01.000Z</time>
      </trkpt>
      <trkpt lat="42.21718" lon="2.63889">
        <ele>212.1</ele>
        <time>2024-09-25T09:57:06.000Z</time>
      </trkpt>
      <trkpt lat="42.21706" lon="2.63838">
        <ele>211.87</ele>
        <time>2024-09-25T09:57:11.000Z</time>
      </trkpt>
      <trkpt lat="42.21694" lon="2.63781">
        <ele>211.5</ele>
        <time>2024-09-25T09:57:16.000Z</time>
      </trkpt>
      <trkpt lat="42.21687" lon="2.63721">
        <ele>211.3</ele>
        <time>2024-09-25T09:57:21.000Z</time>
      </trkpt>
      <trkpt lat="42.21682" lon="2.63662">
        <ele>211.33</ele>
        <time>2024-09-25T09:57:26.000Z</time>
      </trkpt>
      <trkpt lat="42.21681" lon="2.63605">
        <ele>211.22</ele>
        <time>2024-09-25T09:57:31.000Z</time>
      </trkpt>
      <trkpt lat="42.2168" lon="2.63555">
        <ele>210.87</ele>
        <time>2024-09-25T09:57:36.000Z</time>
      </trkpt>
      <trkpt lat="42.21682" lon="2.6351">
        <ele>210.41</ele>
        <time>2024-09-25T09:57:41.000Z</time>
      </trkpt>
      <trkpt lat="42.21683" lon="2.6347">
        <ele>210.26</ele>
        <time>2024-09-25T09:57:46.000Z</time>
      </trkpt>
      <trkpt lat="42.21684" lon="2.63433">
        <ele>210.25</ele>
        <time>2024-09-25T09:57:51.000Z</time>
      </trkpt>
      <trkpt lat="42.21684" lon="2.63399">
        <ele>210.2</ele>
        <time>2024-09-25T09:57:56.000Z</time>
      </trkpt>
      <trkpt lat="42.21683" lon="2.63367">
        <ele>210.22</ele>
        <time>2024-09-25T09:58:01.000Z</time>
      </trkpt>
      <trkpt lat="42.21682" lon="2.63335">
        <ele>210.06</ele>
        <time>2024-09-25T09:58:06.000Z</time>
      </trkpt>
      <trkpt lat="42.21679" lon="2.63305">
        <ele>210.01</ele>
        <time>2024-09-25T09:58:11.000Z</time>
      </trkpt>
      <trkpt lat="42.21677" lon="2.63276">
        <ele>209.92</ele>
        <time>2024-09-25T09:58:16.000Z</time>
      </trkpt>
      <trkpt lat="42.21674" lon="2.63248">
        <ele>210.02</ele>
        <time>2024-09-25T09:58:21.000Z</time>
      </trkpt>
      <trkpt lat="42.21671" lon="2.63222">
        <ele>210.32</ele>
        <time>2024-09-25T09:58:26.000Z</time>
      </trkpt>
      <trkpt lat="42.21668" lon="2.63195">
        <ele>210.62</ele>
        <time>2024-09-25T09:58:31.000Z</time>
      </trkpt>
      <trkpt lat="42.21665" lon="2.6317">
        <ele>210.68</ele>
        <time>2024-09-25T09:58:36.000Z</time>
      </trkpt>
      <trkpt lat="42.21661" lon="2.63147">
        <ele>210.76</ele>
        <time>2024-09-25T09:58:41.000Z</time>
      </trkpt>
      <trkpt lat="42.21656" lon="2.63124">
        <ele>210.87</ele>
        <time>2024-09-25T09:58:46.000Z</time>
      </trkpt>
      <trkpt lat="42.21651" lon="2.63102">
        <ele>211.02</ele>
        <time>2024-09-25T09:58:51.000Z</time>
      </trkpt>
      <trkpt lat="42.21645" lon="2.63079">
        <ele>211.58</ele>
        <time>2024-09-25T09:58:56.000Z</time>
      </trkpt>
      <trkpt lat="42.21639" lon="2.63059">
        <ele>211.79</ele>
        <time>2024-09-25T09:59:01.000Z</time>
      </trkpt>
      <trkpt lat="42.21632" lon="2.63039">
        <ele>212.01</ele>
        <time>2024-09-25T09:59:06.000Z</time>
      </trkpt>
      <trkpt lat="42.21624" lon="2.6302">
        <ele>212.23</ele>
        <time>2024-09-25T09:59:11.000Z</time>
      </trkpt>
      <trkpt lat="42.21616" lon="2.63001">
        <ele>212.48</ele>
        <time>2024-09-25T09:59:16.000Z</time>
      </trkpt>
      <trkpt lat="42.21607" lon="2.62983">
        <ele>212.75</ele>
        <time>2024-09-25T09:59:21.000Z</time>
      </trkpt>
      <trkpt lat="42.216" lon="2.62967">
        <ele>213.04</ele>
        <time>2024-09-25T09:59:26.000Z</time>
      </trkpt>
      <trkpt lat="42.21593" lon="2.62951">
        <ele>213.34</ele>
        <time>2024-09-25T09:59:31.000Z</time>
      </trkpt>
      <trkpt lat="42.21585" lon="2.62935">
        <ele>213.63</ele>
        <time>2024-09-25T09:59:36.000Z</time>
      </trkpt>
      <trkpt lat="42.21577" lon="2.62919">
        <ele>213.9</ele>
        <time>2024-09-25T09:59:41.000Z</time>
      </trkpt>
      <trkpt lat="42.21569" lon="2.62903">
        <ele>214.16</ele>
        <time>2024-09-25T09:59:46.000Z</time>
      </trkpt>
      <trkpt lat="42.21559" lon="2.62885">
        <ele>214.43</ele>
        <time>2024-09-25T09:59:51.000Z</time>
      </trkpt>
      <trkpt lat="42.21546" lon="2.62865">
        <ele>216.01</ele>
        <time>2024-09-25T09:59:56.000Z</time>
      </trkpt>
      <trkpt lat="42.21532" lon="2.62843">
        <ele>216.98</ele>
        <time>2024-09-25T10:00:01.000Z</time>
      </trkpt>
      <trkpt lat="42.21516" lon="2.62818">
        <ele>217.3</ele>
        <time>2024-09-25T10:00:06.000Z</time>
      </trkpt>
      <trkpt lat="42.21496" lon="2.62789">
        <ele>217.28</ele>
        <time>2024-09-25T10:00:11.000Z</time>
      </trkpt>
      <trkpt lat="42.21477" lon="2.62758">
        <ele>216.96</ele>
        <time>2024-09-25T10:00:16.000Z</time>
      </trkpt>
      <trkpt lat="42.21458" lon="2.62726">
        <ele>216.95</ele>
        <time>2024-09-25T10:00:21.000Z</time>
      </trkpt>
      <trkpt lat="42.21443" lon="2.62695">
        <ele>217.3</ele>
        <time>2024-09-25T10:00:26.000Z</time>
      </trkpt>
      <trkpt lat="42.2143" lon="2.62663">
        <ele>217.77</ele>
        <time>2024-09-25T10:00:31.000Z</time>
      </trkpt>
      <trkpt lat="42.21417" lon="2.62633">
        <ele>218.21</ele>
        <time>2024-09-25T10:00:36.000Z</time>
      </trkpt>
      <trkpt lat="42.21405" lon="2.62605">
        <ele>218.55</ele>
        <time>2024-09-25T10:00:41.000Z</time>
      </trkpt>
      <trkpt lat="42.21394" lon="2.62578">
        <ele>218.93</ele>
        <time>2024-09-25T10:00:46.000Z</time>
      </trkpt>
      <trkpt lat="42.21382" lon="2.62552">
        <ele>219.2</ele>
        <time>2024-09-25T10:00:51.000Z</time>
      </trkpt>
      <trkpt lat="42.21371" lon="2.62525">
        <ele>219.52</ele>
        <time>2024-09-25T10:00:56.000Z</time>
      </trkpt>
      <trkpt lat="42.21359" lon="2.62497">
        <ele>219.5</ele>
        <time>2024-09-25T10:01:01.000Z</time>
      </trkpt>
      <trkpt lat="42.21342" lon="2.62468">
        <ele>219.28</ele>
        <time>2024-09-25T10:01:06.000Z</time>
      </trkpt>
      <trkpt lat="42.21316" lon="2.62439">
        <ele>218.94</ele>
        <time>2024-09-25T10:01:11.000Z</time>
      </trkpt>
      <trkpt lat="42.21283" lon="2.62415">
        <ele>218.41</ele>
        <time>2024-09-25T10:01:16.000Z</time>
      </trkpt>
      <trkpt lat="42.21241" lon="2.62374">
        <ele>218.21</ele>
        <time>2024-09-25T10:01:23.000Z</time>
      </trkpt>
      <trkpt lat="42.21216" lon="2.62341">
        <ele>217.91</ele>
        <time>2024-09-25T10:01:28.000Z</time>
      </trkpt>
      <trkpt lat="42.21205" lon="2.62298">
        <ele>217.44</ele>
        <time>2024-09-25T10:01:33.000Z</time>
      </trkpt>
      <trkpt lat="42.212" lon="2.62253">
        <ele>216.45</ele>
        <time>2024-09-25T10:01:38.000Z</time>
      </trkpt>
      <trkpt lat="42.21198" lon="2.6221">
        <ele>215.52</ele>
        <time>2024-09-25T10:01:43.000Z</time>
      </trkpt>
      <trkpt lat="42.21197" lon="2.62164">
        <ele>214.61</ele>
        <time>2024-09-25T10:01:48.000Z</time>
      </trkpt>
      <trkpt lat="42.21198" lon="2.62118">
        <ele>214.07</ele>
        <time>2024-09-25T10:01:53.000Z</time>
      </trkpt>
      <trkpt lat="42.21199" lon="2.62075">
        <ele>213.65</ele>
        <time>2024-09-25T10:01:58.000Z</time>
      </trkpt>
      <trkpt lat="42.21202" lon="2.62036">
        <ele>213.28</ele>
        <time>2024-09-25T10:02:03.000Z</time>
      </trkpt>
      <trkpt lat="42.21206" lon="2.61999">
        <ele>212.9</ele>
        <time>2024-09-25T10:02:08.000Z</time>
      </trkpt>
      <trkpt lat="42.21211" lon="2.61963">
        <ele>212.6</ele>
        <time>2024-09-25T10:02:13.000Z</time>
      </trkpt>
      <trkpt lat="42.21217" lon="2.61929">
        <ele>212.2</ele>
        <time>2024-09-25T10:02:18.000Z</time>
      </trkpt>
      <trkpt lat="42.21222" lon="2.61894">
        <ele>211.75</ele>
        <time>2024-09-25T10:02:23.000Z</time>
      </trkpt>
      <trkpt lat="42.21229" lon="2.61858">
        <ele>211.31</ele>
        <time>2024-09-25T10:02:28.000Z</time>
      </trkpt>
      <trkpt lat="42.21236" lon="2.61822">
        <ele>210.83</ele>
        <time>2024-09-25T10:02:33.000Z</time>
      </trkpt>
      <trkpt lat="42.21242" lon="2.61786">
        <ele>210.41</ele>
        <time>2024-09-25T10:02:38.000Z</time>
      </trkpt>
      <trkpt lat="42.21248" lon="2.61749">
        <ele>209.91</ele>
        <time>2024-09-25T10:02:43.000Z</time>
      </trkpt>
      <trkpt lat="42.21253" lon="2.61712">
        <ele>209.51</ele>
        <time>2024-09-25T10:02:48.000Z</time>
      </trkpt>
      <trkpt lat="42.21257" lon="2.61674">
        <ele>209.17</ele>
        <time>2024-09-25T10:02:53.000Z</time>
      </trkpt>
      <trkpt lat="42.21262" lon="2.61634">
        <ele>208.94</ele>
        <time>2024-09-25T10:02:58.000Z</time>
      </trkpt>
      <trkpt lat="42.21266" lon="2.61596">
        <ele>208.84</ele>
        <time>2024-09-25T10:03:03.000Z</time>
      </trkpt>
      <trkpt lat="42.21269" lon="2.61559">
        <ele>208.83</ele>
        <time>2024-09-25T10:03:08.000Z</time>
      </trkpt>
      <trkpt lat="42.21265" lon="2.61525">
        <ele>208.81</ele>
        <time>2024-09-25T10:03:13.000Z</time>
      </trkpt>
      <trkpt lat="42.21253" lon="2.61494">
        <ele>208.69</ele>
        <time>2024-09-25T10:03:18.000Z</time>
      </trkpt>
      <trkpt lat="42.21232" lon="2.61468">
        <ele>208.44</ele>
        <time>2024-09-25T10:03:23.000Z</time>
      </trkpt>
      <trkpt lat="42.21206" lon="2.6145">
        <ele>208.2</ele>
        <time>2024-09-25T10:03:28.000Z</time>
      </trkpt>
      <trkpt lat="42.21177" lon="2.61434">
        <ele>207.97</ele>
        <time>2024-09-25T10:03:33.000Z</time>
      </trkpt>
      <trkpt lat="42.21153" lon="2.61407">
        <ele>207.67</ele>
        <time>2024-09-25T10:03:38.000Z</time>
      </trkpt>
      <trkpt lat="42.21146" lon="2.61368">
        <ele>207.24</ele>
        <time>2024-09-25T10:03:43.000Z</time>
      </trkpt>
      <trkpt lat="42.21155" lon="2.61331">
        <ele>207.19</ele>
        <time>2024-09-25T10:03:48.000Z</time>
      </trkpt>
      <trkpt lat="42.21173" lon="2.61309">
        <ele>207.08</ele>
        <time>2024-09-25T10:03:53.000Z</time>
      </trkpt>
      <trkpt lat="42.21191" lon="2.61308">
        <ele>207.03</ele>
        <time>2024-09-25T10:03:58.000Z</time>
      </trkpt>
      <trkpt lat="42.21205" lon="2.61327">
        <ele>206.91</ele>
        <time>2024-09-25T10:04:03.999Z</time>
      </trkpt>
      <trkpt lat="42.21221" lon="2.61327">
        <ele>206.81</ele>
        <time>2024-09-25T10:04:08.999Z</time>
      </trkpt>
      <trkpt lat="42.21232" lon="2.61311">
        <ele>206.69</ele>
        <time>2024-09-25T10:04:13.999Z</time>
      </trkpt>
      <trkpt lat="42.21233" lon="2.61293">
        <ele>206.55</ele>
        <time>2024-09-25T10:04:18.999Z</time>
      </trkpt>
      <trkpt lat="42.21231" lon="2.61276">
        <ele>206.4</ele>
        <time>2024-09-25T10:04:23.999Z</time>
      </trkpt>
      <trkpt lat="42.21231" lon="2.6126">
        <ele>206.26</ele>
        <time>2024-09-25T10:04:28.999Z</time>
      </trkpt>
      <trkpt lat="42.21239" lon="2.61248">
        <ele>205.29</ele>
        <time>2024-09-25T10:06:32.999Z</time>
      </trkpt>
      <trkpt lat="42.21249" lon="2.61242">
        <ele>205.11</ele>
        <time>2024-09-25T10:06:37.999Z</time>
      </trkpt>
      <trkpt lat="42.21262" lon="2.6124">
        <ele>204.96</ele>
        <time>2024-09-25T10:06:42.999Z</time>
      </trkpt>
      <trkpt lat="42.21276" lon="2.61237">
        <ele>204.87</ele>
        <time>2024-09-25T10:06:47.999Z</time>
      </trkpt>
      <trkpt lat="42.2129" lon="2.61232">
        <ele>204.85</ele>
        <time>2024-09-25T10:06:52.999Z</time>
      </trkpt>
      <trkpt lat="42.21302" lon="2.61221">
        <ele>204.88</ele>
        <time>2024-09-25T10:06:57.999Z</time>
      </trkpt>
      <trkpt lat="42.21313" lon="2.61203">
        <ele>204.97</ele>
        <time>2024-09-25T10:07:02.999Z</time>
      </trkpt>
      <trkpt lat="42.21318" lon="2.61181">
        <ele>205.08</ele>
        <time>2024-09-25T10:07:07.999Z</time>
      </trkpt>
      <trkpt lat="42.2132" lon="2.61155">
        <ele>205.86</ele>
        <time>2024-09-25T10:07:12.999Z</time>
      </trkpt>
      <trkpt lat="42.21324" lon="2.61126">
        <ele>206.46</ele>
        <time>2024-09-25T10:07:17.999Z</time>
      </trkpt>
      <trkpt lat="42.21327" lon="2.61096">
        <ele>206.84</ele>
        <time>2024-09-25T10:07:22.999Z</time>
      </trkpt>
      <trkpt lat="42.2133" lon="2.61065">
        <ele>207.09</ele>
        <time>2024-09-25T10:07:27.999Z</time>
      </trkpt>
      <trkpt lat="42.21333" lon="2.61033">
        <ele>207.22</ele>
        <time>2024-09-25T10:07:32.999Z</time>
      </trkpt>
      <trkpt lat="42.21336" lon="2.60998">
        <ele>207.29</ele>
        <time>2024-09-25T10:07:37.999Z</time>
      </trkpt>
      <trkpt lat="42.21343" lon="2.60964">
        <ele>207.61</ele>
        <time>2024-09-25T10:07:42.999Z</time>
      </trkpt>
      <trkpt lat="42.21349" lon="2.60926">
        <ele>208.08</ele>
        <time>2024-09-25T10:07:47.999Z</time>
      </trkpt>
      <trkpt lat="42.21352" lon="2.60895">
        <ele>208.48</ele>
        <time>2024-09-25T10:07:52.999Z</time>
      </trkpt>
      <trkpt lat="42.21354" lon="2.60869">
        <ele>208.61</ele>
        <time>2024-09-25T10:07:57.999Z</time>
      </trkpt>
      <trkpt lat="42.21354" lon="2.60851">
        <ele>208.67</ele>
        <time>2024-09-25T10:08:02.999Z</time>
      </trkpt>
      <trkpt lat="42.21356" lon="2.60837">
        <ele>208.82</ele>
        <time>2024-09-25T10:08:08.999Z</time>
      </trkpt>
      <trkpt lat="42.21359" lon="2.60824">
        <ele>209.01</ele>
        <time>2024-09-25T10:08:13.999Z</time>
      </trkpt>
      <trkpt lat="42.21362" lon="2.60812">
        <ele>209.28</ele>
        <time>2024-09-25T10:08:18.999Z</time>
      </trkpt>
      <trkpt lat="42.21366" lon="2.608">
        <ele>209.65</ele>
        <time>2024-09-25T10:08:24.999Z</time>
      </trkpt>
      <trkpt lat="42.21369" lon="2.60787">
        <ele>210.09</ele>
        <time>2024-09-25T10:08:30.999Z</time>
      </trkpt>
      <trkpt lat="42.21375" lon="2.60775">
        <ele>210.57</ele>
        <time>2024-09-25T10:08:36.999Z</time>
      </trkpt>
      <trkpt lat="42.21379" lon="2.60763">
        <ele>211.07</ele>
        <time>2024-09-25T10:08:42.999Z</time>
      </trkpt>
      <trkpt lat="42.21384" lon="2.60753">
        <ele>211.68</ele>
        <time>2024-09-25T10:08:49.999Z</time>
      </trkpt>
      <trkpt lat="42.21391" lon="2.60742">
        <ele>212.3</ele>
        <time>2024-09-25T10:08:56.999Z</time>
      </trkpt>
      <trkpt lat="42.21397" lon="2.60731">
        <ele>212.96</ele>
        <time>2024-09-25T10:09:03.999Z</time>
      </trkpt>
      <trkpt lat="42.21403" lon="2.60721">
        <ele>213.61</ele>
        <time>2024-09-25T10:09:10.999Z</time>
      </trkpt>
      <trkpt lat="42.21409" lon="2.60711">
        <ele>214.24</ele>
        <time>2024-09-25T10:09:17.999Z</time>
      </trkpt>
      <trkpt lat="42.21414" lon="2.60701">
        <ele>214.78</ele>
        <time>2024-09-25T10:09:23.999Z</time>
      </trkpt>
      <trkpt lat="42.21421" lon="2.60692">
        <ele>215.29</ele>
        <time>2024-09-25T10:09:29.999Z</time>
      </trkpt>
      <trkpt lat="42.21426" lon="2.60681">
        <ele>215.88</ele>
        <time>2024-09-25T10:09:36.999Z</time>
      </trkpt>
      <trkpt lat="42.2143" lon="2.6067">
        <ele>216.36</ele>
        <time>2024-09-25T10:09:42.999Z</time>
      </trkpt>
      <trkpt lat="42.21434" lon="2.60659">
        <ele>216.92</ele>
        <time>2024-09-25T10:09:49.999Z</time>
      </trkpt>
      <trkpt lat="42.21437" lon="2.60646">
        <ele>217.46</ele>
        <time>2024-09-25T10:09:56.999Z</time>
      </trkpt>
      <trkpt lat="42.2144" lon="2.60633">
        <ele>218</ele>
        <time>2024-09-25T10:10:03.999Z</time>
      </trkpt>
      <trkpt lat="42.21443" lon="2.6062">
        <ele>218.44</ele>
        <time>2024-09-25T10:10:09.999Z</time>
      </trkpt>
      <trkpt lat="42.21448" lon="2.60609">
        <ele>218.88</ele>
        <time>2024-09-25T10:10:15.999Z</time>
      </trkpt>
      <trkpt lat="42.21452" lon="2.60597">
        <ele>219.31</ele>
        <time>2024-09-25T10:10:21.999Z</time>
      </trkpt>
      <trkpt lat="42.21456" lon="2.60586">
        <ele>219.79</ele>
        <time>2024-09-25T10:10:28.999Z</time>
      </trkpt>
      <trkpt lat="42.21461" lon="2.60574">
        <ele>220.28</ele>
        <time>2024-09-25T10:10:35.999Z</time>
      </trkpt>
      <trkpt lat="42.21466" lon="2.60562">
        <ele>220.7</ele>
        <time>2024-09-25T10:10:41.999Z</time>
      </trkpt>
      <trkpt lat="42.21471" lon="2.60552">
        <ele>221.12</ele>
        <time>2024-09-25T10:10:47.999Z</time>
      </trkpt>
      <trkpt lat="42.21477" lon="2.60541">
        <ele>221.54</ele>
        <time>2024-09-25T10:10:53.999Z</time>
      </trkpt>
      <trkpt lat="42.21483" lon="2.6053">
        <ele>222.03</ele>
        <time>2024-09-25T10:11:00.999Z</time>
      </trkpt>
      <trkpt lat="42.21488" lon="2.60517">
        <ele>222.51</ele>
        <time>2024-09-25T10:11:07.999Z</time>
      </trkpt>
      <trkpt lat="42.21493" lon="2.60507">
        <ele>222.87</ele>
        <time>2024-09-25T10:11:12.999Z</time>
      </trkpt>
      <trkpt lat="42.21499" lon="2.60495">
        <ele>223.37</ele>
        <time>2024-09-25T10:11:19.999Z</time>
      </trkpt>
      <trkpt lat="42.21503" lon="2.60484">
        <ele>223.79</ele>
        <time>2024-09-25T10:11:25.999Z</time>
      </trkpt>
      <trkpt lat="42.21507" lon="2.60473">
        <ele>224.14</ele>
        <time>2024-09-25T10:11:30.999Z</time>
      </trkpt>
      <trkpt lat="42.21511" lon="2.60462">
        <ele>224.49</ele>
        <time>2024-09-25T10:11:35.999Z</time>
      </trkpt>
      <trkpt lat="42.21513" lon="2.60449">
        <ele>224.92</ele>
        <time>2024-09-25T10:11:41.999Z</time>
      </trkpt>
      <trkpt lat="42.21515" lon="2.60437">
        <ele>225.35</ele>
        <time>2024-09-25T10:11:47.999Z</time>
      </trkpt>
      <trkpt lat="42.21518" lon="2.60423">
        <ele>225.72</ele>
        <time>2024-09-25T10:11:52.999Z</time>
      </trkpt>
      <trkpt lat="42.21519" lon="2.6041">
        <ele>226.09</ele>
        <time>2024-09-25T10:11:57.999Z</time>
      </trkpt>
      <trkpt lat="42.2152" lon="2.60397">
        <ele>226.53</ele>
        <time>2024-09-25T10:12:03.999Z</time>
      </trkpt>
      <trkpt lat="42.21521" lon="2.60383">
        <ele>226.97</ele>
        <time>2024-09-25T10:12:09.999Z</time>
      </trkpt>
      <trkpt lat="42.21519" lon="2.6037">
        <ele>227.42</ele>
        <time>2024-09-25T10:12:15.999Z</time>
      </trkpt>
      <trkpt lat="42.21519" lon="2.60355">
        <ele>227.78</ele>
        <time>2024-09-25T10:12:20.999Z</time>
      </trkpt>
      <trkpt lat="42.21518" lon="2.60339">
        <ele>228.15</ele>
        <time>2024-09-25T10:12:25.999Z</time>
      </trkpt>
      <trkpt lat="42.21517" lon="2.60324">
        <ele>228.52</ele>
        <time>2024-09-25T10:12:30.999Z</time>
      </trkpt>
      <trkpt lat="42.21516" lon="2.60307">
        <ele>228.9</ele>
        <time>2024-09-25T10:12:35.999Z</time>
      </trkpt>
      <trkpt lat="42.21516" lon="2.60293">
        <ele>229.36</ele>
        <time>2024-09-25T10:12:41.999Z</time>
      </trkpt>
      <trkpt lat="42.21514" lon="2.60281">
        <ele>229.81</ele>
        <time>2024-09-25T10:12:47.999Z</time>
      </trkpt>
      <trkpt lat="42.21515" lon="2.60268">
        <ele>230.26</ele>
        <time>2024-09-25T10:12:53.999Z</time>
      </trkpt>
      <trkpt lat="42.21515" lon="2.60256">
        <ele>230.63</ele>
        <time>2024-09-25T10:12:58.999Z</time>
      </trkpt>
      <trkpt lat="42.21516" lon="2.60242">
        <ele>231.06</ele>
        <time>2024-09-25T10:13:04.999Z</time>
      </trkpt>
      <trkpt lat="42.21516" lon="2.6023">
        <ele>231.41</ele>
        <time>2024-09-25T10:13:09.999Z</time>
      </trkpt>
      <trkpt lat="42.21515" lon="2.60217">
        <ele>231.83</ele>
        <time>2024-09-25T10:13:15.999Z</time>
      </trkpt>
      <trkpt lat="42.21514" lon="2.60204">
        <ele>232.18</ele>
        <time>2024-09-25T10:13:20.999Z</time>
      </trkpt>
      <trkpt lat="42.21514" lon="2.60192">
        <ele>232.6</ele>
        <time>2024-09-25T10:13:26.999Z</time>
      </trkpt>
      <trkpt lat="42.21513" lon="2.60178">
        <ele>233.03</ele>
        <time>2024-09-25T10:13:32.999Z</time>
      </trkpt>
      <trkpt lat="42.21512" lon="2.60165">
        <ele>233.38</ele>
        <time>2024-09-25T10:13:37.999Z</time>
      </trkpt>
      <trkpt lat="42.21512" lon="2.60152">
        <ele>233.74</ele>
        <time>2024-09-25T10:13:42.999Z</time>
      </trkpt>
      <trkpt lat="42.21514" lon="2.60139">
        <ele>234.18</ele>
        <time>2024-09-25T10:13:48.999Z</time>
      </trkpt>
      <trkpt lat="42.21514" lon="2.60125">
        <ele>234.61</ele>
        <time>2024-09-25T10:13:54.999Z</time>
      </trkpt>
      <trkpt lat="42.21517" lon="2.60111">
        <ele>234.97</ele>
        <time>2024-09-25T10:13:59.999Z</time>
      </trkpt>
      <trkpt lat="42.2152" lon="2.60091">
        <ele>235.32</ele>
        <time>2024-09-25T10:14:04.999Z</time>
      </trkpt>
      <trkpt lat="42.21527" lon="2.60065">
        <ele>237.72</ele>
        <time>2024-09-25T10:14:09.999Z</time>
      </trkpt>
      <trkpt lat="42.21534" lon="2.60042">
        <ele>237.98</ele>
        <time>2024-09-25T10:14:14.999Z</time>
      </trkpt>
      <trkpt lat="42.2154" lon="2.60021">
        <ele>238.15</ele>
        <time>2024-09-25T10:14:19.999Z</time>
      </trkpt>
      <trkpt lat="42.21545" lon="2.59997">
        <ele>238.35</ele>
        <time>2024-09-25T10:14:24.999Z</time>
      </trkpt>
      <trkpt lat="42.21552" lon="2.59971">
        <ele>239.65</ele>
        <time>2024-09-25T10:14:29.999Z</time>
      </trkpt>
      <trkpt lat="42.21559" lon="2.5994">
        <ele>240.51</ele>
        <time>2024-09-25T10:14:34.999Z</time>
      </trkpt>
      <trkpt lat="42.21566" lon="2.59911">
        <ele>240.97</ele>
        <time>2024-09-25T10:14:39.999Z</time>
      </trkpt>
      <trkpt lat="42.21571" lon="2.5988">
        <ele>241.32</ele>
        <time>2024-09-25T10:14:44.999Z</time>
      </trkpt>
      <trkpt lat="42.21576" lon="2.59848">
        <ele>241.65</ele>
        <time>2024-09-25T10:14:49.999Z</time>
      </trkpt>
      <trkpt lat="42.21581" lon="2.59816">
        <ele>242.03</ele>
        <time>2024-09-25T10:14:54.999Z</time>
      </trkpt>
      <trkpt lat="42.21587" lon="2.59783">
        <ele>242.4</ele>
        <time>2024-09-25T10:14:59.999Z</time>
      </trkpt>
      <trkpt lat="42.21593" lon="2.59751">
        <ele>242.74</ele>
        <time>2024-09-25T10:15:04.999Z</time>
      </trkpt>
      <trkpt lat="42.21599" lon="2.59721">
        <ele>243.08</ele>
        <time>2024-09-25T10:15:09.999Z</time>
      </trkpt>
      <trkpt lat="42.21604" lon="2.59695">
        <ele>243.43</ele>
        <time>2024-09-25T10:15:14.999Z</time>
      </trkpt>
      <trkpt lat="42.2161" lon="2.59669">
        <ele>243.72</ele>
        <time>2024-09-25T10:15:19.999Z</time>
      </trkpt>
      <trkpt lat="42.21614" lon="2.59647">
        <ele>243.78</ele>
        <time>2024-09-25T10:15:24.999Z</time>
      </trkpt>
      <trkpt lat="42.21619" lon="2.59623">
        <ele>243.89</ele>
        <time>2024-09-25T10:15:29.999Z</time>
      </trkpt>
      <trkpt lat="42.21624" lon="2.596">
        <ele>244.02</ele>
        <time>2024-09-25T10:15:34.999Z</time>
      </trkpt>
      <trkpt lat="42.21629" lon="2.59577">
        <ele>244.17</ele>
        <time>2024-09-25T10:15:39.999Z</time>
      </trkpt>
      <trkpt lat="42.21634" lon="2.59556">
        <ele>244.35</ele>
        <time>2024-09-25T10:15:44.999Z</time>
      </trkpt>
      <trkpt lat="42.21639" lon="2.59534">
        <ele>244.56</ele>
        <time>2024-09-25T10:15:49.999Z</time>
      </trkpt>
      <trkpt lat="42.21645" lon="2.59511">
        <ele>245.43</ele>
        <time>2024-09-25T10:15:54.999Z</time>
      </trkpt>
      <trkpt lat="42.21649" lon="2.59483">
        <ele>246.69</ele>
        <time>2024-09-25T10:16:00.000Z</time>
      </trkpt>
      <trkpt lat="42.2165" lon="2.59445">
        <ele>247.33</ele>
        <time>2024-09-25T10:16:05.000Z</time>
      </trkpt>
      <trkpt lat="42.21658" lon="2.594">
        <ele>247.81</ele>
        <time>2024-09-25T10:16:10.000Z</time>
      </trkpt>
      <trkpt lat="42.21663" lon="2.59356">
        <ele>248.52</ele>
        <time>2024-09-25T10:16:15.000Z</time>
      </trkpt>
      <trkpt lat="42.21675" lon="2.59322">
        <ele>249.56</ele>
        <time>2024-09-25T10:16:20.000Z</time>
      </trkpt>
      <trkpt lat="42.21687" lon="2.59296">
        <ele>250.63</ele>
        <time>2024-09-25T10:16:25.000Z</time>
      </trkpt>
      <trkpt lat="42.21693" lon="2.59281">
        <ele>250.82</ele>
        <time>2024-09-25T10:16:30.000Z</time>
      </trkpt>
      <trkpt lat="42.21698" lon="2.59266">
        <ele>251.08</ele>
        <time>2024-09-25T10:16:35.000Z</time>
      </trkpt>
      <trkpt lat="42.21704" lon="2.5925">
        <ele>251.41</ele>
        <time>2024-09-25T10:16:40.000Z</time>
      </trkpt>
      <trkpt lat="42.21709" lon="2.59235">
        <ele>251.84</ele>
        <time>2024-09-25T10:16:45.000Z</time>
      </trkpt>
      <trkpt lat="42.21714" lon="2.59219">
        <ele>252.24</ele>
        <time>2024-09-25T10:16:50.000Z</time>
      </trkpt>
      <trkpt lat="42.21718" lon="2.59203">
        <ele>252.63</ele>
        <time>2024-09-25T10:16:55.000Z</time>
      </trkpt>
      <trkpt lat="42.21722" lon="2.59185">
        <ele>253.09</ele>
        <time>2024-09-25T10:17:00.000Z</time>
      </trkpt>
      <trkpt lat="42.21727" lon="2.59166">
        <ele>253.59</ele>
        <time>2024-09-25T10:17:05.000Z</time>
      </trkpt>
      <trkpt lat="42.21732" lon="2.59143">
        <ele>254.11</ele>
        <time>2024-09-25T10:17:10.000Z</time>
      </trkpt>
      <trkpt lat="42.21736" lon="2.5912">
        <ele>255.94</ele>
        <time>2024-09-25T10:17:15.000Z</time>
      </trkpt>
      <trkpt lat="42.21741" lon="2.59093">
        <ele>258.61</ele>
        <time>2024-09-25T10:17:20.000Z</time>
      </trkpt>
      <trkpt lat="42.21745" lon="2.59064">
        <ele>259.98</ele>
        <time>2024-09-25T10:17:25.000Z</time>
      </trkpt>
      <trkpt lat="42.21751" lon="2.59033">
        <ele>260.88</ele>
        <time>2024-09-25T10:17:30.000Z</time>
      </trkpt>
      <trkpt lat="42.21757" lon="2.59006">
        <ele>261.53</ele>
        <time>2024-09-25T10:17:35.000Z</time>
      </trkpt>
      <trkpt lat="42.21763" lon="2.58975">
        <ele>262.04</ele>
        <time>2024-09-25T10:17:40.000Z</time>
      </trkpt>
      <trkpt lat="42.21768" lon="2.58946">
        <ele>262.5</ele>
        <time>2024-09-25T10:17:45.000Z</time>
      </trkpt>
      <trkpt lat="42.21773" lon="2.58919">
        <ele>262.91</ele>
        <time>2024-09-25T10:17:50.000Z</time>
      </trkpt>
      <trkpt lat="42.21779" lon="2.58892">
        <ele>263.29</ele>
        <time>2024-09-25T10:17:55.000Z</time>
      </trkpt>
      <trkpt lat="42.21786" lon="2.58864">
        <ele>263.6</ele>
        <time>2024-09-25T10:18:00.000Z</time>
      </trkpt>
      <trkpt lat="42.21792" lon="2.58836">
        <ele>263.89</ele>
        <time>2024-09-25T10:18:05.000Z</time>
      </trkpt>
      <trkpt lat="42.21798" lon="2.58808">
        <ele>264.16</ele>
        <time>2024-09-25T10:18:10.000Z</time>
      </trkpt>
      <trkpt lat="42.21804" lon="2.58781">
        <ele>264.43</ele>
        <time>2024-09-25T10:18:15.000Z</time>
      </trkpt>
      <trkpt lat="42.2181" lon="2.58753">
        <ele>264.71</ele>
        <time>2024-09-25T10:18:20.000Z</time>
      </trkpt>
      <trkpt lat="42.21816" lon="2.58727">
        <ele>264.97</ele>
        <time>2024-09-25T10:18:25.000Z</time>
      </trkpt>
      <trkpt lat="42.21822" lon="2.58699">
        <ele>265.21</ele>
        <time>2024-09-25T10:18:30.000Z</time>
      </trkpt>
      <trkpt lat="42.21828" lon="2.58672">
        <ele>265.45</ele>
        <time>2024-09-25T10:18:35.000Z</time>
      </trkpt>
      <trkpt lat="42.21834" lon="2.58646">
        <ele>265.66</ele>
        <time>2024-09-25T10:18:40.000Z</time>
      </trkpt>
      <trkpt lat="42.21841" lon="2.58621">
        <ele>265.86</ele>
        <time>2024-09-25T10:18:45.000Z</time>
      </trkpt>
      <trkpt lat="42.21847" lon="2.58594">
        <ele>266.07</ele>
        <time>2024-09-25T10:18:50.000Z</time>
      </trkpt>
      <trkpt lat="42.21851" lon="2.58571">
        <ele>266.2</ele>
        <time>2024-09-25T10:18:55.000Z</time>
      </trkpt>
      <trkpt lat="42.21859" lon="2.58545">
        <ele>266.4</ele>
        <time>2024-09-25T10:19:00.000Z</time>
      </trkpt>
      <trkpt lat="42.21864" lon="2.58518">
        <ele>266.6</ele>
        <time>2024-09-25T10:19:05.000Z</time>
      </trkpt>
      <trkpt lat="42.2187" lon="2.58491">
        <ele>266.75</ele>
        <time>2024-09-25T10:19:10.000Z</time>
      </trkpt>
      <trkpt lat="42.21876" lon="2.58463">
        <ele>266.9</ele>
        <time>2024-09-25T10:19:15.000Z</time>
      </trkpt>
      <trkpt lat="42.21881" lon="2.58434">
        <ele>267.03</ele>
        <time>2024-09-25T10:19:20.000Z</time>
      </trkpt>
      <trkpt lat="42.21887" lon="2.58404">
        <ele>267.16</ele>
        <time>2024-09-25T10:19:25.000Z</time>
      </trkpt>
      <trkpt lat="42.21893" lon="2.58375">
        <ele>267.31</ele>
        <time>2024-09-25T10:19:30.000Z</time>
      </trkpt>
      <trkpt lat="42.21899" lon="2.58346">
        <ele>267.5</ele>
        <time>2024-09-25T10:19:35.000Z</time>
      </trkpt>
      <trkpt lat="42.21905" lon="2.58318">
        <ele>267.7</ele>
        <time>2024-09-25T10:19:40.000Z</time>
      </trkpt>
      <trkpt lat="42.2191" lon="2.58291">
        <ele>267.88</ele>
        <time>2024-09-25T10:19:45.000Z</time>
      </trkpt>
      <trkpt lat="42.21914" lon="2.58273">
        <ele>267.91</ele>
        <time>2024-09-25T10:19:50.000Z</time>
      </trkpt>
      <trkpt lat="42.21915" lon="2.5826">
        <ele>267.96</ele>
        <time>2024-09-25T10:19:55.000Z</time>
      </trkpt>
      <trkpt lat="42.21918" lon="2.58247">
        <ele>268.04</ele>
        <time>2024-09-25T10:20:01.000Z</time>
      </trkpt>
      <trkpt lat="42.2192" lon="2.58234">
        <ele>268.14</ele>
        <time>2024-09-25T10:20:07.000Z</time>
      </trkpt>
      <trkpt lat="42.21922" lon="2.58221">
        <ele>268.26</ele>
        <time>2024-09-25T10:20:13.000Z</time>
      </trkpt>
      <trkpt lat="42.21924" lon="2.58208">
        <ele>268.4</ele>
        <time>2024-09-25T10:20:19.000Z</time>
      </trkpt>
      <trkpt lat="42.21926" lon="2.58195">
        <ele>268.56</ele>
        <time>2024-09-25T10:20:25.000Z</time>
      </trkpt>
      <trkpt lat="42.21929" lon="2.58183">
        <ele>268.73</ele>
        <time>2024-09-25T10:20:31.000Z</time>
      </trkpt>
      <trkpt lat="42.21932" lon="2.5817">
        <ele>268.91</ele>
        <time>2024-09-25T10:20:37.000Z</time>
      </trkpt>
      <trkpt lat="42.21937" lon="2.58158">
        <ele>269.11</ele>
        <time>2024-09-25T10:20:43.000Z</time>
      </trkpt>
      <trkpt lat="42.21946" lon="2.58148">
        <ele>269.33</ele>
        <time>2024-09-25T10:20:49.000Z</time>
      </trkpt>
      <trkpt lat="42.21956" lon="2.58149">
        <ele>269.53</ele>
        <time>2024-09-25T10:20:54.000Z</time>
      </trkpt>
      <trkpt lat="42.21962" lon="2.58169">
        <ele>269.74</ele>
        <time>2024-09-25T10:20:59.000Z</time>
      </trkpt>
      <trkpt lat="42.21971" lon="2.58191">
        <ele>270.81</ele>
        <time>2024-09-25T10:21:04.000Z</time>
      </trkpt>
      <trkpt lat="42.21987" lon="2.58209">
        <ele>271.77</ele>
        <time>2024-09-25T10:21:09.000Z</time>
      </trkpt>
      <trkpt lat="42.22012" lon="2.58208">
        <ele>272.21</ele>
        <time>2024-09-25T10:21:14.000Z</time>
      </trkpt>
      <trkpt lat="42.22033" lon="2.58187">
        <ele>272.44</ele>
        <time>2024-09-25T10:21:19.000Z</time>
      </trkpt>
      <trkpt lat="42.22041" lon="2.58171">
        <ele>272.5</ele>
        <time>2024-09-25T10:21:24.000Z</time>
      </trkpt>
      <trkpt lat="42.22051" lon="2.58175">
        <ele>272.56</ele>
        <time>2024-09-25T10:21:34.000Z</time>
      </trkpt>
      <trkpt lat="42.22069" lon="2.5817">
        <ele>272.76</ele>
        <time>2024-09-25T10:21:39.000Z</time>
      </trkpt>
      <trkpt lat="42.22084" lon="2.58162">
        <ele>272.81</ele>
        <time>2024-09-25T10:21:44.000Z</time>
      </trkpt>
      <trkpt lat="42.22094" lon="2.58155">
        <ele>272.86</ele>
        <time>2024-09-25T10:21:49.000Z</time>
      </trkpt>
      <trkpt lat="42.22104" lon="2.58151">
        <ele>276.81</ele>
        <time>2024-09-25T10:28:39.999Z</time>
      </trkpt>
      <trkpt lat="42.22117" lon="2.58145">
        <ele>277.06</ele>
        <time>2024-09-25T10:28:44.999Z</time>
      </trkpt>
      <trkpt lat="42.22126" lon="2.5813">
        <ele>277.29</ele>
        <time>2024-09-25T10:28:49.999Z</time>
      </trkpt>
      <trkpt lat="42.22126" lon="2.5811">
        <ele>277.49</ele>
        <time>2024-09-25T10:28:54.999Z</time>
      </trkpt>
      <trkpt lat="42.22114" lon="2.58096">
        <ele>277.68</ele>
        <time>2024-09-25T10:28:59.999Z</time>
      </trkpt>
      <trkpt lat="42.221" lon="2.58082">
        <ele>278.53</ele>
        <time>2024-09-25T10:29:04.999Z</time>
      </trkpt>
      <trkpt lat="42.22099" lon="2.58044">
        <ele>279.18</ele>
        <time>2024-09-25T10:29:09.999Z</time>
      </trkpt>
      <trkpt lat="42.22108" lon="2.57999">
        <ele>279.44</ele>
        <time>2024-09-25T10:29:14.999Z</time>
      </trkpt>
      <trkpt lat="42.22118" lon="2.57959">
        <ele>279.56</ele>
        <time>2024-09-25T10:29:19.999Z</time>
      </trkpt>
      <trkpt lat="42.22129" lon="2.57924">
        <ele>279.94</ele>
        <time>2024-09-25T10:29:24.999Z</time>
      </trkpt>
      <trkpt lat="42.22139" lon="2.57895">
        <ele>280.33</ele>
        <time>2024-09-25T10:29:29.999Z</time>
      </trkpt>
      <trkpt lat="42.22147" lon="2.57871">
        <ele>280.52</ele>
        <time>2024-09-25T10:29:34.999Z</time>
      </trkpt>
      <trkpt lat="42.22156" lon="2.57848">
        <ele>280.52</ele>
        <time>2024-09-25T10:29:39.999Z</time>
      </trkpt>
      <trkpt lat="42.22165" lon="2.57822">
        <ele>280.67</ele>
        <time>2024-09-25T10:29:44.999Z</time>
      </trkpt>
      <trkpt lat="42.22174" lon="2.57797">
        <ele>280.7</ele>
        <time>2024-09-25T10:29:49.999Z</time>
      </trkpt>
      <trkpt lat="42.22184" lon="2.57769">
        <ele>280.74</ele>
        <time>2024-09-25T10:29:54.999Z</time>
      </trkpt>
      <trkpt lat="42.22193" lon="2.57735">
        <ele>280.76</ele>
        <time>2024-09-25T10:29:59.999Z</time>
      </trkpt>
      <trkpt lat="42.22201" lon="2.57701">
        <ele>280.65</ele>
        <time>2024-09-25T10:30:04.999Z</time>
      </trkpt>
      <trkpt lat="42.22209" lon="2.57662">
        <ele>280.49</ele>
        <time>2024-09-25T10:30:09.999Z</time>
      </trkpt>
      <trkpt lat="42.22215" lon="2.57621">
        <ele>280.41</ele>
        <time>2024-09-25T10:30:14.999Z</time>
      </trkpt>
      <trkpt lat="42.22218" lon="2.57579">
        <ele>280.4</ele>
        <time>2024-09-25T10:30:19.999Z</time>
      </trkpt>
      <trkpt lat="42.22218" lon="2.57538">
        <ele>280.58</ele>
        <time>2024-09-25T10:30:24.999Z</time>
      </trkpt>
      <trkpt lat="42.22217" lon="2.57498">
        <ele>280.76</ele>
        <time>2024-09-25T10:30:29.999Z</time>
      </trkpt>
      <trkpt lat="42.22216" lon="2.57461">
        <ele>281.08</ele>
        <time>2024-09-25T10:30:34.999Z</time>
      </trkpt>
      <trkpt lat="42.22214" lon="2.57423">
        <ele>281.24</ele>
        <time>2024-09-25T10:30:39.999Z</time>
      </trkpt>
      <trkpt lat="42.22211" lon="2.57391">
        <ele>281.07</ele>
        <time>2024-09-25T10:30:44.999Z</time>
      </trkpt>
      <trkpt lat="42.22207" lon="2.57362">
        <ele>281.03</ele>
        <time>2024-09-25T10:30:49.999Z</time>
      </trkpt>
      <trkpt lat="42.22203" lon="2.57335">
        <ele>281.07</ele>
        <time>2024-09-25T10:30:54.999Z</time>
      </trkpt>
      <trkpt lat="42.22199" lon="2.57313">
        <ele>281.11</ele>
        <time>2024-09-25T10:30:59.999Z</time>
      </trkpt>
      <trkpt lat="42.22193" lon="2.57287">
        <ele>281.3</ele>
        <time>2024-09-25T10:31:04.999Z</time>
      </trkpt>
      <trkpt lat="42.22189" lon="2.57262">
        <ele>281.4</ele>
        <time>2024-09-25T10:31:09.999Z</time>
      </trkpt>
      <trkpt lat="42.22183" lon="2.57239">
        <ele>281.38</ele>
        <time>2024-09-25T10:31:14.999Z</time>
      </trkpt>
      <trkpt lat="42.22176" lon="2.57219">
        <ele>281.36</ele>
        <time>2024-09-25T10:31:19.999Z</time>
      </trkpt>
      <trkpt lat="42.2217" lon="2.57199">
        <ele>281.35</ele>
        <time>2024-09-25T10:31:24.999Z</time>
      </trkpt>
      <trkpt lat="42.22164" lon="2.57179">
        <ele>281.34</ele>
        <time>2024-09-25T10:31:29.999Z</time>
      </trkpt>
      <trkpt lat="42.22157" lon="2.57159">
        <ele>281.34</ele>
        <time>2024-09-25T10:31:34.999Z</time>
      </trkpt>
      <trkpt lat="42.22151" lon="2.57139">
        <ele>281.34</ele>
        <time>2024-09-25T10:31:39.999Z</time>
      </trkpt>
      <trkpt lat="42.22142" lon="2.57118">
        <ele>281.35</ele>
        <time>2024-09-25T10:31:44.999Z</time>
      </trkpt>
      <trkpt lat="42.22135" lon="2.57098">
        <ele>281.37</ele>
        <time>2024-09-25T10:31:49.999Z</time>
      </trkpt>
      <trkpt lat="42.22127" lon="2.57081">
        <ele>281.4</ele>
        <time>2024-09-25T10:31:54.999Z</time>
      </trkpt>
      <trkpt lat="42.22119" lon="2.57061">
        <ele>281.44</ele>
        <time>2024-09-25T10:31:59.999Z</time>
      </trkpt>
      <trkpt lat="42.2211" lon="2.57043">
        <ele>281.48</ele>
        <time>2024-09-25T10:32:04.999Z</time>
      </trkpt>
      <trkpt lat="42.22101" lon="2.57022">
        <ele>281.53</ele>
        <time>2024-09-25T10:32:09.999Z</time>
      </trkpt>
      <trkpt lat="42.22091" lon="2.57001">
        <ele>281.81</ele>
        <time>2024-09-25T10:32:14.999Z</time>
      </trkpt>
      <trkpt lat="42.22081" lon="2.56978">
        <ele>282.05</ele>
        <time>2024-09-25T10:32:19.999Z</time>
      </trkpt>
      <trkpt lat="42.22068" lon="2.56952">
        <ele>282.14</ele>
        <time>2024-09-25T10:32:24.999Z</time>
      </trkpt>
      <trkpt lat="42.22053" lon="2.5692">
        <ele>282.11</ele>
        <time>2024-09-25T10:32:29.999Z</time>
      </trkpt>
      <trkpt lat="42.22042" lon="2.56883">
        <ele>282.34</ele>
        <time>2024-09-25T10:32:34.999Z</time>
      </trkpt>
      <trkpt lat="42.22037" lon="2.56845">
        <ele>282.61</ele>
        <time>2024-09-25T10:32:39.999Z</time>
      </trkpt>
      <trkpt lat="42.22037" lon="2.56816">
        <ele>282.76</ele>
        <time>2024-09-25T10:32:44.999Z</time>
      </trkpt>
      <trkpt lat="42.22041" lon="2.56786">
        <ele>282.88</ele>
        <time>2024-09-25T10:32:49.999Z</time>
      </trkpt>
      <trkpt lat="42.22044" lon="2.56757">
        <ele>283.06</ele>
        <time>2024-09-25T10:32:54.999Z</time>
      </trkpt>
      <trkpt lat="42.22053" lon="2.56728">
        <ele>283.24</ele>
        <time>2024-09-25T10:32:59.999Z</time>
      </trkpt>
      <trkpt lat="42.22066" lon="2.56702">
        <ele>283.5</ele>
        <time>2024-09-25T10:33:04.999Z</time>
      </trkpt>
      <trkpt lat="42.22079" lon="2.56677">
        <ele>283.86</ele>
        <time>2024-09-25T10:33:09.999Z</time>
      </trkpt>
      <trkpt lat="42.22091" lon="2.56651">
        <ele>284.13</ele>
        <time>2024-09-25T10:33:14.999Z</time>
      </trkpt>
      <trkpt lat="42.22102" lon="2.56626">
        <ele>284.37</ele>
        <time>2024-09-25T10:33:19.999Z</time>
      </trkpt>
      <trkpt lat="42.22108" lon="2.56599">
        <ele>284.51</ele>
        <time>2024-09-25T10:33:24.999Z</time>
      </trkpt>
      <trkpt lat="42.22109" lon="2.5657">
        <ele>284.66</ele>
        <time>2024-09-25T10:33:29.999Z</time>
      </trkpt>
      <trkpt lat="42.22108" lon="2.56545">
        <ele>284.68</ele>
        <time>2024-09-25T10:33:34.999Z</time>
      </trkpt>
      <trkpt lat="42.22108" lon="2.56517">
        <ele>284.65</ele>
        <time>2024-09-25T10:33:39.999Z</time>
      </trkpt>
      <trkpt lat="42.22106" lon="2.5649">
        <ele>284.66</ele>
        <time>2024-09-25T10:33:44.999Z</time>
      </trkpt>
      <trkpt lat="42.22104" lon="2.56459">
        <ele>284.68</ele>
        <time>2024-09-25T10:33:49.999Z</time>
      </trkpt>
      <trkpt lat="42.22102" lon="2.56428">
        <ele>284.69</ele>
        <time>2024-09-25T10:33:54.999Z</time>
      </trkpt>
      <trkpt lat="42.22099" lon="2.56399">
        <ele>284.66</ele>
        <time>2024-09-25T10:33:59.999Z</time>
      </trkpt>
      <trkpt lat="42.22096" lon="2.5637">
        <ele>284.58</ele>
        <time>2024-09-25T10:34:04.999Z</time>
      </trkpt>
      <trkpt lat="42.22093" lon="2.56342">
        <ele>284.53</ele>
        <time>2024-09-25T10:34:09.999Z</time>
      </trkpt>
      <trkpt lat="42.2209" lon="2.56311">
        <ele>284.48</ele>
        <time>2024-09-25T10:34:14.999Z</time>
      </trkpt>
      <trkpt lat="42.22085" lon="2.56282">
        <ele>284.49</ele>
        <time>2024-09-25T10:34:19.999Z</time>
      </trkpt>
      <trkpt lat="42.2208" lon="2.56252">
        <ele>284.51</ele>
        <time>2024-09-25T10:34:24.999Z</time>
      </trkpt>
      <trkpt lat="42.22075" lon="2.56217">
        <ele>284.54</ele>
        <time>2024-09-25T10:34:29.999Z</time>
      </trkpt>
      <trkpt lat="42.22071" lon="2.56179">
        <ele>284.58</ele>
        <time>2024-09-25T10:34:34.999Z</time>
      </trkpt>
      <trkpt lat="42.22068" lon="2.5614">
        <ele>284.56</ele>
        <time>2024-09-25T10:34:39.999Z</time>
      </trkpt>
      <trkpt lat="42.22063" lon="2.56101">
        <ele>284.57</ele>
        <time>2024-09-25T10:34:44.999Z</time>
      </trkpt>
      <trkpt lat="42.2206" lon="2.5606">
        <ele>284.55</ele>
        <time>2024-09-25T10:34:49.999Z</time>
      </trkpt>
      <trkpt lat="42.22059" lon="2.56017">
        <ele>284.69</ele>
        <time>2024-09-25T10:34:54.999Z</time>
      </trkpt>
      <trkpt lat="42.2206" lon="2.55972">
        <ele>284.86</ele>
        <time>2024-09-25T10:34:59.999Z</time>
      </trkpt>
      <trkpt lat="42.22061" lon="2.55929">
        <ele>284.97</ele>
        <time>2024-09-25T10:35:04.999Z</time>
      </trkpt>
      <trkpt lat="42.22061" lon="2.55886">
        <ele>284.96</ele>
        <time>2024-09-25T10:35:09.999Z</time>
      </trkpt>
      <trkpt lat="42.22062" lon="2.55837">
        <ele>284.61</ele>
        <time>2024-09-25T10:35:14.999Z</time>
      </trkpt>
      <trkpt lat="42.22064" lon="2.55791">
        <ele>284.55</ele>
        <time>2024-09-25T10:35:19.999Z</time>
      </trkpt>
      <trkpt lat="42.22066" lon="2.55742">
        <ele>283.81</ele>
        <time>2024-09-25T10:35:24.999Z</time>
      </trkpt>
      <trkpt lat="42.22068" lon="2.55693">
        <ele>283.36</ele>
        <time>2024-09-25T10:35:29.999Z</time>
      </trkpt>
      <trkpt lat="42.22069" lon="2.55642">
        <ele>282.74</ele>
        <time>2024-09-25T10:35:34.999Z</time>
      </trkpt>
      <trkpt lat="42.22069" lon="2.55592">
        <ele>282.35</ele>
        <time>2024-09-25T10:35:39.999Z</time>
      </trkpt>
      <trkpt lat="42.2207" lon="2.55542">
        <ele>281.98</ele>
        <time>2024-09-25T10:35:44.999Z</time>
      </trkpt>
      <trkpt lat="42.22071" lon="2.55492">
        <ele>281.74</ele>
        <time>2024-09-25T10:35:49.999Z</time>
      </trkpt>
      <trkpt lat="42.22072" lon="2.55443">
        <ele>281.47</ele>
        <time>2024-09-25T10:35:54.999Z</time>
      </trkpt>
      <trkpt lat="42.22073" lon="2.55406">
        <ele>281.92</ele>
        <time>2024-09-25T10:35:59.999Z</time>
      </trkpt>
      <trkpt lat="42.22077" lon="2.55374">
        <ele>281.53</ele>
        <time>2024-09-25T10:36:04.999Z</time>
      </trkpt>
      <trkpt lat="42.22084" lon="2.55344">
        <ele>281.81</ele>
        <time>2024-09-25T10:36:09.999Z</time>
      </trkpt>
      <trkpt lat="42.22094" lon="2.55316">
        <ele>282.29</ele>
        <time>2024-09-25T10:36:14.999Z</time>
      </trkpt>
      <trkpt lat="42.22108" lon="2.55297">
        <ele>282.51</ele>
        <time>2024-09-25T10:36:19.999Z</time>
      </trkpt>
      <trkpt lat="42.22121" lon="2.55283">
        <ele>282.58</ele>
        <time>2024-09-25T10:36:24.999Z</time>
      </trkpt>
      <trkpt lat="42.22135" lon="2.55268">
        <ele>282.62</ele>
        <time>2024-09-25T10:36:29.999Z</time>
      </trkpt>
      <trkpt lat="42.22146" lon="2.5525">
        <ele>282.65</ele>
        <time>2024-09-25T10:36:34.999Z</time>
      </trkpt>
      <trkpt lat="42.2215" lon="2.55228">
        <ele>282.7</ele>
        <time>2024-09-25T10:36:39.999Z</time>
      </trkpt>
      <trkpt lat="42.22151" lon="2.55208">
        <ele>282.76</ele>
        <time>2024-09-25T10:36:44.999Z</time>
      </trkpt>
      <trkpt lat="42.2215" lon="2.55186">
        <ele>282.78</ele>
        <time>2024-09-25T10:36:49.999Z</time>
      </trkpt>
      <trkpt lat="42.2215" lon="2.55166">
        <ele>282.78</ele>
        <time>2024-09-25T10:36:54.999Z</time>
      </trkpt>
      <trkpt lat="42.22149" lon="2.55145">
        <ele>282.83</ele>
        <time>2024-09-25T10:36:59.999Z</time>
      </trkpt>
      <trkpt lat="42.22147" lon="2.55122">
        <ele>282.96</ele>
        <time>2024-09-25T10:37:04.999Z</time>
      </trkpt>
      <trkpt lat="42.22146" lon="2.55097">
        <ele>283.43</ele>
        <time>2024-09-25T10:37:09.999Z</time>
      </trkpt>
      <trkpt lat="42.22145" lon="2.55072">
        <ele>283.61</ele>
        <time>2024-09-25T10:37:14.999Z</time>
      </trkpt>
      <trkpt lat="42.22143" lon="2.55048">
        <ele>283.81</ele>
        <time>2024-09-25T10:37:19.999Z</time>
      </trkpt>
      <trkpt lat="42.22142" lon="2.55025">
        <ele>283.99</ele>
        <time>2024-09-25T10:37:24.999Z</time>
      </trkpt>
      <trkpt lat="42.22141" lon="2.55004">
        <ele>284.18</ele>
        <time>2024-09-25T10:37:29.999Z</time>
      </trkpt>
      <trkpt lat="42.22139" lon="2.54986">
        <ele>284.41</ele>
        <time>2024-09-25T10:37:34.999Z</time>
      </trkpt>
      <trkpt lat="42.22138" lon="2.54973">
        <ele>284.69</ele>
        <time>2024-09-25T10:37:39.999Z</time>
      </trkpt>
      <trkpt lat="42.22137" lon="2.54959">
        <ele>285.02</ele>
        <time>2024-09-25T10:37:44.999Z</time>
      </trkpt>
      <trkpt lat="42.22138" lon="2.54947">
        <ele>285.4</ele>
        <time>2024-09-25T10:37:49.999Z</time>
      </trkpt>
      <trkpt lat="42.22139" lon="2.54935">
        <ele>285.74</ele>
        <time>2024-09-25T10:37:54.999Z</time>
      </trkpt>
      <trkpt lat="42.22143" lon="2.54922">
        <ele>286.11</ele>
        <time>2024-09-25T10:38:00.999Z</time>
      </trkpt>
      <trkpt lat="42.2215" lon="2.54911">
        <ele>286.38</ele>
        <time>2024-09-25T10:38:05.999Z</time>
      </trkpt>
      <trkpt lat="42.22154" lon="2.549">
        <ele>286.62</ele>
        <time>2024-09-25T10:38:10.999Z</time>
      </trkpt>
      <trkpt lat="42.22158" lon="2.54888">
        <ele>286.9</ele>
        <time>2024-09-25T10:38:16.999Z</time>
      </trkpt>
      <trkpt lat="42.22162" lon="2.54876">
        <ele>287.16</ele>
        <time>2024-09-25T10:38:21.999Z</time>
      </trkpt>
      <trkpt lat="42.22163" lon="2.54862">
        <ele>287.51</ele>
        <time>2024-09-25T10:38:27.999Z</time>
      </trkpt>
      <trkpt lat="42.22164" lon="2.54848">
        <ele>287.96</ele>
        <time>2024-09-25T10:38:33.999Z</time>
      </trkpt>
      <trkpt lat="42.22167" lon="2.54833">
        <ele>288.41</ele>
        <time>2024-09-25T10:38:38.999Z</time>
      </trkpt>
      <trkpt lat="42.22166" lon="2.54818">
        <ele>288.97</ele>
        <time>2024-09-25T10:38:44.999Z</time>
      </trkpt>
      <trkpt lat="42.22165" lon="2.54805">
        <ele>289.56</ele>
        <time>2024-09-25T10:38:50.999Z</time>
      </trkpt>
      <trkpt lat="42.22164" lon="2.54791">
        <ele>290.19</ele>
        <time>2024-09-25T10:38:56.999Z</time>
      </trkpt>
      <trkpt lat="42.22164" lon="2.54777">
        <ele>290.87</ele>
        <time>2024-09-25T10:39:02.999Z</time>
      </trkpt>
      <trkpt lat="42.2216" lon="2.54766">
        <ele>291.58</ele>
        <time>2024-09-25T10:39:08.999Z</time>
      </trkpt>
      <trkpt lat="42.22151" lon="2.54757">
        <ele>292.45</ele>
        <time>2024-09-25T10:39:15.999Z</time>
      </trkpt>
      <trkpt lat="42.22141" lon="2.54756">
        <ele>293.21</ele>
        <time>2024-09-25T10:39:21.999Z</time>
      </trkpt>
      <trkpt lat="42.22132" lon="2.54764">
        <ele>293.96</ele>
        <time>2024-09-25T10:39:27.999Z</time>
      </trkpt>
      <trkpt lat="42.22128" lon="2.54776">
        <ele>294.78</ele>
        <time>2024-09-25T10:39:34.999Z</time>
      </trkpt>
      <trkpt lat="42.22126" lon="2.54789">
        <ele>295.36</ele>
        <time>2024-09-25T10:39:39.999Z</time>
      </trkpt>
      <trkpt lat="42.22124" lon="2.54802">
        <ele>296.01</ele>
        <time>2024-09-25T10:39:45.999Z</time>
      </trkpt>
      <trkpt lat="42.22123" lon="2.54816">
        <ele>296.62</ele>
        <time>2024-09-25T10:39:52.000Z</time>
      </trkpt>
      <trkpt lat="42.2212" lon="2.54827">
        <ele>297.11</ele>
        <time>2024-09-25T10:39:57.000Z</time>
      </trkpt>
      <trkpt lat="42.22118" lon="2.5484">
        <ele>297.69</ele>
        <time>2024-09-25T10:40:03.000Z</time>
      </trkpt>
      <trkpt lat="42.22115" lon="2.54854">
        <ele>298.25</ele>
        <time>2024-09-25T10:40:09.000Z</time>
      </trkpt>
      <trkpt lat="42.2211" lon="2.54865">
        <ele>298.67</ele>
        <time>2024-09-25T10:40:14.000Z</time>
      </trkpt>
      <trkpt lat="42.22107" lon="2.54878">
        <ele>299.13</ele>
        <time>2024-09-25T10:40:20.000Z</time>
      </trkpt>
      <trkpt lat="42.22104" lon="2.5489">
        <ele>299.49</ele>
        <time>2024-09-25T10:40:25.000Z</time>
      </trkpt>
      <trkpt lat="42.22102" lon="2.54903">
        <ele>299.87</ele>
        <time>2024-09-25T10:40:31.000Z</time>
      </trkpt>
      <trkpt lat="42.221" lon="2.54915">
        <ele>300.16</ele>
        <time>2024-09-25T10:40:36.000Z</time>
      </trkpt>
      <trkpt lat="42.22096" lon="2.54928">
        <ele>300.49</ele>
        <time>2024-09-25T10:40:42.000Z</time>
      </trkpt>
      <trkpt lat="42.22094" lon="2.54941">
        <ele>300.81</ele>
        <time>2024-09-25T10:40:48.000Z</time>
      </trkpt>
      <trkpt lat="42.22092" lon="2.54953">
        <ele>301.06</ele>
        <time>2024-09-25T10:40:53.000Z</time>
      </trkpt>
      <trkpt lat="42.2209" lon="2.54966">
        <ele>301.34</ele>
        <time>2024-09-25T10:40:59.000Z</time>
      </trkpt>
      <trkpt lat="42.22086" lon="2.54978">
        <ele>301.61</ele>
        <time>2024-09-25T10:41:05.000Z</time>
      </trkpt>
      <trkpt lat="42.22084" lon="2.5499">
        <ele>301.83</ele>
        <time>2024-09-25T10:41:10.000Z</time>
      </trkpt>
      <trkpt lat="42.22079" lon="2.55001">
        <ele>302.05</ele>
        <time>2024-09-25T10:41:15.000Z</time>
      </trkpt>
      <trkpt lat="42.22074" lon="2.55014">
        <ele>302.26</ele>
        <time>2024-09-25T10:41:20.000Z</time>
      </trkpt>
      <trkpt lat="42.22067" lon="2.55023">
        <ele>302.51</ele>
        <time>2024-09-25T10:41:26.000Z</time>
      </trkpt>
      <trkpt lat="42.22058" lon="2.55026">
        <ele>302.73</ele>
        <time>2024-09-25T10:41:32.000Z</time>
      </trkpt>
      <trkpt lat="42.22046" lon="2.55027">
        <ele>302.91</ele>
        <time>2024-09-25T10:41:37.000Z</time>
      </trkpt>
      <trkpt lat="42.22035" lon="2.55026">
        <ele>303.08</ele>
        <time>2024-09-25T10:41:42.000Z</time>
      </trkpt>
      <trkpt lat="42.22026" lon="2.55023">
        <ele>303.24</ele>
        <time>2024-09-25T10:41:47.000Z</time>
      </trkpt>
      <trkpt lat="42.22016" lon="2.55019">
        <ele>303.4</ele>
        <time>2024-09-25T10:41:52.000Z</time>
      </trkpt>
      <trkpt lat="42.22006" lon="2.55018">
        <ele>303.56</ele>
        <time>2024-09-25T10:41:57.000Z</time>
      </trkpt>
      <trkpt lat="42.21996" lon="2.55012">
        <ele>303.75</ele>
        <time>2024-09-25T10:42:03.000Z</time>
      </trkpt>
      <trkpt lat="42.21987" lon="2.55008">
        <ele>303.9</ele>
        <time>2024-09-25T10:42:08.000Z</time>
      </trkpt>
      <trkpt lat="42.21978" lon="2.55004">
        <ele>304.05</ele>
        <time>2024-09-25T10:42:13.000Z</time>
      </trkpt>
      <trkpt lat="42.21968" lon="2.55001">
        <ele>304.19</ele>
        <time>2024-09-25T10:42:18.000Z</time>
      </trkpt>
      <trkpt lat="42.21958" lon="2.54995">
        <ele>304.34</ele>
        <time>2024-09-25T10:42:23.000Z</time>
      </trkpt>
      <trkpt lat="42.21948" lon="2.54991">
        <ele>304.47</ele>
        <time>2024-09-25T10:42:28.000Z</time>
      </trkpt>
      <trkpt lat="42.21938" lon="2.54984">
        <ele>304.61</ele>
        <time>2024-09-25T10:42:33.000Z</time>
      </trkpt>
      <trkpt lat="42.21937" lon="2.54972">
        <ele>304.78</ele>
        <time>2024-09-25T10:42:39.000Z</time>
      </trkpt>
      <trkpt lat="42.21935" lon="2.54958">
        <ele>304.93</ele>
        <time>2024-09-25T10:42:44.000Z</time>
      </trkpt>
      <trkpt lat="42.21933" lon="2.54945">
        <ele>305.12</ele>
        <time>2024-09-25T10:42:49.000Z</time>
      </trkpt>
      <trkpt lat="42.21932" lon="2.54931">
        <ele>305.34</ele>
        <time>2024-09-25T10:42:54.000Z</time>
      </trkpt>
      <trkpt lat="42.21932" lon="2.54913">
        <ele>305.57</ele>
        <time>2024-09-25T10:42:59.000Z</time>
      </trkpt>
      <trkpt lat="42.21933" lon="2.54899">
        <ele>305.81</ele>
        <time>2024-09-25T10:43:04.000Z</time>
      </trkpt>
      <trkpt lat="42.21932" lon="2.54887">
        <ele>306.1</ele>
        <time>2024-09-25T10:43:10.000Z</time>
      </trkpt>
      <trkpt lat="42.2194" lon="2.54893">
        <ele>308.65</ele>
        <time>2024-09-25T10:44:15.000Z</time>
      </trkpt>
      <trkpt lat="42.2193" lon="2.54894">
        <ele>310.64</ele>
        <time>2024-09-25T10:44:41.000Z</time>
      </trkpt>
      <trkpt lat="42.21929" lon="2.5488">
        <ele>311.13</ele>
        <time>2024-09-25T10:44:47.000Z</time>
      </trkpt>
      <trkpt lat="42.21929" lon="2.54867">
        <ele>311.53</ele>
        <time>2024-09-25T10:44:52.000Z</time>
      </trkpt>
      <trkpt lat="42.21929" lon="2.54848">
        <ele>311.93</ele>
        <time>2024-09-25T10:44:57.000Z</time>
      </trkpt>
      <trkpt lat="42.21929" lon="2.5483">
        <ele>312.31</ele>
        <time>2024-09-25T10:45:02.000Z</time>
      </trkpt>
      <trkpt lat="42.21928" lon="2.54816">
        <ele>312.76</ele>
        <time>2024-09-25T10:45:08.000Z</time>
      </trkpt>
      <trkpt lat="42.21927" lon="2.54797">
        <ele>313.13</ele>
        <time>2024-09-25T10:45:13.000Z</time>
      </trkpt>
      <trkpt lat="42.21926" lon="2.5478">
        <ele>313.49</ele>
        <time>2024-09-25T10:45:18.000Z</time>
      </trkpt>
      <trkpt lat="42.21926" lon="2.54763">
        <ele>313.86</ele>
        <time>2024-09-25T10:45:23.000Z</time>
      </trkpt>
      <trkpt lat="42.21926" lon="2.54748">
        <ele>314.21</ele>
        <time>2024-09-25T10:45:28.000Z</time>
      </trkpt>
      <trkpt lat="42.21925" lon="2.54729">
        <ele>314.57</ele>
        <time>2024-09-25T10:45:33.000Z</time>
      </trkpt>
      <trkpt lat="42.21924" lon="2.5471">
        <ele>314.93</ele>
        <time>2024-09-25T10:45:38.000Z</time>
      </trkpt>
      <trkpt lat="42.21925" lon="2.54693">
        <ele>315.28</ele>
        <time>2024-09-25T10:45:43.000Z</time>
      </trkpt>
      <trkpt lat="42.21926" lon="2.54679">
        <ele>315.63</ele>
        <time>2024-09-25T10:45:48.000Z</time>
      </trkpt>
      <trkpt lat="42.21925" lon="2.54662">
        <ele>315.99</ele>
        <time>2024-09-25T10:45:53.000Z</time>
      </trkpt>
      <trkpt lat="42.21923" lon="2.54646">
        <ele>316.38</ele>
        <time>2024-09-25T10:45:58.000Z</time>
      </trkpt>
      <trkpt lat="42.2192" lon="2.54632">
        <ele>316.86</ele>
        <time>2024-09-25T10:46:04.000Z</time>
      </trkpt>
      <trkpt lat="42.21919" lon="2.54616">
        <ele>317.28</ele>
        <time>2024-09-25T10:46:09.000Z</time>
      </trkpt>
      <trkpt lat="42.2192" lon="2.54598">
        <ele>317.73</ele>
        <time>2024-09-25T10:46:14.000Z</time>
      </trkpt>
      <trkpt lat="42.21919" lon="2.54581">
        <ele>318.19</ele>
        <time>2024-09-25T10:46:19.000Z</time>
      </trkpt>
      <trkpt lat="42.21918" lon="2.54564">
        <ele>318.69</ele>
        <time>2024-09-25T10:46:24.000Z</time>
      </trkpt>
      <trkpt lat="42.21918" lon="2.54547">
        <ele>319.21</ele>
        <time>2024-09-25T10:46:29.000Z</time>
      </trkpt>
      <trkpt lat="42.21917" lon="2.5453">
        <ele>319.75</ele>
        <time>2024-09-25T10:46:34.000Z</time>
      </trkpt>
      <trkpt lat="42.21917" lon="2.54514">
        <ele>320.31</ele>
        <time>2024-09-25T10:46:39.000Z</time>
      </trkpt>
      <trkpt lat="42.21917" lon="2.54498">
        <ele>320.9</ele>
        <time>2024-09-25T10:46:44.000Z</time>
      </trkpt>
      <trkpt lat="42.21917" lon="2.54483">
        <ele>321.5</ele>
        <time>2024-09-25T10:46:49.000Z</time>
      </trkpt>
      <trkpt lat="42.21916" lon="2.54467">
        <ele>322.09</ele>
        <time>2024-09-25T10:46:54.000Z</time>
      </trkpt>
      <trkpt lat="42.21916" lon="2.54449">
        <ele>322.69</ele>
        <time>2024-09-25T10:46:59.000Z</time>
      </trkpt>
      <trkpt lat="42.21915" lon="2.54434">
        <ele>323.3</ele>
        <time>2024-09-25T10:47:04.000Z</time>
      </trkpt>
      <trkpt lat="42.21914" lon="2.54419">
        <ele>323.94</ele>
        <time>2024-09-25T10:47:09.000Z</time>
      </trkpt>
      <trkpt lat="42.21913" lon="2.54402">
        <ele>324.59</ele>
        <time>2024-09-25T10:47:14.000Z</time>
      </trkpt>
      <trkpt lat="42.21912" lon="2.54385">
        <ele>325.25</ele>
        <time>2024-09-25T10:47:19.000Z</time>
      </trkpt>
      <trkpt lat="42.21912" lon="2.54369">
        <ele>325.89</ele>
        <time>2024-09-25T10:47:24.000Z</time>
      </trkpt>
      <trkpt lat="42.21911" lon="2.54351">
        <ele>326.53</ele>
        <time>2024-09-25T10:47:29.000Z</time>
      </trkpt>
      <trkpt lat="42.21908" lon="2.54335">
        <ele>327.16</ele>
        <time>2024-09-25T10:47:34.000Z</time>
      </trkpt>
      <trkpt lat="42.21901" lon="2.5432">
        <ele>327.77</ele>
        <time>2024-09-25T10:47:39.000Z</time>
      </trkpt>
      <trkpt lat="42.21894" lon="2.54308">
        <ele>328.36</ele>
        <time>2024-09-25T10:47:44.000Z</time>
      </trkpt>
      <trkpt lat="42.21888" lon="2.54299">
        <ele>328.92</ele>
        <time>2024-09-25T10:47:49.000Z</time>
      </trkpt>
      <trkpt lat="42.21881" lon="2.54286">
        <ele>329.45</ele>
        <time>2024-09-25T10:47:54.000Z</time>
      </trkpt>
      <trkpt lat="42.21874" lon="2.54277">
        <ele>329.94</ele>
        <time>2024-09-25T10:47:59.000Z</time>
      </trkpt>
      <trkpt lat="42.21867" lon="2.54264">
        <ele>330.41</ele>
        <time>2024-09-25T10:48:04.000Z</time>
      </trkpt>
      <trkpt lat="42.21861" lon="2.54253">
        <ele>330.87</ele>
        <time>2024-09-25T10:48:09.000Z</time>
      </trkpt>
      <trkpt lat="42.21855" lon="2.54241">
        <ele>331.33</ele>
        <time>2024-09-25T10:48:14.000Z</time>
      </trkpt>
      <trkpt lat="42.21848" lon="2.5423">
        <ele>331.79</ele>
        <time>2024-09-25T10:48:19.000Z</time>
      </trkpt>
      <trkpt lat="42.21841" lon="2.54217">
        <ele>332.25</ele>
        <time>2024-09-25T10:48:24.000Z</time>
      </trkpt>
      <trkpt lat="42.21833" lon="2.54205">
        <ele>332.71</ele>
        <time>2024-09-25T10:48:29.000Z</time>
      </trkpt>
      <trkpt lat="42.21826" lon="2.54194">
        <ele>333.19</ele>
        <time>2024-09-25T10:48:34.000Z</time>
      </trkpt>
      <trkpt lat="42.2182" lon="2.54182">
        <ele>333.65</ele>
        <time>2024-09-25T10:48:39.000Z</time>
      </trkpt>
      <trkpt lat="42.21813" lon="2.5417">
        <ele>334.11</ele>
        <time>2024-09-25T10:48:44.000Z</time>
      </trkpt>
      <trkpt lat="42.21807" lon="2.54159">
        <ele>334.57</ele>
        <time>2024-09-25T10:48:49.000Z</time>
      </trkpt>
      <trkpt lat="42.218" lon="2.54148">
        <ele>335.02</ele>
        <time>2024-09-25T10:48:54.000Z</time>
      </trkpt>
      <trkpt lat="42.21793" lon="2.54136">
        <ele>335.46</ele>
        <time>2024-09-25T10:48:59.000Z</time>
      </trkpt>
      <trkpt lat="42.21784" lon="2.54123">
        <ele>335.89</ele>
        <time>2024-09-25T10:49:04.000Z</time>
      </trkpt>
      <trkpt lat="42.21777" lon="2.54114">
        <ele>336.32</ele>
        <time>2024-09-25T10:49:09.000Z</time>
      </trkpt>
      <trkpt lat="42.21767" lon="2.54105">
        <ele>336.74</ele>
        <time>2024-09-25T10:49:14.000Z</time>
      </trkpt>
      <trkpt lat="42.21758" lon="2.54098">
        <ele>337.16</ele>
        <time>2024-09-25T10:49:19.000Z</time>
      </trkpt>
      <trkpt lat="42.21749" lon="2.54094">
        <ele>337.57</ele>
        <time>2024-09-25T10:49:24.000Z</time>
      </trkpt>
      <trkpt lat="42.2174" lon="2.5409">
        <ele>337.98</ele>
        <time>2024-09-25T10:49:29.000Z</time>
      </trkpt>
      <trkpt lat="42.21732" lon="2.54082">
        <ele>338.38</ele>
        <time>2024-09-25T10:49:34.000Z</time>
      </trkpt>
      <trkpt lat="42.21724" lon="2.54072">
        <ele>341.1</ele>
        <time>2024-09-25T10:51:38.000Z</time>
      </trkpt>
      <trkpt lat="42.21723" lon="2.54055">
        <ele>341.65</ele>
        <time>2024-09-25T10:51:43.000Z</time>
      </trkpt>
      <trkpt lat="42.21722" lon="2.54035">
        <ele>342.25</ele>
        <time>2024-09-25T10:51:48.999Z</time>
      </trkpt>
      <trkpt lat="42.21721" lon="2.54016">
        <ele>342.7</ele>
        <time>2024-09-25T10:51:53.999Z</time>
      </trkpt>
      <trkpt lat="42.2172" lon="2.53998">
        <ele>343.13</ele>
        <time>2024-09-25T10:51:58.999Z</time>
      </trkpt>
      <trkpt lat="42.21719" lon="2.53979">
        <ele>343.53</ele>
        <time>2024-09-25T10:52:03.999Z</time>
      </trkpt>
      <trkpt lat="42.21717" lon="2.53957">
        <ele>343.91</ele>
        <time>2024-09-25T10:52:08.999Z</time>
      </trkpt>
      <trkpt lat="42.21717" lon="2.53934">
        <ele>344.28</ele>
        <time>2024-09-25T10:52:13.999Z</time>
      </trkpt>
      <trkpt lat="42.21716" lon="2.53911">
        <ele>344.64</ele>
        <time>2024-09-25T10:52:18.999Z</time>
      </trkpt>
      <trkpt lat="42.21716" lon="2.53887">
        <ele>344.99</ele>
        <time>2024-09-25T10:52:23.999Z</time>
      </trkpt>
      <trkpt lat="42.21714" lon="2.53862">
        <ele>346.65</ele>
        <time>2024-09-25T10:52:28.999Z</time>
      </trkpt>
      <trkpt lat="42.21714" lon="2.53836">
        <ele>348.05</ele>
        <time>2024-09-25T10:52:33.999Z</time>
      </trkpt>
      <trkpt lat="42.21711" lon="2.53806">
        <ele>348.67</ele>
        <time>2024-09-25T10:52:38.999Z</time>
      </trkpt>
      <trkpt lat="42.21709" lon="2.53779">
        <ele>349</ele>
        <time>2024-09-25T10:52:43.999Z</time>
      </trkpt>
      <trkpt lat="42.21707" lon="2.53749">
        <ele>349.21</ele>
        <time>2024-09-25T10:52:48.999Z</time>
      </trkpt>
      <trkpt lat="42.21705" lon="2.53719">
        <ele>349.38</ele>
        <time>2024-09-25T10:52:53.999Z</time>
      </trkpt>
      <trkpt lat="42.21703" lon="2.53689">
        <ele>349.55</ele>
        <time>2024-09-25T10:52:58.999Z</time>
      </trkpt>
      <trkpt lat="42.21702" lon="2.5366">
        <ele>349.71</ele>
        <time>2024-09-25T10:53:03.999Z</time>
      </trkpt>
      <trkpt lat="42.21699" lon="2.53628">
        <ele>349.87</ele>
        <time>2024-09-25T10:53:08.999Z</time>
      </trkpt>
      <trkpt lat="42.21697" lon="2.53597">
        <ele>350.05</ele>
        <time>2024-09-25T10:53:13.999Z</time>
      </trkpt>
      <trkpt lat="42.21695" lon="2.53566">
        <ele>350.23</ele>
        <time>2024-09-25T10:53:18.999Z</time>
      </trkpt>
      <trkpt lat="42.21694" lon="2.53538">
        <ele>350.39</ele>
        <time>2024-09-25T10:53:23.999Z</time>
      </trkpt>
      <trkpt lat="42.21692" lon="2.53509">
        <ele>350.58</ele>
        <time>2024-09-25T10:53:28.999Z</time>
      </trkpt>
      <trkpt lat="42.21692" lon="2.53478">
        <ele>350.7</ele>
        <time>2024-09-25T10:53:33.999Z</time>
      </trkpt>
      <trkpt lat="42.21691" lon="2.53446">
        <ele>350.71</ele>
        <time>2024-09-25T10:53:38.999Z</time>
      </trkpt>
      <trkpt lat="42.21688" lon="2.53414">
        <ele>350.68</ele>
        <time>2024-09-25T10:53:43.999Z</time>
      </trkpt>
      <trkpt lat="42.21684" lon="2.53381">
        <ele>350.8</ele>
        <time>2024-09-25T10:53:48.999Z</time>
      </trkpt>
      <trkpt lat="42.21677" lon="2.53345">
        <ele>350.91</ele>
        <time>2024-09-25T10:53:53.999Z</time>
      </trkpt>
      <trkpt lat="42.21665" lon="2.53307">
        <ele>351.01</ele>
        <time>2024-09-25T10:53:58.999Z</time>
      </trkpt>
      <trkpt lat="42.21646" lon="2.53269">
        <ele>351.15</ele>
        <time>2024-09-25T10:54:03.999Z</time>
      </trkpt>
      <trkpt lat="42.21619" lon="2.53233">
        <ele>351.33</ele>
        <time>2024-09-25T10:54:08.999Z</time>
      </trkpt>
      <trkpt lat="42.21588" lon="2.53195">
        <ele>351.07</ele>
        <time>2024-09-25T10:54:13.999Z</time>
      </trkpt>
      <trkpt lat="42.21551" lon="2.5316">
        <ele>350.07</ele>
        <time>2024-09-25T10:54:18.999Z</time>
      </trkpt>
      <trkpt lat="42.21511" lon="2.53123">
        <ele>349.02</ele>
        <time>2024-09-25T10:54:23.999Z</time>
      </trkpt>
      <trkpt lat="42.21472" lon="2.53084">
        <ele>348.9</ele>
        <time>2024-09-25T10:54:28.999Z</time>
      </trkpt>
      <trkpt lat="42.21437" lon="2.53047">
        <ele>348.52</ele>
        <time>2024-09-25T10:54:33.999Z</time>
      </trkpt>
      <trkpt lat="42.21412" lon="2.53007">
        <ele>348.03</ele>
        <time>2024-09-25T10:54:38.999Z</time>
      </trkpt>
      <trkpt lat="42.21396" lon="2.52968">
        <ele>347.78</ele>
        <time>2024-09-25T10:54:43.999Z</time>
      </trkpt>
      <trkpt lat="42.21389" lon="2.52933">
        <ele>347.51</ele>
        <time>2024-09-25T10:54:48.999Z</time>
      </trkpt>
      <trkpt lat="42.21387" lon="2.52903">
        <ele>347.35</ele>
        <time>2024-09-25T10:54:53.999Z</time>
      </trkpt>
      <trkpt lat="42.21387" lon="2.52873">
        <ele>347.85</ele>
        <time>2024-09-25T10:54:58.999Z</time>
      </trkpt>
      <trkpt lat="42.21387" lon="2.52845">
        <ele>348.35</ele>
        <time>2024-09-25T10:55:03.999Z</time>
      </trkpt>
      <trkpt lat="42.21389" lon="2.52819">
        <ele>348.59</ele>
        <time>2024-09-25T10:55:08.999Z</time>
      </trkpt>
      <trkpt lat="42.21393" lon="2.52793">
        <ele>348.69</ele>
        <time>2024-09-25T10:55:13.999Z</time>
      </trkpt>
      <trkpt lat="42.21396" lon="2.52767">
        <ele>348.64</ele>
        <time>2024-09-25T10:55:18.999Z</time>
      </trkpt>
      <trkpt lat="42.21399" lon="2.5274">
        <ele>348.72</ele>
        <time>2024-09-25T10:55:23.999Z</time>
      </trkpt>
      <trkpt lat="42.21402" lon="2.52711">
        <ele>349.02</ele>
        <time>2024-09-25T10:55:28.999Z</time>
      </trkpt>
      <trkpt lat="42.21404" lon="2.52684">
        <ele>349.25</ele>
        <time>2024-09-25T10:55:33.999Z</time>
      </trkpt>
      <trkpt lat="42.21404" lon="2.52659">
        <ele>349.24</ele>
        <time>2024-09-25T10:55:38.999Z</time>
      </trkpt>
      <trkpt lat="42.214" lon="2.52635">
        <ele>349.21</ele>
        <time>2024-09-25T10:55:43.999Z</time>
      </trkpt>
      <trkpt lat="42.21395" lon="2.52611">
        <ele>349.16</ele>
        <time>2024-09-25T10:55:48.999Z</time>
      </trkpt>
      <trkpt lat="42.21391" lon="2.52588">
        <ele>349.12</ele>
        <time>2024-09-25T10:55:53.999Z</time>
      </trkpt>
      <trkpt lat="42.21386" lon="2.52567">
        <ele>349.06</ele>
        <time>2024-09-25T10:55:58.999Z</time>
      </trkpt>
      <trkpt lat="42.21381" lon="2.52547">
        <ele>349</ele>
        <time>2024-09-25T10:56:03.999Z</time>
      </trkpt>
      <trkpt lat="42.21381" lon="2.52528">
        <ele>348.94</ele>
        <time>2024-09-25T10:56:08.999Z</time>
      </trkpt>
      <trkpt lat="42.21377" lon="2.52505">
        <ele>348.89</ele>
        <time>2024-09-25T10:56:13.999Z</time>
      </trkpt>
      <trkpt lat="42.21372" lon="2.52483">
        <ele>348.85</ele>
        <time>2024-09-25T10:56:18.999Z</time>
      </trkpt>
      <trkpt lat="42.21368" lon="2.52458">
        <ele>348.72</ele>
        <time>2024-09-25T10:56:23.999Z</time>
      </trkpt>
      <trkpt lat="42.21364" lon="2.52432">
        <ele>348.62</ele>
        <time>2024-09-25T10:56:28.999Z</time>
      </trkpt>
      <trkpt lat="42.21358" lon="2.52405">
        <ele>348.62</ele>
        <time>2024-09-25T10:56:33.999Z</time>
      </trkpt>
      <trkpt lat="42.21354" lon="2.52379">
        <ele>348.66</ele>
        <time>2024-09-25T10:56:38.999Z</time>
      </trkpt>
      <trkpt lat="42.21349" lon="2.52351">
        <ele>348.74</ele>
        <time>2024-09-25T10:56:43.999Z</time>
      </trkpt>
      <trkpt lat="42.21343" lon="2.52322">
        <ele>348.83</ele>
        <time>2024-09-25T10:56:48.999Z</time>
      </trkpt>
      <trkpt lat="42.21338" lon="2.52293">
        <ele>348.9</ele>
        <time>2024-09-25T10:56:53.999Z</time>
      </trkpt>
      <trkpt lat="42.21333" lon="2.52267">
        <ele>348.94</ele>
        <time>2024-09-25T10:56:58.999Z</time>
      </trkpt>
      <trkpt lat="42.21327" lon="2.52243">
        <ele>348.95</ele>
        <time>2024-09-25T10:57:03.999Z</time>
      </trkpt>
      <trkpt lat="42.21329" lon="2.52223">
        <ele>348.96</ele>
        <time>2024-09-25T10:57:08.999Z</time>
      </trkpt>
      <trkpt lat="42.21323" lon="2.52203">
        <ele>349.03</ele>
        <time>2024-09-25T10:57:13.999Z</time>
      </trkpt>
      <trkpt lat="42.21317" lon="2.5217">
        <ele>349.23</ele>
        <time>2024-09-25T10:57:18.999Z</time>
      </trkpt>
      <trkpt lat="42.21312" lon="2.52138">
        <ele>349.35</ele>
        <time>2024-09-25T10:57:23.999Z</time>
      </trkpt>
      <trkpt lat="42.21305" lon="2.52103">
        <ele>349.45</ele>
        <time>2024-09-25T10:57:28.999Z</time>
      </trkpt>
      <trkpt lat="42.21299" lon="2.5207">
        <ele>349.63</ele>
        <time>2024-09-25T10:57:33.999Z</time>
      </trkpt>
      <trkpt lat="42.21293" lon="2.52038">
        <ele>349.82</ele>
        <time>2024-09-25T10:57:38.999Z</time>
      </trkpt>
      <trkpt lat="42.21286" lon="2.52006">
        <ele>350</ele>
        <time>2024-09-25T10:57:43.999Z</time>
      </trkpt>
      <trkpt lat="42.21279" lon="2.5197">
        <ele>350.12</ele>
        <time>2024-09-25T10:57:48.999Z</time>
      </trkpt>
      <trkpt lat="42.21273" lon="2.51936">
        <ele>350.09</ele>
        <time>2024-09-25T10:57:53.999Z</time>
      </trkpt>
      <trkpt lat="42.21267" lon="2.51906">
        <ele>350</ele>
        <time>2024-09-25T10:57:58.999Z</time>
      </trkpt>
      <trkpt lat="42.21259" lon="2.51878">
        <ele>349.94</ele>
        <time>2024-09-25T10:58:03.999Z</time>
      </trkpt>
      <trkpt lat="42.21256" lon="2.51844">
        <ele>349.84</ele>
        <time>2024-09-25T10:58:08.999Z</time>
      </trkpt>
      <trkpt lat="42.21254" lon="2.51816">
        <ele>349.79</ele>
        <time>2024-09-25T10:58:13.999Z</time>
      </trkpt>
      <trkpt lat="42.21252" lon="2.51789">
        <ele>349.78</ele>
        <time>2024-09-25T10:58:18.999Z</time>
      </trkpt>
      <trkpt lat="42.21251" lon="2.51766">
        <ele>349.79</ele>
        <time>2024-09-25T10:58:23.999Z</time>
      </trkpt>
      <trkpt lat="42.21252" lon="2.51745">
        <ele>349.81</ele>
        <time>2024-09-25T10:58:28.999Z</time>
      </trkpt>
      <trkpt lat="42.21247" lon="2.51731">
        <ele>349.82</ele>
        <time>2024-09-25T10:58:33.999Z</time>
      </trkpt>
      <trkpt lat="42.21247" lon="2.51714">
        <ele>349.83</ele>
        <time>2024-09-25T10:58:38.999Z</time>
      </trkpt>
      <trkpt lat="42.21247" lon="2.51695">
        <ele>349.85</ele>
        <time>2024-09-25T10:58:43.999Z</time>
      </trkpt>
      <trkpt lat="42.21247" lon="2.51676">
        <ele>349.86</ele>
        <time>2024-09-25T10:58:48.999Z</time>
      </trkpt>
      <trkpt lat="42.21248" lon="2.51656">
        <ele>349.88</ele>
        <time>2024-09-25T10:58:53.999Z</time>
      </trkpt>
      <trkpt lat="42.21247" lon="2.51637">
        <ele>349.9</ele>
        <time>2024-09-25T10:58:58.999Z</time>
      </trkpt>
      <trkpt lat="42.21246" lon="2.51619">
        <ele>349.92</ele>
        <time>2024-09-25T10:59:03.999Z</time>
      </trkpt>
      <trkpt lat="42.21246" lon="2.516">
        <ele>349.93</ele>
        <time>2024-09-25T10:59:08.999Z</time>
      </trkpt>
      <trkpt lat="42.21246" lon="2.5158">
        <ele>349.95</ele>
        <time>2024-09-25T10:59:13.999Z</time>
      </trkpt>
      <trkpt lat="42.21247" lon="2.51563">
        <ele>349.97</ele>
        <time>2024-09-25T10:59:18.999Z</time>
      </trkpt>
      <trkpt lat="42.21248" lon="2.51543">
        <ele>350</ele>
        <time>2024-09-25T10:59:23.999Z</time>
      </trkpt>
      <trkpt lat="42.21247" lon="2.51526">
        <ele>350.03</ele>
        <time>2024-09-25T10:59:28.999Z</time>
      </trkpt>
      <trkpt lat="42.21248" lon="2.51506">
        <ele>350.08</ele>
        <time>2024-09-25T10:59:33.999Z</time>
      </trkpt>
      <trkpt lat="42.21247" lon="2.51488">
        <ele>350.13</ele>
        <time>2024-09-25T10:59:38.999Z</time>
      </trkpt>
      <trkpt lat="42.21246" lon="2.51468">
        <ele>350.19</ele>
        <time>2024-09-25T10:59:43.999Z</time>
      </trkpt>
      <trkpt lat="42.21246" lon="2.51448">
        <ele>350.38</ele>
        <time>2024-09-25T10:59:48.999Z</time>
      </trkpt>
      <trkpt lat="42.21247" lon="2.51429">
        <ele>350.45</ele>
        <time>2024-09-25T10:59:53.999Z</time>
      </trkpt>
      <trkpt lat="42.21246" lon="2.51409">
        <ele>350.51</ele>
        <time>2024-09-25T10:59:58.999Z</time>
      </trkpt>
      <trkpt lat="42.21247" lon="2.51387">
        <ele>350.58</ele>
        <time>2024-09-25T11:00:03.999Z</time>
      </trkpt>
      <trkpt lat="42.21247" lon="2.51367">
        <ele>350.65</ele>
        <time>2024-09-25T11:00:08.999Z</time>
      </trkpt>
      <trkpt lat="42.21247" lon="2.51347">
        <ele>350.74</ele>
        <time>2024-09-25T11:00:13.999Z</time>
      </trkpt>
      <trkpt lat="42.21248" lon="2.51325">
        <ele>350.84</ele>
        <time>2024-09-25T11:00:18.999Z</time>
      </trkpt>
      <trkpt lat="42.21247" lon="2.51306">
        <ele>350.94</ele>
        <time>2024-09-25T11:00:23.999Z</time>
      </trkpt>
      <trkpt lat="42.21247" lon="2.51283">
        <ele>351.05</ele>
        <time>2024-09-25T11:00:28.999Z</time>
      </trkpt>
      <trkpt lat="42.21246" lon="2.51262">
        <ele>351.17</ele>
        <time>2024-09-25T11:00:33.999Z</time>
      </trkpt>
      <trkpt lat="42.21247" lon="2.51241">
        <ele>351.29</ele>
        <time>2024-09-25T11:00:38.999Z</time>
      </trkpt>
      <trkpt lat="42.2125" lon="2.5123">
        <ele>352.27</ele>
        <time>2024-09-25T11:02:33.999Z</time>
      </trkpt>
      <trkpt lat="42.2126" lon="2.51229">
        <ele>352.55</ele>
        <time>2024-09-25T11:02:41.999Z</time>
      </trkpt>
      <trkpt lat="42.21278" lon="2.51233">
        <ele>352.75</ele>
        <time>2024-09-25T11:02:46.999Z</time>
      </trkpt>
      <trkpt lat="42.21289" lon="2.51233">
        <ele>352.91</ele>
        <time>2024-09-25T11:02:51.999Z</time>
      </trkpt>
      <trkpt lat="42.21292" lon="2.51222">
        <ele>353.15</ele>
        <time>2024-09-25T11:03:05.999Z</time>
      </trkpt>
      <trkpt lat="42.2129" lon="2.51203">
        <ele>353.3</ele>
        <time>2024-09-25T11:03:10.999Z</time>
      </trkpt>
      <trkpt lat="42.21287" lon="2.51186">
        <ele>353.46</ele>
        <time>2024-09-25T11:03:15.999Z</time>
      </trkpt>
      <trkpt lat="42.21284" lon="2.51169">
        <ele>355.89</ele>
        <time>2024-09-25T11:05:51.000Z</time>
      </trkpt>
      <trkpt lat="42.21289" lon="2.51199">
        <ele>356.03</ele>
        <time>2024-09-25T11:06:01.000Z</time>
      </trkpt>
      <trkpt lat="42.21281" lon="2.51192">
        <ele>355.95</ele>
        <time>2024-09-25T11:06:09.000Z</time>
      </trkpt>
      <trkpt lat="42.21292" lon="2.51196">
        <ele>355.94</ele>
        <time>2024-09-25T11:06:16.000Z</time>
      </trkpt>
      <trkpt lat="42.21299" lon="2.5121">
        <ele>355.91</ele>
        <time>2024-09-25T11:06:21.000Z</time>
      </trkpt>
      <trkpt lat="42.21309" lon="2.51204">
        <ele>355.89</ele>
        <time>2024-09-25T11:06:26.000Z</time>
      </trkpt>
      <trkpt lat="42.21314" lon="2.51192">
        <ele>355.82</ele>
        <time>2024-09-25T11:06:40.000Z</time>
      </trkpt>
      <trkpt lat="42.21307" lon="2.51202">
        <ele>352.29</ele>
        <time>2024-09-25T11:20:51.999Z</time>
      </trkpt>
      <trkpt lat="42.21301" lon="2.51193">
        <ele>351.42</ele>
        <time>2024-09-25T11:52:44.000Z</time>
      </trkpt>
      <trkpt lat="42.21291" lon="2.51192">
        <ele>351.95</ele>
        <time>2024-09-25T11:53:40.000Z</time>
      </trkpt>
      <trkpt lat="42.213" lon="2.51187">
        <ele>351.98</ele>
        <time>2024-09-25T11:53:49.000Z</time>
      </trkpt>
      <trkpt lat="42.21306" lon="2.51196">
        <ele>352.05</ele>
        <time>2024-09-25T11:54:13.000Z</time>
      </trkpt>
      <trkpt lat="42.21301" lon="2.51184">
        <ele>352.11</ele>
        <time>2024-09-25T11:54:28.000Z</time>
      </trkpt>
      <trkpt lat="42.21309" lon="2.51174">
        <ele>352.09</ele>
        <time>2024-09-25T11:54:46.000Z</time>
      </trkpt>
      <trkpt lat="42.213" lon="2.51176">
        <ele>352.06</ele>
        <time>2024-09-25T11:55:04.000Z</time>
      </trkpt>
      <trkpt lat="42.21304" lon="2.51187">
        <ele>352.07</ele>
        <time>2024-09-25T11:55:45.000Z</time>
      </trkpt>
      <trkpt lat="42.21296" lon="2.51183">
        <ele>354.31</ele>
        <time>2024-09-25T11:58:08.000Z</time>
      </trkpt>
      <trkpt lat="42.21287" lon="2.51188">
        <ele>355.83</ele>
        <time>2024-09-25T11:58:45.000Z</time>
      </trkpt>
      <trkpt lat="42.21278" lon="2.51185">
        <ele>360.12</ele>
        <time>2024-09-25T11:59:48.000Z</time>
      </trkpt>
      <trkpt lat="42.21273" lon="2.51196">
        <ele>362.93</ele>
        <time>2024-09-25T12:01:50.000Z</time>
      </trkpt>
      <trkpt lat="42.2128" lon="2.51188">
        <ele>358.76</ele>
        <time>2024-09-25T12:29:50.999Z</time>
      </trkpt>
      <trkpt lat="42.2127" lon="2.51184">
        <ele>356.9</ele>
        <time>2024-09-25T12:36:36.999Z</time>
      </trkpt>
      <trkpt lat="42.21262" lon="2.51178">
        <ele>356.85</ele>
        <time>2024-09-25T12:36:42.999Z</time>
      </trkpt>
      <trkpt lat="42.21256" lon="2.51169">
        <ele>356.79</ele>
        <time>2024-09-25T12:36:51.999Z</time>
      </trkpt>
      <trkpt lat="42.2125" lon="2.51159">
        <ele>356.73</ele>
        <time>2024-09-25T12:37:02.999Z</time>
      </trkpt>
      <trkpt lat="42.21247" lon="2.51145">
        <ele>356.7</ele>
        <time>2024-09-25T12:37:50.999Z</time>
      </trkpt>
      <trkpt lat="42.21244" lon="2.51133">
        <ele>356.7</ele>
        <time>2024-09-25T12:37:56.999Z</time>
      </trkpt>
      <trkpt lat="42.21239" lon="2.51122">
        <ele>356.7</ele>
        <time>2024-09-25T12:38:05.999Z</time>
      </trkpt>
      <trkpt lat="42.21234" lon="2.5111">
        <ele>356.7</ele>
        <time>2024-09-25T12:38:16.999Z</time>
      </trkpt>
      <trkpt lat="42.21222" lon="2.51086">
        <ele>356.71</ele>
        <time>2024-09-25T12:38:21.999Z</time>
      </trkpt>
      <trkpt lat="42.21208" lon="2.51058">
        <ele>356.72</ele>
        <time>2024-09-25T12:38:26.999Z</time>
      </trkpt>
      <trkpt lat="42.21195" lon="2.51028">
        <ele>356.76</ele>
        <time>2024-09-25T12:38:31.999Z</time>
      </trkpt>
      <trkpt lat="42.21184" lon="2.51">
        <ele>356.8</ele>
        <time>2024-09-25T12:38:36.999Z</time>
      </trkpt>
      <trkpt lat="42.21174" lon="2.50976">
        <ele>356.83</ele>
        <time>2024-09-25T12:38:41.999Z</time>
      </trkpt>
      <trkpt lat="42.21164" lon="2.50952">
        <ele>356.85</ele>
        <time>2024-09-25T12:38:46.999Z</time>
      </trkpt>
      <trkpt lat="42.21155" lon="2.50928">
        <ele>356.89</ele>
        <time>2024-09-25T12:38:51.999Z</time>
      </trkpt>
      <trkpt lat="42.21146" lon="2.50904">
        <ele>356.92</ele>
        <time>2024-09-25T12:38:56.999Z</time>
      </trkpt>
      <trkpt lat="42.21134" lon="2.50882">
        <ele>357</ele>
        <time>2024-09-25T12:39:01.999Z</time>
      </trkpt>
      <trkpt lat="42.21123" lon="2.50855">
        <ele>357.05</ele>
        <time>2024-09-25T12:39:06.999Z</time>
      </trkpt>
      <trkpt lat="42.21105" lon="2.50829">
        <ele>357.07</ele>
        <time>2024-09-25T12:39:11.999Z</time>
      </trkpt>
      <trkpt lat="42.21083" lon="2.50809">
        <ele>357.04</ele>
        <time>2024-09-25T12:39:16.999Z</time>
      </trkpt>
      <trkpt lat="42.21064" lon="2.50796">
        <ele>357</ele>
        <time>2024-09-25T12:39:22.000Z</time>
      </trkpt>
      <trkpt lat="42.21046" lon="2.50782">
        <ele>356.98</ele>
        <time>2024-09-25T12:39:27.000Z</time>
      </trkpt>
      <trkpt lat="42.21027" lon="2.50768">
        <ele>356.98</ele>
        <time>2024-09-25T12:39:32.000Z</time>
      </trkpt>
      <trkpt lat="42.21011" lon="2.50752">
        <ele>356.99</ele>
        <time>2024-09-25T12:39:37.000Z</time>
      </trkpt>
      <trkpt lat="42.21001" lon="2.50731">
        <ele>356.95</ele>
        <time>2024-09-25T12:39:42.000Z</time>
      </trkpt>
      <trkpt lat="42.21" lon="2.50706">
        <ele>356.94</ele>
        <time>2024-09-25T12:39:47.000Z</time>
      </trkpt>
      <trkpt lat="42.20999" lon="2.50682">
        <ele>356.94</ele>
        <time>2024-09-25T12:39:52.000Z</time>
      </trkpt>
      <trkpt lat="42.20999" lon="2.50661">
        <ele>356.97</ele>
        <time>2024-09-25T12:39:57.000Z</time>
      </trkpt>
      <trkpt lat="42.21004" lon="2.50643">
        <ele>357.04</ele>
        <time>2024-09-25T12:40:02.000Z</time>
      </trkpt>
      <trkpt lat="42.21001" lon="2.50619">
        <ele>357.06</ele>
        <time>2024-09-25T12:40:07.000Z</time>
      </trkpt>
      <trkpt lat="42.21" lon="2.50596">
        <ele>357.1</ele>
        <time>2024-09-25T12:40:12.000Z</time>
      </trkpt>
      <trkpt lat="42.21" lon="2.5058">
        <ele>357.15</ele>
        <time>2024-09-25T12:40:17.000Z</time>
      </trkpt>
      <trkpt lat="42.20996" lon="2.50567">
        <ele>357.21</ele>
        <time>2024-09-25T12:40:31.000Z</time>
      </trkpt>
      <trkpt lat="42.20992" lon="2.50553">
        <ele>357.24</ele>
        <time>2024-09-25T12:40:36.000Z</time>
      </trkpt>
      <trkpt lat="42.2099" lon="2.5054">
        <ele>357.29</ele>
        <time>2024-09-25T12:40:42.000Z</time>
      </trkpt>
      <trkpt lat="42.20988" lon="2.50528">
        <ele>357.33</ele>
        <time>2024-09-25T12:40:47.000Z</time>
      </trkpt>
      <trkpt lat="42.20986" lon="2.50516">
        <ele>357.38</ele>
        <time>2024-09-25T12:40:52.000Z</time>
      </trkpt>
      <trkpt lat="42.20984" lon="2.50502">
        <ele>357.44</ele>
        <time>2024-09-25T12:40:57.000Z</time>
      </trkpt>
      <trkpt lat="42.20981" lon="2.50489">
        <ele>357.5</ele>
        <time>2024-09-25T12:41:02.000Z</time>
      </trkpt>
      <trkpt lat="42.20979" lon="2.50476">
        <ele>357.58</ele>
        <time>2024-09-25T12:41:07.000Z</time>
      </trkpt>
      <trkpt lat="42.20975" lon="2.50464">
        <ele>357.66</ele>
        <time>2024-09-25T12:41:12.000Z</time>
      </trkpt>
      <trkpt lat="42.20971" lon="2.50453">
        <ele>357.76</ele>
        <time>2024-09-25T12:41:17.000Z</time>
      </trkpt>
      <trkpt lat="42.2097" lon="2.5044">
        <ele>357.86</ele>
        <time>2024-09-25T12:41:22.000Z</time>
      </trkpt>
      <trkpt lat="42.20969" lon="2.50426">
        <ele>357.99</ele>
        <time>2024-09-25T12:41:28.000Z</time>
      </trkpt>
      <trkpt lat="42.20967" lon="2.50413">
        <ele>358.09</ele>
        <time>2024-09-25T12:41:33.000Z</time>
      </trkpt>
      <trkpt lat="42.20964" lon="2.504">
        <ele>358.2</ele>
        <time>2024-09-25T12:41:38.000Z</time>
      </trkpt>
      <trkpt lat="42.20963" lon="2.50387">
        <ele>358.3</ele>
        <time>2024-09-25T12:41:43.000Z</time>
      </trkpt>
      <trkpt lat="42.20953" lon="2.5038">
        <ele>358.41</ele>
        <time>2024-09-25T12:41:48.000Z</time>
      </trkpt>
      <trkpt lat="42.20942" lon="2.50378">
        <ele>358.53</ele>
        <time>2024-09-25T12:41:53.000Z</time>
      </trkpt>
      <trkpt lat="42.20933" lon="2.50374">
        <ele>358.67</ele>
        <time>2024-09-25T12:41:58.000Z</time>
      </trkpt>
      <trkpt lat="42.20924" lon="2.50369">
        <ele>358.82</ele>
        <time>2024-09-25T12:42:03.000Z</time>
      </trkpt>
      <trkpt lat="42.20917" lon="2.50361">
        <ele>359.02</ele>
        <time>2024-09-25T12:42:09.000Z</time>
      </trkpt>
      <trkpt lat="42.20911" lon="2.50351">
        <ele>359.24</ele>
        <time>2024-09-25T12:42:15.000Z</time>
      </trkpt>
      <trkpt lat="42.20905" lon="2.50342">
        <ele>359.44</ele>
        <time>2024-09-25T12:42:20.000Z</time>
      </trkpt>
      <trkpt lat="42.20898" lon="2.50333">
        <ele>359.64</ele>
        <time>2024-09-25T12:42:25.000Z</time>
      </trkpt>
      <trkpt lat="42.20892" lon="2.50323">
        <ele>359.86</ele>
        <time>2024-09-25T12:42:30.000Z</time>
      </trkpt>
      <trkpt lat="42.20886" lon="2.50312">
        <ele>360.08</ele>
        <time>2024-09-25T12:42:35.000Z</time>
      </trkpt>
      <trkpt lat="42.20879" lon="2.50302">
        <ele>360.31</ele>
        <time>2024-09-25T12:42:40.000Z</time>
      </trkpt>
      <trkpt lat="42.20873" lon="2.5029">
        <ele>360.55</ele>
        <time>2024-09-25T12:42:45.000Z</time>
      </trkpt>
      <trkpt lat="42.20867" lon="2.50278">
        <ele>360.79</ele>
        <time>2024-09-25T12:42:50.000Z</time>
      </trkpt>
      <trkpt lat="42.2086" lon="2.50268">
        <ele>361.04</ele>
        <time>2024-09-25T12:42:55.000Z</time>
      </trkpt>
      <trkpt lat="42.20854" lon="2.50256">
        <ele>361.3</ele>
        <time>2024-09-25T12:43:00.000Z</time>
      </trkpt>
      <trkpt lat="42.20848" lon="2.50245">
        <ele>361.55</ele>
        <time>2024-09-25T12:43:05.000Z</time>
      </trkpt>
      <trkpt lat="42.20842" lon="2.50234">
        <ele>361.81</ele>
        <time>2024-09-25T12:43:10.000Z</time>
      </trkpt>
      <trkpt lat="42.20835" lon="2.50223">
        <ele>362.06</ele>
        <time>2024-09-25T12:43:15.000Z</time>
      </trkpt>
      <trkpt lat="42.20829" lon="2.50211">
        <ele>362.32</ele>
        <time>2024-09-25T12:43:20.000Z</time>
      </trkpt>
      <trkpt lat="42.20823" lon="2.502">
        <ele>362.57</ele>
        <time>2024-09-25T12:43:25.000Z</time>
      </trkpt>
      <trkpt lat="42.20817" lon="2.50189">
        <ele>362.82</ele>
        <time>2024-09-25T12:43:30.000Z</time>
      </trkpt>
      <trkpt lat="42.20811" lon="2.50175">
        <ele>363.07</ele>
        <time>2024-09-25T12:43:35.000Z</time>
      </trkpt>
      <trkpt lat="42.20807" lon="2.50159">
        <ele>363.31</ele>
        <time>2024-09-25T12:43:40.000Z</time>
      </trkpt>
      <trkpt lat="42.20805" lon="2.50137">
        <ele>363.54</ele>
        <time>2024-09-25T12:43:45.000Z</time>
      </trkpt>
      <trkpt lat="42.20802" lon="2.50111">
        <ele>364.63</ele>
        <time>2024-09-25T12:43:50.000Z</time>
      </trkpt>
      <trkpt lat="42.20799" lon="2.50084">
        <ele>365.52</ele>
        <time>2024-09-25T12:43:55.000Z</time>
      </trkpt>
      <trkpt lat="42.20796" lon="2.5006">
        <ele>365.69</ele>
        <time>2024-09-25T12:44:00.000Z</time>
      </trkpt>
      <trkpt lat="42.20794" lon="2.50039">
        <ele>365.74</ele>
        <time>2024-09-25T12:44:05.000Z</time>
      </trkpt>
      <trkpt lat="42.20792" lon="2.50026">
        <ele>365.8</ele>
        <time>2024-09-25T12:44:10.000Z</time>
      </trkpt>
      <trkpt lat="42.2079" lon="2.50007">
        <ele>365.88</ele>
        <time>2024-09-25T12:44:15.000Z</time>
      </trkpt>
      <trkpt lat="42.20788" lon="2.49989">
        <ele>365.97</ele>
        <time>2024-09-25T12:44:20.000Z</time>
      </trkpt>
      <trkpt lat="42.20787" lon="2.49976">
        <ele>366.08</ele>
        <time>2024-09-25T12:44:25.000Z</time>
      </trkpt>
      <trkpt lat="42.20785" lon="2.49963">
        <ele>366.2</ele>
        <time>2024-09-25T12:44:30.000Z</time>
      </trkpt>
      <trkpt lat="42.20784" lon="2.4995">
        <ele>366.33</ele>
        <time>2024-09-25T12:44:35.000Z</time>
      </trkpt>
      <trkpt lat="42.20782" lon="2.49936">
        <ele>366.52</ele>
        <time>2024-09-25T12:44:41.000Z</time>
      </trkpt>
      <trkpt lat="42.2078" lon="2.49924">
        <ele>366.68</ele>
        <time>2024-09-25T12:44:46.000Z</time>
      </trkpt>
      <trkpt lat="42.20779" lon="2.49911">
        <ele>366.86</ele>
        <time>2024-09-25T12:44:51.000Z</time>
      </trkpt>
      <trkpt lat="42.20779" lon="2.49897">
        <ele>367.06</ele>
        <time>2024-09-25T12:44:56.000Z</time>
      </trkpt>
      <trkpt lat="42.20776" lon="2.49885">
        <ele>367.27</ele>
        <time>2024-09-25T12:45:01.000Z</time>
      </trkpt>
      <trkpt lat="42.20774" lon="2.49871">
        <ele>367.53</ele>
        <time>2024-09-25T12:45:07.000Z</time>
      </trkpt>
      <trkpt lat="42.20773" lon="2.49859">
        <ele>367.76</ele>
        <time>2024-09-25T12:45:12.000Z</time>
      </trkpt>
      <trkpt lat="42.20771" lon="2.49847">
        <ele>367.99</ele>
        <time>2024-09-25T12:45:17.000Z</time>
      </trkpt>
      <trkpt lat="42.20772" lon="2.49834">
        <ele>368.23</ele>
        <time>2024-09-25T12:45:22.000Z</time>
      </trkpt>
      <trkpt lat="42.20773" lon="2.49822">
        <ele>368.48</ele>
        <time>2024-09-25T12:45:27.000Z</time>
      </trkpt>
      <trkpt lat="42.20778" lon="2.49811">
        <ele>368.73</ele>
        <time>2024-09-25T12:45:32.000Z</time>
      </trkpt>
      <trkpt lat="42.20789" lon="2.49805">
        <ele>368.98</ele>
        <time>2024-09-25T12:45:37.000Z</time>
      </trkpt>
      <trkpt lat="42.20797" lon="2.49795">
        <ele>369.3</ele>
        <time>2024-09-25T12:45:43.000Z</time>
      </trkpt>
      <trkpt lat="42.208" lon="2.49778">
        <ele>369.56</ele>
        <time>2024-09-25T12:45:48.000Z</time>
      </trkpt>
      <trkpt lat="42.20795" lon="2.49763">
        <ele>369.82</ele>
        <time>2024-09-25T12:45:53.000Z</time>
      </trkpt>
      <trkpt lat="42.20788" lon="2.49753">
        <ele>370.07</ele>
        <time>2024-09-25T12:45:58.000Z</time>
      </trkpt>
      <trkpt lat="42.20777" lon="2.49749">
        <ele>370.33</ele>
        <time>2024-09-25T12:46:03.000Z</time>
      </trkpt>
      <trkpt lat="42.20764" lon="2.49753">
        <ele>370.59</ele>
        <time>2024-09-25T12:46:08.000Z</time>
      </trkpt>
      <trkpt lat="42.20753" lon="2.49752">
        <ele>370.85</ele>
        <time>2024-09-25T12:46:13.000Z</time>
      </trkpt>
      <trkpt lat="42.20749" lon="2.49741">
        <ele>371.13</ele>
        <time>2024-09-25T12:46:20.000Z</time>
      </trkpt>
      <trkpt lat="42.20743" lon="2.49751">
        <ele>371.71</ele>
        <time>2024-09-25T12:46:37.000Z</time>
      </trkpt>
      <trkpt lat="42.20733" lon="2.49753">
        <ele>372.05</ele>
        <time>2024-09-25T12:46:43.000Z</time>
      </trkpt>
      <trkpt lat="42.20724" lon="2.49748">
        <ele>373.48</ele>
        <time>2024-09-25T12:47:39.000Z</time>
      </trkpt>
      <trkpt lat="42.20711" lon="2.49741">
        <ele>373.72</ele>
        <time>2024-09-25T12:47:44.000Z</time>
      </trkpt>
      <trkpt lat="42.20703" lon="2.49731">
        <ele>374</ele>
        <time>2024-09-25T12:47:49.000Z</time>
      </trkpt>
      <trkpt lat="42.20698" lon="2.49719">
        <ele>374.48</ele>
        <time>2024-09-25T12:47:55.000Z</time>
      </trkpt>
      <trkpt lat="42.20693" lon="2.49709">
        <ele>375</ele>
        <time>2024-09-25T12:48:01.000Z</time>
      </trkpt>
      <trkpt lat="42.20687" lon="2.49699">
        <ele>375.55</ele>
        <time>2024-09-25T12:48:07.000Z</time>
      </trkpt>
      <trkpt lat="42.20682" lon="2.49689">
        <ele>377.32</ele>
        <time>2024-09-25T12:48:52.000Z</time>
      </trkpt>
      <trkpt lat="42.20673" lon="2.49681">
        <ele>378.36</ele>
        <time>2024-09-25T12:48:59.000Z</time>
      </trkpt>
      <trkpt lat="42.20665" lon="2.49674">
        <ele>379.07</ele>
        <time>2024-09-25T12:49:04.000Z</time>
      </trkpt>
      <trkpt lat="42.2066" lon="2.49661">
        <ele>379.77</ele>
        <time>2024-09-25T12:49:09.000Z</time>
      </trkpt>
      <trkpt lat="42.20654" lon="2.49649">
        <ele>380.45</ele>
        <time>2024-09-25T12:49:14.000Z</time>
      </trkpt>
      <trkpt lat="42.20648" lon="2.49638">
        <ele>381.12</ele>
        <time>2024-09-25T12:49:19.000Z</time>
      </trkpt>
      <trkpt lat="42.20641" lon="2.49625">
        <ele>381.78</ele>
        <time>2024-09-25T12:49:24.000Z</time>
      </trkpt>
      <trkpt lat="42.20634" lon="2.49613">
        <ele>382.44</ele>
        <time>2024-09-25T12:49:29.000Z</time>
      </trkpt>
      <trkpt lat="42.20628" lon="2.49604">
        <ele>383.46</ele>
        <time>2024-09-25T12:49:37.000Z</time>
      </trkpt>
      <trkpt lat="42.20621" lon="2.49596">
        <ele>385.09</ele>
        <time>2024-09-25T12:50:34.000Z</time>
      </trkpt>
      <trkpt lat="42.20631" lon="2.49593">
        <ele>386.91</ele>
        <time>2024-09-25T12:52:21.999Z</time>
      </trkpt>
      <trkpt lat="42.20621" lon="2.49594">
        <ele>392.95</ele>
        <time>2024-09-25T12:57:39.999Z</time>
      </trkpt>
      <trkpt lat="42.20613" lon="2.49585">
        <ele>393.47</ele>
        <time>2024-09-25T12:57:44.999Z</time>
      </trkpt>
      <trkpt lat="42.20605" lon="2.49571">
        <ele>393.96</ele>
        <time>2024-09-25T12:57:49.999Z</time>
      </trkpt>
      <trkpt lat="42.20597" lon="2.49553">
        <ele>394.4</ele>
        <time>2024-09-25T12:57:54.999Z</time>
      </trkpt>
      <trkpt lat="42.20588" lon="2.49536">
        <ele>394.8</ele>
        <time>2024-09-25T12:57:59.999Z</time>
      </trkpt>
      <trkpt lat="42.20579" lon="2.49513">
        <ele>395.18</ele>
        <time>2024-09-25T12:58:04.999Z</time>
      </trkpt>
      <trkpt lat="42.20572" lon="2.49492">
        <ele>395.52</ele>
        <time>2024-09-25T12:58:09.999Z</time>
      </trkpt>
      <trkpt lat="42.20566" lon="2.49471">
        <ele>395.84</ele>
        <time>2024-09-25T12:58:14.999Z</time>
      </trkpt>
      <trkpt lat="42.20559" lon="2.49445">
        <ele>397.49</ele>
        <time>2024-09-25T12:58:19.999Z</time>
      </trkpt>
      <trkpt lat="42.2055" lon="2.49417">
        <ele>398.31</ele>
        <time>2024-09-25T12:58:24.999Z</time>
      </trkpt>
      <trkpt lat="42.20542" lon="2.49394">
        <ele>398.44</ele>
        <time>2024-09-25T12:58:29.999Z</time>
      </trkpt>
      <trkpt lat="42.20532" lon="2.49369">
        <ele>398.59</ele>
        <time>2024-09-25T12:58:34.999Z</time>
      </trkpt>
      <trkpt lat="42.20521" lon="2.49343">
        <ele>398.59</ele>
        <time>2024-09-25T12:58:39.999Z</time>
      </trkpt>
      <trkpt lat="42.2051" lon="2.49316">
        <ele>398.57</ele>
        <time>2024-09-25T12:58:44.999Z</time>
      </trkpt>
      <trkpt lat="42.20499" lon="2.49289">
        <ele>398.59</ele>
        <time>2024-09-25T12:58:49.999Z</time>
      </trkpt>
      <trkpt lat="42.20489" lon="2.49262">
        <ele>398.58</ele>
        <time>2024-09-25T12:58:54.999Z</time>
      </trkpt>
      <trkpt lat="42.20474" lon="2.49239">
        <ele>398.6</ele>
        <time>2024-09-25T12:58:59.999Z</time>
      </trkpt>
      <trkpt lat="42.20448" lon="2.49222">
        <ele>398.65</ele>
        <time>2024-09-25T12:59:04.999Z</time>
      </trkpt>
      <trkpt lat="42.2043" lon="2.49199">
        <ele>398.71</ele>
        <time>2024-09-25T12:59:09.999Z</time>
      </trkpt>
      <trkpt lat="42.20412" lon="2.49184">
        <ele>398.71</ele>
        <time>2024-09-25T12:59:14.999Z</time>
      </trkpt>
      <trkpt lat="42.204" lon="2.49176">
        <ele>398.71</ele>
        <time>2024-09-25T12:59:19.999Z</time>
      </trkpt>
      <trkpt lat="42.20387" lon="2.49167">
        <ele>398.72</ele>
        <time>2024-09-25T12:59:24.999Z</time>
      </trkpt>
      <trkpt lat="42.20374" lon="2.49159">
        <ele>398.72</ele>
        <time>2024-09-25T12:59:29.999Z</time>
      </trkpt>
      <trkpt lat="42.20363" lon="2.4915">
        <ele>398.73</ele>
        <time>2024-09-25T12:59:34.999Z</time>
      </trkpt>
      <trkpt lat="42.20353" lon="2.49141">
        <ele>398.74</ele>
        <time>2024-09-25T12:59:39.999Z</time>
      </trkpt>
      <trkpt lat="42.20343" lon="2.49127">
        <ele>398.76</ele>
        <time>2024-09-25T12:59:44.999Z</time>
      </trkpt>
      <trkpt lat="42.20336" lon="2.49116">
        <ele>398.78</ele>
        <time>2024-09-25T12:59:49.999Z</time>
      </trkpt>
      <trkpt lat="42.20321" lon="2.49107">
        <ele>398.8</ele>
        <time>2024-09-25T12:59:54.999Z</time>
      </trkpt>
      <trkpt lat="42.20306" lon="2.49101">
        <ele>398.83</ele>
        <time>2024-09-25T12:59:59.999Z</time>
      </trkpt>
      <trkpt lat="42.20291" lon="2.49096">
        <ele>398.86</ele>
        <time>2024-09-25T13:00:04.999Z</time>
      </trkpt>
      <trkpt lat="42.20276" lon="2.49098">
        <ele>398.89</ele>
        <time>2024-09-25T13:00:09.999Z</time>
      </trkpt>
      <trkpt lat="42.20259" lon="2.49102">
        <ele>398.93</ele>
        <time>2024-09-25T13:00:14.999Z</time>
      </trkpt>
      <trkpt lat="42.20243" lon="2.49105">
        <ele>398.98</ele>
        <time>2024-09-25T13:00:19.999Z</time>
      </trkpt>
      <trkpt lat="42.20229" lon="2.49109">
        <ele>399.04</ele>
        <time>2024-09-25T13:00:24.999Z</time>
      </trkpt>
      <trkpt lat="42.20215" lon="2.49111">
        <ele>399.1</ele>
        <time>2024-09-25T13:00:29.999Z</time>
      </trkpt>
      <trkpt lat="42.20201" lon="2.49112">
        <ele>399.16</ele>
        <time>2024-09-25T13:00:34.999Z</time>
      </trkpt>
      <trkpt lat="42.20188" lon="2.49113">
        <ele>399.24</ele>
        <time>2024-09-25T13:00:39.999Z</time>
      </trkpt>
      <trkpt lat="42.20176" lon="2.49112">
        <ele>399.32</ele>
        <time>2024-09-25T13:00:44.999Z</time>
      </trkpt>
      <trkpt lat="42.20163" lon="2.49109">
        <ele>399.42</ele>
        <time>2024-09-25T13:00:49.999Z</time>
      </trkpt>
      <trkpt lat="42.2015" lon="2.49108">
        <ele>399.52</ele>
        <time>2024-09-25T13:00:54.999Z</time>
      </trkpt>
      <trkpt lat="42.20139" lon="2.49105">
        <ele>399.64</ele>
        <time>2024-09-25T13:00:59.999Z</time>
      </trkpt>
      <trkpt lat="42.20129" lon="2.49104">
        <ele>399.81</ele>
        <time>2024-09-25T13:01:06.999Z</time>
      </trkpt>
      <trkpt lat="42.20119" lon="2.49098">
        <ele>400</ele>
        <time>2024-09-25T13:01:13.999Z</time>
      </trkpt>
      <trkpt lat="42.2011" lon="2.49093">
        <ele>400.2</ele>
        <time>2024-09-25T13:01:20.999Z</time>
      </trkpt>
      <trkpt lat="42.201" lon="2.4909">
        <ele>400.38</ele>
        <time>2024-09-25T13:01:26.999Z</time>
      </trkpt>
      <trkpt lat="42.2009" lon="2.49091">
        <ele>400.57</ele>
        <time>2024-09-25T13:01:32.999Z</time>
      </trkpt>
      <trkpt lat="42.20078" lon="2.49091">
        <ele>400.73</ele>
        <time>2024-09-25T13:01:37.999Z</time>
      </trkpt>
      <trkpt lat="42.20067" lon="2.49091">
        <ele>400.91</ele>
        <time>2024-09-25T13:01:42.999Z</time>
      </trkpt>
      <trkpt lat="42.20054" lon="2.49091">
        <ele>401.1</ele>
        <time>2024-09-25T13:01:47.999Z</time>
      </trkpt>
      <trkpt lat="42.2004" lon="2.49091">
        <ele>401.31</ele>
        <time>2024-09-25T13:01:52.999Z</time>
      </trkpt>
      <trkpt lat="42.20024" lon="2.49091">
        <ele>401.52</ele>
        <time>2024-09-25T13:01:57.999Z</time>
      </trkpt>
      <trkpt lat="42.20007" lon="2.4909">
        <ele>401.74</ele>
        <time>2024-09-25T13:02:02.999Z</time>
      </trkpt>
      <trkpt lat="42.19993" lon="2.49088">
        <ele>401.96</ele>
        <time>2024-09-25T13:02:07.999Z</time>
      </trkpt>
      <trkpt lat="42.19983" lon="2.49085">
        <ele>402.18</ele>
        <time>2024-09-25T13:02:12.999Z</time>
      </trkpt>
      <trkpt lat="42.19971" lon="2.49084">
        <ele>402.49</ele>
        <time>2024-09-25T13:02:19.999Z</time>
      </trkpt>
      <trkpt lat="42.19958" lon="2.4908">
        <ele>402.71</ele>
        <time>2024-09-25T13:02:24.999Z</time>
      </trkpt>
      <trkpt lat="42.19943" lon="2.49078">
        <ele>402.92</ele>
        <time>2024-09-25T13:02:29.999Z</time>
      </trkpt>
      <trkpt lat="42.19932" lon="2.49077">
        <ele>403.13</ele>
        <time>2024-09-25T13:02:34.999Z</time>
      </trkpt>
      <trkpt lat="42.19923" lon="2.49079">
        <ele>403.73</ele>
        <time>2024-09-25T13:03:16.999Z</time>
      </trkpt>
      <trkpt lat="42.19913" lon="2.4908">
        <ele>404.18</ele>
        <time>2024-09-25T13:03:26.000Z</time>
      </trkpt>
      <trkpt lat="42.19899" lon="2.49077">
        <ele>404.42</ele>
        <time>2024-09-25T13:03:31.000Z</time>
      </trkpt>
      <trkpt lat="42.19884" lon="2.49074">
        <ele>404.65</ele>
        <time>2024-09-25T13:03:36.000Z</time>
      </trkpt>
      <trkpt lat="42.19866" lon="2.49071">
        <ele>404.89</ele>
        <time>2024-09-25T13:03:41.000Z</time>
      </trkpt>
      <trkpt lat="42.1985" lon="2.49068">
        <ele>405.12</ele>
        <time>2024-09-25T13:03:46.000Z</time>
      </trkpt>
      <trkpt lat="42.19834" lon="2.49066">
        <ele>405.34</ele>
        <time>2024-09-25T13:03:51.000Z</time>
      </trkpt>
      <trkpt lat="42.19817" lon="2.49065">
        <ele>405.57</ele>
        <time>2024-09-25T13:03:56.000Z</time>
      </trkpt>
      <trkpt lat="42.19803" lon="2.49056">
        <ele>405.8</ele>
        <time>2024-09-25T13:04:01.000Z</time>
      </trkpt>
      <trkpt lat="42.19793" lon="2.49045">
        <ele>406.01</ele>
        <time>2024-09-25T13:04:06.000Z</time>
      </trkpt>
      <trkpt lat="42.19786" lon="2.49036">
        <ele>406.26</ele>
        <time>2024-09-25T13:04:12.000Z</time>
      </trkpt>
      <trkpt lat="42.19775" lon="2.49037">
        <ele>406.46</ele>
        <time>2024-09-25T13:04:17.000Z</time>
      </trkpt>
      <trkpt lat="42.19763" lon="2.49039">
        <ele>406.65</ele>
        <time>2024-09-25T13:04:22.000Z</time>
      </trkpt>
      <trkpt lat="42.1975" lon="2.49043">
        <ele>406.84</ele>
        <time>2024-09-25T13:04:27.000Z</time>
      </trkpt>
      <trkpt lat="42.19739" lon="2.49044">
        <ele>407.03</ele>
        <time>2024-09-25T13:04:32.000Z</time>
      </trkpt>
      <trkpt lat="42.19725" lon="2.49043">
        <ele>407.22</ele>
        <time>2024-09-25T13:04:37.000Z</time>
      </trkpt>
      <trkpt lat="42.19708" lon="2.49039">
        <ele>407.41</ele>
        <time>2024-09-25T13:04:42.000Z</time>
      </trkpt>
      <trkpt lat="42.19694" lon="2.49038">
        <ele>407.61</ele>
        <time>2024-09-25T13:04:47.000Z</time>
      </trkpt>
      <trkpt lat="42.19679" lon="2.4904">
        <ele>407.81</ele>
        <time>2024-09-25T13:04:52.000Z</time>
      </trkpt>
      <trkpt lat="42.19664" lon="2.49049">
        <ele>408.37</ele>
        <time>2024-09-25T13:04:57.000Z</time>
      </trkpt>
      <trkpt lat="42.19644" lon="2.49056">
        <ele>409.71</ele>
        <time>2024-09-25T13:05:02.000Z</time>
      </trkpt>
      <trkpt lat="42.19626" lon="2.49061">
        <ele>409.84</ele>
        <time>2024-09-25T13:05:07.000Z</time>
      </trkpt>
      <trkpt lat="42.19614" lon="2.49061">
        <ele>409.92</ele>
        <time>2024-09-25T13:05:12.000Z</time>
      </trkpt>
      <trkpt lat="42.196" lon="2.49063">
        <ele>410.15</ele>
        <time>2024-09-25T13:05:17.000Z</time>
      </trkpt>
      <trkpt lat="42.1959" lon="2.49064">
        <ele>410.61</ele>
        <time>2024-09-25T13:05:22.000Z</time>
      </trkpt>
      <trkpt lat="42.19581" lon="2.49066">
        <ele>411.36</ele>
        <time>2024-09-25T13:05:28.000Z</time>
      </trkpt>
      <trkpt lat="42.19571" lon="2.49068">
        <ele>412.39</ele>
        <time>2024-09-25T13:05:35.000Z</time>
      </trkpt>
      <trkpt lat="42.19561" lon="2.49071">
        <ele>413.29</ele>
        <time>2024-09-25T13:05:41.000Z</time>
      </trkpt>
      <trkpt lat="42.19551" lon="2.49074">
        <ele>414.18</ele>
        <time>2024-09-25T13:05:47.000Z</time>
      </trkpt>
      <trkpt lat="42.1954" lon="2.49078">
        <ele>415.08</ele>
        <time>2024-09-25T13:05:53.000Z</time>
      </trkpt>
      <trkpt lat="42.1953" lon="2.49079">
        <ele>415.99</ele>
        <time>2024-09-25T13:05:59.000Z</time>
      </trkpt>
      <trkpt lat="42.19523" lon="2.4907">
        <ele>416.88</ele>
        <time>2024-09-25T13:06:05.000Z</time>
      </trkpt>
      <trkpt lat="42.19517" lon="2.49059">
        <ele>417.95</ele>
        <time>2024-09-25T13:06:13.000Z</time>
      </trkpt>
      <trkpt lat="42.19511" lon="2.4905">
        <ele>418.7</ele>
        <time>2024-09-25T13:06:19.000Z</time>
      </trkpt>
      <trkpt lat="42.19503" lon="2.49044">
        <ele>419.39</ele>
        <time>2024-09-25T13:06:25.000Z</time>
      </trkpt>
      <trkpt lat="42.19495" lon="2.49034">
        <ele>420.14</ele>
        <time>2024-09-25T13:06:32.000Z</time>
      </trkpt>
      <trkpt lat="42.19485" lon="2.49026">
        <ele>420.64</ele>
        <time>2024-09-25T13:06:37.000Z</time>
      </trkpt>
      <trkpt lat="42.19476" lon="2.49018">
        <ele>421.2</ele>
        <time>2024-09-25T13:06:43.000Z</time>
      </trkpt>
      <trkpt lat="42.19472" lon="2.49006">
        <ele>421.73</ele>
        <time>2024-09-25T13:06:49.000Z</time>
      </trkpt>
      <trkpt lat="42.19471" lon="2.48992">
        <ele>423.15</ele>
        <time>2024-09-25T13:07:33.000Z</time>
      </trkpt>
      <trkpt lat="42.1948" lon="2.48987">
        <ele>423.97</ele>
        <time>2024-09-25T13:07:40.000Z</time>
      </trkpt>
      <trkpt lat="42.19494" lon="2.48986">
        <ele>424.51</ele>
        <time>2024-09-25T13:07:45.000Z</time>
      </trkpt>
      <trkpt lat="42.19514" lon="2.48982">
        <ele>426.94</ele>
        <time>2024-09-25T13:07:50.000Z</time>
      </trkpt>
      <trkpt lat="42.19536" lon="2.48974">
        <ele>428.9</ele>
        <time>2024-09-25T13:07:55.000Z</time>
      </trkpt>
      <trkpt lat="42.19555" lon="2.48968">
        <ele>429.5</ele>
        <time>2024-09-25T13:08:00.000Z</time>
      </trkpt>
      <trkpt lat="42.19563" lon="2.4896">
        <ele>429.56</ele>
        <time>2024-09-25T13:08:05.000Z</time>
      </trkpt>
      <trkpt lat="42.19566" lon="2.48939">
        <ele>429.61</ele>
        <time>2024-09-25T13:08:10.000Z</time>
      </trkpt>
      <trkpt lat="42.19561" lon="2.48923">
        <ele>429.68</ele>
        <time>2024-09-25T13:08:15.000Z</time>
      </trkpt>
      <trkpt lat="42.19558" lon="2.48908">
        <ele>429.76</ele>
        <time>2024-09-25T13:08:20.000Z</time>
      </trkpt>
      <trkpt lat="42.19556" lon="2.48893">
        <ele>429.88</ele>
        <time>2024-09-25T13:08:25.000Z</time>
      </trkpt>
      <trkpt lat="42.19551" lon="2.48875">
        <ele>430.03</ele>
        <time>2024-09-25T13:08:30.000Z</time>
      </trkpt>
      <trkpt lat="42.19546" lon="2.48856">
        <ele>430.19</ele>
        <time>2024-09-25T13:08:35.000Z</time>
      </trkpt>
      <trkpt lat="42.19541" lon="2.48837">
        <ele>430.39</ele>
        <time>2024-09-25T13:08:40.000Z</time>
      </trkpt>
      <trkpt lat="42.19537" lon="2.48821">
        <ele>430.6</ele>
        <time>2024-09-25T13:08:45.000Z</time>
      </trkpt>
      <trkpt lat="42.19533" lon="2.48806">
        <ele>430.83</ele>
        <time>2024-09-25T13:08:50.000Z</time>
      </trkpt>
      <trkpt lat="42.19527" lon="2.48788">
        <ele>431.08</ele>
        <time>2024-09-25T13:08:55.000Z</time>
      </trkpt>
      <trkpt lat="42.19521" lon="2.4877">
        <ele>431.33</ele>
        <time>2024-09-25T13:09:00.000Z</time>
      </trkpt>
      <trkpt lat="42.19517" lon="2.48753">
        <ele>431.59</ele>
        <time>2024-09-25T13:09:05.000Z</time>
      </trkpt>
      <trkpt lat="42.19511" lon="2.48735">
        <ele>431.85</ele>
        <time>2024-09-25T13:09:10.000Z</time>
      </trkpt>
      <trkpt lat="42.19505" lon="2.48715">
        <ele>432.11</ele>
        <time>2024-09-25T13:09:15.000Z</time>
      </trkpt>
      <trkpt lat="42.19499" lon="2.48697">
        <ele>432.37</ele>
        <time>2024-09-25T13:09:20.000Z</time>
      </trkpt>
      <trkpt lat="42.19495" lon="2.4868">
        <ele>432.61</ele>
        <time>2024-09-25T13:09:25.000Z</time>
      </trkpt>
      <trkpt lat="42.19488" lon="2.48659">
        <ele>432.86</ele>
        <time>2024-09-25T13:09:30.000Z</time>
      </trkpt>
      <trkpt lat="42.19482" lon="2.48638">
        <ele>433.11</ele>
        <time>2024-09-25T13:09:35.000Z</time>
      </trkpt>
      <trkpt lat="42.19476" lon="2.48618">
        <ele>433.37</ele>
        <time>2024-09-25T13:09:40.000Z</time>
      </trkpt>
      <trkpt lat="42.1947" lon="2.48598">
        <ele>433.64</ele>
        <time>2024-09-25T13:09:45.000Z</time>
      </trkpt>
      <trkpt lat="42.19464" lon="2.48577">
        <ele>433.94</ele>
        <time>2024-09-25T13:09:50.000Z</time>
      </trkpt>
      <trkpt lat="42.19459" lon="2.48556">
        <ele>434.24</ele>
        <time>2024-09-25T13:09:55.000Z</time>
      </trkpt>
      <trkpt lat="42.19452" lon="2.48534">
        <ele>435.07</ele>
        <time>2024-09-25T13:10:00.000Z</time>
      </trkpt>
      <trkpt lat="42.19445" lon="2.4851">
        <ele>435.71</ele>
        <time>2024-09-25T13:10:05.000Z</time>
      </trkpt>
      <trkpt lat="42.1944" lon="2.48484">
        <ele>436.98</ele>
        <time>2024-09-25T13:10:10.000Z</time>
      </trkpt>
      <trkpt lat="42.19433" lon="2.48456">
        <ele>438.09</ele>
        <time>2024-09-25T13:10:15.000Z</time>
      </trkpt>
      <trkpt lat="42.19426" lon="2.4843">
        <ele>438.57</ele>
        <time>2024-09-25T13:10:20.000Z</time>
      </trkpt>
      <trkpt lat="42.19418" lon="2.48405">
        <ele>438.89</ele>
        <time>2024-09-25T13:10:25.000Z</time>
      </trkpt>
      <trkpt lat="42.19408" lon="2.4838">
        <ele>439.2</ele>
        <time>2024-09-25T13:10:30.000Z</time>
      </trkpt>
      <trkpt lat="42.19396" lon="2.48354">
        <ele>439.64</ele>
        <time>2024-09-25T13:10:35.000Z</time>
      </trkpt>
      <trkpt lat="42.19384" lon="2.4833">
        <ele>439.97</ele>
        <time>2024-09-25T13:10:40.000Z</time>
      </trkpt>
      <trkpt lat="42.19371" lon="2.48306">
        <ele>440.23</ele>
        <time>2024-09-25T13:10:45.000Z</time>
      </trkpt>
      <trkpt lat="42.19357" lon="2.48283">
        <ele>440.39</ele>
        <time>2024-09-25T13:10:50.000Z</time>
      </trkpt>
      <trkpt lat="42.19341" lon="2.48263">
        <ele>440.55</ele>
        <time>2024-09-25T13:10:55.000Z</time>
      </trkpt>
      <trkpt lat="42.19327" lon="2.48246">
        <ele>440.6</ele>
        <time>2024-09-25T13:11:00.000Z</time>
      </trkpt>
      <trkpt lat="42.19316" lon="2.48243">
        <ele>440.61</ele>
        <time>2024-09-25T13:11:05.000Z</time>
      </trkpt>
      <trkpt lat="42.19309" lon="2.48233">
        <ele>440.62</ele>
        <time>2024-09-25T13:11:25.000Z</time>
      </trkpt>
      <trkpt lat="42.19309" lon="2.48218">
        <ele>440.65</ele>
        <time>2024-09-25T13:11:31.000Z</time>
      </trkpt>
      <trkpt lat="42.19301" lon="2.48198">
        <ele>440.69</ele>
        <time>2024-09-25T13:11:36.000Z</time>
      </trkpt>
      <trkpt lat="42.19287" lon="2.48196">
        <ele>440.71</ele>
        <time>2024-09-25T13:11:41.000Z</time>
      </trkpt>
      <trkpt lat="42.19278" lon="2.48192">
        <ele>440.72</ele>
        <time>2024-09-25T13:11:47.000Z</time>
      </trkpt>
      <trkpt lat="42.19269" lon="2.48188">
        <ele>440.74</ele>
        <time>2024-09-25T13:12:09.000Z</time>
      </trkpt>
      <trkpt lat="42.1926" lon="2.48176">
        <ele>440.76</ele>
        <time>2024-09-25T13:12:14.000Z</time>
      </trkpt>
      <trkpt lat="42.19245" lon="2.4816">
        <ele>440.78</ele>
        <time>2024-09-25T13:12:19.000Z</time>
      </trkpt>
      <trkpt lat="42.1923" lon="2.48144">
        <ele>441</ele>
        <time>2024-09-25T13:12:24.000Z</time>
      </trkpt>
      <trkpt lat="42.19214" lon="2.48124">
        <ele>441.17</ele>
        <time>2024-09-25T13:12:29.000Z</time>
      </trkpt>
      <trkpt lat="42.19201" lon="2.48104">
        <ele>441.27</ele>
        <time>2024-09-25T13:12:34.000Z</time>
      </trkpt>
      <trkpt lat="42.19186" lon="2.48082">
        <ele>441.53</ele>
        <time>2024-09-25T13:12:39.000Z</time>
      </trkpt>
      <trkpt lat="42.19169" lon="2.48061">
        <ele>441.66</ele>
        <time>2024-09-25T13:12:44.000Z</time>
      </trkpt>
      <trkpt lat="42.19153" lon="2.48041">
        <ele>441.72</ele>
        <time>2024-09-25T13:12:49.000Z</time>
      </trkpt>
      <trkpt lat="42.19136" lon="2.48023">
        <ele>441.76</ele>
        <time>2024-09-25T13:12:54.000Z</time>
      </trkpt>
      <trkpt lat="42.19122" lon="2.48008">
        <ele>441.77</ele>
        <time>2024-09-25T13:12:59.000Z</time>
      </trkpt>
      <trkpt lat="42.19106" lon="2.47991">
        <ele>441.8</ele>
        <time>2024-09-25T13:13:04.000Z</time>
      </trkpt>
      <trkpt lat="42.19088" lon="2.47973">
        <ele>441.85</ele>
        <time>2024-09-25T13:13:09.000Z</time>
      </trkpt>
      <trkpt lat="42.19071" lon="2.47953">
        <ele>441.9</ele>
        <time>2024-09-25T13:13:14.000Z</time>
      </trkpt>
      <trkpt lat="42.19054" lon="2.47932">
        <ele>441.93</ele>
        <time>2024-09-25T13:13:19.000Z</time>
      </trkpt>
      <trkpt lat="42.1904" lon="2.47908">
        <ele>441.97</ele>
        <time>2024-09-25T13:13:24.000Z</time>
      </trkpt>
      <trkpt lat="42.1903" lon="2.47884">
        <ele>442.01</ele>
        <time>2024-09-25T13:13:29.000Z</time>
      </trkpt>
      <trkpt lat="42.19021" lon="2.4786">
        <ele>442.06</ele>
        <time>2024-09-25T13:13:34.000Z</time>
      </trkpt>
      <trkpt lat="42.19011" lon="2.47842">
        <ele>442.08</ele>
        <time>2024-09-25T13:13:39.000Z</time>
      </trkpt>
      <trkpt lat="42.19005" lon="2.4783">
        <ele>442.12</ele>
        <time>2024-09-25T13:13:44.000Z</time>
      </trkpt>
      <trkpt lat="42.19008" lon="2.47817">
        <ele>442.18</ele>
        <time>2024-09-25T13:13:50.000Z</time>
      </trkpt>
      <trkpt lat="42.19012" lon="2.47806">
        <ele>442.29</ele>
        <time>2024-09-25T13:14:06.000Z</time>
      </trkpt>
      <trkpt lat="42.19015" lon="2.47792">
        <ele>442.38</ele>
        <time>2024-09-25T13:14:13.000Z</time>
      </trkpt>
      <trkpt lat="42.19028" lon="2.47775">
        <ele>442.51</ele>
        <time>2024-09-25T13:14:18.000Z</time>
      </trkpt>
      <trkpt lat="42.19046" lon="2.47766">
        <ele>442.65</ele>
        <time>2024-09-25T13:14:23.000Z</time>
      </trkpt>
      <trkpt lat="42.19066" lon="2.47757">
        <ele>442.83</ele>
        <time>2024-09-25T13:14:28.000Z</time>
      </trkpt>
      <trkpt lat="42.1909" lon="2.47745">
        <ele>442.94</ele>
        <time>2024-09-25T13:14:33.000Z</time>
      </trkpt>
      <trkpt lat="42.19114" lon="2.47729">
        <ele>442.95</ele>
        <time>2024-09-25T13:14:38.000Z</time>
      </trkpt>
      <trkpt lat="42.19141" lon="2.47713">
        <ele>442.84</ele>
        <time>2024-09-25T13:14:43.000Z</time>
      </trkpt>
      <trkpt lat="42.19169" lon="2.47696">
        <ele>442.76</ele>
        <time>2024-09-25T13:14:48.000Z</time>
      </trkpt>
      <trkpt lat="42.19195" lon="2.47678">
        <ele>442.71</ele>
        <time>2024-09-25T13:14:53.000Z</time>
      </trkpt>
      <trkpt lat="42.19221" lon="2.47664">
        <ele>442.66</ele>
        <time>2024-09-25T13:14:58.000Z</time>
      </trkpt>
      <trkpt lat="42.19247" lon="2.47649">
        <ele>442.68</ele>
        <time>2024-09-25T13:15:03.000Z</time>
      </trkpt>
      <trkpt lat="42.19271" lon="2.47636">
        <ele>442.81</ele>
        <time>2024-09-25T13:15:08.000Z</time>
      </trkpt>
      <trkpt lat="42.19288" lon="2.47629">
        <ele>442.88</ele>
        <time>2024-09-25T13:15:13.000Z</time>
      </trkpt>
      <trkpt lat="42.19305" lon="2.47619">
        <ele>442.92</ele>
        <time>2024-09-25T13:15:18.999Z</time>
      </trkpt>
      <trkpt lat="42.19315" lon="2.47611">
        <ele>442.97</ele>
        <time>2024-09-25T13:15:23.999Z</time>
      </trkpt>
      <trkpt lat="42.19324" lon="2.476">
        <ele>443.03</ele>
        <time>2024-09-25T13:15:28.999Z</time>
      </trkpt>
      <trkpt lat="42.19331" lon="2.47588">
        <ele>443.09</ele>
        <time>2024-09-25T13:15:33.999Z</time>
      </trkpt>
      <trkpt lat="42.19337" lon="2.47574">
        <ele>443.15</ele>
        <time>2024-09-25T13:15:38.999Z</time>
      </trkpt>
      <trkpt lat="42.1934" lon="2.47559">
        <ele>443.22</ele>
        <time>2024-09-25T13:15:43.999Z</time>
      </trkpt>
      <trkpt lat="42.19341" lon="2.47546">
        <ele>443.3</ele>
        <time>2024-09-25T13:15:48.999Z</time>
      </trkpt>
      <trkpt lat="42.1934" lon="2.47531">
        <ele>443.41</ele>
        <time>2024-09-25T13:15:53.999Z</time>
      </trkpt>
      <trkpt lat="42.19338" lon="2.47517">
        <ele>443.53</ele>
        <time>2024-09-25T13:15:58.999Z</time>
      </trkpt>
      <trkpt lat="42.19335" lon="2.47503">
        <ele>443.66</ele>
        <time>2024-09-25T13:16:03.999Z</time>
      </trkpt>
      <trkpt lat="42.19333" lon="2.4749">
        <ele>443.82</ele>
        <time>2024-09-25T13:16:08.999Z</time>
      </trkpt>
      <trkpt lat="42.19333" lon="2.47476">
        <ele>443.99</ele>
        <time>2024-09-25T13:16:13.999Z</time>
      </trkpt>
      <trkpt lat="42.19331" lon="2.47463">
        <ele>444.17</ele>
        <time>2024-09-25T13:16:18.999Z</time>
      </trkpt>
      <trkpt lat="42.19329" lon="2.47448">
        <ele>444.36</ele>
        <time>2024-09-25T13:16:23.999Z</time>
      </trkpt>
      <trkpt lat="42.19327" lon="2.47435">
        <ele>444.55</ele>
        <time>2024-09-25T13:16:28.999Z</time>
      </trkpt>
      <trkpt lat="42.19324" lon="2.47422">
        <ele>444.79</ele>
        <time>2024-09-25T13:16:34.999Z</time>
      </trkpt>
      <trkpt lat="42.19323" lon="2.47409">
        <ele>445.03</ele>
        <time>2024-09-25T13:16:40.999Z</time>
      </trkpt>
      <trkpt lat="42.19324" lon="2.47396">
        <ele>445.3</ele>
        <time>2024-09-25T13:16:47.999Z</time>
      </trkpt>
      <trkpt lat="42.19322" lon="2.47382">
        <ele>445.52</ele>
        <time>2024-09-25T13:16:53.999Z</time>
      </trkpt>
      <trkpt lat="42.1932" lon="2.47368">
        <ele>445.78</ele>
        <time>2024-09-25T13:17:00.999Z</time>
      </trkpt>
      <trkpt lat="42.19322" lon="2.47353">
        <ele>446.01</ele>
        <time>2024-09-25T13:17:06.999Z</time>
      </trkpt>
      <trkpt lat="42.19322" lon="2.47341">
        <ele>446.2</ele>
        <time>2024-09-25T13:17:11.999Z</time>
      </trkpt>
      <trkpt lat="42.19323" lon="2.47328">
        <ele>446.43</ele>
        <time>2024-09-25T13:17:17.999Z</time>
      </trkpt>
      <trkpt lat="42.19324" lon="2.47315">
        <ele>446.66</ele>
        <time>2024-09-25T13:17:23.999Z</time>
      </trkpt>
      <trkpt lat="42.19327" lon="2.47301">
        <ele>446.9</ele>
        <time>2024-09-25T13:17:29.999Z</time>
      </trkpt>
      <trkpt lat="42.1933" lon="2.47288">
        <ele>447.13</ele>
        <time>2024-09-25T13:17:35.999Z</time>
      </trkpt>
      <trkpt lat="42.19332" lon="2.47275">
        <ele>447.36</ele>
        <time>2024-09-25T13:17:41.999Z</time>
      </trkpt>
      <trkpt lat="42.19335" lon="2.47262">
        <ele>447.6</ele>
        <time>2024-09-25T13:17:47.999Z</time>
      </trkpt>
      <trkpt lat="42.19337" lon="2.47249">
        <ele>447.85</ele>
        <time>2024-09-25T13:17:53.999Z</time>
      </trkpt>
      <trkpt lat="42.19339" lon="2.47235">
        <ele>448.1</ele>
        <time>2024-09-25T13:17:59.999Z</time>
      </trkpt>
      <trkpt lat="42.1934" lon="2.47222">
        <ele>448.36</ele>
        <time>2024-09-25T13:18:05.999Z</time>
      </trkpt>
      <trkpt lat="42.19343" lon="2.47208">
        <ele>448.62</ele>
        <time>2024-09-25T13:18:11.999Z</time>
      </trkpt>
      <trkpt lat="42.19345" lon="2.47195">
        <ele>448.88</ele>
        <time>2024-09-25T13:18:17.999Z</time>
      </trkpt>
      <trkpt lat="42.19347" lon="2.47181">
        <ele>449.2</ele>
        <time>2024-09-25T13:18:24.999Z</time>
      </trkpt>
      <trkpt lat="42.19349" lon="2.47169">
        <ele>449.46</ele>
        <time>2024-09-25T13:18:30.999Z</time>
      </trkpt>
      <trkpt lat="42.19351" lon="2.47156">
        <ele>449.82</ele>
        <time>2024-09-25T13:18:37.999Z</time>
      </trkpt>
      <trkpt lat="42.19353" lon="2.47142">
        <ele>450.12</ele>
        <time>2024-09-25T13:18:43.999Z</time>
      </trkpt>
      <trkpt lat="42.19354" lon="2.47129">
        <ele>450.38</ele>
        <time>2024-09-25T13:18:48.999Z</time>
      </trkpt>
      <trkpt lat="42.19355" lon="2.47117">
        <ele>450.64</ele>
        <time>2024-09-25T13:18:53.999Z</time>
      </trkpt>
      <trkpt lat="42.19354" lon="2.47102">
        <ele>450.94</ele>
        <time>2024-09-25T13:18:59.999Z</time>
      </trkpt>
      <trkpt lat="42.19352" lon="2.4709">
        <ele>451.19</ele>
        <time>2024-09-25T13:19:04.999Z</time>
      </trkpt>
      <trkpt lat="42.1935" lon="2.47076">
        <ele>451.45</ele>
        <time>2024-09-25T13:19:09.999Z</time>
      </trkpt>
      <trkpt lat="42.19349" lon="2.47063">
        <ele>451.7</ele>
        <time>2024-09-25T13:19:14.999Z</time>
      </trkpt>
      <trkpt lat="42.19349" lon="2.47049">
        <ele>452</ele>
        <time>2024-09-25T13:19:20.999Z</time>
      </trkpt>
      <trkpt lat="42.19349" lon="2.47035">
        <ele>452.28</ele>
        <time>2024-09-25T13:19:26.999Z</time>
      </trkpt>
      <trkpt lat="42.19347" lon="2.4702">
        <ele>452.51</ele>
        <time>2024-09-25T13:19:31.999Z</time>
      </trkpt>
      <trkpt lat="42.19345" lon="2.47008">
        <ele>452.73</ele>
        <time>2024-09-25T13:19:36.999Z</time>
      </trkpt>
      <trkpt lat="42.19343" lon="2.46995">
        <ele>452.96</ele>
        <time>2024-09-25T13:19:41.999Z</time>
      </trkpt>
      <trkpt lat="42.19342" lon="2.46981">
        <ele>453.17</ele>
        <time>2024-09-25T13:19:46.999Z</time>
      </trkpt>
      <trkpt lat="42.19341" lon="2.46967">
        <ele>453.38</ele>
        <time>2024-09-25T13:19:51.999Z</time>
      </trkpt>
      <trkpt lat="42.1934" lon="2.46954">
        <ele>453.66</ele>
        <time>2024-09-25T13:19:57.999Z</time>
      </trkpt>
      <trkpt lat="42.19341" lon="2.46941">
        <ele>453.91</ele>
        <time>2024-09-25T13:20:02.999Z</time>
      </trkpt>
      <trkpt lat="42.19343" lon="2.46927">
        <ele>454.18</ele>
        <time>2024-09-25T13:20:07.999Z</time>
      </trkpt>
      <trkpt lat="42.19346" lon="2.46915">
        <ele>454.46</ele>
        <time>2024-09-25T13:20:12.999Z</time>
      </trkpt>
      <trkpt lat="42.19347" lon="2.46901">
        <ele>454.83</ele>
        <time>2024-09-25T13:20:18.999Z</time>
      </trkpt>
      <trkpt lat="42.19353" lon="2.46887">
        <ele>455.17</ele>
        <time>2024-09-25T13:20:23.999Z</time>
      </trkpt>
      <trkpt lat="42.19358" lon="2.46875">
        <ele>455.52</ele>
        <time>2024-09-25T13:20:28.999Z</time>
      </trkpt>
      <trkpt lat="42.19363" lon="2.46862">
        <ele>455.88</ele>
        <time>2024-09-25T13:20:33.999Z</time>
      </trkpt>
      <trkpt lat="42.19366" lon="2.46851">
        <ele>456.24</ele>
        <time>2024-09-25T13:20:38.999Z</time>
      </trkpt>
      <trkpt lat="42.19371" lon="2.4684">
        <ele>456.6</ele>
        <time>2024-09-25T13:20:43.999Z</time>
      </trkpt>
      <trkpt lat="42.19375" lon="2.46829">
        <ele>456.96</ele>
        <time>2024-09-25T13:20:48.999Z</time>
      </trkpt>
      <trkpt lat="42.1938" lon="2.46816">
        <ele>457.32</ele>
        <time>2024-09-25T13:20:53.999Z</time>
      </trkpt>
      <trkpt lat="42.19385" lon="2.46805">
        <ele>457.68</ele>
        <time>2024-09-25T13:20:58.999Z</time>
      </trkpt>
      <trkpt lat="42.19389" lon="2.46794">
        <ele>458.03</ele>
        <time>2024-09-25T13:21:03.999Z</time>
      </trkpt>
      <trkpt lat="42.19393" lon="2.46782">
        <ele>458.37</ele>
        <time>2024-09-25T13:21:08.999Z</time>
      </trkpt>
      <trkpt lat="42.19396" lon="2.46768">
        <ele>458.79</ele>
        <time>2024-09-25T13:21:14.999Z</time>
      </trkpt>
      <trkpt lat="42.19397" lon="2.46755">
        <ele>459.16</ele>
        <time>2024-09-25T13:21:19.999Z</time>
      </trkpt>
      <trkpt lat="42.19401" lon="2.46744">
        <ele>459.64</ele>
        <time>2024-09-25T13:21:25.999Z</time>
      </trkpt>
      <trkpt lat="42.19405" lon="2.46732">
        <ele>460.06</ele>
        <time>2024-09-25T13:21:30.999Z</time>
      </trkpt>
      <trkpt lat="42.19411" lon="2.46723">
        <ele>460.54</ele>
        <time>2024-09-25T13:21:35.999Z</time>
      </trkpt>
      <trkpt lat="42.19419" lon="2.46714">
        <ele>461.21</ele>
        <time>2024-09-25T13:21:41.999Z</time>
      </trkpt>
      <trkpt lat="42.19429" lon="2.46708">
        <ele>461.99</ele>
        <time>2024-09-25T13:21:47.999Z</time>
      </trkpt>
      <trkpt lat="42.19438" lon="2.46705">
        <ele>462.9</ele>
        <time>2024-09-25T13:21:53.999Z</time>
      </trkpt>
      <trkpt lat="42.19446" lon="2.46701">
        <ele>468.91</ele>
        <time>2024-09-25T13:23:08.999Z</time>
      </trkpt>
      <trkpt lat="42.19455" lon="2.46693">
        <ele>471.51</ele>
        <time>2024-09-25T13:23:22.999Z</time>
      </trkpt>
      <trkpt lat="42.19466" lon="2.46691">
        <ele>472.62</ele>
        <time>2024-09-25T13:23:27.999Z</time>
      </trkpt>
      <trkpt lat="42.19475" lon="2.46689">
        <ele>473.65</ele>
        <time>2024-09-25T13:23:32.999Z</time>
      </trkpt>
      <trkpt lat="42.19485" lon="2.46685">
        <ele>474.62</ele>
        <time>2024-09-25T13:23:37.999Z</time>
      </trkpt>
      <trkpt lat="42.19494" lon="2.46678">
        <ele>475.7</ele>
        <time>2024-09-25T13:23:43.999Z</time>
      </trkpt>
      <trkpt lat="42.19501" lon="2.46666">
        <ele>476.54</ele>
        <time>2024-09-25T13:23:48.999Z</time>
      </trkpt>
      <trkpt lat="42.19506" lon="2.46652">
        <ele>477.34</ele>
        <time>2024-09-25T13:23:53.999Z</time>
      </trkpt>
      <trkpt lat="42.19509" lon="2.46637">
        <ele>478.1</ele>
        <time>2024-09-25T13:23:58.999Z</time>
      </trkpt>
      <trkpt lat="42.19508" lon="2.46622">
        <ele>478.83</ele>
        <time>2024-09-25T13:24:03.999Z</time>
      </trkpt>
      <trkpt lat="42.19506" lon="2.46607">
        <ele>479.52</ele>
        <time>2024-09-25T13:24:08.999Z</time>
      </trkpt>
      <trkpt lat="42.19502" lon="2.46593">
        <ele>480.19</ele>
        <time>2024-09-25T13:24:13.999Z</time>
      </trkpt>
      <trkpt lat="42.19497" lon="2.46581">
        <ele>480.84</ele>
        <time>2024-09-25T13:24:18.999Z</time>
      </trkpt>
      <trkpt lat="42.19492" lon="2.46567">
        <ele>481.48</ele>
        <time>2024-09-25T13:24:23.999Z</time>
      </trkpt>
      <trkpt lat="42.19486" lon="2.46554">
        <ele>482.1</ele>
        <time>2024-09-25T13:24:28.999Z</time>
      </trkpt>
      <trkpt lat="42.19481" lon="2.4654">
        <ele>482.69</ele>
        <time>2024-09-25T13:24:33.999Z</time>
      </trkpt>
      <trkpt lat="42.19477" lon="2.46526">
        <ele>483.29</ele>
        <time>2024-09-25T13:24:38.999Z</time>
      </trkpt>
      <trkpt lat="42.19475" lon="2.46513">
        <ele>484.06</ele>
        <time>2024-09-25T13:24:44.999Z</time>
      </trkpt>
      <trkpt lat="42.19472" lon="2.46501">
        <ele>484.88</ele>
        <time>2024-09-25T13:24:50.999Z</time>
      </trkpt>
      <trkpt lat="42.1947" lon="2.46489">
        <ele>485.57</ele>
        <time>2024-09-25T13:24:55.999Z</time>
      </trkpt>
      <trkpt lat="42.19467" lon="2.46475">
        <ele>486.38</ele>
        <time>2024-09-25T13:25:01.999Z</time>
      </trkpt>
      <trkpt lat="42.19465" lon="2.46462">
        <ele>487.05</ele>
        <time>2024-09-25T13:25:06.999Z</time>
      </trkpt>
      <trkpt lat="42.19462" lon="2.46449">
        <ele>487.72</ele>
        <time>2024-09-25T13:25:11.999Z</time>
      </trkpt>
      <trkpt lat="42.19459" lon="2.46436">
        <ele>488.41</ele>
        <time>2024-09-25T13:25:16.999Z</time>
      </trkpt>
      <trkpt lat="42.19456" lon="2.46423">
        <ele>489.08</ele>
        <time>2024-09-25T13:25:21.999Z</time>
      </trkpt>
      <trkpt lat="42.19454" lon="2.46411">
        <ele>489.74</ele>
        <time>2024-09-25T13:25:26.999Z</time>
      </trkpt>
      <trkpt lat="42.19452" lon="2.46397">
        <ele>490.37</ele>
        <time>2024-09-25T13:25:31.999Z</time>
      </trkpt>
      <trkpt lat="42.19451" lon="2.46383">
        <ele>490.98</ele>
        <time>2024-09-25T13:25:36.999Z</time>
      </trkpt>
      <trkpt lat="42.19452" lon="2.4637">
        <ele>491.57</ele>
        <time>2024-09-25T13:25:41.999Z</time>
      </trkpt>
      <trkpt lat="42.19454" lon="2.46357">
        <ele>492.15</ele>
        <time>2024-09-25T13:25:46.999Z</time>
      </trkpt>
      <trkpt lat="42.19456" lon="2.46344">
        <ele>492.75</ele>
        <time>2024-09-25T13:25:51.999Z</time>
      </trkpt>
      <trkpt lat="42.19459" lon="2.46332">
        <ele>493.36</ele>
        <time>2024-09-25T13:25:56.999Z</time>
      </trkpt>
      <trkpt lat="42.19462" lon="2.46319">
        <ele>493.94</ele>
        <time>2024-09-25T13:26:01.999Z</time>
      </trkpt>
      <trkpt lat="42.19465" lon="2.46307">
        <ele>494.5</ele>
        <time>2024-09-25T13:26:06.999Z</time>
      </trkpt>
      <trkpt lat="42.19466" lon="2.46293">
        <ele>495.13</ele>
        <time>2024-09-25T13:26:12.999Z</time>
      </trkpt>
      <trkpt lat="42.19463" lon="2.46276">
        <ele>495.62</ele>
        <time>2024-09-25T13:26:17.999Z</time>
      </trkpt>
      <trkpt lat="42.19461" lon="2.46259">
        <ele>496.09</ele>
        <time>2024-09-25T13:26:22.999Z</time>
      </trkpt>
      <trkpt lat="42.1946" lon="2.46246">
        <ele>496.54</ele>
        <time>2024-09-25T13:26:27.999Z</time>
      </trkpt>
      <trkpt lat="42.19459" lon="2.46232">
        <ele>496.96</ele>
        <time>2024-09-25T13:26:32.999Z</time>
      </trkpt>
      <trkpt lat="42.19458" lon="2.46216">
        <ele>497.37</ele>
        <time>2024-09-25T13:26:37.999Z</time>
      </trkpt>
      <trkpt lat="42.19457" lon="2.46201">
        <ele>497.77</ele>
        <time>2024-09-25T13:26:42.999Z</time>
      </trkpt>
      <trkpt lat="42.19458" lon="2.4618">
        <ele>498.17</ele>
        <time>2024-09-25T13:26:47.999Z</time>
      </trkpt>
      <trkpt lat="42.1946" lon="2.46159">
        <ele>498.56</ele>
        <time>2024-09-25T13:26:52.999Z</time>
      </trkpt>
      <trkpt lat="42.19467" lon="2.46141">
        <ele>498.93</ele>
        <time>2024-09-25T13:26:57.999Z</time>
      </trkpt>
      <trkpt lat="42.19475" lon="2.46123">
        <ele>499.3</ele>
        <time>2024-09-25T13:27:02.999Z</time>
      </trkpt>
      <trkpt lat="42.19482" lon="2.46105">
        <ele>499.66</ele>
        <time>2024-09-25T13:27:07.999Z</time>
      </trkpt>
      <trkpt lat="42.19489" lon="2.46087">
        <ele>500.02</ele>
        <time>2024-09-25T13:27:12.999Z</time>
      </trkpt>
      <trkpt lat="42.19495" lon="2.46068">
        <ele>500.38</ele>
        <time>2024-09-25T13:27:18.000Z</time>
      </trkpt>
      <trkpt lat="42.19502" lon="2.46048">
        <ele>500.74</ele>
        <time>2024-09-25T13:27:23.000Z</time>
      </trkpt>
      <trkpt lat="42.19503" lon="2.46029">
        <ele>501.12</ele>
        <time>2024-09-25T13:27:28.000Z</time>
      </trkpt>
      <trkpt lat="42.19494" lon="2.46011">
        <ele>501.57</ele>
        <time>2024-09-25T13:27:33.000Z</time>
      </trkpt>
      <trkpt lat="42.19482" lon="2.45996">
        <ele>502.15</ele>
        <time>2024-09-25T13:27:38.000Z</time>
      </trkpt>
      <trkpt lat="42.19471" lon="2.45979">
        <ele>502.87</ele>
        <time>2024-09-25T13:27:43.000Z</time>
      </trkpt>
      <trkpt lat="42.19464" lon="2.4596">
        <ele>503.67</ele>
        <time>2024-09-25T13:27:48.000Z</time>
      </trkpt>
      <trkpt lat="42.19461" lon="2.45939">
        <ele>504.49</ele>
        <time>2024-09-25T13:27:53.000Z</time>
      </trkpt>
      <trkpt lat="42.19463" lon="2.45914">
        <ele>505.32</ele>
        <time>2024-09-25T13:27:58.000Z</time>
      </trkpt>
      <trkpt lat="42.19466" lon="2.45892">
        <ele>506.16</ele>
        <time>2024-09-25T13:28:03.000Z</time>
      </trkpt>
      <trkpt lat="42.19471" lon="2.4587">
        <ele>506.99</ele>
        <time>2024-09-25T13:28:08.000Z</time>
      </trkpt>
      <trkpt lat="42.19475" lon="2.45848">
        <ele>507.77</ele>
        <time>2024-09-25T13:28:13.000Z</time>
      </trkpt>
      <trkpt lat="42.19475" lon="2.45827">
        <ele>508.53</ele>
        <time>2024-09-25T13:28:18.000Z</time>
      </trkpt>
      <trkpt lat="42.19471" lon="2.45806">
        <ele>509.3</ele>
        <time>2024-09-25T13:28:23.000Z</time>
      </trkpt>
      <trkpt lat="42.19467" lon="2.4579">
        <ele>510.05</ele>
        <time>2024-09-25T13:28:28.000Z</time>
      </trkpt>
      <trkpt lat="42.19465" lon="2.45778">
        <ele>510.78</ele>
        <time>2024-09-25T13:28:33.000Z</time>
      </trkpt>
      <trkpt lat="42.1946" lon="2.45765">
        <ele>511.47</ele>
        <time>2024-09-25T13:28:38.000Z</time>
      </trkpt>
      <trkpt lat="42.19455" lon="2.45754">
        <ele>512.11</ele>
        <time>2024-09-25T13:28:43.000Z</time>
      </trkpt>
      <trkpt lat="42.19447" lon="2.45744">
        <ele>512.71</ele>
        <time>2024-09-25T13:28:48.000Z</time>
      </trkpt>
      <trkpt lat="42.19438" lon="2.45737">
        <ele>513.28</ele>
        <time>2024-09-25T13:28:53.000Z</time>
      </trkpt>
      <trkpt lat="42.19428" lon="2.45733">
        <ele>513.91</ele>
        <time>2024-09-25T13:28:59.000Z</time>
      </trkpt>
      <trkpt lat="42.19418" lon="2.45728">
        <ele>514.4</ele>
        <time>2024-09-25T13:29:04.000Z</time>
      </trkpt>
      <trkpt lat="42.19409" lon="2.45722">
        <ele>514.85</ele>
        <time>2024-09-25T13:29:09.000Z</time>
      </trkpt>
      <trkpt lat="42.194" lon="2.45719">
        <ele>515.25</ele>
        <time>2024-09-25T13:29:14.000Z</time>
      </trkpt>
      <trkpt lat="42.1939" lon="2.45714">
        <ele>515.6</ele>
        <time>2024-09-25T13:29:19.000Z</time>
      </trkpt>
      <trkpt lat="42.19381" lon="2.4571">
        <ele>515.95</ele>
        <time>2024-09-25T13:29:24.000Z</time>
      </trkpt>
      <trkpt lat="42.19372" lon="2.45707">
        <ele>516.31</ele>
        <time>2024-09-25T13:29:29.000Z</time>
      </trkpt>
      <trkpt lat="42.19363" lon="2.45704">
        <ele>516.67</ele>
        <time>2024-09-25T13:29:34.000Z</time>
      </trkpt>
      <trkpt lat="42.19353" lon="2.457">
        <ele>517.07</ele>
        <time>2024-09-25T13:29:39.000Z</time>
      </trkpt>
      <trkpt lat="42.19344" lon="2.45694">
        <ele>517.51</ele>
        <time>2024-09-25T13:29:44.000Z</time>
      </trkpt>
      <trkpt lat="42.19337" lon="2.45684">
        <ele>517.95</ele>
        <time>2024-09-25T13:29:49.000Z</time>
      </trkpt>
      <trkpt lat="42.1933" lon="2.45673">
        <ele>518.38</ele>
        <time>2024-09-25T13:29:54.000Z</time>
      </trkpt>
      <trkpt lat="42.19325" lon="2.4566">
        <ele>518.84</ele>
        <time>2024-09-25T13:29:59.000Z</time>
      </trkpt>
      <trkpt lat="42.19321" lon="2.45645">
        <ele>519.35</ele>
        <time>2024-09-25T13:30:04.000Z</time>
      </trkpt>
      <trkpt lat="42.1932" lon="2.45629">
        <ele>519.9</ele>
        <time>2024-09-25T13:30:09.000Z</time>
      </trkpt>
      <trkpt lat="42.19319" lon="2.45615">
        <ele>520.45</ele>
        <time>2024-09-25T13:30:14.000Z</time>
      </trkpt>
      <trkpt lat="42.19318" lon="2.45601">
        <ele>521</ele>
        <time>2024-09-25T13:30:19.000Z</time>
      </trkpt>
      <trkpt lat="42.19317" lon="2.45587">
        <ele>521.67</ele>
        <time>2024-09-25T13:30:25.000Z</time>
      </trkpt>
      <trkpt lat="42.19316" lon="2.45573">
        <ele>522.34</ele>
        <time>2024-09-25T13:30:31.000Z</time>
      </trkpt>
      <trkpt lat="42.19315" lon="2.45561">
        <ele>522.9</ele>
        <time>2024-09-25T13:30:36.000Z</time>
      </trkpt>
      <trkpt lat="42.19314" lon="2.45547">
        <ele>523.46</ele>
        <time>2024-09-25T13:30:41.000Z</time>
      </trkpt>
      <trkpt lat="42.19313" lon="2.45535">
        <ele>523.99</ele>
        <time>2024-09-25T13:30:46.000Z</time>
      </trkpt>
      <trkpt lat="42.19312" lon="2.45522">
        <ele>524.52</ele>
        <time>2024-09-25T13:30:51.000Z</time>
      </trkpt>
      <trkpt lat="42.19312" lon="2.45508">
        <ele>525.05</ele>
        <time>2024-09-25T13:30:56.000Z</time>
      </trkpt>
      <trkpt lat="42.19315" lon="2.45495">
        <ele>525.57</ele>
        <time>2024-09-25T13:31:01.000Z</time>
      </trkpt>
      <trkpt lat="42.1932" lon="2.45484">
        <ele>526.19</ele>
        <time>2024-09-25T13:31:07.000Z</time>
      </trkpt>
      <trkpt lat="42.19328" lon="2.45476">
        <ele>526.7</ele>
        <time>2024-09-25T13:31:12.000Z</time>
      </trkpt>
      <trkpt lat="42.19336" lon="2.45467">
        <ele>527.2</ele>
        <time>2024-09-25T13:31:17.000Z</time>
      </trkpt>
      <trkpt lat="42.19344" lon="2.45461">
        <ele>527.69</ele>
        <time>2024-09-25T13:31:22.000Z</time>
      </trkpt>
      <trkpt lat="42.19353" lon="2.45451">
        <ele>528.17</ele>
        <time>2024-09-25T13:31:27.000Z</time>
      </trkpt>
      <trkpt lat="42.1936" lon="2.45441">
        <ele>528.64</ele>
        <time>2024-09-25T13:31:32.000Z</time>
      </trkpt>
      <trkpt lat="42.19365" lon="2.45429">
        <ele>529.1</ele>
        <time>2024-09-25T13:31:37.000Z</time>
      </trkpt>
      <trkpt lat="42.19367" lon="2.45415">
        <ele>529.74</ele>
        <time>2024-09-25T13:31:44.000Z</time>
      </trkpt>
      <trkpt lat="42.19368" lon="2.45401">
        <ele>530.18</ele>
        <time>2024-09-25T13:31:49.000Z</time>
      </trkpt>
      <trkpt lat="42.19366" lon="2.45385">
        <ele>530.62</ele>
        <time>2024-09-25T13:31:54.000Z</time>
      </trkpt>
      <trkpt lat="42.19367" lon="2.45372">
        <ele>531.22</ele>
        <time>2024-09-25T13:32:01.000Z</time>
      </trkpt>
      <trkpt lat="42.19364" lon="2.45356">
        <ele>531.65</ele>
        <time>2024-09-25T13:32:06.000Z</time>
      </trkpt>
      <trkpt lat="42.19363" lon="2.45341">
        <ele>532.17</ele>
        <time>2024-09-25T13:32:12.000Z</time>
      </trkpt>
      <trkpt lat="42.19362" lon="2.45326">
        <ele>532.59</ele>
        <time>2024-09-25T13:32:17.000Z</time>
      </trkpt>
      <trkpt lat="42.1936" lon="2.45312">
        <ele>533.01</ele>
        <time>2024-09-25T13:32:22.000Z</time>
      </trkpt>
      <trkpt lat="42.1936" lon="2.45296">
        <ele>533.43</ele>
        <time>2024-09-25T13:32:27.000Z</time>
      </trkpt>
      <trkpt lat="42.19359" lon="2.45279">
        <ele>533.85</ele>
        <time>2024-09-25T13:32:32.000Z</time>
      </trkpt>
      <trkpt lat="42.19357" lon="2.45259">
        <ele>534.26</ele>
        <time>2024-09-25T13:32:37.000Z</time>
      </trkpt>
      <trkpt lat="42.19356" lon="2.45241">
        <ele>534.67</ele>
        <time>2024-09-25T13:32:42.000Z</time>
      </trkpt>
      <trkpt lat="42.19357" lon="2.45222">
        <ele>535.09</ele>
        <time>2024-09-25T13:32:47.000Z</time>
      </trkpt>
      <trkpt lat="42.19356" lon="2.45202">
        <ele>535.51</ele>
        <time>2024-09-25T13:32:52.000Z</time>
      </trkpt>
      <trkpt lat="42.19355" lon="2.45183">
        <ele>535.95</ele>
        <time>2024-09-25T13:32:57.000Z</time>
      </trkpt>
      <trkpt lat="42.19355" lon="2.45164">
        <ele>536.39</ele>
        <time>2024-09-25T13:33:02.000Z</time>
      </trkpt>
      <trkpt lat="42.19354" lon="2.45145">
        <ele>536.82</ele>
        <time>2024-09-25T13:33:07.000Z</time>
      </trkpt>
      <trkpt lat="42.19354" lon="2.45132">
        <ele>537.24</ele>
        <time>2024-09-25T13:33:12.000Z</time>
      </trkpt>
      <trkpt lat="42.19353" lon="2.45119">
        <ele>537.74</ele>
        <time>2024-09-25T13:33:18.000Z</time>
      </trkpt>
      <trkpt lat="42.19352" lon="2.45106">
        <ele>538.16</ele>
        <time>2024-09-25T13:33:23.000Z</time>
      </trkpt>
      <trkpt lat="42.19347" lon="2.4509">
        <ele>538.58</ele>
        <time>2024-09-25T13:33:28.000Z</time>
      </trkpt>
      <trkpt lat="42.19342" lon="2.45076">
        <ele>539.1</ele>
        <time>2024-09-25T13:33:34.000Z</time>
      </trkpt>
      <trkpt lat="42.19338" lon="2.45064">
        <ele>539.54</ele>
        <time>2024-09-25T13:33:39.000Z</time>
      </trkpt>
      <trkpt lat="42.19336" lon="2.45051">
        <ele>539.99</ele>
        <time>2024-09-25T13:33:44.000Z</time>
      </trkpt>
      <trkpt lat="42.19332" lon="2.45038">
        <ele>540.45</ele>
        <time>2024-09-25T13:33:49.000Z</time>
      </trkpt>
      <trkpt lat="42.19328" lon="2.45026">
        <ele>540.91</ele>
        <time>2024-09-25T13:33:54.000Z</time>
      </trkpt>
      <trkpt lat="42.19324" lon="2.45013">
        <ele>541.37</ele>
        <time>2024-09-25T13:33:59.000Z</time>
      </trkpt>
      <trkpt lat="42.19323" lon="2.45">
        <ele>541.85</ele>
        <time>2024-09-25T13:34:04.000Z</time>
      </trkpt>
      <trkpt lat="42.19324" lon="2.44986">
        <ele>542.34</ele>
        <time>2024-09-25T13:34:09.000Z</time>
      </trkpt>
      <trkpt lat="42.19328" lon="2.44972">
        <ele>542.84</ele>
        <time>2024-09-25T13:34:14.000Z</time>
      </trkpt>
      <trkpt lat="42.19333" lon="2.4496">
        <ele>543.43</ele>
        <time>2024-09-25T13:34:20.000Z</time>
      </trkpt>
      <trkpt lat="42.19339" lon="2.4495">
        <ele>544.01</ele>
        <time>2024-09-25T13:34:26.000Z</time>
      </trkpt>
      <trkpt lat="42.19346" lon="2.44941">
        <ele>544.51</ele>
        <time>2024-09-25T13:34:31.000Z</time>
      </trkpt>
      <trkpt lat="42.19351" lon="2.44928">
        <ele>545.19</ele>
        <time>2024-09-25T13:34:38.000Z</time>
      </trkpt>
      <trkpt lat="42.1935" lon="2.44916">
        <ele>545.74</ele>
        <time>2024-09-25T13:34:44.000Z</time>
      </trkpt>
      <trkpt lat="42.19346" lon="2.44904">
        <ele>546.28</ele>
        <time>2024-09-25T13:34:50.000Z</time>
      </trkpt>
      <trkpt lat="42.19343" lon="2.44892">
        <ele>546.81</ele>
        <time>2024-09-25T13:34:56.000Z</time>
      </trkpt>
      <trkpt lat="42.19337" lon="2.44882">
        <ele>547.26</ele>
        <time>2024-09-25T13:35:01.000Z</time>
      </trkpt>
      <trkpt lat="42.19334" lon="2.44869">
        <ele>547.9</ele>
        <time>2024-09-25T13:35:08.000Z</time>
      </trkpt>
      <trkpt lat="42.19331" lon="2.44855">
        <ele>548.38</ele>
        <time>2024-09-25T13:35:13.000Z</time>
      </trkpt>
      <trkpt lat="42.19325" lon="2.44845">
        <ele>548.88</ele>
        <time>2024-09-25T13:35:18.000Z</time>
      </trkpt>
      <trkpt lat="42.19321" lon="2.4483">
        <ele>549.38</ele>
        <time>2024-09-25T13:35:23.000Z</time>
      </trkpt>
      <trkpt lat="42.19319" lon="2.44818">
        <ele>549.88</ele>
        <time>2024-09-25T13:35:28.000Z</time>
      </trkpt>
      <trkpt lat="42.19317" lon="2.44805">
        <ele>550.58</ele>
        <time>2024-09-25T13:35:35.000Z</time>
      </trkpt>
      <trkpt lat="42.19317" lon="2.44793">
        <ele>551.16</ele>
        <time>2024-09-25T13:35:41.000Z</time>
      </trkpt>
      <trkpt lat="42.19315" lon="2.4478">
        <ele>551.72</ele>
        <time>2024-09-25T13:35:47.000Z</time>
      </trkpt>
      <trkpt lat="42.19312" lon="2.44767">
        <ele>552.24</ele>
        <time>2024-09-25T13:35:53.000Z</time>
      </trkpt>
      <trkpt lat="42.1931" lon="2.44753">
        <ele>552.88</ele>
        <time>2024-09-25T13:36:00.000Z</time>
      </trkpt>
      <trkpt lat="42.19307" lon="2.4474">
        <ele>553.47</ele>
        <time>2024-09-25T13:36:06.000Z</time>
      </trkpt>
      <trkpt lat="42.19305" lon="2.44727">
        <ele>553.98</ele>
        <time>2024-09-25T13:36:11.000Z</time>
      </trkpt>
      <trkpt lat="42.19303" lon="2.44714">
        <ele>554.61</ele>
        <time>2024-09-25T13:36:17.000Z</time>
      </trkpt>
      <trkpt lat="42.19302" lon="2.44702">
        <ele>555.14</ele>
        <time>2024-09-25T13:36:22.000Z</time>
      </trkpt>
      <trkpt lat="42.19303" lon="2.44687">
        <ele>555.65</ele>
        <time>2024-09-25T13:36:27.000Z</time>
      </trkpt>
      <trkpt lat="42.19307" lon="2.44675">
        <ele>556.26</ele>
        <time>2024-09-25T13:36:33.000Z</time>
      </trkpt>
      <trkpt lat="42.19312" lon="2.44664">
        <ele>556.99</ele>
        <time>2024-09-25T13:36:40.000Z</time>
      </trkpt>
      <trkpt lat="42.19317" lon="2.44652">
        <ele>557.74</ele>
        <time>2024-09-25T13:36:47.000Z</time>
      </trkpt>
      <trkpt lat="42.19321" lon="2.44641">
        <ele>558.27</ele>
        <time>2024-09-25T13:36:52.000Z</time>
      </trkpt>
      <trkpt lat="42.19324" lon="2.44629">
        <ele>558.78</ele>
        <time>2024-09-25T13:36:57.000Z</time>
      </trkpt>
      <trkpt lat="42.19328" lon="2.44617">
        <ele>559.38</ele>
        <time>2024-09-25T13:37:03.000Z</time>
      </trkpt>
      <trkpt lat="42.19332" lon="2.44604">
        <ele>559.96</ele>
        <time>2024-09-25T13:37:09.000Z</time>
      </trkpt>
      <trkpt lat="42.19334" lon="2.44591">
        <ele>560.53</ele>
        <time>2024-09-25T13:37:15.000Z</time>
      </trkpt>
      <trkpt lat="42.19338" lon="2.44579">
        <ele>561.09</ele>
        <time>2024-09-25T13:37:21.000Z</time>
      </trkpt>
      <trkpt lat="42.19343" lon="2.44568">
        <ele>561.63</ele>
        <time>2024-09-25T13:37:27.000Z</time>
      </trkpt>
      <trkpt lat="42.19347" lon="2.44555">
        <ele>562.15</ele>
        <time>2024-09-25T13:37:33.000Z</time>
      </trkpt>
      <trkpt lat="42.19352" lon="2.44543">
        <ele>562.66</ele>
        <time>2024-09-25T13:37:39.000Z</time>
      </trkpt>
      <trkpt lat="42.19356" lon="2.44531">
        <ele>563.17</ele>
        <time>2024-09-25T13:37:45.000Z</time>
      </trkpt>
      <trkpt lat="42.19362" lon="2.4452">
        <ele>563.67</ele>
        <time>2024-09-25T13:37:51.000Z</time>
      </trkpt>
      <trkpt lat="42.19367" lon="2.44509">
        <ele>564.1</ele>
        <time>2024-09-25T13:37:56.000Z</time>
      </trkpt>
      <trkpt lat="42.19369" lon="2.44496">
        <ele>564.61</ele>
        <time>2024-09-25T13:38:02.000Z</time>
      </trkpt>
      <trkpt lat="42.19374" lon="2.44485">
        <ele>565.14</ele>
        <time>2024-09-25T13:38:08.000Z</time>
      </trkpt>
      <trkpt lat="42.19378" lon="2.44474">
        <ele>565.68</ele>
        <time>2024-09-25T13:38:14.000Z</time>
      </trkpt>
      <trkpt lat="42.19382" lon="2.44463">
        <ele>566.26</ele>
        <time>2024-09-25T13:38:20.000Z</time>
      </trkpt>
      <trkpt lat="42.19389" lon="2.44454">
        <ele>566.98</ele>
        <time>2024-09-25T13:38:27.000Z</time>
      </trkpt>
      <trkpt lat="42.19397" lon="2.44447">
        <ele>567.48</ele>
        <time>2024-09-25T13:38:32.000Z</time>
      </trkpt>
      <trkpt lat="42.19405" lon="2.4444">
        <ele>568.14</ele>
        <time>2024-09-25T13:38:39.000Z</time>
      </trkpt>
      <trkpt lat="42.19413" lon="2.44432">
        <ele>568.68</ele>
        <time>2024-09-25T13:38:45.000Z</time>
      </trkpt>
      <trkpt lat="42.19421" lon="2.44426">
        <ele>569.21</ele>
        <time>2024-09-25T13:38:51.000Z</time>
      </trkpt>
      <trkpt lat="42.1943" lon="2.44421">
        <ele>569.76</ele>
        <time>2024-09-25T13:38:57.000Z</time>
      </trkpt>
      <trkpt lat="42.19439" lon="2.44416">
        <ele>570.21</ele>
        <time>2024-09-25T13:39:02.000Z</time>
      </trkpt>
      <trkpt lat="42.19449" lon="2.44408">
        <ele>570.66</ele>
        <time>2024-09-25T13:39:07.000Z</time>
      </trkpt>
      <trkpt lat="42.19457" lon="2.44402">
        <ele>571.29</ele>
        <time>2024-09-25T13:39:13.999Z</time>
      </trkpt>
      <trkpt lat="42.19465" lon="2.44394">
        <ele>571.91</ele>
        <time>2024-09-25T13:39:20.999Z</time>
      </trkpt>
      <trkpt lat="42.19473" lon="2.44387">
        <ele>572.36</ele>
        <time>2024-09-25T13:39:25.999Z</time>
      </trkpt>
      <trkpt lat="42.19481" lon="2.4438">
        <ele>572.93</ele>
        <time>2024-09-25T13:39:31.999Z</time>
      </trkpt>
      <trkpt lat="42.1949" lon="2.44373">
        <ele>573.51</ele>
        <time>2024-09-25T13:39:37.999Z</time>
      </trkpt>
      <trkpt lat="42.19496" lon="2.44363">
        <ele>574.11</ele>
        <time>2024-09-25T13:39:43.999Z</time>
      </trkpt>
      <trkpt lat="42.19503" lon="2.4435">
        <ele>574.59</ele>
        <time>2024-09-25T13:39:48.999Z</time>
      </trkpt>
      <trkpt lat="42.19509" lon="2.44341">
        <ele>575.09</ele>
        <time>2024-09-25T13:39:53.999Z</time>
      </trkpt>
      <trkpt lat="42.19514" lon="2.44331">
        <ele>575.78</ele>
        <time>2024-09-25T13:40:00.999Z</time>
      </trkpt>
      <trkpt lat="42.19518" lon="2.44319">
        <ele>576.53</ele>
        <time>2024-09-25T13:40:07.999Z</time>
      </trkpt>
      <trkpt lat="42.19522" lon="2.44308">
        <ele>577.34</ele>
        <time>2024-09-25T13:40:14.999Z</time>
      </trkpt>
      <trkpt lat="42.19523" lon="2.44296">
        <ele>578.51</ele>
        <time>2024-09-25T13:40:25.999Z</time>
      </trkpt>
      <trkpt lat="42.19522" lon="2.44283">
        <ele>586.18</ele>
        <time>2024-09-25T13:44:43.999Z</time>
      </trkpt>
      <trkpt lat="42.19518" lon="2.44272">
        <ele>595.75</ele>
        <time>2024-09-25T13:46:26.999Z</time>
      </trkpt>
      <trkpt lat="42.19521" lon="2.44259">
        <ele>597.54</ele>
        <time>2024-09-25T13:46:33.999Z</time>
      </trkpt>
      <trkpt lat="42.19524" lon="2.44245">
        <ele>598.88</ele>
        <time>2024-09-25T13:46:39.999Z</time>
      </trkpt>
      <trkpt lat="42.19527" lon="2.44231">
        <ele>599.88</ele>
        <time>2024-09-25T13:46:44.999Z</time>
      </trkpt>
      <trkpt lat="42.1953" lon="2.44214">
        <ele>600.79</ele>
        <time>2024-09-25T13:46:49.999Z</time>
      </trkpt>
      <trkpt lat="42.19534" lon="2.44195">
        <ele>601.61</ele>
        <time>2024-09-25T13:46:54.999Z</time>
      </trkpt>
      <trkpt lat="42.19538" lon="2.44177">
        <ele>602.36</ele>
        <time>2024-09-25T13:46:59.999Z</time>
      </trkpt>
      <trkpt lat="42.19541" lon="2.4416">
        <ele>603.05</ele>
        <time>2024-09-25T13:47:04.999Z</time>
      </trkpt>
      <trkpt lat="42.19544" lon="2.44141">
        <ele>603.68</ele>
        <time>2024-09-25T13:47:09.999Z</time>
      </trkpt>
      <trkpt lat="42.19548" lon="2.44121">
        <ele>604.27</ele>
        <time>2024-09-25T13:47:14.999Z</time>
      </trkpt>
      <trkpt lat="42.19551" lon="2.44101">
        <ele>604.83</ele>
        <time>2024-09-25T13:47:19.999Z</time>
      </trkpt>
      <trkpt lat="42.19554" lon="2.44082">
        <ele>605.37</ele>
        <time>2024-09-25T13:47:24.999Z</time>
      </trkpt>
      <trkpt lat="42.19558" lon="2.44063">
        <ele>605.86</ele>
        <time>2024-09-25T13:47:29.999Z</time>
      </trkpt>
      <trkpt lat="42.19561" lon="2.44044">
        <ele>606.32</ele>
        <time>2024-09-25T13:47:34.999Z</time>
      </trkpt>
      <trkpt lat="42.19566" lon="2.44026">
        <ele>606.74</ele>
        <time>2024-09-25T13:47:39.999Z</time>
      </trkpt>
      <trkpt lat="42.19568" lon="2.44009">
        <ele>607.13</ele>
        <time>2024-09-25T13:47:44.999Z</time>
      </trkpt>
      <trkpt lat="42.19571" lon="2.43993">
        <ele>607.5</ele>
        <time>2024-09-25T13:47:49.999Z</time>
      </trkpt>
      <trkpt lat="42.19573" lon="2.4398">
        <ele>607.85</ele>
        <time>2024-09-25T13:47:54.999Z</time>
      </trkpt>
      <trkpt lat="42.19574" lon="2.43967">
        <ele>608.17</ele>
        <time>2024-09-25T13:47:59.999Z</time>
      </trkpt>
      <trkpt lat="42.19575" lon="2.43953">
        <ele>608.47</ele>
        <time>2024-09-25T13:48:04.999Z</time>
      </trkpt>
      <trkpt lat="42.19578" lon="2.43941">
        <ele>608.75</ele>
        <time>2024-09-25T13:48:09.999Z</time>
      </trkpt>
      <trkpt lat="42.19581" lon="2.43928">
        <ele>609.03</ele>
        <time>2024-09-25T13:48:14.999Z</time>
      </trkpt>
      <trkpt lat="42.19582" lon="2.43916">
        <ele>609.29</ele>
        <time>2024-09-25T13:48:19.999Z</time>
      </trkpt>
      <trkpt lat="42.19584" lon="2.43902">
        <ele>609.55</ele>
        <time>2024-09-25T13:48:24.999Z</time>
      </trkpt>
      <trkpt lat="42.19587" lon="2.43889">
        <ele>609.79</ele>
        <time>2024-09-25T13:48:29.999Z</time>
      </trkpt>
      <trkpt lat="42.19589" lon="2.43876">
        <ele>610.1</ele>
        <time>2024-09-25T13:48:35.999Z</time>
      </trkpt>
      <trkpt lat="42.1959" lon="2.43863">
        <ele>610.36</ele>
        <time>2024-09-25T13:48:40.999Z</time>
      </trkpt>
      <trkpt lat="42.1959" lon="2.43849">
        <ele>610.63</ele>
        <time>2024-09-25T13:48:45.999Z</time>
      </trkpt>
      <trkpt lat="42.19589" lon="2.43833">
        <ele>610.89</ele>
        <time>2024-09-25T13:48:50.999Z</time>
      </trkpt>
      <trkpt lat="42.19591" lon="2.4382">
        <ele>611.14</ele>
        <time>2024-09-25T13:48:55.999Z</time>
      </trkpt>
      <trkpt lat="42.19592" lon="2.43807">
        <ele>611.38</ele>
        <time>2024-09-25T13:49:00.999Z</time>
      </trkpt>
      <trkpt lat="42.19592" lon="2.43794">
        <ele>611.62</ele>
        <time>2024-09-25T13:49:05.999Z</time>
      </trkpt>
      <trkpt lat="42.19593" lon="2.43782">
        <ele>611.9</ele>
        <time>2024-09-25T13:49:11.999Z</time>
      </trkpt>
      <trkpt lat="42.19591" lon="2.43768">
        <ele>612.12</ele>
        <time>2024-09-25T13:49:16.999Z</time>
      </trkpt>
      <trkpt lat="42.19589" lon="2.4375">
        <ele>612.34</ele>
        <time>2024-09-25T13:49:21.999Z</time>
      </trkpt>
      <trkpt lat="42.19587" lon="2.43732">
        <ele>612.57</ele>
        <time>2024-09-25T13:49:26.999Z</time>
      </trkpt>
      <trkpt lat="42.19582" lon="2.43713">
        <ele>612.78</ele>
        <time>2024-09-25T13:49:31.999Z</time>
      </trkpt>
      <trkpt lat="42.19579" lon="2.43693">
        <ele>613</ele>
        <time>2024-09-25T13:49:36.999Z</time>
      </trkpt>
      <trkpt lat="42.19575" lon="2.43673">
        <ele>613.22</ele>
        <time>2024-09-25T13:49:41.999Z</time>
      </trkpt>
      <trkpt lat="42.19573" lon="2.43655">
        <ele>613.45</ele>
        <time>2024-09-25T13:49:46.999Z</time>
      </trkpt>
      <trkpt lat="42.19571" lon="2.4364">
        <ele>613.67</ele>
        <time>2024-09-25T13:49:51.999Z</time>
      </trkpt>
      <trkpt lat="42.19568" lon="2.43624">
        <ele>613.89</ele>
        <time>2024-09-25T13:49:56.999Z</time>
      </trkpt>
      <trkpt lat="42.19564" lon="2.43611">
        <ele>614.11</ele>
        <time>2024-09-25T13:50:01.999Z</time>
      </trkpt>
      <trkpt lat="42.19561" lon="2.43597">
        <ele>614.34</ele>
        <time>2024-09-25T13:50:06.999Z</time>
      </trkpt>
      <trkpt lat="42.19556" lon="2.43582">
        <ele>614.59</ele>
        <time>2024-09-25T13:50:11.999Z</time>
      </trkpt>
      <trkpt lat="42.19555" lon="2.43569">
        <ele>614.87</ele>
        <time>2024-09-25T13:50:16.999Z</time>
      </trkpt>
      <trkpt lat="42.19554" lon="2.43554">
        <ele>615.18</ele>
        <time>2024-09-25T13:50:21.999Z</time>
      </trkpt>
      <trkpt lat="42.19552" lon="2.4354">
        <ele>615.59</ele>
        <time>2024-09-25T13:50:26.999Z</time>
      </trkpt>
      <trkpt lat="42.19551" lon="2.43525">
        <ele>616.21</ele>
        <time>2024-09-25T13:50:33.999Z</time>
      </trkpt>
      <trkpt lat="42.1955" lon="2.43512">
        <ele>616.67</ele>
        <time>2024-09-25T13:50:38.999Z</time>
      </trkpt>
      <trkpt lat="42.1955" lon="2.43498">
        <ele>617.14</ele>
        <time>2024-09-25T13:50:43.999Z</time>
      </trkpt>
      <trkpt lat="42.19546" lon="2.43484">
        <ele>617.62</ele>
        <time>2024-09-25T13:50:48.999Z</time>
      </trkpt>
      <trkpt lat="42.19544" lon="2.4347">
        <ele>618.12</ele>
        <time>2024-09-25T13:50:53.999Z</time>
      </trkpt>
      <trkpt lat="42.1954" lon="2.4345">
        <ele>618.65</ele>
        <time>2024-09-25T13:50:58.999Z</time>
      </trkpt>
      <trkpt lat="42.19538" lon="2.43432">
        <ele>619.19</ele>
        <time>2024-09-25T13:51:03.999Z</time>
      </trkpt>
      <trkpt lat="42.19534" lon="2.43413">
        <ele>619.75</ele>
        <time>2024-09-25T13:51:09.000Z</time>
      </trkpt>
      <trkpt lat="42.19534" lon="2.43397">
        <ele>620.34</ele>
        <time>2024-09-25T13:51:14.000Z</time>
      </trkpt>
      <trkpt lat="42.19535" lon="2.43385">
        <ele>620.95</ele>
        <time>2024-09-25T13:51:19.000Z</time>
      </trkpt>
      <trkpt lat="42.19536" lon="2.43372">
        <ele>621.58</ele>
        <time>2024-09-25T13:51:24.000Z</time>
      </trkpt>
      <trkpt lat="42.19539" lon="2.43357">
        <ele>622.19</ele>
        <time>2024-09-25T13:51:29.000Z</time>
      </trkpt>
      <trkpt lat="42.1954" lon="2.43342">
        <ele>622.79</ele>
        <time>2024-09-25T13:51:34.000Z</time>
      </trkpt>
      <trkpt lat="42.19541" lon="2.43328">
        <ele>623.37</ele>
        <time>2024-09-25T13:51:39.000Z</time>
      </trkpt>
      <trkpt lat="42.19542" lon="2.43316">
        <ele>623.94</ele>
        <time>2024-09-25T13:51:44.000Z</time>
      </trkpt>
      <trkpt lat="42.19544" lon="2.43302">
        <ele>624.5</ele>
        <time>2024-09-25T13:51:49.000Z</time>
      </trkpt>
      <trkpt lat="42.19545" lon="2.43288">
        <ele>625.03</ele>
        <time>2024-09-25T13:51:54.000Z</time>
      </trkpt>
      <trkpt lat="42.19546" lon="2.43275">
        <ele>625.55</ele>
        <time>2024-09-25T13:51:59.000Z</time>
      </trkpt>
      <trkpt lat="42.19547" lon="2.43263">
        <ele>626.05</ele>
        <time>2024-09-25T13:52:04.000Z</time>
      </trkpt>
      <trkpt lat="42.19551" lon="2.4325">
        <ele>626.63</ele>
        <time>2024-09-25T13:52:10.000Z</time>
      </trkpt>
      <trkpt lat="42.19553" lon="2.43236">
        <ele>627.12</ele>
        <time>2024-09-25T13:52:15.000Z</time>
      </trkpt>
      <trkpt lat="42.19556" lon="2.43224">
        <ele>627.61</ele>
        <time>2024-09-25T13:52:20.000Z</time>
      </trkpt>
      <trkpt lat="42.19561" lon="2.43213">
        <ele>628.1</ele>
        <time>2024-09-25T13:52:25.000Z</time>
      </trkpt>
      <trkpt lat="42.19565" lon="2.432">
        <ele>628.58</ele>
        <time>2024-09-25T13:52:30.000Z</time>
      </trkpt>
      <trkpt lat="42.19571" lon="2.43187">
        <ele>629.05</ele>
        <time>2024-09-25T13:52:35.000Z</time>
      </trkpt>
      <trkpt lat="42.19575" lon="2.43174">
        <ele>629.67</ele>
        <time>2024-09-25T13:52:42.000Z</time>
      </trkpt>
      <trkpt lat="42.19577" lon="2.4316">
        <ele>630.09</ele>
        <time>2024-09-25T13:52:47.000Z</time>
      </trkpt>
      <trkpt lat="42.19577" lon="2.43144">
        <ele>630.49</ele>
        <time>2024-09-25T13:52:52.000Z</time>
      </trkpt>
      <trkpt lat="42.19576" lon="2.43128">
        <ele>630.85</ele>
        <time>2024-09-25T13:52:57.000Z</time>
      </trkpt>
      <trkpt lat="42.19574" lon="2.43114">
        <ele>631.2</ele>
        <time>2024-09-25T13:53:02.000Z</time>
      </trkpt>
      <trkpt lat="42.19573" lon="2.43101">
        <ele>631.56</ele>
        <time>2024-09-25T13:53:07.000Z</time>
      </trkpt>
      <trkpt lat="42.1957" lon="2.43082">
        <ele>631.9</ele>
        <time>2024-09-25T13:53:12.000Z</time>
      </trkpt>
      <trkpt lat="42.19571" lon="2.4307">
        <ele>632.31</ele>
        <time>2024-09-25T13:53:18.000Z</time>
      </trkpt>
      <trkpt lat="42.19572" lon="2.43057">
        <ele>632.66</ele>
        <time>2024-09-25T13:53:23.000Z</time>
      </trkpt>
      <trkpt lat="42.19571" lon="2.43043">
        <ele>633.02</ele>
        <time>2024-09-25T13:53:28.000Z</time>
      </trkpt>
      <trkpt lat="42.19571" lon="2.43029">
        <ele>633.38</ele>
        <time>2024-09-25T13:53:33.000Z</time>
      </trkpt>
      <trkpt lat="42.19573" lon="2.43015">
        <ele>633.79</ele>
        <time>2024-09-25T13:53:38.000Z</time>
      </trkpt>
      <trkpt lat="42.19573" lon="2.43002">
        <ele>634.31</ele>
        <time>2024-09-25T13:53:44.000Z</time>
      </trkpt>
      <trkpt lat="42.19574" lon="2.42988">
        <ele>634.77</ele>
        <time>2024-09-25T13:53:49.000Z</time>
      </trkpt>
      <trkpt lat="42.19573" lon="2.42976">
        <ele>635.24</ele>
        <time>2024-09-25T13:53:54.000Z</time>
      </trkpt>
      <trkpt lat="42.19574" lon="2.42963">
        <ele>635.71</ele>
        <time>2024-09-25T13:53:59.000Z</time>
      </trkpt>
      <trkpt lat="42.19572" lon="2.4295">
        <ele>636.23</ele>
        <time>2024-09-25T13:54:04.000Z</time>
      </trkpt>
      <trkpt lat="42.19573" lon="2.42937">
        <ele>636.77</ele>
        <time>2024-09-25T13:54:09.000Z</time>
      </trkpt>
      <trkpt lat="42.19572" lon="2.42925">
        <ele>637.33</ele>
        <time>2024-09-25T13:54:14.000Z</time>
      </trkpt>
      <trkpt lat="42.19574" lon="2.42911">
        <ele>638.02</ele>
        <time>2024-09-25T13:54:20.000Z</time>
      </trkpt>
      <trkpt lat="42.19573" lon="2.42893">
        <ele>638.64</ele>
        <time>2024-09-25T13:54:25.000Z</time>
      </trkpt>
      <trkpt lat="42.19572" lon="2.42878">
        <ele>639.25</ele>
        <time>2024-09-25T13:54:30.000Z</time>
      </trkpt>
      <trkpt lat="42.19573" lon="2.42865">
        <ele>639.98</ele>
        <time>2024-09-25T13:54:36.000Z</time>
      </trkpt>
      <trkpt lat="42.19576" lon="2.42852">
        <ele>640.73</ele>
        <time>2024-09-25T13:54:42.000Z</time>
      </trkpt>
      <trkpt lat="42.19575" lon="2.42838">
        <ele>641.35</ele>
        <time>2024-09-25T13:54:47.000Z</time>
      </trkpt>
      <trkpt lat="42.19575" lon="2.42825">
        <ele>641.95</ele>
        <time>2024-09-25T13:54:52.000Z</time>
      </trkpt>
      <trkpt lat="42.19573" lon="2.42812">
        <ele>642.66</ele>
        <time>2024-09-25T13:54:58.000Z</time>
      </trkpt>
      <trkpt lat="42.19573" lon="2.42799">
        <ele>643.26</ele>
        <time>2024-09-25T13:55:03.000Z</time>
      </trkpt>
      <trkpt lat="42.19573" lon="2.42786">
        <ele>644</ele>
        <time>2024-09-25T13:55:09.000Z</time>
      </trkpt>
      <trkpt lat="42.19573" lon="2.42772">
        <ele>644.74</ele>
        <time>2024-09-25T13:55:15.000Z</time>
      </trkpt>
      <trkpt lat="42.19571" lon="2.4276">
        <ele>645.35</ele>
        <time>2024-09-25T13:55:20.000Z</time>
      </trkpt>
      <trkpt lat="42.19571" lon="2.42747">
        <ele>645.96</ele>
        <time>2024-09-25T13:55:25.000Z</time>
      </trkpt>
      <trkpt lat="42.19568" lon="2.42733">
        <ele>646.55</ele>
        <time>2024-09-25T13:55:30.000Z</time>
      </trkpt>
      <trkpt lat="42.19568" lon="2.4272">
        <ele>647.15</ele>
        <time>2024-09-25T13:55:35.000Z</time>
      </trkpt>
      <trkpt lat="42.19567" lon="2.42707">
        <ele>647.9</ele>
        <time>2024-09-25T13:55:41.000Z</time>
      </trkpt>
      <trkpt lat="42.19568" lon="2.42694">
        <ele>648.67</ele>
        <time>2024-09-25T13:55:47.000Z</time>
      </trkpt>
      <trkpt lat="42.19568" lon="2.4268">
        <ele>649.62</ele>
        <time>2024-09-25T13:55:54.000Z</time>
      </trkpt>
      <trkpt lat="42.19569" lon="2.42668">
        <ele>650.41</ele>
        <time>2024-09-25T13:56:00.000Z</time>
      </trkpt>
      <trkpt lat="42.19569" lon="2.42655">
        <ele>651.06</ele>
        <time>2024-09-25T13:56:05.000Z</time>
      </trkpt>
      <trkpt lat="42.19568" lon="2.42642">
        <ele>651.68</ele>
        <time>2024-09-25T13:56:10.000Z</time>
      </trkpt>
      <trkpt lat="42.19566" lon="2.42629">
        <ele>652.46</ele>
        <time>2024-09-25T13:56:16.000Z</time>
      </trkpt>
      <trkpt lat="42.19566" lon="2.42615">
        <ele>653.31</ele>
        <time>2024-09-25T13:56:22.000Z</time>
      </trkpt>
      <trkpt lat="42.19565" lon="2.42602">
        <ele>654.21</ele>
        <time>2024-09-25T13:56:28.000Z</time>
      </trkpt>
      <trkpt lat="42.19563" lon="2.42589">
        <ele>655.16</ele>
        <time>2024-09-25T13:56:34.000Z</time>
      </trkpt>
      <trkpt lat="42.19566" lon="2.42577">
        <ele>655.97</ele>
        <time>2024-09-25T13:56:39.000Z</time>
      </trkpt>
      <trkpt lat="42.19568" lon="2.42563">
        <ele>656.93</ele>
        <time>2024-09-25T13:56:45.000Z</time>
      </trkpt>
      <trkpt lat="42.19568" lon="2.42551">
        <ele>657.71</ele>
        <time>2024-09-25T13:56:50.000Z</time>
      </trkpt>
      <trkpt lat="42.19569" lon="2.42538">
        <ele>658.46</ele>
        <time>2024-09-25T13:56:55.000Z</time>
      </trkpt>
      <trkpt lat="42.1957" lon="2.42524">
        <ele>659.32</ele>
        <time>2024-09-25T13:57:01.000Z</time>
      </trkpt>
      <trkpt lat="42.19569" lon="2.4251">
        <ele>660.04</ele>
        <time>2024-09-25T13:57:06.000Z</time>
      </trkpt>
      <trkpt lat="42.1957" lon="2.42496">
        <ele>660.88</ele>
        <time>2024-09-25T13:57:12.000Z</time>
      </trkpt>
      <trkpt lat="42.1957" lon="2.42484">
        <ele>661.58</ele>
        <time>2024-09-25T13:57:17.000Z</time>
      </trkpt>
      <trkpt lat="42.19571" lon="2.42471">
        <ele>662.36</ele>
        <time>2024-09-25T13:57:23.000Z</time>
      </trkpt>
      <trkpt lat="42.19573" lon="2.42459">
        <ele>663.12</ele>
        <time>2024-09-25T13:57:29.000Z</time>
      </trkpt>
      <trkpt lat="42.19573" lon="2.42445">
        <ele>663.85</ele>
        <time>2024-09-25T13:57:35.000Z</time>
      </trkpt>
      <trkpt lat="42.19574" lon="2.42433">
        <ele>664.46</ele>
        <time>2024-09-25T13:57:40.000Z</time>
      </trkpt>
      <trkpt lat="42.19576" lon="2.42421">
        <ele>665.05</ele>
        <time>2024-09-25T13:57:45.000Z</time>
      </trkpt>
      <trkpt lat="42.19577" lon="2.42408">
        <ele>665.63</ele>
        <time>2024-09-25T13:57:50.000Z</time>
      </trkpt>
      <trkpt lat="42.19577" lon="2.42394">
        <ele>666.32</ele>
        <time>2024-09-25T13:57:56.000Z</time>
      </trkpt>
      <trkpt lat="42.19578" lon="2.4238">
        <ele>667.11</ele>
        <time>2024-09-25T13:58:03.000Z</time>
      </trkpt>
      <trkpt lat="42.19578" lon="2.42366">
        <ele>667.78</ele>
        <time>2024-09-25T13:58:09.000Z</time>
      </trkpt>
      <trkpt lat="42.19579" lon="2.42354">
        <ele>668.43</ele>
        <time>2024-09-25T13:58:15.000Z</time>
      </trkpt>
      <trkpt lat="42.19579" lon="2.42342">
        <ele>669.07</ele>
        <time>2024-09-25T13:58:21.000Z</time>
      </trkpt>
      <trkpt lat="42.1958" lon="2.42328">
        <ele>669.6</ele>
        <time>2024-09-25T13:58:26.000Z</time>
      </trkpt>
      <trkpt lat="42.19581" lon="2.42314">
        <ele>670.13</ele>
        <time>2024-09-25T13:58:31.000Z</time>
      </trkpt>
      <trkpt lat="42.19583" lon="2.42301">
        <ele>670.79</ele>
        <time>2024-09-25T13:58:37.000Z</time>
      </trkpt>
      <trkpt lat="42.19585" lon="2.42289">
        <ele>671.55</ele>
        <time>2024-09-25T13:58:44.000Z</time>
      </trkpt>
      <trkpt lat="42.19588" lon="2.42276">
        <ele>672.2</ele>
        <time>2024-09-25T13:58:50.000Z</time>
      </trkpt>
      <trkpt lat="42.19592" lon="2.42264">
        <ele>672.97</ele>
        <time>2024-09-25T13:58:57.000Z</time>
      </trkpt>
      <trkpt lat="42.19597" lon="2.4225">
        <ele>673.72</ele>
        <time>2024-09-25T13:59:04.000Z</time>
      </trkpt>
      <trkpt lat="42.19599" lon="2.42237">
        <ele>674.36</ele>
        <time>2024-09-25T13:59:10.000Z</time>
      </trkpt>
      <trkpt lat="42.19603" lon="2.42224">
        <ele>674.98</ele>
        <time>2024-09-25T13:59:16.000Z</time>
      </trkpt>
      <trkpt lat="42.19605" lon="2.42212">
        <ele>675.49</ele>
        <time>2024-09-25T13:59:21.000Z</time>
      </trkpt>
      <trkpt lat="42.19608" lon="2.42199">
        <ele>676.07</ele>
        <time>2024-09-25T13:59:27.000Z</time>
      </trkpt>
      <trkpt lat="42.19612" lon="2.42187">
        <ele>676.62</ele>
        <time>2024-09-25T13:59:33.000Z</time>
      </trkpt>
      <trkpt lat="42.19613" lon="2.42173">
        <ele>677.06</ele>
        <time>2024-09-25T13:59:38.000Z</time>
      </trkpt>
      <trkpt lat="42.19615" lon="2.4216">
        <ele>677.58</ele>
        <time>2024-09-25T13:59:44.000Z</time>
      </trkpt>
      <trkpt lat="42.19619" lon="2.42147">
        <ele>678.09</ele>
        <time>2024-09-25T13:59:50.000Z</time>
      </trkpt>
      <trkpt lat="42.19621" lon="2.42135">
        <ele>678.59</ele>
        <time>2024-09-25T13:59:56.000Z</time>
      </trkpt>
      <trkpt lat="42.19624" lon="2.42122">
        <ele>679.08</ele>
        <time>2024-09-25T14:00:02.000Z</time>
      </trkpt>
      <trkpt lat="42.19626" lon="2.42109">
        <ele>679.58</ele>
        <time>2024-09-25T14:00:08.000Z</time>
      </trkpt>
      <trkpt lat="42.19629" lon="2.42097">
        <ele>680.07</ele>
        <time>2024-09-25T14:00:14.000Z</time>
      </trkpt>
      <trkpt lat="42.19633" lon="2.42085">
        <ele>680.49</ele>
        <time>2024-09-25T14:00:19.000Z</time>
      </trkpt>
      <trkpt lat="42.19638" lon="2.42072">
        <ele>681.01</ele>
        <time>2024-09-25T14:00:25.000Z</time>
      </trkpt>
      <trkpt lat="42.1964" lon="2.4206">
        <ele>681.53</ele>
        <time>2024-09-25T14:00:31.000Z</time>
      </trkpt>
      <trkpt lat="42.19643" lon="2.42048">
        <ele>682.05</ele>
        <time>2024-09-25T14:00:37.000Z</time>
      </trkpt>
      <trkpt lat="42.19644" lon="2.42035">
        <ele>682.49</ele>
        <time>2024-09-25T14:00:42.000Z</time>
      </trkpt>
      <trkpt lat="42.19646" lon="2.42022">
        <ele>683.06</ele>
        <time>2024-09-25T14:00:48.000Z</time>
      </trkpt>
      <trkpt lat="42.19649" lon="2.42009">
        <ele>683.55</ele>
        <time>2024-09-25T14:00:53.000Z</time>
      </trkpt>
      <trkpt lat="42.19648" lon="2.41996">
        <ele>684.04</ele>
        <time>2024-09-25T14:00:58.000Z</time>
      </trkpt>
      <trkpt lat="42.19649" lon="2.41984">
        <ele>684.54</ele>
        <time>2024-09-25T14:01:03.000Z</time>
      </trkpt>
      <trkpt lat="42.1965" lon="2.4197">
        <ele>685.15</ele>
        <time>2024-09-25T14:01:09.000Z</time>
      </trkpt>
      <trkpt lat="42.19651" lon="2.41955">
        <ele>685.67</ele>
        <time>2024-09-25T14:01:14.000Z</time>
      </trkpt>
      <trkpt lat="42.19652" lon="2.41941">
        <ele>686.2</ele>
        <time>2024-09-25T14:01:19.000Z</time>
      </trkpt>
      <trkpt lat="42.19655" lon="2.41929">
        <ele>686.75</ele>
        <time>2024-09-25T14:01:24.000Z</time>
      </trkpt>
      <trkpt lat="42.19656" lon="2.41917">
        <ele>687.29</ele>
        <time>2024-09-25T14:01:29.000Z</time>
      </trkpt>
      <trkpt lat="42.19657" lon="2.41902">
        <ele>687.83</ele>
        <time>2024-09-25T14:01:34.000Z</time>
      </trkpt>
      <trkpt lat="42.19659" lon="2.41889">
        <ele>688.48</ele>
        <time>2024-09-25T14:01:40.000Z</time>
      </trkpt>
      <trkpt lat="42.19661" lon="2.41876">
        <ele>689.04</ele>
        <time>2024-09-25T14:01:45.000Z</time>
      </trkpt>
      <trkpt lat="42.19663" lon="2.41863">
        <ele>689.6</ele>
        <time>2024-09-25T14:01:50.000Z</time>
      </trkpt>
      <trkpt lat="42.19666" lon="2.4185">
        <ele>690.29</ele>
        <time>2024-09-25T14:01:56.000Z</time>
      </trkpt>
      <trkpt lat="42.19669" lon="2.41838">
        <ele>690.87</ele>
        <time>2024-09-25T14:02:01.000Z</time>
      </trkpt>
      <trkpt lat="42.19672" lon="2.41826">
        <ele>691.46</ele>
        <time>2024-09-25T14:02:06.000Z</time>
      </trkpt>
      <trkpt lat="42.19675" lon="2.41814">
        <ele>692.36</ele>
        <time>2024-09-25T14:02:13.000Z</time>
      </trkpt>
      <trkpt lat="42.1968" lon="2.41802">
        <ele>693.09</ele>
        <time>2024-09-25T14:02:19.000Z</time>
      </trkpt>
      <trkpt lat="42.19682" lon="2.41788">
        <ele>693.75</ele>
        <time>2024-09-25T14:02:25.000Z</time>
      </trkpt>
      <trkpt lat="42.19682" lon="2.41774">
        <ele>694.47</ele>
        <time>2024-09-25T14:02:32.000Z</time>
      </trkpt>
      <trkpt lat="42.19683" lon="2.41762">
        <ele>694.96</ele>
        <time>2024-09-25T14:02:37.000Z</time>
      </trkpt>
      <trkpt lat="42.19682" lon="2.4175">
        <ele>695.41</ele>
        <time>2024-09-25T14:02:42.000Z</time>
      </trkpt>
      <trkpt lat="42.19683" lon="2.41737">
        <ele>695.93</ele>
        <time>2024-09-25T14:02:48.000Z</time>
      </trkpt>
      <trkpt lat="42.19684" lon="2.41725">
        <ele>696.34</ele>
        <time>2024-09-25T14:02:53.000Z</time>
      </trkpt>
      <trkpt lat="42.19686" lon="2.41712">
        <ele>696.82</ele>
        <time>2024-09-25T14:02:59.000Z</time>
      </trkpt>
      <trkpt lat="42.19686" lon="2.41699">
        <ele>697.28</ele>
        <time>2024-09-25T14:03:05.000Z</time>
      </trkpt>
      <trkpt lat="42.19688" lon="2.41686">
        <ele>697.71</ele>
        <time>2024-09-25T14:03:10.999Z</time>
      </trkpt>
      <trkpt lat="42.19687" lon="2.41673">
        <ele>698.21</ele>
        <time>2024-09-25T14:03:17.999Z</time>
      </trkpt>
      <trkpt lat="42.19687" lon="2.4166">
        <ele>698.56</ele>
        <time>2024-09-25T14:03:22.999Z</time>
      </trkpt>
      <trkpt lat="42.19686" lon="2.41648">
        <ele>698.9</ele>
        <time>2024-09-25T14:03:27.999Z</time>
      </trkpt>
      <trkpt lat="42.19688" lon="2.41633">
        <ele>699.23</ele>
        <time>2024-09-25T14:03:32.999Z</time>
      </trkpt>
      <trkpt lat="42.19694" lon="2.41625">
        <ele>699.87</ele>
        <time>2024-09-25T14:03:41.999Z</time>
      </trkpt>
      <trkpt lat="42.19699" lon="2.41636">
        <ele>700.47</ele>
        <time>2024-09-25T14:03:49.999Z</time>
      </trkpt>
      <trkpt lat="42.19703" lon="2.41649">
        <ele>700.9</ele>
        <time>2024-09-25T14:03:55.999Z</time>
      </trkpt>
      <trkpt lat="42.19703" lon="2.41662">
        <ele>701.42</ele>
        <time>2024-09-25T14:04:02.999Z</time>
      </trkpt>
      <trkpt lat="42.19705" lon="2.41675">
        <ele>701.79</ele>
        <time>2024-09-25T14:04:07.999Z</time>
      </trkpt>
      <trkpt lat="42.19706" lon="2.41689">
        <ele>702.18</ele>
        <time>2024-09-25T14:04:12.999Z</time>
      </trkpt>
      <trkpt lat="42.19707" lon="2.41702">
        <ele>702.57</ele>
        <time>2024-09-25T14:04:17.999Z</time>
      </trkpt>
      <trkpt lat="42.19709" lon="2.41717">
        <ele>702.99</ele>
        <time>2024-09-25T14:04:22.999Z</time>
      </trkpt>
      <trkpt lat="42.1971" lon="2.4173">
        <ele>703.55</ele>
        <time>2024-09-25T14:04:27.999Z</time>
      </trkpt>
      <trkpt lat="42.19711" lon="2.41744">
        <ele>704.2</ele>
        <time>2024-09-25T14:04:32.999Z</time>
      </trkpt>
      <trkpt lat="42.19711" lon="2.41758">
        <ele>704.88</ele>
        <time>2024-09-25T14:04:37.999Z</time>
      </trkpt>
      <trkpt lat="42.19714" lon="2.41772">
        <ele>705.67</ele>
        <time>2024-09-25T14:04:42.999Z</time>
      </trkpt>
      <trkpt lat="42.19716" lon="2.41785">
        <ele>706.5</ele>
        <time>2024-09-25T14:04:47.999Z</time>
      </trkpt>
      <trkpt lat="42.19717" lon="2.41798">
        <ele>707.36</ele>
        <time>2024-09-25T14:04:52.999Z</time>
      </trkpt>
      <trkpt lat="42.19719" lon="2.41812">
        <ele>708.21</ele>
        <time>2024-09-25T14:04:57.999Z</time>
      </trkpt>
      <trkpt lat="42.1972" lon="2.41826">
        <ele>709.08</ele>
        <time>2024-09-25T14:05:02.999Z</time>
      </trkpt>
      <trkpt lat="42.1972" lon="2.41839">
        <ele>709.93</ele>
        <time>2024-09-25T14:05:07.999Z</time>
      </trkpt>
      <trkpt lat="42.19718" lon="2.41852">
        <ele>710.77</ele>
        <time>2024-09-25T14:05:12.999Z</time>
      </trkpt>
      <trkpt lat="42.19716" lon="2.41864">
        <ele>711.64</ele>
        <time>2024-09-25T14:05:17.999Z</time>
      </trkpt>
      <trkpt lat="42.19714" lon="2.41877">
        <ele>712.51</ele>
        <time>2024-09-25T14:05:22.999Z</time>
      </trkpt>
      <trkpt lat="42.19711" lon="2.4189">
        <ele>713.38</ele>
        <time>2024-09-25T14:05:27.999Z</time>
      </trkpt>
      <trkpt lat="42.19709" lon="2.41902">
        <ele>714.2</ele>
        <time>2024-09-25T14:05:32.999Z</time>
      </trkpt>
      <trkpt lat="42.19708" lon="2.41916">
        <ele>715</ele>
        <time>2024-09-25T14:05:37.999Z</time>
      </trkpt>
      <trkpt lat="42.19706" lon="2.41929">
        <ele>715.78</ele>
        <time>2024-09-25T14:05:42.999Z</time>
      </trkpt>
      <trkpt lat="42.19703" lon="2.41943">
        <ele>716.53</ele>
        <time>2024-09-25T14:05:47.999Z</time>
      </trkpt>
      <trkpt lat="42.19701" lon="2.41955">
        <ele>717.26</ele>
        <time>2024-09-25T14:05:52.999Z</time>
      </trkpt>
      <trkpt lat="42.197" lon="2.41968">
        <ele>717.97</ele>
        <time>2024-09-25T14:05:57.999Z</time>
      </trkpt>
      <trkpt lat="42.19698" lon="2.41983">
        <ele>718.79</ele>
        <time>2024-09-25T14:06:03.999Z</time>
      </trkpt>
      <trkpt lat="42.19697" lon="2.41996">
        <ele>719.47</ele>
        <time>2024-09-25T14:06:08.999Z</time>
      </trkpt>
      <trkpt lat="42.19697" lon="2.42008">
        <ele>720.27</ele>
        <time>2024-09-25T14:06:14.999Z</time>
      </trkpt>
      <trkpt lat="42.19696" lon="2.4202">
        <ele>720.92</ele>
        <time>2024-09-25T14:06:19.999Z</time>
      </trkpt>
      <trkpt lat="42.19695" lon="2.42034">
        <ele>721.69</ele>
        <time>2024-09-25T14:06:25.999Z</time>
      </trkpt>
      <trkpt lat="42.19693" lon="2.42048">
        <ele>722.46</ele>
        <time>2024-09-25T14:06:31.999Z</time>
      </trkpt>
      <trkpt lat="42.19692" lon="2.42062">
        <ele>723.21</ele>
        <time>2024-09-25T14:06:37.999Z</time>
      </trkpt>
      <trkpt lat="42.1969" lon="2.42075">
        <ele>723.96</ele>
        <time>2024-09-25T14:06:43.999Z</time>
      </trkpt>
      <trkpt lat="42.19687" lon="2.42089">
        <ele>724.58</ele>
        <time>2024-09-25T14:06:48.999Z</time>
      </trkpt>
      <trkpt lat="42.19685" lon="2.42102">
        <ele>725.31</ele>
        <time>2024-09-25T14:06:54.999Z</time>
      </trkpt>
      <trkpt lat="42.19685" lon="2.42116">
        <ele>725.91</ele>
        <time>2024-09-25T14:06:59.999Z</time>
      </trkpt>
      <trkpt lat="42.19684" lon="2.42128">
        <ele>726.51</ele>
        <time>2024-09-25T14:07:04.999Z</time>
      </trkpt>
      <trkpt lat="42.19684" lon="2.42141">
        <ele>727.08</ele>
        <time>2024-09-25T14:07:09.999Z</time>
      </trkpt>
      <trkpt lat="42.19684" lon="2.42155">
        <ele>727.76</ele>
        <time>2024-09-25T14:07:15.999Z</time>
      </trkpt>
      <trkpt lat="42.19684" lon="2.42169">
        <ele>728.43</ele>
        <time>2024-09-25T14:07:21.999Z</time>
      </trkpt>
      <trkpt lat="42.19685" lon="2.42182">
        <ele>728.98</ele>
        <time>2024-09-25T14:07:26.999Z</time>
      </trkpt>
      <trkpt lat="42.19684" lon="2.42195">
        <ele>729.52</ele>
        <time>2024-09-25T14:07:31.999Z</time>
      </trkpt>
      <trkpt lat="42.19681" lon="2.42207">
        <ele>730.19</ele>
        <time>2024-09-25T14:07:37.999Z</time>
      </trkpt>
      <trkpt lat="42.19678" lon="2.42218">
        <ele>731.57</ele>
        <time>2024-09-25T14:07:50.999Z</time>
      </trkpt>
      <trkpt lat="42.19679" lon="2.42232">
        <ele>736.06</ele>
        <time>2024-09-25T14:09:42.999Z</time>
      </trkpt>
      <trkpt lat="42.19682" lon="2.42245">
        <ele>736.81</ele>
        <time>2024-09-25T14:09:47.999Z</time>
      </trkpt>
      <trkpt lat="42.19692" lon="2.42251">
        <ele>737.51</ele>
        <time>2024-09-25T14:09:52.999Z</time>
      </trkpt>
      <trkpt lat="42.19702" lon="2.42248">
        <ele>738.17</ele>
        <time>2024-09-25T14:09:57.999Z</time>
      </trkpt>
      <trkpt lat="42.19706" lon="2.42235">
        <ele>738.77</ele>
        <time>2024-09-25T14:10:02.999Z</time>
      </trkpt>
      <trkpt lat="42.19706" lon="2.42221">
        <ele>739.33</ele>
        <time>2024-09-25T14:10:07.999Z</time>
      </trkpt>
      <trkpt lat="42.19708" lon="2.42206">
        <ele>739.84</ele>
        <time>2024-09-25T14:10:12.999Z</time>
      </trkpt>
      <trkpt lat="42.19709" lon="2.42193">
        <ele>740.31</ele>
        <time>2024-09-25T14:10:17.999Z</time>
      </trkpt>
      <trkpt lat="42.1971" lon="2.42177">
        <ele>740.73</ele>
        <time>2024-09-25T14:10:22.999Z</time>
      </trkpt>
      <trkpt lat="42.19711" lon="2.42164">
        <ele>741.11</ele>
        <time>2024-09-25T14:10:27.999Z</time>
      </trkpt>
      <trkpt lat="42.19712" lon="2.42149">
        <ele>741.47</ele>
        <time>2024-09-25T14:10:32.999Z</time>
      </trkpt>
      <trkpt lat="42.19712" lon="2.42133">
        <ele>741.8</ele>
        <time>2024-09-25T14:10:37.999Z</time>
      </trkpt>
      <trkpt lat="42.19713" lon="2.42118">
        <ele>742.11</ele>
        <time>2024-09-25T14:10:42.999Z</time>
      </trkpt>
      <trkpt lat="42.19715" lon="2.42104">
        <ele>742.4</ele>
        <time>2024-09-25T14:10:47.999Z</time>
      </trkpt>
      <trkpt lat="42.19717" lon="2.42089">
        <ele>742.67</ele>
        <time>2024-09-25T14:10:52.999Z</time>
      </trkpt>
      <trkpt lat="42.19721" lon="2.42075">
        <ele>742.94</ele>
        <time>2024-09-25T14:10:57.999Z</time>
      </trkpt>
      <trkpt lat="42.19725" lon="2.42061">
        <ele>743.19</ele>
        <time>2024-09-25T14:11:02.999Z</time>
      </trkpt>
      <trkpt lat="42.19729" lon="2.42048">
        <ele>743.43</ele>
        <time>2024-09-25T14:11:07.999Z</time>
      </trkpt>
      <trkpt lat="42.19733" lon="2.42035">
        <ele>743.66</ele>
        <time>2024-09-25T14:11:12.999Z</time>
      </trkpt>
      <trkpt lat="42.19736" lon="2.42022">
        <ele>743.87</ele>
        <time>2024-09-25T14:11:17.999Z</time>
      </trkpt>
      <trkpt lat="42.19739" lon="2.4201">
        <ele>744.07</ele>
        <time>2024-09-25T14:11:22.999Z</time>
      </trkpt>
      <trkpt lat="42.19741" lon="2.41997">
        <ele>744.27</ele>
        <time>2024-09-25T14:11:27.999Z</time>
      </trkpt>
      <trkpt lat="42.19743" lon="2.41985">
        <ele>744.44</ele>
        <time>2024-09-25T14:11:32.999Z</time>
      </trkpt>
      <trkpt lat="42.19746" lon="2.41972">
        <ele>744.61</ele>
        <time>2024-09-25T14:11:37.999Z</time>
      </trkpt>
      <trkpt lat="42.1975" lon="2.41961">
        <ele>744.8</ele>
        <time>2024-09-25T14:11:43.999Z</time>
      </trkpt>
      <trkpt lat="42.19754" lon="2.41949">
        <ele>744.98</ele>
        <time>2024-09-25T14:11:49.999Z</time>
      </trkpt>
      <trkpt lat="42.19757" lon="2.41937">
        <ele>745.12</ele>
        <time>2024-09-25T14:11:54.999Z</time>
      </trkpt>
      <trkpt lat="42.19762" lon="2.41925">
        <ele>745.32</ele>
        <time>2024-09-25T14:12:00.999Z</time>
      </trkpt>
      <trkpt lat="42.19765" lon="2.41912">
        <ele>745.53</ele>
        <time>2024-09-25T14:12:06.999Z</time>
      </trkpt>
      <trkpt lat="42.19768" lon="2.41899">
        <ele>745.81</ele>
        <time>2024-09-25T14:12:12.999Z</time>
      </trkpt>
      <trkpt lat="42.1977" lon="2.41886">
        <ele>746.11</ele>
        <time>2024-09-25T14:12:18.999Z</time>
      </trkpt>
      <trkpt lat="42.19773" lon="2.41872">
        <ele>746.45</ele>
        <time>2024-09-25T14:12:24.999Z</time>
      </trkpt>
      <trkpt lat="42.19776" lon="2.41858">
        <ele>746.7</ele>
        <time>2024-09-25T14:12:30.999Z</time>
      </trkpt>
      <trkpt lat="42.19779" lon="2.41845">
        <ele>746.93</ele>
        <time>2024-09-25T14:12:35.999Z</time>
      </trkpt>
      <trkpt lat="42.19782" lon="2.41833">
        <ele>747.21</ele>
        <time>2024-09-25T14:12:40.999Z</time>
      </trkpt>
      <trkpt lat="42.19785" lon="2.4182">
        <ele>747.66</ele>
        <time>2024-09-25T14:12:46.999Z</time>
      </trkpt>
      <trkpt lat="42.19787" lon="2.41807">
        <ele>748.08</ele>
        <time>2024-09-25T14:12:52.999Z</time>
      </trkpt>
      <trkpt lat="42.19789" lon="2.41792">
        <ele>748.48</ele>
        <time>2024-09-25T14:12:58.999Z</time>
      </trkpt>
      <trkpt lat="42.19791" lon="2.41778">
        <ele>748.92</ele>
        <time>2024-09-25T14:13:04.999Z</time>
      </trkpt>
      <trkpt lat="42.19791" lon="2.41766">
        <ele>749.36</ele>
        <time>2024-09-25T14:13:09.999Z</time>
      </trkpt>
      <trkpt lat="42.19793" lon="2.41754">
        <ele>749.9</ele>
        <time>2024-09-25T14:13:14.999Z</time>
      </trkpt>
      <trkpt lat="42.19795" lon="2.41742">
        <ele>750.54</ele>
        <time>2024-09-25T14:13:19.999Z</time>
      </trkpt>
      <trkpt lat="42.19796" lon="2.41728">
        <ele>751.42</ele>
        <time>2024-09-25T14:13:25.999Z</time>
      </trkpt>
      <trkpt lat="42.19795" lon="2.41716">
        <ele>752.23</ele>
        <time>2024-09-25T14:13:30.999Z</time>
      </trkpt>
      <trkpt lat="42.19797" lon="2.41702">
        <ele>753.2</ele>
        <time>2024-09-25T14:13:36.999Z</time>
      </trkpt>
      <trkpt lat="42.19798" lon="2.41689">
        <ele>754.1</ele>
        <time>2024-09-25T14:13:41.999Z</time>
      </trkpt>
      <trkpt lat="42.19801" lon="2.41676">
        <ele>755.23</ele>
        <time>2024-09-25T14:13:47.999Z</time>
      </trkpt>
      <trkpt lat="42.19801" lon="2.41663">
        <ele>756.17</ele>
        <time>2024-09-25T14:13:52.999Z</time>
      </trkpt>
      <trkpt lat="42.19802" lon="2.4165">
        <ele>757.07</ele>
        <time>2024-09-25T14:13:57.999Z</time>
      </trkpt>
      <trkpt lat="42.19805" lon="2.41638">
        <ele>757.95</ele>
        <time>2024-09-25T14:14:02.999Z</time>
      </trkpt>
      <trkpt lat="42.19807" lon="2.41626">
        <ele>758.82</ele>
        <time>2024-09-25T14:14:07.999Z</time>
      </trkpt>
      <trkpt lat="42.19808" lon="2.41614">
        <ele>759.62</ele>
        <time>2024-09-25T14:14:12.999Z</time>
      </trkpt>
      <trkpt lat="42.19808" lon="2.41599">
        <ele>760.5</ele>
        <time>2024-09-25T14:14:18.999Z</time>
      </trkpt>
      <trkpt lat="42.19807" lon="2.41586">
        <ele>761.39</ele>
        <time>2024-09-25T14:14:24.999Z</time>
      </trkpt>
      <trkpt lat="42.19806" lon="2.41573">
        <ele>762.18</ele>
        <time>2024-09-25T14:14:29.999Z</time>
      </trkpt>
      <trkpt lat="42.19803" lon="2.4156">
        <ele>763.26</ele>
        <time>2024-09-25T14:14:36.999Z</time>
      </trkpt>
      <trkpt lat="42.19799" lon="2.41548">
        <ele>764.09</ele>
        <time>2024-09-25T14:14:42.999Z</time>
      </trkpt>
      <trkpt lat="42.19796" lon="2.41536">
        <ele>764.75</ele>
        <time>2024-09-25T14:14:47.999Z</time>
      </trkpt>
      <trkpt lat="42.19794" lon="2.41524">
        <ele>765.48</ele>
        <time>2024-09-25T14:14:52.999Z</time>
      </trkpt>
      <trkpt lat="42.19791" lon="2.4151">
        <ele>766.35</ele>
        <time>2024-09-25T14:14:58.999Z</time>
      </trkpt>
      <trkpt lat="42.19788" lon="2.41497">
        <ele>767.05</ele>
        <time>2024-09-25T14:15:03.999Z</time>
      </trkpt>
      <trkpt lat="42.19786" lon="2.41484">
        <ele>767.82</ele>
        <time>2024-09-25T14:15:09.999Z</time>
      </trkpt>
      <trkpt lat="42.19785" lon="2.4147">
        <ele>768.59</ele>
        <time>2024-09-25T14:15:15.999Z</time>
      </trkpt>
      <trkpt lat="42.19783" lon="2.41457">
        <ele>769.48</ele>
        <time>2024-09-25T14:15:21.999Z</time>
      </trkpt>
      <trkpt lat="42.19783" lon="2.41445">
        <ele>770.3</ele>
        <time>2024-09-25T14:15:27.000Z</time>
      </trkpt>
      <trkpt lat="42.19782" lon="2.41432">
        <ele>771.38</ele>
        <time>2024-09-25T14:15:33.000Z</time>
      </trkpt>
      <trkpt lat="42.19781" lon="2.41418">
        <ele>772.43</ele>
        <time>2024-09-25T14:15:39.000Z</time>
      </trkpt>
      <trkpt lat="42.19781" lon="2.41404">
        <ele>773.31</ele>
        <time>2024-09-25T14:15:45.000Z</time>
      </trkpt>
      <trkpt lat="42.19779" lon="2.4139">
        <ele>774.19</ele>
        <time>2024-09-25T14:15:51.000Z</time>
      </trkpt>
      <trkpt lat="42.19778" lon="2.41377">
        <ele>775.25</ele>
        <time>2024-09-25T14:15:58.000Z</time>
      </trkpt>
      <trkpt lat="42.19777" lon="2.41363">
        <ele>776.39</ele>
        <time>2024-09-25T14:16:05.000Z</time>
      </trkpt>
      <trkpt lat="42.19777" lon="2.4135">
        <ele>777.13</ele>
        <time>2024-09-25T14:16:10.000Z</time>
      </trkpt>
      <trkpt lat="42.19776" lon="2.41338">
        <ele>777.97</ele>
        <time>2024-09-25T14:16:16.000Z</time>
      </trkpt>
      <trkpt lat="42.19774" lon="2.41326">
        <ele>778.8</ele>
        <time>2024-09-25T14:16:22.000Z</time>
      </trkpt>
      <trkpt lat="42.19773" lon="2.41313">
        <ele>779.67</ele>
        <time>2024-09-25T14:16:28.000Z</time>
      </trkpt>
      <trkpt lat="42.19772" lon="2.413">
        <ele>780.51</ele>
        <time>2024-09-25T14:16:34.000Z</time>
      </trkpt>
      <trkpt lat="42.19773" lon="2.41286">
        <ele>781.35</ele>
        <time>2024-09-25T14:16:40.000Z</time>
      </trkpt>
      <trkpt lat="42.19772" lon="2.41272">
        <ele>782.17</ele>
        <time>2024-09-25T14:16:46.000Z</time>
      </trkpt>
      <trkpt lat="42.19771" lon="2.4126">
        <ele>782.77</ele>
        <time>2024-09-25T14:16:51.000Z</time>
      </trkpt>
      <trkpt lat="42.19771" lon="2.41246">
        <ele>783.58</ele>
        <time>2024-09-25T14:16:58.000Z</time>
      </trkpt>
      <trkpt lat="42.19772" lon="2.41234">
        <ele>784.36</ele>
        <time>2024-09-25T14:17:05.000Z</time>
      </trkpt>
      <trkpt lat="42.19772" lon="2.4122">
        <ele>785.16</ele>
        <time>2024-09-25T14:17:12.000Z</time>
      </trkpt>
      <trkpt lat="42.19771" lon="2.41207">
        <ele>785.74</ele>
        <time>2024-09-25T14:17:17.000Z</time>
      </trkpt>
      <trkpt lat="42.19771" lon="2.41194">
        <ele>786.38</ele>
        <time>2024-09-25T14:17:22.000Z</time>
      </trkpt>
      <trkpt lat="42.1977" lon="2.41181">
        <ele>787.1</ele>
        <time>2024-09-25T14:17:28.000Z</time>
      </trkpt>
      <trkpt lat="42.19769" lon="2.41168">
        <ele>787.73</ele>
        <time>2024-09-25T14:17:34.000Z</time>
      </trkpt>
      <trkpt lat="42.19768" lon="2.41154">
        <ele>788.41</ele>
        <time>2024-09-25T14:17:40.000Z</time>
      </trkpt>
      <trkpt lat="42.19769" lon="2.4114">
        <ele>789.26</ele>
        <time>2024-09-25T14:17:47.000Z</time>
      </trkpt>
      <trkpt lat="42.19771" lon="2.41126">
        <ele>789.88</ele>
        <time>2024-09-25T14:17:52.000Z</time>
      </trkpt>
      <trkpt lat="42.19772" lon="2.41112">
        <ele>790.7</ele>
        <time>2024-09-25T14:17:59.000Z</time>
      </trkpt>
      <trkpt lat="42.1977" lon="2.41098">
        <ele>791.3</ele>
        <time>2024-09-25T14:18:05.000Z</time>
      </trkpt>
      <trkpt lat="42.19771" lon="2.41086">
        <ele>791.84</ele>
        <time>2024-09-25T14:18:11.000Z</time>
      </trkpt>
      <trkpt lat="42.1977" lon="2.41072">
        <ele>792.28</ele>
        <time>2024-09-25T14:18:17.000Z</time>
      </trkpt>
      <trkpt lat="42.1977" lon="2.41058">
        <ele>792.73</ele>
        <time>2024-09-25T14:18:23.000Z</time>
      </trkpt>
      <trkpt lat="42.1977" lon="2.41045">
        <ele>793.14</ele>
        <time>2024-09-25T14:18:28.000Z</time>
      </trkpt>
      <trkpt lat="42.1977" lon="2.41032">
        <ele>793.61</ele>
        <time>2024-09-25T14:18:34.000Z</time>
      </trkpt>
      <trkpt lat="42.19771" lon="2.4102">
        <ele>794.16</ele>
        <time>2024-09-25T14:18:41.000Z</time>
      </trkpt>
      <trkpt lat="42.19773" lon="2.41007">
        <ele>794.71</ele>
        <time>2024-09-25T14:18:47.000Z</time>
      </trkpt>
      <trkpt lat="42.19773" lon="2.40993">
        <ele>795.44</ele>
        <time>2024-09-25T14:18:54.000Z</time>
      </trkpt>
      <trkpt lat="42.19775" lon="2.40981">
        <ele>796.02</ele>
        <time>2024-09-25T14:19:00.000Z</time>
      </trkpt>
      <trkpt lat="42.19776" lon="2.40968">
        <ele>796.44</ele>
        <time>2024-09-25T14:19:06.000Z</time>
      </trkpt>
      <trkpt lat="42.19777" lon="2.40956">
        <ele>796.84</ele>
        <time>2024-09-25T14:19:11.000Z</time>
      </trkpt>
      <trkpt lat="42.19778" lon="2.40944">
        <ele>797.5</ele>
        <time>2024-09-25T14:19:19.000Z</time>
      </trkpt>
      <trkpt lat="42.19779" lon="2.40932">
        <ele>798.09</ele>
        <time>2024-09-25T14:19:25.000Z</time>
      </trkpt>
      <trkpt lat="42.1978" lon="2.40918">
        <ele>798.84</ele>
        <time>2024-09-25T14:19:32.000Z</time>
      </trkpt>
      <trkpt lat="42.19781" lon="2.40905">
        <ele>799.51</ele>
        <time>2024-09-25T14:19:38.000Z</time>
      </trkpt>
      <trkpt lat="42.19782" lon="2.40892">
        <ele>800.24</ele>
        <time>2024-09-25T14:19:44.000Z</time>
      </trkpt>
      <trkpt lat="42.19783" lon="2.40879">
        <ele>801.02</ele>
        <time>2024-09-25T14:19:50.000Z</time>
      </trkpt>
      <trkpt lat="42.19784" lon="2.40866">
        <ele>801.83</ele>
        <time>2024-09-25T14:19:56.000Z</time>
      </trkpt>
      <trkpt lat="42.19784" lon="2.40853">
        <ele>802.53</ele>
        <time>2024-09-25T14:20:01.000Z</time>
      </trkpt>
      <trkpt lat="42.19785" lon="2.40841">
        <ele>803.25</ele>
        <time>2024-09-25T14:20:06.000Z</time>
      </trkpt>
      <trkpt lat="42.19786" lon="2.40828">
        <ele>804.11</ele>
        <time>2024-09-25T14:20:12.000Z</time>
      </trkpt>
      <trkpt lat="42.19788" lon="2.40816">
        <ele>804.98</ele>
        <time>2024-09-25T14:20:18.000Z</time>
      </trkpt>
      <trkpt lat="42.1979" lon="2.40804">
        <ele>805.82</ele>
        <time>2024-09-25T14:20:24.000Z</time>
      </trkpt>
      <trkpt lat="42.19793" lon="2.40793">
        <ele>806.64</ele>
        <time>2024-09-25T14:20:30.000Z</time>
      </trkpt>
      <trkpt lat="42.19798" lon="2.40782">
        <ele>807.81</ele>
        <time>2024-09-25T14:20:38.000Z</time>
      </trkpt>
      <trkpt lat="42.19797" lon="2.4077">
        <ele>811.81</ele>
        <time>2024-09-25T14:22:13.000Z</time>
      </trkpt>
      <trkpt lat="42.19797" lon="2.40756">
        <ele>812.64</ele>
        <time>2024-09-25T14:22:19.000Z</time>
      </trkpt>
      <trkpt lat="42.19798" lon="2.40742">
        <ele>813.4</ele>
        <time>2024-09-25T14:22:25.000Z</time>
      </trkpt>
      <trkpt lat="42.19799" lon="2.40729">
        <ele>814.2</ele>
        <time>2024-09-25T14:22:32.000Z</time>
      </trkpt>
      <trkpt lat="42.19801" lon="2.40717">
        <ele>815.02</ele>
        <time>2024-09-25T14:22:40.000Z</time>
      </trkpt>
      <trkpt lat="42.19803" lon="2.40705">
        <ele>815.67</ele>
        <time>2024-09-25T14:22:47.000Z</time>
      </trkpt>
      <trkpt lat="42.19806" lon="2.40691">
        <ele>816.27</ele>
        <time>2024-09-25T14:22:54.000Z</time>
      </trkpt>
      <trkpt lat="42.19808" lon="2.40679">
        <ele>816.85</ele>
        <time>2024-09-25T14:23:01.000Z</time>
      </trkpt>
      <trkpt lat="42.1981" lon="2.40665">
        <ele>817.47</ele>
        <time>2024-09-25T14:23:09.000Z</time>
      </trkpt>
      <trkpt lat="42.19811" lon="2.40652">
        <ele>818.01</ele>
        <time>2024-09-25T14:23:16.000Z</time>
      </trkpt>
      <trkpt lat="42.19813" lon="2.40639">
        <ele>818.53</ele>
        <time>2024-09-25T14:23:23.000Z</time>
      </trkpt>
      <trkpt lat="42.19817" lon="2.40626">
        <ele>819.13</ele>
        <time>2024-09-25T14:23:31.000Z</time>
      </trkpt>
      <trkpt lat="42.19822" lon="2.40613">
        <ele>819.71</ele>
        <time>2024-09-25T14:23:39.000Z</time>
      </trkpt>
      <trkpt lat="42.19827" lon="2.40602">
        <ele>820.29</ele>
        <time>2024-09-25T14:23:47.000Z</time>
      </trkpt>
      <trkpt lat="42.19834" lon="2.40593">
        <ele>820.71</ele>
        <time>2024-09-25T14:23:53.000Z</time>
      </trkpt>
      <trkpt lat="42.1984" lon="2.40583">
        <ele>821.14</ele>
        <time>2024-09-25T14:23:59.000Z</time>
      </trkpt>
      <trkpt lat="42.19847" lon="2.40573">
        <ele>821.72</ele>
        <time>2024-09-25T14:24:07.000Z</time>
      </trkpt>
      <trkpt lat="42.19854" lon="2.40566">
        <ele>822.27</ele>
        <time>2024-09-25T14:24:14.000Z</time>
      </trkpt>
      <trkpt lat="42.19862" lon="2.40557">
        <ele>822.97</ele>
        <time>2024-09-25T14:24:21.000Z</time>
      </trkpt>
      <trkpt lat="42.19869" lon="2.40549">
        <ele>823.7</ele>
        <time>2024-09-25T14:24:28.000Z</time>
      </trkpt>
      <trkpt lat="42.19875" lon="2.40541">
        <ele>824.46</ele>
        <time>2024-09-25T14:24:35.000Z</time>
      </trkpt>
      <trkpt lat="42.19882" lon="2.40532">
        <ele>825.1</ele>
        <time>2024-09-25T14:24:41.000Z</time>
      </trkpt>
      <trkpt lat="42.19889" lon="2.40524">
        <ele>825.94</ele>
        <time>2024-09-25T14:24:48.000Z</time>
      </trkpt>
      <trkpt lat="42.19896" lon="2.40514">
        <ele>826.82</ele>
        <time>2024-09-25T14:24:55.000Z</time>
      </trkpt>
      <trkpt lat="42.19904" lon="2.40506">
        <ele>827.63</ele>
        <time>2024-09-25T14:25:01.000Z</time>
      </trkpt>
      <trkpt lat="42.19911" lon="2.40498">
        <ele>828.6</ele>
        <time>2024-09-25T14:25:08.000Z</time>
      </trkpt>
      <trkpt lat="42.19918" lon="2.4049">
        <ele>829.47</ele>
        <time>2024-09-25T14:25:14.000Z</time>
      </trkpt>
      <trkpt lat="42.19925" lon="2.4048">
        <ele>830.45</ele>
        <time>2024-09-25T14:25:21.000Z</time>
      </trkpt>
      <trkpt lat="42.19931" lon="2.40472">
        <ele>832.57</ele>
        <time>2024-09-25T14:25:28.000Z</time>
      </trkpt>
      <trkpt lat="42.19938" lon="2.40462">
        <ele>837</ele>
        <time>2024-09-25T14:25:35.000Z</time>
      </trkpt>
      <trkpt lat="42.19942" lon="2.40449">
        <ele>837.76</ele>
        <time>2024-09-25T14:25:43.000Z</time>
      </trkpt>
      <trkpt lat="42.19944" lon="2.40437">
        <ele>838.74</ele>
        <time>2024-09-25T14:25:50.000Z</time>
      </trkpt>
      <trkpt lat="42.19944" lon="2.40424">
        <ele>839.04</ele>
        <time>2024-09-25T14:25:56.000Z</time>
      </trkpt>
      <trkpt lat="42.19943" lon="2.4041">
        <ele>839.38</ele>
        <time>2024-09-25T14:26:04.000Z</time>
      </trkpt>
      <trkpt lat="42.19941" lon="2.40397">
        <ele>839.67</ele>
        <time>2024-09-25T14:26:12.000Z</time>
      </trkpt>
      <trkpt lat="42.19937" lon="2.40383">
        <ele>839.91</ele>
        <time>2024-09-25T14:26:20.000Z</time>
      </trkpt>
      <trkpt lat="42.19933" lon="2.40372">
        <ele>840.15</ele>
        <time>2024-09-25T14:26:28.000Z</time>
      </trkpt>
      <trkpt lat="42.1993" lon="2.40358">
        <ele>840.53</ele>
        <time>2024-09-25T14:26:36.000Z</time>
      </trkpt>
      <trkpt lat="42.19928" lon="2.40346">
        <ele>840.88</ele>
        <time>2024-09-25T14:26:42.000Z</time>
      </trkpt>
      <trkpt lat="42.19925" lon="2.40333">
        <ele>841.31</ele>
        <time>2024-09-25T14:26:49.000Z</time>
      </trkpt>
      <trkpt lat="42.1992" lon="2.40321">
        <ele>841.85</ele>
        <time>2024-09-25T14:26:57.000Z</time>
      </trkpt>
      <trkpt lat="42.19916" lon="2.40308">
        <ele>842.3</ele>
        <time>2024-09-25T14:27:04.000Z</time>
      </trkpt>
      <trkpt lat="42.19911" lon="2.40297">
        <ele>842.72</ele>
        <time>2024-09-25T14:27:11.000Z</time>
      </trkpt>
      <trkpt lat="42.19906" lon="2.40285">
        <ele>843.21</ele>
        <time>2024-09-25T14:27:19.000Z</time>
      </trkpt>
      <trkpt lat="42.19901" lon="2.40273">
        <ele>843.66</ele>
        <time>2024-09-25T14:27:25.999Z</time>
      </trkpt>
      <trkpt lat="42.19898" lon="2.40261">
        <ele>844.14</ele>
        <time>2024-09-25T14:27:32.999Z</time>
      </trkpt>
      <trkpt lat="42.19895" lon="2.40249">
        <ele>844.71</ele>
        <time>2024-09-25T14:27:40.999Z</time>
      </trkpt>
      <trkpt lat="42.19894" lon="2.40235">
        <ele>845.14</ele>
        <time>2024-09-25T14:27:46.999Z</time>
      </trkpt>
      <trkpt lat="42.19892" lon="2.40222">
        <ele>845.71</ele>
        <time>2024-09-25T14:27:54.999Z</time>
      </trkpt>
      <trkpt lat="42.1989" lon="2.4021">
        <ele>846.09</ele>
        <time>2024-09-25T14:28:00.999Z</time>
      </trkpt>
      <trkpt lat="42.19887" lon="2.40198">
        <ele>846.72</ele>
        <time>2024-09-25T14:28:09.999Z</time>
      </trkpt>
      <trkpt lat="42.1988" lon="2.40189">
        <ele>847.18</ele>
        <time>2024-09-25T14:28:15.999Z</time>
      </trkpt>
      <trkpt lat="42.19874" lon="2.40178">
        <ele>847.76</ele>
        <time>2024-09-25T14:28:22.999Z</time>
      </trkpt>
      <trkpt lat="42.19868" lon="2.40168">
        <ele>848.37</ele>
        <time>2024-09-25T14:28:28.999Z</time>
      </trkpt>
      <trkpt lat="42.19863" lon="2.40157">
        <ele>849.25</ele>
        <time>2024-09-25T14:28:35.999Z</time>
      </trkpt>
      <trkpt lat="42.19857" lon="2.40147">
        <ele>850.18</ele>
        <time>2024-09-25T14:28:41.999Z</time>
      </trkpt>
      <trkpt lat="42.19852" lon="2.40136">
        <ele>851.16</ele>
        <time>2024-09-25T14:28:47.999Z</time>
      </trkpt>
      <trkpt lat="42.19848" lon="2.40125">
        <ele>852.06</ele>
        <time>2024-09-25T14:28:53.999Z</time>
      </trkpt>
      <trkpt lat="42.19846" lon="2.40111">
        <ele>852.85</ele>
        <time>2024-09-25T14:28:59.999Z</time>
      </trkpt>
      <trkpt lat="42.19846" lon="2.40098">
        <ele>853.55</ele>
        <time>2024-09-25T14:29:05.999Z</time>
      </trkpt>
      <trkpt lat="42.19846" lon="2.40085">
        <ele>854.27</ele>
        <time>2024-09-25T14:29:11.999Z</time>
      </trkpt>
      <trkpt lat="42.19844" lon="2.40073">
        <ele>855.22</ele>
        <time>2024-09-25T14:29:19.999Z</time>
      </trkpt>
      <trkpt lat="42.19844" lon="2.4006">
        <ele>855.94</ele>
        <time>2024-09-25T14:29:25.999Z</time>
      </trkpt>
      <trkpt lat="42.19842" lon="2.40047">
        <ele>856.57</ele>
        <time>2024-09-25T14:29:30.999Z</time>
      </trkpt>
      <trkpt lat="42.19841" lon="2.40034">
        <ele>857.32</ele>
        <time>2024-09-25T14:29:36.999Z</time>
      </trkpt>
      <trkpt lat="42.19842" lon="2.4002">
        <ele>858.03</ele>
        <time>2024-09-25T14:29:42.999Z</time>
      </trkpt>
      <trkpt lat="42.19842" lon="2.40007">
        <ele>858.83</ele>
        <time>2024-09-25T14:29:49.999Z</time>
      </trkpt>
      <trkpt lat="42.19843" lon="2.39994">
        <ele>859.49</ele>
        <time>2024-09-25T14:29:55.999Z</time>
      </trkpt>
      <trkpt lat="42.19842" lon="2.39982">
        <ele>860.13</ele>
        <time>2024-09-25T14:30:01.999Z</time>
      </trkpt>
      <trkpt lat="42.19844" lon="2.39969">
        <ele>860.67</ele>
        <time>2024-09-25T14:30:06.999Z</time>
      </trkpt>
      <trkpt lat="42.19845" lon="2.39957">
        <ele>861.22</ele>
        <time>2024-09-25T14:30:11.999Z</time>
      </trkpt>
      <trkpt lat="42.19848" lon="2.39945">
        <ele>861.75</ele>
        <time>2024-09-25T14:30:16.999Z</time>
      </trkpt>
      <trkpt lat="42.19852" lon="2.39933">
        <ele>862.39</ele>
        <time>2024-09-25T14:30:22.999Z</time>
      </trkpt>
      <trkpt lat="42.19855" lon="2.39921">
        <ele>862.89</ele>
        <time>2024-09-25T14:30:27.999Z</time>
      </trkpt>
      <trkpt lat="42.19858" lon="2.39909">
        <ele>863.49</ele>
        <time>2024-09-25T14:30:33.999Z</time>
      </trkpt>
      <trkpt lat="42.19862" lon="2.39897">
        <ele>864.08</ele>
        <time>2024-09-25T14:30:39.999Z</time>
      </trkpt>
      <trkpt lat="42.19868" lon="2.39885">
        <ele>864.77</ele>
        <time>2024-09-25T14:30:46.999Z</time>
      </trkpt>
      <trkpt lat="42.19875" lon="2.39875">
        <ele>865.38</ele>
        <time>2024-09-25T14:30:52.999Z</time>
      </trkpt>
      <trkpt lat="42.19882" lon="2.39865">
        <ele>865.99</ele>
        <time>2024-09-25T14:30:58.999Z</time>
      </trkpt>
      <trkpt lat="42.19888" lon="2.39855">
        <ele>866.59</ele>
        <time>2024-09-25T14:31:04.999Z</time>
      </trkpt>
      <trkpt lat="42.19893" lon="2.39843">
        <ele>867.26</ele>
        <time>2024-09-25T14:31:11.999Z</time>
      </trkpt>
      <trkpt lat="42.199" lon="2.39834">
        <ele>867.84</ele>
        <time>2024-09-25T14:31:17.999Z</time>
      </trkpt>
      <trkpt lat="42.19906" lon="2.39823">
        <ele>868.41</ele>
        <time>2024-09-25T14:31:23.999Z</time>
      </trkpt>
      <trkpt lat="42.19914" lon="2.39814">
        <ele>869.06</ele>
        <time>2024-09-25T14:31:30.999Z</time>
      </trkpt>
      <trkpt lat="42.1992" lon="2.39804">
        <ele>869.6</ele>
        <time>2024-09-25T14:31:36.999Z</time>
      </trkpt>
      <trkpt lat="42.19925" lon="2.39793">
        <ele>870.11</ele>
        <time>2024-09-25T14:31:42.999Z</time>
      </trkpt>
      <trkpt lat="42.19933" lon="2.39783">
        <ele>870.61</ele>
        <time>2024-09-25T14:31:48.999Z</time>
      </trkpt>
      <trkpt lat="42.19939" lon="2.39774">
        <ele>871.13</ele>
        <time>2024-09-25T14:31:54.999Z</time>
      </trkpt>
      <trkpt lat="42.19946" lon="2.39767">
        <ele>871.73</ele>
        <time>2024-09-25T14:32:01.999Z</time>
      </trkpt>
      <trkpt lat="42.19955" lon="2.39759">
        <ele>872.33</ele>
        <time>2024-09-25T14:32:08.999Z</time>
      </trkpt>
      <trkpt lat="42.19963" lon="2.39752">
        <ele>872.86</ele>
        <time>2024-09-25T14:32:14.999Z</time>
      </trkpt>
      <trkpt lat="42.19971" lon="2.39746">
        <ele>873.31</ele>
        <time>2024-09-25T14:32:19.999Z</time>
      </trkpt>
      <trkpt lat="42.19979" lon="2.39738">
        <ele>873.86</ele>
        <time>2024-09-25T14:32:25.999Z</time>
      </trkpt>
      <trkpt lat="42.19985" lon="2.39729">
        <ele>874.4</ele>
        <time>2024-09-25T14:32:31.999Z</time>
      </trkpt>
      <trkpt lat="42.19989" lon="2.39718">
        <ele>874.96</ele>
        <time>2024-09-25T14:32:37.999Z</time>
      </trkpt>
      <trkpt lat="42.19993" lon="2.39706">
        <ele>875.42</ele>
        <time>2024-09-25T14:32:42.999Z</time>
      </trkpt>
      <trkpt lat="42.19994" lon="2.39693">
        <ele>875.95</ele>
        <time>2024-09-25T14:32:48.999Z</time>
      </trkpt>
      <trkpt lat="42.19992" lon="2.39678">
        <ele>876.51</ele>
        <time>2024-09-25T14:32:55.999Z</time>
      </trkpt>
      <trkpt lat="42.19991" lon="2.39665">
        <ele>876.95</ele>
        <time>2024-09-25T14:33:01.999Z</time>
      </trkpt>
      <trkpt lat="42.19989" lon="2.39651">
        <ele>877.36</ele>
        <time>2024-09-25T14:33:07.999Z</time>
      </trkpt>
      <trkpt lat="42.19989" lon="2.39637">
        <ele>877.77</ele>
        <time>2024-09-25T14:33:14.999Z</time>
      </trkpt>
      <trkpt lat="42.19985" lon="2.39625">
        <ele>878.13</ele>
        <time>2024-09-25T14:33:20.999Z</time>
      </trkpt>
      <trkpt lat="42.19977" lon="2.39618">
        <ele>878.41</ele>
        <time>2024-09-25T14:33:26.999Z</time>
      </trkpt>
      <trkpt lat="42.19982" lon="2.39607">
        <ele>884.06</ele>
        <time>2024-09-25T14:34:56.999Z</time>
      </trkpt>
      <trkpt lat="42.19984" lon="2.39593">
        <ele>885.38</ele>
        <time>2024-09-25T14:35:02.999Z</time>
      </trkpt>
      <trkpt lat="42.19986" lon="2.39581">
        <ele>886.57</ele>
        <time>2024-09-25T14:35:08.999Z</time>
      </trkpt>
      <trkpt lat="42.19988" lon="2.39568">
        <ele>888.96</ele>
        <time>2024-09-25T14:35:13.999Z</time>
      </trkpt>
      <trkpt lat="42.19991" lon="2.39555">
        <ele>889.74</ele>
        <time>2024-09-25T14:35:18.999Z</time>
      </trkpt>
      <trkpt lat="42.19992" lon="2.39542">
        <ele>890.79</ele>
        <time>2024-09-25T14:35:27.999Z</time>
      </trkpt>
      <trkpt lat="42.19992" lon="2.39528">
        <ele>891.51</ele>
        <time>2024-09-25T14:35:34.999Z</time>
      </trkpt>
      <trkpt lat="42.19994" lon="2.39514">
        <ele>892.08</ele>
        <time>2024-09-25T14:35:40.999Z</time>
      </trkpt>
      <trkpt lat="42.19992" lon="2.39502">
        <ele>892.52</ele>
        <time>2024-09-25T14:35:45.999Z</time>
      </trkpt>
      <trkpt lat="42.1999" lon="2.39489">
        <ele>893.02</ele>
        <time>2024-09-25T14:35:52.999Z</time>
      </trkpt>
      <trkpt lat="42.19986" lon="2.39477">
        <ele>893.41</ele>
        <time>2024-09-25T14:35:58.999Z</time>
      </trkpt>
      <trkpt lat="42.19984" lon="2.39464">
        <ele>893.81</ele>
        <time>2024-09-25T14:36:04.999Z</time>
      </trkpt>
      <trkpt lat="42.19982" lon="2.39452">
        <ele>894.17</ele>
        <time>2024-09-25T14:36:09.999Z</time>
      </trkpt>
      <trkpt lat="42.19979" lon="2.39439">
        <ele>894.59</ele>
        <time>2024-09-25T14:36:15.999Z</time>
      </trkpt>
      <trkpt lat="42.19974" lon="2.39428">
        <ele>894.96</ele>
        <time>2024-09-25T14:36:20.999Z</time>
      </trkpt>
      <trkpt lat="42.1997" lon="2.39417">
        <ele>895.33</ele>
        <time>2024-09-25T14:36:25.999Z</time>
      </trkpt>
      <trkpt lat="42.19966" lon="2.39403">
        <ele>895.82</ele>
        <time>2024-09-25T14:36:31.999Z</time>
      </trkpt>
      <trkpt lat="42.19964" lon="2.39391">
        <ele>896.41</ele>
        <time>2024-09-25T14:36:37.999Z</time>
      </trkpt>
      <trkpt lat="42.19961" lon="2.39379">
        <ele>897.04</ele>
        <time>2024-09-25T14:36:43.999Z</time>
      </trkpt>
      <trkpt lat="42.19959" lon="2.39366">
        <ele>897.66</ele>
        <time>2024-09-25T14:36:49.999Z</time>
      </trkpt>
      <trkpt lat="42.19955" lon="2.39353">
        <ele>898.26</ele>
        <time>2024-09-25T14:36:55.999Z</time>
      </trkpt>
      <trkpt lat="42.19952" lon="2.39341">
        <ele>898.77</ele>
        <time>2024-09-25T14:37:00.999Z</time>
      </trkpt>
      <trkpt lat="42.19949" lon="2.39329">
        <ele>899.4</ele>
        <time>2024-09-25T14:37:06.999Z</time>
      </trkpt>
      <trkpt lat="42.19947" lon="2.39317">
        <ele>900.15</ele>
        <time>2024-09-25T14:37:13.999Z</time>
      </trkpt>
      <trkpt lat="42.19946" lon="2.39304">
        <ele>900.78</ele>
        <time>2024-09-25T14:37:18.999Z</time>
      </trkpt>
      <trkpt lat="42.19946" lon="2.39288">
        <ele>901.5</ele>
        <time>2024-09-25T14:37:23.999Z</time>
      </trkpt>
      <trkpt lat="42.19946" lon="2.39274">
        <ele>903.7</ele>
        <time>2024-09-25T14:37:29.999Z</time>
      </trkpt>
      <trkpt lat="42.19947" lon="2.3926">
        <ele>904.43</ele>
        <time>2024-09-25T14:37:35.999Z</time>
      </trkpt>
      <trkpt lat="42.1995" lon="2.39247">
        <ele>905.14</ele>
        <time>2024-09-25T14:37:41.999Z</time>
      </trkpt>
      <trkpt lat="42.19952" lon="2.39233">
        <ele>905.86</ele>
        <time>2024-09-25T14:37:47.999Z</time>
      </trkpt>
      <trkpt lat="42.19954" lon="2.3922">
        <ele>906.57</ele>
        <time>2024-09-25T14:37:53.999Z</time>
      </trkpt>
      <trkpt lat="42.19956" lon="2.39206">
        <ele>907.4</ele>
        <time>2024-09-25T14:38:00.999Z</time>
      </trkpt>
      <trkpt lat="42.19959" lon="2.39194">
        <ele>908.27</ele>
        <time>2024-09-25T14:38:07.999Z</time>
      </trkpt>
      <trkpt lat="42.19962" lon="2.39182">
        <ele>908.86</ele>
        <time>2024-09-25T14:38:12.999Z</time>
      </trkpt>
      <trkpt lat="42.19967" lon="2.39171">
        <ele>909.41</ele>
        <time>2024-09-25T14:38:17.999Z</time>
      </trkpt>
      <trkpt lat="42.19972" lon="2.39159">
        <ele>910.04</ele>
        <time>2024-09-25T14:38:23.999Z</time>
      </trkpt>
      <trkpt lat="42.19979" lon="2.39149">
        <ele>910.64</ele>
        <time>2024-09-25T14:38:29.999Z</time>
      </trkpt>
      <trkpt lat="42.19986" lon="2.3914">
        <ele>911.26</ele>
        <time>2024-09-25T14:38:35.999Z</time>
      </trkpt>
      <trkpt lat="42.19993" lon="2.39131">
        <ele>911.86</ele>
        <time>2024-09-25T14:38:41.999Z</time>
      </trkpt>
      <trkpt lat="42.20001" lon="2.39124">
        <ele>912.35</ele>
        <time>2024-09-25T14:38:47.999Z</time>
      </trkpt>
      <trkpt lat="42.20008" lon="2.39115">
        <ele>912.88</ele>
        <time>2024-09-25T14:38:53.999Z</time>
      </trkpt>
      <trkpt lat="42.20017" lon="2.39109">
        <ele>913.45</ele>
        <time>2024-09-25T14:38:59.999Z</time>
      </trkpt>
      <trkpt lat="42.20026" lon="2.391">
        <ele>914.04</ele>
        <time>2024-09-25T14:39:05.999Z</time>
      </trkpt>
      <trkpt lat="42.20034" lon="2.39091">
        <ele>914.66</ele>
        <time>2024-09-25T14:39:11.999Z</time>
      </trkpt>
      <trkpt lat="42.20041" lon="2.39084">
        <ele>915.29</ele>
        <time>2024-09-25T14:39:17.999Z</time>
      </trkpt>
      <trkpt lat="42.20047" lon="2.39074">
        <ele>915.96</ele>
        <time>2024-09-25T14:39:24.999Z</time>
      </trkpt>
      <trkpt lat="42.20054" lon="2.39063">
        <ele>916.46</ele>
        <time>2024-09-25T14:39:31.000Z</time>
      </trkpt>
      <trkpt lat="42.2006" lon="2.39052">
        <ele>916.93</ele>
        <time>2024-09-25T14:39:37.000Z</time>
      </trkpt>
      <trkpt lat="42.20067" lon="2.39044">
        <ele>917.4</ele>
        <time>2024-09-25T14:39:43.000Z</time>
      </trkpt>
      <trkpt lat="42.20074" lon="2.39033">
        <ele>917.9</ele>
        <time>2024-09-25T14:39:49.000Z</time>
      </trkpt>
      <trkpt lat="42.20079" lon="2.39023">
        <ele>918.43</ele>
        <time>2024-09-25T14:39:55.000Z</time>
      </trkpt>
      <trkpt lat="42.20085" lon="2.39013">
        <ele>918.96</ele>
        <time>2024-09-25T14:40:01.000Z</time>
      </trkpt>
      <trkpt lat="42.20093" lon="2.39003">
        <ele>919.56</ele>
        <time>2024-09-25T14:40:08.000Z</time>
      </trkpt>
      <trkpt lat="42.20101" lon="2.38995">
        <ele>919.95</ele>
        <time>2024-09-25T14:40:13.000Z</time>
      </trkpt>
      <trkpt lat="42.20106" lon="2.38984">
        <ele>920.35</ele>
        <time>2024-09-25T14:40:18.000Z</time>
      </trkpt>
      <trkpt lat="42.20111" lon="2.38972">
        <ele>920.87</ele>
        <time>2024-09-25T14:40:24.000Z</time>
      </trkpt>
      <trkpt lat="42.20114" lon="2.38958">
        <ele>921.42</ele>
        <time>2024-09-25T14:40:30.000Z</time>
      </trkpt>
      <trkpt lat="42.20116" lon="2.38945">
        <ele>921.96</ele>
        <time>2024-09-25T14:40:36.000Z</time>
      </trkpt>
      <trkpt lat="42.20119" lon="2.38932">
        <ele>922.48</ele>
        <time>2024-09-25T14:40:42.000Z</time>
      </trkpt>
      <trkpt lat="42.2012" lon="2.3892">
        <ele>922.91</ele>
        <time>2024-09-25T14:40:47.000Z</time>
      </trkpt>
      <trkpt lat="42.20123" lon="2.38908">
        <ele>923.47</ele>
        <time>2024-09-25T14:40:53.000Z</time>
      </trkpt>
      <trkpt lat="42.20126" lon="2.38896">
        <ele>923.93</ele>
        <time>2024-09-25T14:40:58.000Z</time>
      </trkpt>
      <trkpt lat="42.20129" lon="2.38883">
        <ele>924.48</ele>
        <time>2024-09-25T14:41:04.000Z</time>
      </trkpt>
      <trkpt lat="42.20133" lon="2.38871">
        <ele>925.03</ele>
        <time>2024-09-25T14:41:09.000Z</time>
      </trkpt>
      <trkpt lat="42.20136" lon="2.38859">
        <ele>925.73</ele>
        <time>2024-09-25T14:41:15.000Z</time>
      </trkpt>
      <trkpt lat="42.20136" lon="2.38846">
        <ele>926.44</ele>
        <time>2024-09-25T14:41:21.000Z</time>
      </trkpt>
      <trkpt lat="42.20137" lon="2.38833">
        <ele>927.06</ele>
        <time>2024-09-25T14:41:26.000Z</time>
      </trkpt>
      <trkpt lat="42.20139" lon="2.38819">
        <ele>928.05</ele>
        <time>2024-09-25T14:41:33.000Z</time>
      </trkpt>
      <trkpt lat="42.20141" lon="2.38805">
        <ele>928.9</ele>
        <time>2024-09-25T14:41:39.000Z</time>
      </trkpt>
      <trkpt lat="42.2014" lon="2.38791">
        <ele>929.69</ele>
        <time>2024-09-25T14:41:45.000Z</time>
      </trkpt>
      <trkpt lat="42.20142" lon="2.38778">
        <ele>930.3</ele>
        <time>2024-09-25T14:41:50.000Z</time>
      </trkpt>
      <trkpt lat="42.20143" lon="2.38766">
        <ele>931.11</ele>
        <time>2024-09-25T14:41:56.000Z</time>
      </trkpt>
      <trkpt lat="42.20144" lon="2.38753">
        <ele>932.04</ele>
        <time>2024-09-25T14:42:03.000Z</time>
      </trkpt>
      <trkpt lat="42.20145" lon="2.3874">
        <ele>932.81</ele>
        <time>2024-09-25T14:42:09.000Z</time>
      </trkpt>
      <trkpt lat="42.20147" lon="2.38727">
        <ele>933.54</ele>
        <time>2024-09-25T14:42:15.000Z</time>
      </trkpt>
      <trkpt lat="42.20149" lon="2.38713">
        <ele>934.23</ele>
        <time>2024-09-25T14:42:21.000Z</time>
      </trkpt>
      <trkpt lat="42.20151" lon="2.387">
        <ele>934.86</ele>
        <time>2024-09-25T14:42:27.000Z</time>
      </trkpt>
      <trkpt lat="42.20154" lon="2.38688">
        <ele>935.48</ele>
        <time>2024-09-25T14:42:33.000Z</time>
      </trkpt>
      <trkpt lat="42.20158" lon="2.38677">
        <ele>936.01</ele>
        <time>2024-09-25T14:42:38.000Z</time>
      </trkpt>
      <trkpt lat="42.20163" lon="2.38665">
        <ele>936.72</ele>
        <time>2024-09-25T14:42:44.000Z</time>
      </trkpt>
      <trkpt lat="42.20168" lon="2.38655">
        <ele>937.48</ele>
        <time>2024-09-25T14:42:50.000Z</time>
      </trkpt>
      <trkpt lat="42.20172" lon="2.38642">
        <ele>938.49</ele>
        <time>2024-09-25T14:42:58.000Z</time>
      </trkpt>
      <trkpt lat="42.20176" lon="2.38631">
        <ele>939.2</ele>
        <time>2024-09-25T14:43:04.000Z</time>
      </trkpt>
      <trkpt lat="42.20181" lon="2.38619">
        <ele>940.06</ele>
        <time>2024-09-25T14:43:11.000Z</time>
      </trkpt>
      <trkpt lat="42.20186" lon="2.38608">
        <ele>940.78</ele>
        <time>2024-09-25T14:43:17.000Z</time>
      </trkpt>
      <trkpt lat="42.20191" lon="2.38596">
        <ele>941.48</ele>
        <time>2024-09-25T14:43:23.000Z</time>
      </trkpt>
      <trkpt lat="42.20195" lon="2.38585">
        <ele>942.18</ele>
        <time>2024-09-25T14:43:29.000Z</time>
      </trkpt>
      <trkpt lat="42.20198" lon="2.38573">
        <ele>942.72</ele>
        <time>2024-09-25T14:43:34.000Z</time>
      </trkpt>
      <trkpt lat="42.20202" lon="2.38562">
        <ele>943.19</ele>
        <time>2024-09-25T14:43:39.000Z</time>
      </trkpt>
      <trkpt lat="42.20205" lon="2.38549">
        <ele>943.65</ele>
        <time>2024-09-25T14:43:44.000Z</time>
      </trkpt>
      <trkpt lat="42.20208" lon="2.38535">
        <ele>944.19</ele>
        <time>2024-09-25T14:43:50.000Z</time>
      </trkpt>
      <trkpt lat="42.20211" lon="2.38522">
        <ele>944.71</ele>
        <time>2024-09-25T14:43:56.000Z</time>
      </trkpt>
      <trkpt lat="42.20215" lon="2.38509">
        <ele>945.34</ele>
        <time>2024-09-25T14:44:03.000Z</time>
      </trkpt>
      <trkpt lat="42.20219" lon="2.38497">
        <ele>945.97</ele>
        <time>2024-09-25T14:44:09.000Z</time>
      </trkpt>
      <trkpt lat="42.20223" lon="2.38485">
        <ele>946.64</ele>
        <time>2024-09-25T14:44:15.000Z</time>
      </trkpt>
      <trkpt lat="42.20227" lon="2.38473">
        <ele>947.29</ele>
        <time>2024-09-25T14:44:21.000Z</time>
      </trkpt>
      <trkpt lat="42.20231" lon="2.38461">
        <ele>947.91</ele>
        <time>2024-09-25T14:44:27.000Z</time>
      </trkpt>
      <trkpt lat="42.20234" lon="2.38447">
        <ele>948.63</ele>
        <time>2024-09-25T14:44:34.000Z</time>
      </trkpt>
      <trkpt lat="42.20239" lon="2.38434">
        <ele>949.28</ele>
        <time>2024-09-25T14:44:40.000Z</time>
      </trkpt>
      <trkpt lat="42.20242" lon="2.38423">
        <ele>949.77</ele>
        <time>2024-09-25T14:44:45.000Z</time>
      </trkpt>
      <trkpt lat="42.20247" lon="2.38411">
        <ele>950.36</ele>
        <time>2024-09-25T14:44:51.000Z</time>
      </trkpt>
      <trkpt lat="42.2025" lon="2.384">
        <ele>950.96</ele>
        <time>2024-09-25T14:44:57.000Z</time>
      </trkpt>
      <trkpt lat="42.20254" lon="2.38387">
        <ele>951.54</ele>
        <time>2024-09-25T14:45:03.000Z</time>
      </trkpt>
      <trkpt lat="42.20258" lon="2.38373">
        <ele>952.21</ele>
        <time>2024-09-25T14:45:10.000Z</time>
      </trkpt>
      <trkpt lat="42.2026" lon="2.38361">
        <ele>952.81</ele>
        <time>2024-09-25T14:45:16.000Z</time>
      </trkpt>
      <trkpt lat="42.20264" lon="2.38348">
        <ele>953.45</ele>
        <time>2024-09-25T14:45:22.000Z</time>
      </trkpt>
      <trkpt lat="42.20269" lon="2.38335">
        <ele>954.22</ele>
        <time>2024-09-25T14:45:29.000Z</time>
      </trkpt>
      <trkpt lat="42.20272" lon="2.38322">
        <ele>954.84</ele>
        <time>2024-09-25T14:45:35.000Z</time>
      </trkpt>
      <trkpt lat="42.20275" lon="2.38309">
        <ele>955.78</ele>
        <time>2024-09-25T14:45:43.000Z</time>
      </trkpt>
      <trkpt lat="42.20278" lon="2.38295">
        <ele>956.63</ele>
        <time>2024-09-25T14:45:50.000Z</time>
      </trkpt>
      <trkpt lat="42.20278" lon="2.38282">
        <ele>957.25</ele>
        <time>2024-09-25T14:45:56.000Z</time>
      </trkpt>
      <trkpt lat="42.20279" lon="2.38268">
        <ele>957.82</ele>
        <time>2024-09-25T14:46:02.000Z</time>
      </trkpt>
      <trkpt lat="42.20279" lon="2.38256">
        <ele>958.46</ele>
        <time>2024-09-25T14:46:08.000Z</time>
      </trkpt>
      <trkpt lat="42.20279" lon="2.38242">
        <ele>959.19</ele>
        <time>2024-09-25T14:46:14.000Z</time>
      </trkpt>
      <trkpt lat="42.20279" lon="2.38228">
        <ele>959.79</ele>
        <time>2024-09-25T14:46:19.000Z</time>
      </trkpt>
      <trkpt lat="42.20279" lon="2.38214">
        <ele>960.51</ele>
        <time>2024-09-25T14:46:25.000Z</time>
      </trkpt>
      <trkpt lat="42.20279" lon="2.38202">
        <ele>961.09</ele>
        <time>2024-09-25T14:46:30.000Z</time>
      </trkpt>
      <trkpt lat="42.20279" lon="2.3819">
        <ele>961.83</ele>
        <time>2024-09-25T14:46:36.000Z</time>
      </trkpt>
      <trkpt lat="42.2028" lon="2.38176">
        <ele>962.55</ele>
        <time>2024-09-25T14:46:42.000Z</time>
      </trkpt>
      <trkpt lat="42.2028" lon="2.38164">
        <ele>963.11</ele>
        <time>2024-09-25T14:46:47.000Z</time>
      </trkpt>
      <trkpt lat="42.20279" lon="2.38151">
        <ele>963.76</ele>
        <time>2024-09-25T14:46:53.000Z</time>
      </trkpt>
      <trkpt lat="42.2028" lon="2.38138">
        <ele>964.33</ele>
        <time>2024-09-25T14:46:58.000Z</time>
      </trkpt>
      <trkpt lat="42.2028" lon="2.38125">
        <ele>965.01</ele>
        <time>2024-09-25T14:47:04.000Z</time>
      </trkpt>
      <trkpt lat="42.2028" lon="2.38112">
        <ele>965.8</ele>
        <time>2024-09-25T14:47:11.000Z</time>
      </trkpt>
      <trkpt lat="42.2028" lon="2.38098">
        <ele>966.33</ele>
        <time>2024-09-25T14:47:16.000Z</time>
      </trkpt>
      <trkpt lat="42.2028" lon="2.38085">
        <ele>966.8</ele>
        <time>2024-09-25T14:47:21.000Z</time>
      </trkpt>
      <trkpt lat="42.2028" lon="2.38071">
        <ele>967.32</ele>
        <time>2024-09-25T14:47:27.000Z</time>
      </trkpt>
      <trkpt lat="42.20281" lon="2.38057">
        <ele>967.85</ele>
        <time>2024-09-25T14:47:33.000Z</time>
      </trkpt>
      <trkpt lat="42.20281" lon="2.38043">
        <ele>968.37</ele>
        <time>2024-09-25T14:47:39.000Z</time>
      </trkpt>
      <trkpt lat="42.20281" lon="2.38029">
        <ele>968.87</ele>
        <time>2024-09-25T14:47:45.000Z</time>
      </trkpt>
      <trkpt lat="42.20282" lon="2.38016">
        <ele>969.36</ele>
        <time>2024-09-25T14:47:51.000Z</time>
      </trkpt>
      <trkpt lat="42.20283" lon="2.38002">
        <ele>969.87</ele>
        <time>2024-09-25T14:47:57.000Z</time>
      </trkpt>
      <trkpt lat="42.20286" lon="2.37989">
        <ele>970.29</ele>
        <time>2024-09-25T14:48:02.000Z</time>
      </trkpt>
      <trkpt lat="42.20291" lon="2.37978">
        <ele>970.72</ele>
        <time>2024-09-25T14:48:07.000Z</time>
      </trkpt>
      <trkpt lat="42.20298" lon="2.37967">
        <ele>971.15</ele>
        <time>2024-09-25T14:48:12.000Z</time>
      </trkpt>
      <trkpt lat="42.20304" lon="2.37956">
        <ele>971.57</ele>
        <time>2024-09-25T14:48:17.000Z</time>
      </trkpt>
      <trkpt lat="42.20311" lon="2.37944">
        <ele>972.01</ele>
        <time>2024-09-25T14:48:22.000Z</time>
      </trkpt>
      <trkpt lat="42.20318" lon="2.37932">
        <ele>972.44</ele>
        <time>2024-09-25T14:48:27.000Z</time>
      </trkpt>
      <trkpt lat="42.20327" lon="2.37917">
        <ele>972.89</ele>
        <time>2024-09-25T14:48:32.000Z</time>
      </trkpt>
      <trkpt lat="42.20335" lon="2.379">
        <ele>973.35</ele>
        <time>2024-09-25T14:48:37.000Z</time>
      </trkpt>
      <trkpt lat="42.20342" lon="2.37883">
        <ele>973.81</ele>
        <time>2024-09-25T14:48:42.000Z</time>
      </trkpt>
      <trkpt lat="42.2035" lon="2.37867">
        <ele>974.37</ele>
        <time>2024-09-25T14:48:47.000Z</time>
      </trkpt>
      <trkpt lat="42.20359" lon="2.3785">
        <ele>975.03</ele>
        <time>2024-09-25T14:48:52.000Z</time>
      </trkpt>
      <trkpt lat="42.20369" lon="2.37834">
        <ele>975.75</ele>
        <time>2024-09-25T14:48:57.000Z</time>
      </trkpt>
      <trkpt lat="42.20376" lon="2.37818">
        <ele>976.47</ele>
        <time>2024-09-25T14:49:02.000Z</time>
      </trkpt>
      <trkpt lat="42.20383" lon="2.37801">
        <ele>977.17</ele>
        <time>2024-09-25T14:49:07.000Z</time>
      </trkpt>
      <trkpt lat="42.20388" lon="2.37782">
        <ele>977.84</ele>
        <time>2024-09-25T14:49:12.000Z</time>
      </trkpt>
      <trkpt lat="42.20391" lon="2.37762">
        <ele>978.47</ele>
        <time>2024-09-25T14:49:17.000Z</time>
      </trkpt>
      <trkpt lat="42.20393" lon="2.37749">
        <ele>979.08</ele>
        <time>2024-09-25T14:49:22.000Z</time>
      </trkpt>
      <trkpt lat="42.20394" lon="2.37735">
        <ele>981.28</ele>
        <time>2024-09-25T14:50:02.000Z</time>
      </trkpt>
      <trkpt lat="42.20398" lon="2.37717">
        <ele>982.03</ele>
        <time>2024-09-25T14:50:07.000Z</time>
      </trkpt>
      <trkpt lat="42.20402" lon="2.37705">
        <ele>982.81</ele>
        <time>2024-09-25T14:50:13.000Z</time>
      </trkpt>
      <trkpt lat="42.20393" lon="2.37697">
        <ele>991.69</ele>
        <time>2024-09-25T14:57:33.999Z</time>
      </trkpt>
      <trkpt lat="42.20386" lon="2.37684">
        <ele>991.79</ele>
        <time>2024-09-25T14:57:38.999Z</time>
      </trkpt>
      <trkpt lat="42.20383" lon="2.37667">
        <ele>991.88</ele>
        <time>2024-09-25T14:57:43.999Z</time>
      </trkpt>
      <trkpt lat="42.20381" lon="2.37648">
        <ele>991.96</ele>
        <time>2024-09-25T14:57:48.999Z</time>
      </trkpt>
      <trkpt lat="42.2038" lon="2.37626">
        <ele>992.04</ele>
        <time>2024-09-25T14:57:53.999Z</time>
      </trkpt>
      <trkpt lat="42.20377" lon="2.37603">
        <ele>992.1</ele>
        <time>2024-09-25T14:57:58.999Z</time>
      </trkpt>
      <trkpt lat="42.20375" lon="2.37578">
        <ele>992.17</ele>
        <time>2024-09-25T14:58:03.999Z</time>
      </trkpt>
      <trkpt lat="42.20376" lon="2.37559">
        <ele>992.27</ele>
        <time>2024-09-25T14:58:08.999Z</time>
      </trkpt>
      <trkpt lat="42.20374" lon="2.37545">
        <ele>992.41</ele>
        <time>2024-09-25T14:58:13.999Z</time>
      </trkpt>
      <trkpt lat="42.20373" lon="2.37532">
        <ele>992.58</ele>
        <time>2024-09-25T14:58:18.999Z</time>
      </trkpt>
      <trkpt lat="42.20373" lon="2.37519">
        <ele>992.81</ele>
        <time>2024-09-25T14:58:23.999Z</time>
      </trkpt>
      <trkpt lat="42.20372" lon="2.37506">
        <ele>993.09</ele>
        <time>2024-09-25T14:58:28.999Z</time>
      </trkpt>
      <trkpt lat="42.20373" lon="2.37493">
        <ele>993.4</ele>
        <time>2024-09-25T14:58:33.999Z</time>
      </trkpt>
      <trkpt lat="42.20373" lon="2.3748">
        <ele>993.72</ele>
        <time>2024-09-25T14:58:38.999Z</time>
      </trkpt>
      <trkpt lat="42.20372" lon="2.37468">
        <ele>994.06</ele>
        <time>2024-09-25T14:58:43.999Z</time>
      </trkpt>
      <trkpt lat="42.20373" lon="2.37455">
        <ele>994.4</ele>
        <time>2024-09-25T14:58:48.999Z</time>
      </trkpt>
      <trkpt lat="42.20374" lon="2.37441">
        <ele>994.72</ele>
        <time>2024-09-25T14:58:53.999Z</time>
      </trkpt>
      <trkpt lat="42.20374" lon="2.37428">
        <ele>995.11</ele>
        <time>2024-09-25T14:58:59.999Z</time>
      </trkpt>
      <trkpt lat="42.20374" lon="2.37415">
        <ele>995.48</ele>
        <time>2024-09-25T14:59:05.999Z</time>
      </trkpt>
      <trkpt lat="42.20374" lon="2.374">
        <ele>995.93</ele>
        <time>2024-09-25T14:59:12.999Z</time>
      </trkpt>
      <trkpt lat="42.20375" lon="2.37387">
        <ele>996.32</ele>
        <time>2024-09-25T14:59:18.999Z</time>
      </trkpt>
      <trkpt lat="42.20377" lon="2.37373">
        <ele>996.64</ele>
        <time>2024-09-25T14:59:23.999Z</time>
      </trkpt>
      <trkpt lat="42.2038" lon="2.37361">
        <ele>997.01</ele>
        <time>2024-09-25T14:59:29.999Z</time>
      </trkpt>
      <trkpt lat="42.2038" lon="2.37347">
        <ele>997.42</ele>
        <time>2024-09-25T14:59:36.999Z</time>
      </trkpt>
      <trkpt lat="42.2038" lon="2.37334">
        <ele>997.78</ele>
        <time>2024-09-25T14:59:42.999Z</time>
      </trkpt>
      <trkpt lat="42.20381" lon="2.3732">
        <ele>998.22</ele>
        <time>2024-09-25T14:59:49.999Z</time>
      </trkpt>
      <trkpt lat="42.20381" lon="2.37306">
        <ele>998.65</ele>
        <time>2024-09-25T14:59:56.999Z</time>
      </trkpt>
      <trkpt lat="42.2038" lon="2.37293">
        <ele>999.04</ele>
        <time>2024-09-25T15:00:03.999Z</time>
      </trkpt>
      <trkpt lat="42.20379" lon="2.37279">
        <ele>999.39</ele>
        <time>2024-09-25T15:00:10.999Z</time>
      </trkpt>
      <trkpt lat="42.20378" lon="2.37264">
        <ele>999.67</ele>
        <time>2024-09-25T15:00:16.999Z</time>
      </trkpt>
      <trkpt lat="42.20377" lon="2.37252">
        <ele>999.93</ele>
        <time>2024-09-25T15:00:22.999Z</time>
      </trkpt>
      <trkpt lat="42.20375" lon="2.37239">
        <ele>1000.17</ele>
        <time>2024-09-25T15:00:28.999Z</time>
      </trkpt>
      <trkpt lat="42.20375" lon="2.37226">
        <ele>1000.39</ele>
        <time>2024-09-25T15:00:34.999Z</time>
      </trkpt>
      <trkpt lat="42.20375" lon="2.37212">
        <ele>1000.61</ele>
        <time>2024-09-25T15:00:40.999Z</time>
      </trkpt>
      <trkpt lat="42.20374" lon="2.37199">
        <ele>1000.82</ele>
        <time>2024-09-25T15:00:46.999Z</time>
      </trkpt>
      <trkpt lat="42.20373" lon="2.37186">
        <ele>1001.02</ele>
        <time>2024-09-25T15:00:52.999Z</time>
      </trkpt>
      <trkpt lat="42.20373" lon="2.3717">
        <ele>1001.17</ele>
        <time>2024-09-25T15:00:57.999Z</time>
      </trkpt>
      <trkpt lat="42.20373" lon="2.37155">
        <ele>1001.35</ele>
        <time>2024-09-25T15:01:02.999Z</time>
      </trkpt>
      <trkpt lat="42.20369" lon="2.37141">
        <ele>1001.63</ele>
        <time>2024-09-25T15:01:09.999Z</time>
      </trkpt>
      <trkpt lat="42.20368" lon="2.37127">
        <ele>1001.83</ele>
        <time>2024-09-25T15:01:14.999Z</time>
      </trkpt>
      <trkpt lat="42.20367" lon="2.37114">
        <ele>1002.05</ele>
        <time>2024-09-25T15:01:20.999Z</time>
      </trkpt>
      <trkpt lat="42.20364" lon="2.37101">
        <ele>1002.25</ele>
        <time>2024-09-25T15:01:26.999Z</time>
      </trkpt>
      <trkpt lat="42.2036" lon="2.37089">
        <ele>1002.37</ele>
        <time>2024-09-25T15:01:31.999Z</time>
      </trkpt>
      <trkpt lat="42.20356" lon="2.37076">
        <ele>1002.48</ele>
        <time>2024-09-25T15:01:36.999Z</time>
      </trkpt>
      <trkpt lat="42.2035" lon="2.37064">
        <ele>1002.63</ele>
        <time>2024-09-25T15:01:42.999Z</time>
      </trkpt>
      <trkpt lat="42.20346" lon="2.37049">
        <ele>1002.78</ele>
        <time>2024-09-25T15:01:47.999Z</time>
      </trkpt>
      <trkpt lat="42.20344" lon="2.37036">
        <ele>1002.98</ele>
        <time>2024-09-25T15:01:52.999Z</time>
      </trkpt>
      <trkpt lat="42.20343" lon="2.37022">
        <ele>1003.21</ele>
        <time>2024-09-25T15:01:57.999Z</time>
      </trkpt>
      <trkpt lat="42.20341" lon="2.37008">
        <ele>1003.55</ele>
        <time>2024-09-25T15:02:03.999Z</time>
      </trkpt>
      <trkpt lat="42.2034" lon="2.36995">
        <ele>1003.87</ele>
        <time>2024-09-25T15:02:08.999Z</time>
      </trkpt>
      <trkpt lat="42.20339" lon="2.36982">
        <ele>1004.28</ele>
        <time>2024-09-25T15:02:14.999Z</time>
      </trkpt>
      <trkpt lat="42.20338" lon="2.36969">
        <ele>1004.64</ele>
        <time>2024-09-25T15:02:19.999Z</time>
      </trkpt>
      <trkpt lat="42.20336" lon="2.36957">
        <ele>1005.03</ele>
        <time>2024-09-25T15:02:24.999Z</time>
      </trkpt>
      <trkpt lat="42.20337" lon="2.36943">
        <ele>1005.43</ele>
        <time>2024-09-25T15:02:29.999Z</time>
      </trkpt>
      <trkpt lat="42.20338" lon="2.3693">
        <ele>1005.84</ele>
        <time>2024-09-25T15:02:34.999Z</time>
      </trkpt>
      <trkpt lat="42.20338" lon="2.36916">
        <ele>1006.25</ele>
        <time>2024-09-25T15:02:39.999Z</time>
      </trkpt>
      <trkpt lat="42.20336" lon="2.36903">
        <ele>1006.69</ele>
        <time>2024-09-25T15:02:44.999Z</time>
      </trkpt>
      <trkpt lat="42.20333" lon="2.3689">
        <ele>1007.14</ele>
        <time>2024-09-25T15:02:49.999Z</time>
      </trkpt>
      <trkpt lat="42.20329" lon="2.36877">
        <ele>1007.67</ele>
        <time>2024-09-25T15:02:54.999Z</time>
      </trkpt>
      <trkpt lat="42.20322" lon="2.36867">
        <ele>1008.37</ele>
        <time>2024-09-25T15:02:59.999Z</time>
      </trkpt>
      <trkpt lat="42.20318" lon="2.36856">
        <ele>1009.2</ele>
        <time>2024-09-25T15:03:04.999Z</time>
      </trkpt>
      <trkpt lat="42.20315" lon="2.36844">
        <ele>1010.03</ele>
        <time>2024-09-25T15:03:09.999Z</time>
      </trkpt>
      <trkpt lat="42.20311" lon="2.36832">
        <ele>1010.86</ele>
        <time>2024-09-25T15:03:14.999Z</time>
      </trkpt>
      <trkpt lat="42.20306" lon="2.36819">
        <ele>1011.66</ele>
        <time>2024-09-25T15:03:19.999Z</time>
      </trkpt>
      <trkpt lat="42.20301" lon="2.36808">
        <ele>1012.46</ele>
        <time>2024-09-25T15:03:24.999Z</time>
      </trkpt>
      <trkpt lat="42.20294" lon="2.36798">
        <ele>1013.29</ele>
        <time>2024-09-25T15:03:29.999Z</time>
      </trkpt>
      <trkpt lat="42.20287" lon="2.36785">
        <ele>1014.23</ele>
        <time>2024-09-25T15:03:34.999Z</time>
      </trkpt>
      <trkpt lat="42.20278" lon="2.36776">
        <ele>1015.24</ele>
        <time>2024-09-25T15:03:39.999Z</time>
      </trkpt>
      <trkpt lat="42.20273" lon="2.36764">
        <ele>1016.27</ele>
        <time>2024-09-25T15:03:44.999Z</time>
      </trkpt>
      <trkpt lat="42.20272" lon="2.36752">
        <ele>1017.26</ele>
        <time>2024-09-25T15:03:50.000Z</time>
      </trkpt>
      <trkpt lat="42.20272" lon="2.36739">
        <ele>1018.22</ele>
        <time>2024-09-25T15:03:55.000Z</time>
      </trkpt>
      <trkpt lat="42.20272" lon="2.36726">
        <ele>1019.39</ele>
        <time>2024-09-25T15:04:01.000Z</time>
      </trkpt>
      <trkpt lat="42.20273" lon="2.36711">
        <ele>1020.34</ele>
        <time>2024-09-25T15:04:06.000Z</time>
      </trkpt>
      <trkpt lat="42.2027" lon="2.36697">
        <ele>1021.48</ele>
        <time>2024-09-25T15:04:12.000Z</time>
      </trkpt>
      <trkpt lat="42.20267" lon="2.36683">
        <ele>1022.46</ele>
        <time>2024-09-25T15:04:17.000Z</time>
      </trkpt>
      <trkpt lat="42.20262" lon="2.3667">
        <ele>1023.46</ele>
        <time>2024-09-25T15:04:22.000Z</time>
      </trkpt>
      <trkpt lat="42.20257" lon="2.3666">
        <ele>1024.48</ele>
        <time>2024-09-25T15:04:27.000Z</time>
      </trkpt>
      <trkpt lat="42.20253" lon="2.36648">
        <ele>1025.53</ele>
        <time>2024-09-25T15:04:32.000Z</time>
      </trkpt>
      <trkpt lat="42.20252" lon="2.36635">
        <ele>1026.56</ele>
        <time>2024-09-25T15:04:37.000Z</time>
      </trkpt>
      <trkpt lat="42.20254" lon="2.36622">
        <ele>1027.92</ele>
        <time>2024-09-25T15:04:44.000Z</time>
      </trkpt>
      <trkpt lat="42.20255" lon="2.36609">
        <ele>1029.18</ele>
        <time>2024-09-25T15:04:51.000Z</time>
      </trkpt>
      <trkpt lat="42.20253" lon="2.36596">
        <ele>1030</ele>
        <time>2024-09-25T15:04:56.000Z</time>
      </trkpt>
      <trkpt lat="42.20248" lon="2.36584">
        <ele>1030.93</ele>
        <time>2024-09-25T15:05:02.000Z</time>
      </trkpt>
      <trkpt lat="42.20244" lon="2.36573">
        <ele>1031.66</ele>
        <time>2024-09-25T15:05:07.000Z</time>
      </trkpt>
      <trkpt lat="42.20238" lon="2.36562">
        <ele>1032.49</ele>
        <time>2024-09-25T15:05:13.000Z</time>
      </trkpt>
      <trkpt lat="42.20232" lon="2.36552">
        <ele>1033.15</ele>
        <time>2024-09-25T15:05:18.000Z</time>
      </trkpt>
      <trkpt lat="42.20224" lon="2.36543">
        <ele>1033.94</ele>
        <time>2024-09-25T15:05:24.000Z</time>
      </trkpt>
      <trkpt lat="42.20215" lon="2.36535">
        <ele>1034.71</ele>
        <time>2024-09-25T15:05:30.000Z</time>
      </trkpt>
      <trkpt lat="42.20207" lon="2.36529">
        <ele>1035.45</ele>
        <time>2024-09-25T15:05:36.000Z</time>
      </trkpt>
      <trkpt lat="42.20197" lon="2.36523">
        <ele>1036.15</ele>
        <time>2024-09-25T15:05:42.000Z</time>
      </trkpt>
      <trkpt lat="42.20189" lon="2.36517">
        <ele>1036.83</ele>
        <time>2024-09-25T15:05:48.000Z</time>
      </trkpt>
      <trkpt lat="42.20181" lon="2.36509">
        <ele>1037.5</ele>
        <time>2024-09-25T15:05:54.000Z</time>
      </trkpt>
      <trkpt lat="42.20174" lon="2.36498">
        <ele>1038.08</ele>
        <time>2024-09-25T15:06:00.000Z</time>
      </trkpt>
      <trkpt lat="42.20169" lon="2.36488">
        <ele>1038.68</ele>
        <time>2024-09-25T15:06:06.000Z</time>
      </trkpt>
      <trkpt lat="42.20165" lon="2.36477">
        <ele>1039.26</ele>
        <time>2024-09-25T15:06:12.000Z</time>
      </trkpt>
      <trkpt lat="42.20162" lon="2.36462">
        <ele>1039.91</ele>
        <time>2024-09-25T15:06:19.000Z</time>
      </trkpt>
      <trkpt lat="42.20163" lon="2.36449">
        <ele>1040.38</ele>
        <time>2024-09-25T15:06:24.000Z</time>
      </trkpt>
      <trkpt lat="42.20164" lon="2.36435">
        <ele>1040.93</ele>
        <time>2024-09-25T15:06:30.000Z</time>
      </trkpt>
      <trkpt lat="42.20164" lon="2.36423">
        <ele>1041.48</ele>
        <time>2024-09-25T15:06:36.000Z</time>
      </trkpt>
      <trkpt lat="42.20161" lon="2.36409">
        <ele>1042.01</ele>
        <time>2024-09-25T15:06:42.000Z</time>
      </trkpt>
      <trkpt lat="42.20158" lon="2.36397">
        <ele>1042.44</ele>
        <time>2024-09-25T15:06:47.000Z</time>
      </trkpt>
      <trkpt lat="42.20154" lon="2.36385">
        <ele>1042.86</ele>
        <time>2024-09-25T15:06:52.000Z</time>
      </trkpt>
      <trkpt lat="42.20148" lon="2.36373">
        <ele>1043.34</ele>
        <time>2024-09-25T15:06:58.000Z</time>
      </trkpt>
      <trkpt lat="42.20143" lon="2.3636">
        <ele>1043.81</ele>
        <time>2024-09-25T15:07:04.000Z</time>
      </trkpt>
      <trkpt lat="42.2014" lon="2.36348">
        <ele>1044.21</ele>
        <time>2024-09-25T15:07:09.000Z</time>
      </trkpt>
      <trkpt lat="42.20137" lon="2.36335">
        <ele>1044.68</ele>
        <time>2024-09-25T15:07:15.000Z</time>
      </trkpt>
      <trkpt lat="42.20132" lon="2.36324">
        <ele>1045.16</ele>
        <time>2024-09-25T15:07:21.000Z</time>
      </trkpt>
      <trkpt lat="42.20128" lon="2.36313">
        <ele>1045.65</ele>
        <time>2024-09-25T15:07:27.000Z</time>
      </trkpt>
      <trkpt lat="42.20124" lon="2.363">
        <ele>1046.13</ele>
        <time>2024-09-25T15:07:33.000Z</time>
      </trkpt>
      <trkpt lat="42.20123" lon="2.36287">
        <ele>1046.6</ele>
        <time>2024-09-25T15:07:39.000Z</time>
      </trkpt>
      <trkpt lat="42.20124" lon="2.36273">
        <ele>1047.01</ele>
        <time>2024-09-25T15:07:44.000Z</time>
      </trkpt>
      <trkpt lat="42.20125" lon="2.36261">
        <ele>1047.43</ele>
        <time>2024-09-25T15:07:49.000Z</time>
      </trkpt>
      <trkpt lat="42.20125" lon="2.36247">
        <ele>1047.92</ele>
        <time>2024-09-25T15:07:55.000Z</time>
      </trkpt>
      <trkpt lat="42.20126" lon="2.36234">
        <ele>1048.31</ele>
        <time>2024-09-25T15:08:00.000Z</time>
      </trkpt>
      <trkpt lat="42.20127" lon="2.36222">
        <ele>1048.7</ele>
        <time>2024-09-25T15:08:05.000Z</time>
      </trkpt>
      <trkpt lat="42.20131" lon="2.36211">
        <ele>1049.14</ele>
        <time>2024-09-25T15:08:11.000Z</time>
      </trkpt>
      <trkpt lat="42.20136" lon="2.362">
        <ele>1049.58</ele>
        <time>2024-09-25T15:08:17.000Z</time>
      </trkpt>
      <trkpt lat="42.20142" lon="2.36189">
        <ele>1049.94</ele>
        <time>2024-09-25T15:08:22.000Z</time>
      </trkpt>
      <trkpt lat="42.20146" lon="2.36178">
        <ele>1050.38</ele>
        <time>2024-09-25T15:08:28.000Z</time>
      </trkpt>
      <trkpt lat="42.2015" lon="2.36166">
        <ele>1050.8</ele>
        <time>2024-09-25T15:08:34.000Z</time>
      </trkpt>
      <trkpt lat="42.20151" lon="2.36151">
        <ele>1051.3</ele>
        <time>2024-09-25T15:08:40.000Z</time>
      </trkpt>
      <trkpt lat="42.20147" lon="2.3614">
        <ele>1051.74</ele>
        <time>2024-09-25T15:08:45.000Z</time>
      </trkpt>
      <trkpt lat="42.20141" lon="2.36129">
        <ele>1052.19</ele>
        <time>2024-09-25T15:08:50.000Z</time>
      </trkpt>
      <trkpt lat="42.20135" lon="2.36118">
        <ele>1052.67</ele>
        <time>2024-09-25T15:08:55.000Z</time>
      </trkpt>
      <trkpt lat="42.20127" lon="2.36109">
        <ele>1053.17</ele>
        <time>2024-09-25T15:09:00.000Z</time>
      </trkpt>
      <trkpt lat="42.20121" lon="2.361">
        <ele>1053.72</ele>
        <time>2024-09-25T15:09:05.000Z</time>
      </trkpt>
      <trkpt lat="42.20113" lon="2.36089">
        <ele>1054.31</ele>
        <time>2024-09-25T15:09:10.000Z</time>
      </trkpt>
      <trkpt lat="42.2011" lon="2.36075">
        <ele>1054.91</ele>
        <time>2024-09-25T15:09:15.000Z</time>
      </trkpt>
      <trkpt lat="42.20107" lon="2.36062">
        <ele>1055.52</ele>
        <time>2024-09-25T15:09:20.000Z</time>
      </trkpt>
      <trkpt lat="42.20108" lon="2.36048">
        <ele>1056.18</ele>
        <time>2024-09-25T15:09:25.000Z</time>
      </trkpt>
      <trkpt lat="42.20109" lon="2.36034">
        <ele>1056.97</ele>
        <time>2024-09-25T15:09:31.000Z</time>
      </trkpt>
      <trkpt lat="42.20111" lon="2.36022">
        <ele>1057.7</ele>
        <time>2024-09-25T15:09:37.000Z</time>
      </trkpt>
      <trkpt lat="42.20115" lon="2.3601">
        <ele>1058.41</ele>
        <time>2024-09-25T15:09:43.000Z</time>
      </trkpt>
      <trkpt lat="42.2012" lon="2.35998">
        <ele>1059.24</ele>
        <time>2024-09-25T15:09:50.000Z</time>
      </trkpt>
      <trkpt lat="42.20126" lon="2.35989">
        <ele>1060.1</ele>
        <time>2024-09-25T15:09:57.000Z</time>
      </trkpt>
      <trkpt lat="42.20131" lon="2.35977">
        <ele>1060.86</ele>
        <time>2024-09-25T15:10:03.000Z</time>
      </trkpt>
      <trkpt lat="42.20135" lon="2.35965">
        <ele>1061.68</ele>
        <time>2024-09-25T15:10:09.000Z</time>
      </trkpt>
      <trkpt lat="42.2014" lon="2.35953">
        <ele>1062.54</ele>
        <time>2024-09-25T15:10:15.000Z</time>
      </trkpt>
      <trkpt lat="42.20143" lon="2.35939">
        <ele>1063.49</ele>
        <time>2024-09-25T15:10:22.000Z</time>
      </trkpt>
      <trkpt lat="42.20145" lon="2.35927">
        <ele>1064.2</ele>
        <time>2024-09-25T15:10:27.000Z</time>
      </trkpt>
      <trkpt lat="42.2015" lon="2.35915">
        <ele>1065.1</ele>
        <time>2024-09-25T15:10:33.000Z</time>
      </trkpt>
      <trkpt lat="42.20156" lon="2.35905">
        <ele>1066.02</ele>
        <time>2024-09-25T15:10:39.000Z</time>
      </trkpt>
      <trkpt lat="42.20159" lon="2.35891">
        <ele>1067.12</ele>
        <time>2024-09-25T15:10:46.000Z</time>
      </trkpt>
      <trkpt lat="42.20162" lon="2.3587">
        <ele>1067.91</ele>
        <time>2024-09-25T15:10:51.000Z</time>
      </trkpt>
      <trkpt lat="42.20158" lon="2.35858">
        <ele>1068.68</ele>
        <time>2024-09-25T15:10:56.000Z</time>
      </trkpt>
      <trkpt lat="42.20151" lon="2.35849">
        <ele>1069.44</ele>
        <time>2024-09-25T15:11:01.000Z</time>
      </trkpt>
      <trkpt lat="42.20147" lon="2.35837">
        <ele>1070.19</ele>
        <time>2024-09-25T15:11:06.000Z</time>
      </trkpt>
      <trkpt lat="42.20142" lon="2.35825">
        <ele>1070.94</ele>
        <time>2024-09-25T15:11:11.000Z</time>
      </trkpt>
      <trkpt lat="42.20139" lon="2.35813">
        <ele>1071.76</ele>
        <time>2024-09-25T15:11:17.000Z</time>
      </trkpt>
      <trkpt lat="42.20135" lon="2.35801">
        <ele>1072.53</ele>
        <time>2024-09-25T15:11:23.000Z</time>
      </trkpt>
      <trkpt lat="42.20136" lon="2.35788">
        <ele>1073.24</ele>
        <time>2024-09-25T15:11:29.000Z</time>
      </trkpt>
      <trkpt lat="42.20139" lon="2.35774">
        <ele>1073.78</ele>
        <time>2024-09-25T15:11:34.000Z</time>
      </trkpt>
      <trkpt lat="42.20144" lon="2.35764">
        <ele>1074.38</ele>
        <time>2024-09-25T15:11:40.000Z</time>
      </trkpt>
      <trkpt lat="42.2015" lon="2.35753">
        <ele>1074.94</ele>
        <time>2024-09-25T15:11:46.000Z</time>
      </trkpt>
      <trkpt lat="42.20152" lon="2.3574">
        <ele>1075.52</ele>
        <time>2024-09-25T15:11:53.000Z</time>
      </trkpt>
      <trkpt lat="42.20152" lon="2.35728">
        <ele>1075.9</ele>
        <time>2024-09-25T15:11:58.000Z</time>
      </trkpt>
      <trkpt lat="42.20148" lon="2.35717">
        <ele>1076.25</ele>
        <time>2024-09-25T15:12:03.000Z</time>
      </trkpt>
      <trkpt lat="42.20142" lon="2.35706">
        <ele>1076.62</ele>
        <time>2024-09-25T15:12:09.000Z</time>
      </trkpt>
      <trkpt lat="42.20134" lon="2.35695">
        <ele>1076.89</ele>
        <time>2024-09-25T15:12:14.000Z</time>
      </trkpt>
      <trkpt lat="42.20127" lon="2.35684">
        <ele>1077.17</ele>
        <time>2024-09-25T15:12:19.000Z</time>
      </trkpt>
      <trkpt lat="42.2012" lon="2.35674">
        <ele>1077.49</ele>
        <time>2024-09-25T15:12:24.000Z</time>
      </trkpt>
      <trkpt lat="42.20112" lon="2.35659">
        <ele>1077.87</ele>
        <time>2024-09-25T15:12:29.000Z</time>
      </trkpt>
      <trkpt lat="42.2011" lon="2.35641">
        <ele>1078.32</ele>
        <time>2024-09-25T15:12:34.000Z</time>
      </trkpt>
      <trkpt lat="42.20111" lon="2.35623">
        <ele>1078.79</ele>
        <time>2024-09-25T15:12:39.000Z</time>
      </trkpt>
      <trkpt lat="42.20115" lon="2.35608">
        <ele>1079.28</ele>
        <time>2024-09-25T15:12:44.000Z</time>
      </trkpt>
      <trkpt lat="42.2012" lon="2.35595">
        <ele>1079.79</ele>
        <time>2024-09-25T15:12:49.000Z</time>
      </trkpt>
      <trkpt lat="42.20128" lon="2.35583">
        <ele>1080.31</ele>
        <time>2024-09-25T15:12:54.000Z</time>
      </trkpt>
      <trkpt lat="42.20135" lon="2.35571">
        <ele>1080.83</ele>
        <time>2024-09-25T15:12:59.000Z</time>
      </trkpt>
      <trkpt lat="42.20142" lon="2.35562">
        <ele>1081.35</ele>
        <time>2024-09-25T15:13:04.000Z</time>
      </trkpt>
      <trkpt lat="42.20149" lon="2.35553">
        <ele>1081.86</ele>
        <time>2024-09-25T15:13:09.000Z</time>
      </trkpt>
      <trkpt lat="42.20155" lon="2.35545">
        <ele>1082.39</ele>
        <time>2024-09-25T15:13:14.000Z</time>
      </trkpt>
      <trkpt lat="42.20161" lon="2.35534">
        <ele>1083.16</ele>
        <time>2024-09-25T15:13:21.000Z</time>
      </trkpt>
      <trkpt lat="42.20165" lon="2.3552">
        <ele>1083.82</ele>
        <time>2024-09-25T15:13:27.000Z</time>
      </trkpt>
      <trkpt lat="42.20163" lon="2.35506">
        <ele>1084.44</ele>
        <time>2024-09-25T15:13:33.000Z</time>
      </trkpt>
      <trkpt lat="42.2016" lon="2.35494">
        <ele>1084.92</ele>
        <time>2024-09-25T15:13:38.000Z</time>
      </trkpt>
      <trkpt lat="42.20154" lon="2.35482">
        <ele>1085.39</ele>
        <time>2024-09-25T15:13:43.000Z</time>
      </trkpt>
      <trkpt lat="42.20147" lon="2.35473">
        <ele>1085.95</ele>
        <time>2024-09-25T15:13:48.000Z</time>
      </trkpt>
      <trkpt lat="42.2014" lon="2.35459">
        <ele>1086.6</ele>
        <time>2024-09-25T15:13:53.000Z</time>
      </trkpt>
      <trkpt lat="42.20135" lon="2.35438">
        <ele>1087.54</ele>
        <time>2024-09-25T15:13:58.000Z</time>
      </trkpt>
      <trkpt lat="42.20134" lon="2.35421">
        <ele>1088.74</ele>
        <time>2024-09-25T15:14:03.000Z</time>
      </trkpt>
      <trkpt lat="42.20134" lon="2.35407">
        <ele>1089.95</ele>
        <time>2024-09-25T15:14:08.000Z</time>
      </trkpt>
      <trkpt lat="42.20132" lon="2.35395">
        <ele>1091.39</ele>
        <time>2024-09-25T15:14:14.000Z</time>
      </trkpt>
      <trkpt lat="42.20126" lon="2.35385">
        <ele>1092.75</ele>
        <time>2024-09-25T15:14:20.000Z</time>
      </trkpt>
      <trkpt lat="42.20119" lon="2.35375">
        <ele>1093.81</ele>
        <time>2024-09-25T15:14:25.000Z</time>
      </trkpt>
      <trkpt lat="42.20111" lon="2.35368">
        <ele>1094.93</ele>
        <time>2024-09-25T15:14:31.000Z</time>
      </trkpt>
      <trkpt lat="42.20101" lon="2.35363">
        <ele>1095.89</ele>
        <time>2024-09-25T15:14:37.000Z</time>
      </trkpt>
      <trkpt lat="42.20091" lon="2.35359">
        <ele>1096.7</ele>
        <time>2024-09-25T15:14:43.000Z</time>
      </trkpt>
      <trkpt lat="42.20082" lon="2.35355">
        <ele>1097.32</ele>
        <time>2024-09-25T15:14:48.000Z</time>
      </trkpt>
      <trkpt lat="42.20072" lon="2.3535">
        <ele>1098.01</ele>
        <time>2024-09-25T15:14:54.000Z</time>
      </trkpt>
      <trkpt lat="42.20063" lon="2.35345">
        <ele>1098.56</ele>
        <time>2024-09-25T15:14:59.000Z</time>
      </trkpt>
      <trkpt lat="42.20056" lon="2.35336">
        <ele>1099.07</ele>
        <time>2024-09-25T15:15:04.000Z</time>
      </trkpt>
      <trkpt lat="42.20049" lon="2.35325">
        <ele>1099.63</ele>
        <time>2024-09-25T15:15:10.000Z</time>
      </trkpt>
      <trkpt lat="42.20043" lon="2.35314">
        <ele>1100.08</ele>
        <time>2024-09-25T15:15:15.000Z</time>
      </trkpt>
      <trkpt lat="42.20039" lon="2.353">
        <ele>1100.5</ele>
        <time>2024-09-25T15:15:20.000Z</time>
      </trkpt>
      <trkpt lat="42.20038" lon="2.35287">
        <ele>1100.91</ele>
        <time>2024-09-25T15:15:25.000Z</time>
      </trkpt>
      <trkpt lat="42.20038" lon="2.35272">
        <ele>1101.32</ele>
        <time>2024-09-25T15:15:30.000Z</time>
      </trkpt>
      <trkpt lat="42.20038" lon="2.35256">
        <ele>1101.72</ele>
        <time>2024-09-25T15:15:35.000Z</time>
      </trkpt>
      <trkpt lat="42.20039" lon="2.35241">
        <ele>1102.12</ele>
        <time>2024-09-25T15:15:40.000Z</time>
      </trkpt>
      <trkpt lat="42.20042" lon="2.35225">
        <ele>1102.51</ele>
        <time>2024-09-25T15:15:45.000Z</time>
      </trkpt>
      <trkpt lat="42.20043" lon="2.35207">
        <ele>1102.89</ele>
        <time>2024-09-25T15:15:50.000Z</time>
      </trkpt>
      <trkpt lat="42.20039" lon="2.35194">
        <ele>1103.25</ele>
        <time>2024-09-25T15:15:55.000Z</time>
      </trkpt>
      <trkpt lat="42.20032" lon="2.35174">
        <ele>1103.66</ele>
        <time>2024-09-25T15:16:00.999Z</time>
      </trkpt>
      <trkpt lat="42.20025" lon="2.35158">
        <ele>1103.99</ele>
        <time>2024-09-25T15:16:05.999Z</time>
      </trkpt>
      <trkpt lat="42.20016" lon="2.35143">
        <ele>1104.31</ele>
        <time>2024-09-25T15:16:10.999Z</time>
      </trkpt>
      <trkpt lat="42.20004" lon="2.35131">
        <ele>1104.64</ele>
        <time>2024-09-25T15:16:15.999Z</time>
      </trkpt>
      <trkpt lat="42.19995" lon="2.35125">
        <ele>1104.96</ele>
        <time>2024-09-25T15:16:20.999Z</time>
      </trkpt>
      <trkpt lat="42.19986" lon="2.35122">
        <ele>1105.34</ele>
        <time>2024-09-25T15:16:26.999Z</time>
      </trkpt>
      <trkpt lat="42.19976" lon="2.3512">
        <ele>1105.7</ele>
        <time>2024-09-25T15:16:32.999Z</time>
      </trkpt>
      <trkpt lat="42.19967" lon="2.35117">
        <ele>1105.99</ele>
        <time>2024-09-25T15:16:37.999Z</time>
      </trkpt>
      <trkpt lat="42.19958" lon="2.35114">
        <ele>1106.28</ele>
        <time>2024-09-25T15:16:42.999Z</time>
      </trkpt>
      <trkpt lat="42.1995" lon="2.35107">
        <ele>1106.57</ele>
        <time>2024-09-25T15:16:47.999Z</time>
      </trkpt>
      <trkpt lat="42.19943" lon="2.35098">
        <ele>1106.91</ele>
        <time>2024-09-25T15:16:53.999Z</time>
      </trkpt>
      <trkpt lat="42.19938" lon="2.35088">
        <ele>1107.32</ele>
        <time>2024-09-25T15:17:00.999Z</time>
      </trkpt>
      <trkpt lat="42.19934" lon="2.35076">
        <ele>1107.73</ele>
        <time>2024-09-25T15:17:07.999Z</time>
      </trkpt>
      <trkpt lat="42.19931" lon="2.35063">
        <ele>1108.13</ele>
        <time>2024-09-25T15:17:14.999Z</time>
      </trkpt>
      <trkpt lat="42.19929" lon="2.3505">
        <ele>1108.4</ele>
        <time>2024-09-25T15:17:19.999Z</time>
      </trkpt>
      <trkpt lat="42.19927" lon="2.35036">
        <ele>1108.76</ele>
        <time>2024-09-25T15:17:26.999Z</time>
      </trkpt>
      <trkpt lat="42.19923" lon="2.35024">
        <ele>1109.08</ele>
        <time>2024-09-25T15:17:32.999Z</time>
      </trkpt>
      <trkpt lat="42.1992" lon="2.35011">
        <ele>1109.4</ele>
        <time>2024-09-25T15:17:38.999Z</time>
      </trkpt>
      <trkpt lat="42.19915" lon="2.34999">
        <ele>1109.73</ele>
        <time>2024-09-25T15:17:44.999Z</time>
      </trkpt>
      <trkpt lat="42.1991" lon="2.34989">
        <ele>1110.03</ele>
        <time>2024-09-25T15:17:49.999Z</time>
      </trkpt>
      <trkpt lat="42.19903" lon="2.34977">
        <ele>1110.35</ele>
        <time>2024-09-25T15:17:54.999Z</time>
      </trkpt>
      <trkpt lat="42.19895" lon="2.34968">
        <ele>1110.7</ele>
        <time>2024-09-25T15:17:59.999Z</time>
      </trkpt>
      <trkpt lat="42.19888" lon="2.34963">
        <ele>1111.08</ele>
        <time>2024-09-25T15:18:04.999Z</time>
      </trkpt>
      <trkpt lat="42.19879" lon="2.34958">
        <ele>1111.47</ele>
        <time>2024-09-25T15:18:09.999Z</time>
      </trkpt>
      <trkpt lat="42.1987" lon="2.34956">
        <ele>1111.87</ele>
        <time>2024-09-25T15:18:14.999Z</time>
      </trkpt>
      <trkpt lat="42.19861" lon="2.34951">
        <ele>1112.36</ele>
        <time>2024-09-25T15:18:20.999Z</time>
      </trkpt>
      <trkpt lat="42.19853" lon="2.34945">
        <ele>1112.84</ele>
        <time>2024-09-25T15:18:26.999Z</time>
      </trkpt>
      <trkpt lat="42.19847" lon="2.34934">
        <ele>1113.35</ele>
        <time>2024-09-25T15:18:32.999Z</time>
      </trkpt>
      <trkpt lat="42.19845" lon="2.34922">
        <ele>1113.85</ele>
        <time>2024-09-25T15:18:38.999Z</time>
      </trkpt>
      <trkpt lat="42.19844" lon="2.34908">
        <ele>1114.34</ele>
        <time>2024-09-25T15:18:44.999Z</time>
      </trkpt>
      <trkpt lat="42.19842" lon="2.34896">
        <ele>1114.8</ele>
        <time>2024-09-25T15:18:50.999Z</time>
      </trkpt>
      <trkpt lat="42.19838" lon="2.34882">
        <ele>1115.18</ele>
        <time>2024-09-25T15:18:56.999Z</time>
      </trkpt>
      <trkpt lat="42.19831" lon="2.34872">
        <ele>1115.44</ele>
        <time>2024-09-25T15:19:01.999Z</time>
      </trkpt>
      <trkpt lat="42.19823" lon="2.34864">
        <ele>1115.79</ele>
        <time>2024-09-25T15:19:06.999Z</time>
      </trkpt>
      <trkpt lat="42.19815" lon="2.34855">
        <ele>1116.23</ele>
        <time>2024-09-25T15:19:11.999Z</time>
      </trkpt>
      <trkpt lat="42.19809" lon="2.34843">
        <ele>1116.81</ele>
        <time>2024-09-25T15:19:17.999Z</time>
      </trkpt>
      <trkpt lat="42.19805" lon="2.3483">
        <ele>1117.62</ele>
        <time>2024-09-25T15:19:24.999Z</time>
      </trkpt>
      <trkpt lat="42.19802" lon="2.34819">
        <ele>1118.37</ele>
        <time>2024-09-25T15:19:30.999Z</time>
      </trkpt>
      <trkpt lat="42.19799" lon="2.34807">
        <ele>1119.09</ele>
        <time>2024-09-25T15:19:36.999Z</time>
      </trkpt>
      <trkpt lat="42.19794" lon="2.34795">
        <ele>1119.8</ele>
        <time>2024-09-25T15:19:42.999Z</time>
      </trkpt>
      <trkpt lat="42.19789" lon="2.34783">
        <ele>1120.65</ele>
        <time>2024-09-25T15:19:49.999Z</time>
      </trkpt>
      <trkpt lat="42.19786" lon="2.34771">
        <ele>1121.43</ele>
        <time>2024-09-25T15:19:55.999Z</time>
      </trkpt>
      <trkpt lat="42.19783" lon="2.34759">
        <ele>1122.26</ele>
        <time>2024-09-25T15:20:01.999Z</time>
      </trkpt>
      <trkpt lat="42.19779" lon="2.34747">
        <ele>1123.23</ele>
        <time>2024-09-25T15:20:08.999Z</time>
      </trkpt>
      <trkpt lat="42.19775" lon="2.34735">
        <ele>1124.23</ele>
        <time>2024-09-25T15:20:15.999Z</time>
      </trkpt>
      <trkpt lat="42.19771" lon="2.34721">
        <ele>1125.22</ele>
        <time>2024-09-25T15:20:22.999Z</time>
      </trkpt>
      <trkpt lat="42.19767" lon="2.34709">
        <ele>1126.07</ele>
        <time>2024-09-25T15:20:28.999Z</time>
      </trkpt>
      <trkpt lat="42.19763" lon="2.34697">
        <ele>1126.94</ele>
        <time>2024-09-25T15:20:34.999Z</time>
      </trkpt>
      <trkpt lat="42.19758" lon="2.34686">
        <ele>1127.8</ele>
        <time>2024-09-25T15:20:40.999Z</time>
      </trkpt>
      <trkpt lat="42.19752" lon="2.34675">
        <ele>1128.78</ele>
        <time>2024-09-25T15:20:47.999Z</time>
      </trkpt>
      <trkpt lat="42.19747" lon="2.34665">
        <ele>1129.45</ele>
        <time>2024-09-25T15:20:52.999Z</time>
      </trkpt>
      <trkpt lat="42.19739" lon="2.3465">
        <ele>1130.08</ele>
        <time>2024-09-25T15:20:57.999Z</time>
      </trkpt>
      <trkpt lat="42.19732" lon="2.34634">
        <ele>1130.69</ele>
        <time>2024-09-25T15:21:02.999Z</time>
      </trkpt>
      <trkpt lat="42.19725" lon="2.34619">
        <ele>1131.29</ele>
        <time>2024-09-25T15:21:07.999Z</time>
      </trkpt>
      <trkpt lat="42.19719" lon="2.34605">
        <ele>1131.89</ele>
        <time>2024-09-25T15:21:12.999Z</time>
      </trkpt>
      <trkpt lat="42.19714" lon="2.34592">
        <ele>1132.47</ele>
        <time>2024-09-25T15:21:17.999Z</time>
      </trkpt>
      <trkpt lat="42.19711" lon="2.3458">
        <ele>1133.04</ele>
        <time>2024-09-25T15:21:23.999Z</time>
      </trkpt>
      <trkpt lat="42.19715" lon="2.34568">
        <ele>1136.22</ele>
        <time>2024-09-25T15:27:12.999Z</time>
      </trkpt>
      <trkpt lat="42.1972" lon="2.34554">
        <ele>1136.32</ele>
        <time>2024-09-25T15:27:34.999Z</time>
      </trkpt>
      <trkpt lat="42.19722" lon="2.34534">
        <ele>1136.35</ele>
        <time>2024-09-25T15:27:39.999Z</time>
      </trkpt>
      <trkpt lat="42.19729" lon="2.34507">
        <ele>1136.53</ele>
        <time>2024-09-25T15:27:44.999Z</time>
      </trkpt>
      <trkpt lat="42.19744" lon="2.34484">
        <ele>1136.62</ele>
        <time>2024-09-25T15:27:49.999Z</time>
      </trkpt>
      <trkpt lat="42.19759" lon="2.34456">
        <ele>1136.65</ele>
        <time>2024-09-25T15:27:54.999Z</time>
      </trkpt>
      <trkpt lat="42.19762" lon="2.3442">
        <ele>1136.65</ele>
        <time>2024-09-25T15:27:59.999Z</time>
      </trkpt>
      <trkpt lat="42.19762" lon="2.34381">
        <ele>1136.64</ele>
        <time>2024-09-25T15:28:04.999Z</time>
      </trkpt>
      <trkpt lat="42.19765" lon="2.34338">
        <ele>1136.64</ele>
        <time>2024-09-25T15:28:09.999Z</time>
      </trkpt>
      <trkpt lat="42.19777" lon="2.34299">
        <ele>1136.66</ele>
        <time>2024-09-25T15:28:15.000Z</time>
      </trkpt>
      <trkpt lat="42.19785" lon="2.34259">
        <ele>1136.6</ele>
        <time>2024-09-25T15:28:20.000Z</time>
      </trkpt>
      <trkpt lat="42.19784" lon="2.34214">
        <ele>1136.45</ele>
        <time>2024-09-25T15:28:25.000Z</time>
      </trkpt>
      <trkpt lat="42.19785" lon="2.34167">
        <ele>1136.13</ele>
        <time>2024-09-25T15:28:30.000Z</time>
      </trkpt>
      <trkpt lat="42.19773" lon="2.3412">
        <ele>1135.19</ele>
        <time>2024-09-25T15:28:35.000Z</time>
      </trkpt>
      <trkpt lat="42.19756" lon="2.3407">
        <ele>1133.57</ele>
        <time>2024-09-25T15:28:40.000Z</time>
      </trkpt>
      <trkpt lat="42.19736" lon="2.34021">
        <ele>1132.19</ele>
        <time>2024-09-25T15:28:45.000Z</time>
      </trkpt>
      <trkpt lat="42.1973" lon="2.33966">
        <ele>1130.57</ele>
        <time>2024-09-25T15:28:50.000Z</time>
      </trkpt>
      <trkpt lat="42.19745" lon="2.33913">
        <ele>1129.44</ele>
        <time>2024-09-25T15:28:55.000Z</time>
      </trkpt>
      <trkpt lat="42.19754" lon="2.33859">
        <ele>1127.73</ele>
        <time>2024-09-25T15:29:00.000Z</time>
      </trkpt>
      <trkpt lat="42.19755" lon="2.338">
        <ele>1125.78</ele>
        <time>2024-09-25T15:29:05.000Z</time>
      </trkpt>
      <trkpt lat="42.19758" lon="2.33743">
        <ele>1124.83</ele>
        <time>2024-09-25T15:29:10.000Z</time>
      </trkpt>
      <trkpt lat="42.19769" lon="2.3369">
        <ele>1123.56</ele>
        <time>2024-09-25T15:29:15.000Z</time>
      </trkpt>
      <trkpt lat="42.19783" lon="2.33637">
        <ele>1122.32</ele>
        <time>2024-09-25T15:29:20.000Z</time>
      </trkpt>
      <trkpt lat="42.19806" lon="2.33585">
        <ele>1120.83</ele>
        <time>2024-09-25T15:29:25.000Z</time>
      </trkpt>
      <trkpt lat="42.19844" lon="2.33555">
        <ele>1119.14</ele>
        <time>2024-09-25T15:29:30.000Z</time>
      </trkpt>
      <trkpt lat="42.19876" lon="2.33526">
        <ele>1118.03</ele>
        <time>2024-09-25T15:29:35.000Z</time>
      </trkpt>
      <trkpt lat="42.19858" lon="2.33477">
        <ele>1116.94</ele>
        <time>2024-09-25T15:29:40.000Z</time>
      </trkpt>
      <trkpt lat="42.19814" lon="2.33454">
        <ele>1117.96</ele>
        <time>2024-09-25T15:29:45.000Z</time>
      </trkpt>
      <trkpt lat="42.19773" lon="2.33445">
        <ele>1115.5</ele>
        <time>2024-09-25T15:29:50.000Z</time>
      </trkpt>
      <trkpt lat="42.19741" lon="2.3342">
        <ele>1111.39</ele>
        <time>2024-09-25T15:29:55.000Z</time>
      </trkpt>
      <trkpt lat="42.19727" lon="2.3337">
        <ele>1107.83</ele>
        <time>2024-09-25T15:30:00.000Z</time>
      </trkpt>
      <trkpt lat="42.19719" lon="2.33324">
        <ele>1104.88</ele>
        <time>2024-09-25T15:30:05.000Z</time>
      </trkpt>
      <trkpt lat="42.19706" lon="2.33279">
        <ele>1102.6</ele>
        <time>2024-09-25T15:30:10.000Z</time>
      </trkpt>
      <trkpt lat="42.19693" lon="2.33239">
        <ele>1101.55</ele>
        <time>2024-09-25T15:30:15.000Z</time>
      </trkpt>
      <trkpt lat="42.19686" lon="2.33195">
        <ele>1100.22</ele>
        <time>2024-09-25T15:30:20.000Z</time>
      </trkpt>
      <trkpt lat="42.19691" lon="2.33153">
        <ele>1099.47</ele>
        <time>2024-09-25T15:30:25.000Z</time>
      </trkpt>
      <trkpt lat="42.19695" lon="2.33111">
        <ele>1098.88</ele>
        <time>2024-09-25T15:30:30.000Z</time>
      </trkpt>
      <trkpt lat="42.19691" lon="2.33071">
        <ele>1098.42</ele>
        <time>2024-09-25T15:30:35.000Z</time>
      </trkpt>
      <trkpt lat="42.19684" lon="2.33033">
        <ele>1097.39</ele>
        <time>2024-09-25T15:30:40.000Z</time>
      </trkpt>
      <trkpt lat="42.1969" lon="2.32994">
        <ele>1096.17</ele>
        <time>2024-09-25T15:30:45.000Z</time>
      </trkpt>
      <trkpt lat="42.19706" lon="2.32956">
        <ele>1095.8</ele>
        <time>2024-09-25T15:30:50.000Z</time>
      </trkpt>
      <trkpt lat="42.19719" lon="2.32916">
        <ele>1095.41</ele>
        <time>2024-09-25T15:30:55.000Z</time>
      </trkpt>
      <trkpt lat="42.19727" lon="2.32871">
        <ele>1094.68</ele>
        <time>2024-09-25T15:31:00.000Z</time>
      </trkpt>
      <trkpt lat="42.19736" lon="2.32827">
        <ele>1094.23</ele>
        <time>2024-09-25T15:31:05.000Z</time>
      </trkpt>
      <trkpt lat="42.19752" lon="2.32784">
        <ele>1093.64</ele>
        <time>2024-09-25T15:31:10.000Z</time>
      </trkpt>
      <trkpt lat="42.19783" lon="2.32757">
        <ele>1092.07</ele>
        <time>2024-09-25T15:31:15.000Z</time>
      </trkpt>
      <trkpt lat="42.19815" lon="2.32732">
        <ele>1090.54</ele>
        <time>2024-09-25T15:31:20.000Z</time>
      </trkpt>
      <trkpt lat="42.19827" lon="2.32674">
        <ele>1090.03</ele>
        <time>2024-09-25T15:31:25.000Z</time>
      </trkpt>
      <trkpt lat="42.19803" lon="2.32622">
        <ele>1087.97</ele>
        <time>2024-09-25T15:31:30.000Z</time>
      </trkpt>
      <trkpt lat="42.19787" lon="2.32569">
        <ele>1085.67</ele>
        <time>2024-09-25T15:31:35.000Z</time>
      </trkpt>
      <trkpt lat="42.1978" lon="2.32512">
        <ele>1082.49</ele>
        <time>2024-09-25T15:31:40.000Z</time>
      </trkpt>
      <trkpt lat="42.19773" lon="2.32458">
        <ele>1078.8</ele>
        <time>2024-09-25T15:31:45.000Z</time>
      </trkpt>
      <trkpt lat="42.19769" lon="2.32403">
        <ele>1075.41</ele>
        <time>2024-09-25T15:31:50.000Z</time>
      </trkpt>
      <trkpt lat="42.19779" lon="2.32347">
        <ele>1072.29</ele>
        <time>2024-09-25T15:31:55.000Z</time>
      </trkpt>
      <trkpt lat="42.19807" lon="2.32301">
        <ele>1070.68</ele>
        <time>2024-09-25T15:32:00.000Z</time>
      </trkpt>
      <trkpt lat="42.19836" lon="2.32254">
        <ele>1069.49</ele>
        <time>2024-09-25T15:32:05.000Z</time>
      </trkpt>
      <trkpt lat="42.19876" lon="2.32229">
        <ele>1068.08</ele>
        <time>2024-09-25T15:32:10.000Z</time>
      </trkpt>
      <trkpt lat="42.19889" lon="2.32178">
        <ele>1067.01</ele>
        <time>2024-09-25T15:32:15.000Z</time>
      </trkpt>
      <trkpt lat="42.19871" lon="2.32132">
        <ele>1064.11</ele>
        <time>2024-09-25T15:32:20.000Z</time>
      </trkpt>
      <trkpt lat="42.19864" lon="2.32083">
        <ele>1062.55</ele>
        <time>2024-09-25T15:32:25.000Z</time>
      </trkpt>
      <trkpt lat="42.19867" lon="2.32035">
        <ele>1061.58</ele>
        <time>2024-09-25T15:32:30.000Z</time>
      </trkpt>
      <trkpt lat="42.19872" lon="2.31989">
        <ele>1061.06</ele>
        <time>2024-09-25T15:32:35.000Z</time>
      </trkpt>
      <trkpt lat="42.19864" lon="2.31946">
        <ele>1060.31</ele>
        <time>2024-09-25T15:32:40.000Z</time>
      </trkpt>
      <trkpt lat="42.19856" lon="2.31905">
        <ele>1059.38</ele>
        <time>2024-09-25T15:32:45.000Z</time>
      </trkpt>
      <trkpt lat="42.19859" lon="2.31862">
        <ele>1058.18</ele>
        <time>2024-09-25T15:32:50.000Z</time>
      </trkpt>
      <trkpt lat="42.19865" lon="2.31819">
        <ele>1057.15</ele>
        <time>2024-09-25T15:32:55.000Z</time>
      </trkpt>
      <trkpt lat="42.19877" lon="2.31778">
        <ele>1055.96</ele>
        <time>2024-09-25T15:33:00.000Z</time>
      </trkpt>
      <trkpt lat="42.19901" lon="2.31745">
        <ele>1054.7</ele>
        <time>2024-09-25T15:33:05.000Z</time>
      </trkpt>
      <trkpt lat="42.19902" lon="2.31706">
        <ele>1052.72</ele>
        <time>2024-09-25T15:33:10.000Z</time>
      </trkpt>
      <trkpt lat="42.19887" lon="2.3169">
        <ele>1051.44</ele>
        <time>2024-09-25T15:33:15.000Z</time>
      </trkpt>
      <trkpt lat="42.19876" lon="2.31688">
        <ele>1050.84</ele>
        <time>2024-09-25T15:33:57.000Z</time>
      </trkpt>
      <trkpt lat="42.19866" lon="2.31682">
        <ele>1050.31</ele>
        <time>2024-09-25T15:34:02.000Z</time>
      </trkpt>
      <trkpt lat="42.19851" lon="2.31677">
        <ele>1049.73</ele>
        <time>2024-09-25T15:34:07.000Z</time>
      </trkpt>
      <trkpt lat="42.19837" lon="2.31669">
        <ele>1049.16</ele>
        <time>2024-09-25T15:34:12.000Z</time>
      </trkpt>
      <trkpt lat="42.19827" lon="2.31653">
        <ele>1048.58</ele>
        <time>2024-09-25T15:34:17.000Z</time>
      </trkpt>
      <trkpt lat="42.19818" lon="2.31631">
        <ele>1045.56</ele>
        <time>2024-09-25T15:34:22.000Z</time>
      </trkpt>
      <trkpt lat="42.19809" lon="2.31599">
        <ele>1042.64</ele>
        <time>2024-09-25T15:34:27.000Z</time>
      </trkpt>
      <trkpt lat="42.19814" lon="2.31563">
        <ele>1041.05</ele>
        <time>2024-09-25T15:34:32.000Z</time>
      </trkpt>
      <trkpt lat="42.19821" lon="2.31523">
        <ele>1040.08</ele>
        <time>2024-09-25T15:34:37.000Z</time>
      </trkpt>
      <trkpt lat="42.19828" lon="2.31479">
        <ele>1039.35</ele>
        <time>2024-09-25T15:34:42.000Z</time>
      </trkpt>
      <trkpt lat="42.19837" lon="2.31435">
        <ele>1038.57</ele>
        <time>2024-09-25T15:34:47.000Z</time>
      </trkpt>
      <trkpt lat="42.19845" lon="2.31389">
        <ele>1037.6</ele>
        <time>2024-09-25T15:34:52.000Z</time>
      </trkpt>
      <trkpt lat="42.19865" lon="2.31348">
        <ele>1035.99</ele>
        <time>2024-09-25T15:34:57.000Z</time>
      </trkpt>
      <trkpt lat="42.19887" lon="2.31304">
        <ele>1034.17</ele>
        <time>2024-09-25T15:35:02.000Z</time>
      </trkpt>
      <trkpt lat="42.19866" lon="2.31252">
        <ele>1032.24</ele>
        <time>2024-09-25T15:35:07.000Z</time>
      </trkpt>
      <trkpt lat="42.19832" lon="2.31207">
        <ele>1030.15</ele>
        <time>2024-09-25T15:35:12.000Z</time>
      </trkpt>
      <trkpt lat="42.19844" lon="2.31146">
        <ele>1027.37</ele>
        <time>2024-09-25T15:35:17.000Z</time>
      </trkpt>
      <trkpt lat="42.19876" lon="2.31101">
        <ele>1024.9</ele>
        <time>2024-09-25T15:35:22.000Z</time>
      </trkpt>
      <trkpt lat="42.19902" lon="2.31047">
        <ele>1021.88</ele>
        <time>2024-09-25T15:35:27.000Z</time>
      </trkpt>
      <trkpt lat="42.19906" lon="2.30981">
        <ele>1018.98</ele>
        <time>2024-09-25T15:35:32.000Z</time>
      </trkpt>
      <trkpt lat="42.19909" lon="2.30919">
        <ele>1017.12</ele>
        <time>2024-09-25T15:35:37.000Z</time>
      </trkpt>
      <trkpt lat="42.19899" lon="2.30861">
        <ele>1015.93</ele>
        <time>2024-09-25T15:35:42.000Z</time>
      </trkpt>
      <trkpt lat="42.19881" lon="2.30807">
        <ele>1013.02</ele>
        <time>2024-09-25T15:35:47.000Z</time>
      </trkpt>
      <trkpt lat="42.19864" lon="2.30757">
        <ele>1009.51</ele>
        <time>2024-09-25T15:35:52.000Z</time>
      </trkpt>
      <trkpt lat="42.19846" lon="2.30711">
        <ele>1006.07</ele>
        <time>2024-09-25T15:35:57.000Z</time>
      </trkpt>
      <trkpt lat="42.19827" lon="2.30669">
        <ele>1003.7</ele>
        <time>2024-09-25T15:36:02.000Z</time>
      </trkpt>
      <trkpt lat="42.19828" lon="2.30625">
        <ele>1001.95</ele>
        <time>2024-09-25T15:36:07.000Z</time>
      </trkpt>
      <trkpt lat="42.19848" lon="2.30588">
        <ele>1001.16</ele>
        <time>2024-09-25T15:36:12.000Z</time>
      </trkpt>
      <trkpt lat="42.19867" lon="2.30545">
        <ele>1000.09</ele>
        <time>2024-09-25T15:36:17.000Z</time>
      </trkpt>
      <trkpt lat="42.19865" lon="2.30488">
        <ele>998.14</ele>
        <time>2024-09-25T15:36:22.000Z</time>
      </trkpt>
      <trkpt lat="42.1985" lon="2.30431">
        <ele>996.01</ele>
        <time>2024-09-25T15:36:27.000Z</time>
      </trkpt>
      <trkpt lat="42.19824" lon="2.30378">
        <ele>993.75</ele>
        <time>2024-09-25T15:36:32.000Z</time>
      </trkpt>
      <trkpt lat="42.19809" lon="2.30317">
        <ele>991.69</ele>
        <time>2024-09-25T15:36:37.000Z</time>
      </trkpt>
      <trkpt lat="42.19826" lon="2.30257">
        <ele>988.41</ele>
        <time>2024-09-25T15:36:42.000Z</time>
      </trkpt>
      <trkpt lat="42.19824" lon="2.30194">
        <ele>986.7</ele>
        <time>2024-09-25T15:36:47.000Z</time>
      </trkpt>
      <trkpt lat="42.19815" lon="2.30141">
        <ele>986.21</ele>
        <time>2024-09-25T15:36:52.000Z</time>
      </trkpt>
      <trkpt lat="42.19801" lon="2.30095">
        <ele>986.39</ele>
        <time>2024-09-25T15:36:57.000Z</time>
      </trkpt>
      <trkpt lat="42.19783" lon="2.30055">
        <ele>984.99</ele>
        <time>2024-09-25T15:37:02.000Z</time>
      </trkpt>
      <trkpt lat="42.19765" lon="2.30018">
        <ele>983.03</ele>
        <time>2024-09-25T15:37:07.000Z</time>
      </trkpt>
      <trkpt lat="42.19745" lon="2.29984">
        <ele>981.17</ele>
        <time>2024-09-25T15:37:12.000Z</time>
      </trkpt>
      <trkpt lat="42.19727" lon="2.29951">
        <ele>979.59</ele>
        <time>2024-09-25T15:37:17.000Z</time>
      </trkpt>
      <trkpt lat="42.19716" lon="2.29927">
        <ele>978.76</ele>
        <time>2024-09-25T15:37:22.000Z</time>
      </trkpt>
      <trkpt lat="42.19709" lon="2.29906">
        <ele>978.62</ele>
        <time>2024-09-25T15:37:27.000Z</time>
      </trkpt>
      <trkpt lat="42.19706" lon="2.29886">
        <ele>978.39</ele>
        <time>2024-09-25T15:37:32.000Z</time>
      </trkpt>
      <trkpt lat="42.19706" lon="2.29865">
        <ele>978.1</ele>
        <time>2024-09-25T15:37:37.000Z</time>
      </trkpt>
      <trkpt lat="42.19711" lon="2.29844">
        <ele>977.8</ele>
        <time>2024-09-25T15:37:42.000Z</time>
      </trkpt>
      <trkpt lat="42.19714" lon="2.29821">
        <ele>977.57</ele>
        <time>2024-09-25T15:37:47.000Z</time>
      </trkpt>
      <trkpt lat="42.19713" lon="2.29798">
        <ele>977.45</ele>
        <time>2024-09-25T15:37:52.000Z</time>
      </trkpt>
      <trkpt lat="42.19707" lon="2.29776">
        <ele>977.51</ele>
        <time>2024-09-25T15:37:57.000Z</time>
      </trkpt>
      <trkpt lat="42.19703" lon="2.29759">
        <ele>977.63</ele>
        <time>2024-09-25T15:38:02.000Z</time>
      </trkpt>
      <trkpt lat="42.197" lon="2.29743">
        <ele>977.84</ele>
        <time>2024-09-25T15:38:07.000Z</time>
      </trkpt>
      <trkpt lat="42.19698" lon="2.29728">
        <ele>978.1</ele>
        <time>2024-09-25T15:38:12.000Z</time>
      </trkpt>
      <trkpt lat="42.197" lon="2.29715">
        <ele>978.54</ele>
        <time>2024-09-25T15:38:18.000Z</time>
      </trkpt>
      <trkpt lat="42.19704" lon="2.29704">
        <ele>979.02</ele>
        <time>2024-09-25T15:38:24.000Z</time>
      </trkpt>
      <trkpt lat="42.19709" lon="2.29692">
        <ele>979.5</ele>
        <time>2024-09-25T15:38:30.000Z</time>
      </trkpt>
      <trkpt lat="42.19715" lon="2.29682">
        <ele>979.82</ele>
        <time>2024-09-25T15:38:35.000Z</time>
      </trkpt>
      <trkpt lat="42.1972" lon="2.2967">
        <ele>980.05</ele>
        <time>2024-09-25T15:38:40.000Z</time>
      </trkpt>
      <trkpt lat="42.19729" lon="2.29655">
        <ele>980.21</ele>
        <time>2024-09-25T15:38:45.000Z</time>
      </trkpt>
      <trkpt lat="42.19738" lon="2.29641">
        <ele>980.33</ele>
        <time>2024-09-25T15:38:50.000Z</time>
      </trkpt>
      <trkpt lat="42.19752" lon="2.29627">
        <ele>980.46</ele>
        <time>2024-09-25T15:38:55.000Z</time>
      </trkpt>
      <trkpt lat="42.19771" lon="2.29612">
        <ele>980.58</ele>
        <time>2024-09-25T15:39:00.000Z</time>
      </trkpt>
      <trkpt lat="42.19789" lon="2.29595">
        <ele>981.42</ele>
        <time>2024-09-25T15:39:05.000Z</time>
      </trkpt>
      <trkpt lat="42.19806" lon="2.2957">
        <ele>982.14</ele>
        <time>2024-09-25T15:39:10.000Z</time>
      </trkpt>
      <trkpt lat="42.1982" lon="2.29528">
        <ele>982.31</ele>
        <time>2024-09-25T15:39:15.000Z</time>
      </trkpt>
      <trkpt lat="42.19823" lon="2.29473">
        <ele>982.26</ele>
        <time>2024-09-25T15:39:20.000Z</time>
      </trkpt>
      <trkpt lat="42.19823" lon="2.29421">
        <ele>982.49</ele>
        <time>2024-09-25T15:39:25.000Z</time>
      </trkpt>
      <trkpt lat="42.19822" lon="2.29374">
        <ele>982.53</ele>
        <time>2024-09-25T15:39:30.000Z</time>
      </trkpt>
      <trkpt lat="42.19814" lon="2.29327">
        <ele>983.08</ele>
        <time>2024-09-25T15:39:35.000Z</time>
      </trkpt>
      <trkpt lat="42.19812" lon="2.29282">
        <ele>983.75</ele>
        <time>2024-09-25T15:39:40.000Z</time>
      </trkpt>
      <trkpt lat="42.19812" lon="2.29236">
        <ele>983.46</ele>
        <time>2024-09-25T15:39:45.000Z</time>
      </trkpt>
      <trkpt lat="42.19821" lon="2.29189">
        <ele>983.43</ele>
        <time>2024-09-25T15:39:50.000Z</time>
      </trkpt>
      <trkpt lat="42.19831" lon="2.29143">
        <ele>984.99</ele>
        <time>2024-09-25T15:39:55.000Z</time>
      </trkpt>
      <trkpt lat="42.1985" lon="2.29097">
        <ele>986.03</ele>
        <time>2024-09-25T15:40:00.000Z</time>
      </trkpt>
      <trkpt lat="42.19872" lon="2.29049">
        <ele>984.9</ele>
        <time>2024-09-25T15:40:05.000Z</time>
      </trkpt>
      <trkpt lat="42.19895" lon="2.29002">
        <ele>982.79</ele>
        <time>2024-09-25T15:40:10.000Z</time>
      </trkpt>
      <trkpt lat="42.19912" lon="2.28942">
        <ele>980.79</ele>
        <time>2024-09-25T15:40:15.000Z</time>
      </trkpt>
      <trkpt lat="42.19903" lon="2.28877">
        <ele>978.02</ele>
        <time>2024-09-25T15:40:20.000Z</time>
      </trkpt>
      <trkpt lat="42.19872" lon="2.28806">
        <ele>975.05</ele>
        <time>2024-09-25T15:40:25.999Z</time>
      </trkpt>
      <trkpt lat="42.19845" lon="2.28749">
        <ele>973.72</ele>
        <time>2024-09-25T15:40:30.999Z</time>
      </trkpt>
      <trkpt lat="42.19825" lon="2.2869">
        <ele>970.86</ele>
        <time>2024-09-25T15:40:35.999Z</time>
      </trkpt>
      <trkpt lat="42.19802" lon="2.28637">
        <ele>968.12</ele>
        <time>2024-09-25T15:40:40.999Z</time>
      </trkpt>
      <trkpt lat="42.19796" lon="2.28587">
        <ele>964.61</ele>
        <time>2024-09-25T15:40:45.999Z</time>
      </trkpt>
      <trkpt lat="42.19821" lon="2.28557">
        <ele>961.64</ele>
        <time>2024-09-25T15:40:50.999Z</time>
      </trkpt>
      <trkpt lat="42.19853" lon="2.28532">
        <ele>961.08</ele>
        <time>2024-09-25T15:40:55.999Z</time>
      </trkpt>
      <trkpt lat="42.19881" lon="2.2851">
        <ele>958.52</ele>
        <time>2024-09-25T15:41:00.999Z</time>
      </trkpt>
      <trkpt lat="42.19902" lon="2.28483">
        <ele>956.15</ele>
        <time>2024-09-25T15:41:05.999Z</time>
      </trkpt>
      <trkpt lat="42.19912" lon="2.28442">
        <ele>954.52</ele>
        <time>2024-09-25T15:41:10.999Z</time>
      </trkpt>
      <trkpt lat="42.19902" lon="2.28401">
        <ele>953.13</ele>
        <time>2024-09-25T15:41:15.999Z</time>
      </trkpt>
      <trkpt lat="42.19882" lon="2.28355">
        <ele>951.19</ele>
        <time>2024-09-25T15:41:20.999Z</time>
      </trkpt>
      <trkpt lat="42.1986" lon="2.28307">
        <ele>948.93</ele>
        <time>2024-09-25T15:41:25.999Z</time>
      </trkpt>
      <trkpt lat="42.19849" lon="2.28254">
        <ele>947.2</ele>
        <time>2024-09-25T15:41:30.999Z</time>
      </trkpt>
      <trkpt lat="42.1984" lon="2.28203">
        <ele>945.44</ele>
        <time>2024-09-25T15:41:35.999Z</time>
      </trkpt>
      <trkpt lat="42.19851" lon="2.28157">
        <ele>943.49</ele>
        <time>2024-09-25T15:41:40.999Z</time>
      </trkpt>
      <trkpt lat="42.19859" lon="2.28111">
        <ele>941.38</ele>
        <time>2024-09-25T15:41:45.999Z</time>
      </trkpt>
      <trkpt lat="42.19864" lon="2.28066">
        <ele>939.7</ele>
        <time>2024-09-25T15:41:50.999Z</time>
      </trkpt>
      <trkpt lat="42.19861" lon="2.28016">
        <ele>939.34</ele>
        <time>2024-09-25T15:41:55.999Z</time>
      </trkpt>
      <trkpt lat="42.19871" lon="2.27969">
        <ele>939.19</ele>
        <time>2024-09-25T15:42:00.999Z</time>
      </trkpt>
      <trkpt lat="42.19885" lon="2.27926">
        <ele>939.82</ele>
        <time>2024-09-25T15:42:05.999Z</time>
      </trkpt>
      <trkpt lat="42.19904" lon="2.27887">
        <ele>940.79</ele>
        <time>2024-09-25T15:42:10.999Z</time>
      </trkpt>
      <trkpt lat="42.19921" lon="2.27849">
        <ele>940.81</ele>
        <time>2024-09-25T15:42:15.999Z</time>
      </trkpt>
      <trkpt lat="42.19923" lon="2.27804">
        <ele>939.65</ele>
        <time>2024-09-25T15:42:20.999Z</time>
      </trkpt>
      <trkpt lat="42.1992" lon="2.27761">
        <ele>938.15</ele>
        <time>2024-09-25T15:42:25.999Z</time>
      </trkpt>
      <trkpt lat="42.19917" lon="2.27717">
        <ele>937.66</ele>
        <time>2024-09-25T15:42:30.999Z</time>
      </trkpt>
      <trkpt lat="42.19919" lon="2.27675">
        <ele>937.29</ele>
        <time>2024-09-25T15:42:35.999Z</time>
      </trkpt>
      <trkpt lat="42.19925" lon="2.27633">
        <ele>937</ele>
        <time>2024-09-25T15:42:40.999Z</time>
      </trkpt>
      <trkpt lat="42.19926" lon="2.27593">
        <ele>936.76</ele>
        <time>2024-09-25T15:42:45.999Z</time>
      </trkpt>
      <trkpt lat="42.19909" lon="2.2756">
        <ele>935.83</ele>
        <time>2024-09-25T15:42:50.999Z</time>
      </trkpt>
      <trkpt lat="42.19889" lon="2.27526">
        <ele>934.76</ele>
        <time>2024-09-25T15:42:55.999Z</time>
      </trkpt>
      <trkpt lat="42.19883" lon="2.27485">
        <ele>932.75</ele>
        <time>2024-09-25T15:43:00.999Z</time>
      </trkpt>
      <trkpt lat="42.19875" lon="2.27444">
        <ele>929.7</ele>
        <time>2024-09-25T15:43:05.999Z</time>
      </trkpt>
      <trkpt lat="42.19851" lon="2.27408">
        <ele>926.81</ele>
        <time>2024-09-25T15:43:10.999Z</time>
      </trkpt>
      <trkpt lat="42.19825" lon="2.27373">
        <ele>924.64</ele>
        <time>2024-09-25T15:43:15.999Z</time>
      </trkpt>
      <trkpt lat="42.19806" lon="2.27332">
        <ele>923.02</ele>
        <time>2024-09-25T15:43:20.999Z</time>
      </trkpt>
      <trkpt lat="42.19798" lon="2.27284">
        <ele>921.86</ele>
        <time>2024-09-25T15:43:25.999Z</time>
      </trkpt>
      <trkpt lat="42.19778" lon="2.27245">
        <ele>920.64</ele>
        <time>2024-09-25T15:43:30.999Z</time>
      </trkpt>
      <trkpt lat="42.19741" lon="2.2723">
        <ele>918.76</ele>
        <time>2024-09-25T15:43:35.999Z</time>
      </trkpt>
      <trkpt lat="42.19712" lon="2.2719">
        <ele>917.23</ele>
        <time>2024-09-25T15:43:40.999Z</time>
      </trkpt>
      <trkpt lat="42.19728" lon="2.27142">
        <ele>916.25</ele>
        <time>2024-09-25T15:43:45.999Z</time>
      </trkpt>
      <trkpt lat="42.19766" lon="2.27123">
        <ele>915.37</ele>
        <time>2024-09-25T15:43:50.999Z</time>
      </trkpt>
      <trkpt lat="42.19781" lon="2.27073">
        <ele>914.19</ele>
        <time>2024-09-25T15:43:55.999Z</time>
      </trkpt>
      <trkpt lat="42.19763" lon="2.27029">
        <ele>912.58</ele>
        <time>2024-09-25T15:44:00.999Z</time>
      </trkpt>
      <trkpt lat="42.19748" lon="2.26988">
        <ele>911.66</ele>
        <time>2024-09-25T15:44:05.999Z</time>
      </trkpt>
      <trkpt lat="42.19736" lon="2.26947">
        <ele>910.56</ele>
        <time>2024-09-25T15:44:10.999Z</time>
      </trkpt>
      <trkpt lat="42.19725" lon="2.26906">
        <ele>909</ele>
        <time>2024-09-25T15:44:15.999Z</time>
      </trkpt>
      <trkpt lat="42.19713" lon="2.26862">
        <ele>907.26</ele>
        <time>2024-09-25T15:44:20.999Z</time>
      </trkpt>
      <trkpt lat="42.19702" lon="2.26818">
        <ele>905.7</ele>
        <time>2024-09-25T15:44:25.999Z</time>
      </trkpt>
      <trkpt lat="42.19692" lon="2.26777">
        <ele>904.18</ele>
        <time>2024-09-25T15:44:30.999Z</time>
      </trkpt>
      <trkpt lat="42.19689" lon="2.26734">
        <ele>902.03</ele>
        <time>2024-09-25T15:44:35.999Z</time>
      </trkpt>
      <trkpt lat="42.19693" lon="2.26689">
        <ele>900.04</ele>
        <time>2024-09-25T15:44:40.999Z</time>
      </trkpt>
      <trkpt lat="42.197" lon="2.26648">
        <ele>898.38</ele>
        <time>2024-09-25T15:44:45.999Z</time>
      </trkpt>
      <trkpt lat="42.19711" lon="2.26604">
        <ele>897.48</ele>
        <time>2024-09-25T15:44:50.999Z</time>
      </trkpt>
      <trkpt lat="42.19731" lon="2.26565">
        <ele>897.67</ele>
        <time>2024-09-25T15:44:55.999Z</time>
      </trkpt>
      <trkpt lat="42.19734" lon="2.26519">
        <ele>897.49</ele>
        <time>2024-09-25T15:45:00.999Z</time>
      </trkpt>
      <trkpt lat="42.19727" lon="2.26474">
        <ele>897.22</ele>
        <time>2024-09-25T15:45:05.999Z</time>
      </trkpt>
      <trkpt lat="42.19737" lon="2.26434">
        <ele>897.53</ele>
        <time>2024-09-25T15:45:10.999Z</time>
      </trkpt>
      <trkpt lat="42.19759" lon="2.26416">
        <ele>898.73</ele>
        <time>2024-09-25T15:45:15.999Z</time>
      </trkpt>
      <trkpt lat="42.1978" lon="2.26404">
        <ele>899.55</ele>
        <time>2024-09-25T15:45:20.999Z</time>
      </trkpt>
      <trkpt lat="42.19797" lon="2.26368">
        <ele>898.23</ele>
        <time>2024-09-25T15:45:25.999Z</time>
      </trkpt>
      <trkpt lat="42.19803" lon="2.26315">
        <ele>895.91</ele>
        <time>2024-09-25T15:45:30.999Z</time>
      </trkpt>
      <trkpt lat="42.19845" lon="2.26291">
        <ele>893.71</ele>
        <time>2024-09-25T15:45:35.999Z</time>
      </trkpt>
      <trkpt lat="42.19869" lon="2.26241">
        <ele>892.57</ele>
        <time>2024-09-25T15:45:40.999Z</time>
      </trkpt>
      <trkpt lat="42.19883" lon="2.26188">
        <ele>891.69</ele>
        <time>2024-09-25T15:45:45.999Z</time>
      </trkpt>
      <trkpt lat="42.19905" lon="2.26144">
        <ele>890.02</ele>
        <time>2024-09-25T15:45:50.999Z</time>
      </trkpt>
      <trkpt lat="42.19942" lon="2.26122">
        <ele>887.61</ele>
        <time>2024-09-25T15:45:55.999Z</time>
      </trkpt>
      <trkpt lat="42.19978" lon="2.26101">
        <ele>885.8</ele>
        <time>2024-09-25T15:46:00.999Z</time>
      </trkpt>
      <trkpt lat="42.20016" lon="2.2608">
        <ele>884.89</ele>
        <time>2024-09-25T15:46:05.999Z</time>
      </trkpt>
      <trkpt lat="42.20055" lon="2.2607">
        <ele>885.36</ele>
        <time>2024-09-25T15:46:10.999Z</time>
      </trkpt>
      <trkpt lat="42.2009" lon="2.26076">
        <ele>886.88</ele>
        <time>2024-09-25T15:46:15.999Z</time>
      </trkpt>
      <trkpt lat="42.20122" lon="2.26064">
        <ele>887.34</ele>
        <time>2024-09-25T15:46:20.999Z</time>
      </trkpt>
      <trkpt lat="42.20151" lon="2.26042">
        <ele>883.97</ele>
        <time>2024-09-25T15:46:25.999Z</time>
      </trkpt>
      <trkpt lat="42.20183" lon="2.26033">
        <ele>881.76</ele>
        <time>2024-09-25T15:46:30.999Z</time>
      </trkpt>
      <trkpt lat="42.20216" lon="2.26045">
        <ele>881.35</ele>
        <time>2024-09-25T15:46:35.999Z</time>
      </trkpt>
      <trkpt lat="42.20254" lon="2.26037">
        <ele>879.87</ele>
        <time>2024-09-25T15:46:40.999Z</time>
      </trkpt>
      <trkpt lat="42.20282" lon="2.26009">
        <ele>878.54</ele>
        <time>2024-09-25T15:46:45.999Z</time>
      </trkpt>
      <trkpt lat="42.20286" lon="2.25964">
        <ele>878.46</ele>
        <time>2024-09-25T15:46:50.999Z</time>
      </trkpt>
      <trkpt lat="42.20276" lon="2.25929">
        <ele>877.67</ele>
        <time>2024-09-25T15:46:55.999Z</time>
      </trkpt>
      <trkpt lat="42.20255" lon="2.25917">
        <ele>876.19</ele>
        <time>2024-09-25T15:47:00.999Z</time>
      </trkpt>
      <trkpt lat="42.20238" lon="2.25917">
        <ele>875.59</ele>
        <time>2024-09-25T15:47:05.999Z</time>
      </trkpt>
      <trkpt lat="42.20223" lon="2.2592">
        <ele>875.37</ele>
        <time>2024-09-25T15:47:10.999Z</time>
      </trkpt>
      <trkpt lat="42.20207" lon="2.25922">
        <ele>875.26</ele>
        <time>2024-09-25T15:47:15.999Z</time>
      </trkpt>
      <trkpt lat="42.20187" lon="2.25925">
        <ele>874.88</ele>
        <time>2024-09-25T15:47:20.999Z</time>
      </trkpt>
      <trkpt lat="42.20168" lon="2.25927">
        <ele>874.73</ele>
        <time>2024-09-25T15:47:25.999Z</time>
      </trkpt>
      <trkpt lat="42.20149" lon="2.25933">
        <ele>874.61</ele>
        <time>2024-09-25T15:47:30.999Z</time>
      </trkpt>
      <trkpt lat="42.20132" lon="2.25932">
        <ele>874.61</ele>
        <time>2024-09-25T15:47:35.999Z</time>
      </trkpt>
      <trkpt lat="42.20114" lon="2.25924">
        <ele>874.56</ele>
        <time>2024-09-25T15:47:40.999Z</time>
      </trkpt>
      <trkpt lat="42.20095" lon="2.2591">
        <ele>874.4</ele>
        <time>2024-09-25T15:47:45.999Z</time>
      </trkpt>
      <trkpt lat="42.20077" lon="2.25895">
        <ele>874.2</ele>
        <time>2024-09-25T15:47:50.999Z</time>
      </trkpt>
      <trkpt lat="42.20057" lon="2.25882">
        <ele>873.99</ele>
        <time>2024-09-25T15:47:55.999Z</time>
      </trkpt>
      <trkpt lat="42.20035" lon="2.25886">
        <ele>873.77</ele>
        <time>2024-09-25T15:48:00.999Z</time>
      </trkpt>
      <trkpt lat="42.20018" lon="2.25884">
        <ele>873.74</ele>
        <time>2024-09-25T15:48:05.999Z</time>
      </trkpt>
      <trkpt lat="42.20006" lon="2.25876">
        <ele>873.71</ele>
        <time>2024-09-25T15:48:10.999Z</time>
      </trkpt>
      <trkpt lat="42.19994" lon="2.25869">
        <ele>873.68</ele>
        <time>2024-09-25T15:48:15.999Z</time>
      </trkpt>
      <trkpt lat="42.19981" lon="2.25861">
        <ele>873.65</ele>
        <time>2024-09-25T15:48:20.999Z</time>
      </trkpt>
      <trkpt lat="42.1997" lon="2.2585">
        <ele>873.61</ele>
        <time>2024-09-25T15:48:25.999Z</time>
      </trkpt>
      <trkpt lat="42.19961" lon="2.25836">
        <ele>873.58</ele>
        <time>2024-09-25T15:48:30.999Z</time>
      </trkpt>
      <trkpt lat="42.1995" lon="2.25823">
        <ele>873.55</ele>
        <time>2024-09-25T15:48:35.999Z</time>
      </trkpt>
      <trkpt lat="42.19939" lon="2.2581">
        <ele>873.53</ele>
        <time>2024-09-25T15:48:40.999Z</time>
      </trkpt>
      <trkpt lat="42.19926" lon="2.25797">
        <ele>873.52</ele>
        <time>2024-09-25T15:48:45.999Z</time>
      </trkpt>
      <trkpt lat="42.19917" lon="2.25782">
        <ele>873.51</ele>
        <time>2024-09-25T15:48:50.999Z</time>
      </trkpt>
      <trkpt lat="42.19912" lon="2.25764">
        <ele>873.47</ele>
        <time>2024-09-25T15:48:55.999Z</time>
      </trkpt>
      <trkpt lat="42.1991" lon="2.25743">
        <ele>873.37</ele>
        <time>2024-09-25T15:49:00.999Z</time>
      </trkpt>
      <trkpt lat="42.19905" lon="2.25723">
        <ele>873.26</ele>
        <time>2024-09-25T15:49:05.999Z</time>
      </trkpt>
      <trkpt lat="42.19902" lon="2.25705">
        <ele>873.16</ele>
        <time>2024-09-25T15:49:10.999Z</time>
      </trkpt>
      <trkpt lat="42.19899" lon="2.25685">
        <ele>873.12</ele>
        <time>2024-09-25T15:49:15.999Z</time>
      </trkpt>
      <trkpt lat="42.199" lon="2.25663">
        <ele>873.1</ele>
        <time>2024-09-25T15:49:20.999Z</time>
      </trkpt>
      <trkpt lat="42.19901" lon="2.25642">
        <ele>873.1</ele>
        <time>2024-09-25T15:49:25.999Z</time>
      </trkpt>
      <trkpt lat="42.19903" lon="2.25622">
        <ele>873.12</ele>
        <time>2024-09-25T15:49:30.999Z</time>
      </trkpt>
      <trkpt lat="42.19904" lon="2.256">
        <ele>873.13</ele>
        <time>2024-09-25T15:49:35.999Z</time>
      </trkpt>
      <trkpt lat="42.19907" lon="2.25579">
        <ele>873.14</ele>
        <time>2024-09-25T15:49:40.999Z</time>
      </trkpt>
      <trkpt lat="42.19913" lon="2.25558">
        <ele>873.17</ele>
        <time>2024-09-25T15:49:45.999Z</time>
      </trkpt>
      <trkpt lat="42.1992" lon="2.2554">
        <ele>873.22</ele>
        <time>2024-09-25T15:49:50.999Z</time>
      </trkpt>
      <trkpt lat="42.19929" lon="2.25523">
        <ele>873.27</ele>
        <time>2024-09-25T15:49:55.999Z</time>
      </trkpt>
      <trkpt lat="42.19938" lon="2.25506">
        <ele>873.38</ele>
        <time>2024-09-25T15:50:00.999Z</time>
      </trkpt>
      <trkpt lat="42.19948" lon="2.25487">
        <ele>873.56</ele>
        <time>2024-09-25T15:50:05.999Z</time>
      </trkpt>
      <trkpt lat="42.19953" lon="2.25471">
        <ele>873.87</ele>
        <time>2024-09-25T15:50:10.999Z</time>
      </trkpt>
      <trkpt lat="42.1995" lon="2.25447">
        <ele>874.25</ele>
        <time>2024-09-25T15:50:15.999Z</time>
      </trkpt>
      <trkpt lat="42.19941" lon="2.25428">
        <ele>874.72</ele>
        <time>2024-09-25T15:50:20.999Z</time>
      </trkpt>
      <trkpt lat="42.19928" lon="2.25411">
        <ele>875.22</ele>
        <time>2024-09-25T15:50:25.999Z</time>
      </trkpt>
      <trkpt lat="42.19913" lon="2.25397">
        <ele>875.69</ele>
        <time>2024-09-25T15:50:30.999Z</time>
      </trkpt>
      <trkpt lat="42.19895" lon="2.2539">
        <ele>876.14</ele>
        <time>2024-09-25T15:50:35.999Z</time>
      </trkpt>
      <trkpt lat="42.19877" lon="2.25385">
        <ele>876.57</ele>
        <time>2024-09-25T15:50:40.999Z</time>
      </trkpt>
      <trkpt lat="42.19861" lon="2.25374">
        <ele>877.62</ele>
        <time>2024-09-25T15:50:45.999Z</time>
      </trkpt>
      <trkpt lat="42.19847" lon="2.2536">
        <ele>878.19</ele>
        <time>2024-09-25T15:50:50.999Z</time>
      </trkpt>
      <trkpt lat="42.1984" lon="2.25337">
        <ele>878.54</ele>
        <time>2024-09-25T15:50:55.999Z</time>
      </trkpt>
      <trkpt lat="42.19839" lon="2.25316">
        <ele>878.88</ele>
        <time>2024-09-25T15:51:00.999Z</time>
      </trkpt>
      <trkpt lat="42.19837" lon="2.25296">
        <ele>879.21</ele>
        <time>2024-09-25T15:51:05.999Z</time>
      </trkpt>
      <trkpt lat="42.19826" lon="2.2528">
        <ele>879.54</ele>
        <time>2024-09-25T15:51:10.999Z</time>
      </trkpt>
      <trkpt lat="42.19812" lon="2.25274">
        <ele>879.91</ele>
        <time>2024-09-25T15:51:15.999Z</time>
      </trkpt>
      <trkpt lat="42.19795" lon="2.25279">
        <ele>880.38</ele>
        <time>2024-09-25T15:51:20.999Z</time>
      </trkpt>
      <trkpt lat="42.19781" lon="2.25274">
        <ele>880.94</ele>
        <time>2024-09-25T15:51:25.999Z</time>
      </trkpt>
      <trkpt lat="42.19778" lon="2.25256">
        <ele>881.5</ele>
        <time>2024-09-25T15:51:30.999Z</time>
      </trkpt>
      <trkpt lat="42.19778" lon="2.25237">
        <ele>881.99</ele>
        <time>2024-09-25T15:51:35.999Z</time>
      </trkpt>
      <trkpt lat="42.19774" lon="2.2522">
        <ele>882.46</ele>
        <time>2024-09-25T15:51:40.999Z</time>
      </trkpt>
      <trkpt lat="42.19767" lon="2.25203">
        <ele>882.9</ele>
        <time>2024-09-25T15:51:45.999Z</time>
      </trkpt>
      <trkpt lat="42.19758" lon="2.25189">
        <ele>883.35</ele>
        <time>2024-09-25T15:51:50.999Z</time>
      </trkpt>
      <trkpt lat="42.19748" lon="2.25176">
        <ele>883.79</ele>
        <time>2024-09-25T15:51:55.999Z</time>
      </trkpt>
      <trkpt lat="42.19737" lon="2.25163">
        <ele>884.23</ele>
        <time>2024-09-25T15:52:00.999Z</time>
      </trkpt>
      <trkpt lat="42.19728" lon="2.25148">
        <ele>884.62</ele>
        <time>2024-09-25T15:52:05.999Z</time>
      </trkpt>
      <trkpt lat="42.19722" lon="2.2513">
        <ele>884.99</ele>
        <time>2024-09-25T15:52:10.999Z</time>
      </trkpt>
      <trkpt lat="42.1971" lon="2.25117">
        <ele>885.32</ele>
        <time>2024-09-25T15:52:15.999Z</time>
      </trkpt>
      <trkpt lat="42.19696" lon="2.25113">
        <ele>885.66</ele>
        <time>2024-09-25T15:52:20.999Z</time>
      </trkpt>
      <trkpt lat="42.19682" lon="2.2511">
        <ele>886.03</ele>
        <time>2024-09-25T15:52:25.999Z</time>
      </trkpt>
      <trkpt lat="42.19669" lon="2.25099">
        <ele>886.41</ele>
        <time>2024-09-25T15:52:30.999Z</time>
      </trkpt>
      <trkpt lat="42.19661" lon="2.2508">
        <ele>886.79</ele>
        <time>2024-09-25T15:52:35.999Z</time>
      </trkpt>
      <trkpt lat="42.19663" lon="2.25059">
        <ele>887.15</ele>
        <time>2024-09-25T15:52:41.000Z</time>
      </trkpt>
      <trkpt lat="42.19669" lon="2.25033">
        <ele>888.06</ele>
        <time>2024-09-25T15:52:46.000Z</time>
      </trkpt>
      <trkpt lat="42.19671" lon="2.25007">
        <ele>888.74</ele>
        <time>2024-09-25T15:52:51.000Z</time>
      </trkpt>
      <trkpt lat="42.19664" lon="2.2498">
        <ele>889.91</ele>
        <time>2024-09-25T15:52:56.000Z</time>
      </trkpt>
      <trkpt lat="42.19645" lon="2.24965">
        <ele>890.39</ele>
        <time>2024-09-25T15:53:01.000Z</time>
      </trkpt>
      <trkpt lat="42.19622" lon="2.24971">
        <ele>890.72</ele>
        <time>2024-09-25T15:53:06.000Z</time>
      </trkpt>
      <trkpt lat="42.19596" lon="2.24987">
        <ele>891.05</ele>
        <time>2024-09-25T15:53:11.000Z</time>
      </trkpt>
      <trkpt lat="42.1957" lon="2.24991">
        <ele>891.25</ele>
        <time>2024-09-25T15:53:16.000Z</time>
      </trkpt>
      <trkpt lat="42.19546" lon="2.24986">
        <ele>891.49</ele>
        <time>2024-09-25T15:53:21.000Z</time>
      </trkpt>
      <trkpt lat="42.19519" lon="2.24989">
        <ele>891.54</ele>
        <time>2024-09-25T15:53:26.000Z</time>
      </trkpt>
      <trkpt lat="42.19495" lon="2.24975">
        <ele>891.49</ele>
        <time>2024-09-25T15:53:31.000Z</time>
      </trkpt>
      <trkpt lat="42.19475" lon="2.24956">
        <ele>891.42</ele>
        <time>2024-09-25T15:53:36.000Z</time>
      </trkpt>
      <trkpt lat="42.19462" lon="2.24932">
        <ele>891.41</ele>
        <time>2024-09-25T15:53:41.000Z</time>
      </trkpt>
      <trkpt lat="42.19474" lon="2.24905">
        <ele>891.53</ele>
        <time>2024-09-25T15:53:46.000Z</time>
      </trkpt>
      <trkpt lat="42.19489" lon="2.24884">
        <ele>891.83</ele>
        <time>2024-09-25T15:53:51.000Z</time>
      </trkpt>
      <trkpt lat="42.19506" lon="2.24861">
        <ele>892.09</ele>
        <time>2024-09-25T15:53:56.000Z</time>
      </trkpt>
      <trkpt lat="42.1952" lon="2.24832">
        <ele>891.53</ele>
        <time>2024-09-25T15:54:01.000Z</time>
      </trkpt>
      <trkpt lat="42.19524" lon="2.24798">
        <ele>890.99</ele>
        <time>2024-09-25T15:54:06.000Z</time>
      </trkpt>
      <trkpt lat="42.19524" lon="2.24765">
        <ele>890.93</ele>
        <time>2024-09-25T15:54:11.000Z</time>
      </trkpt>
      <trkpt lat="42.19526" lon="2.2473">
        <ele>890.86</ele>
        <time>2024-09-25T15:54:16.000Z</time>
      </trkpt>
      <trkpt lat="42.1953" lon="2.24699">
        <ele>890.73</ele>
        <time>2024-09-25T15:54:21.000Z</time>
      </trkpt>
      <trkpt lat="42.19529" lon="2.24666">
        <ele>890.59</ele>
        <time>2024-09-25T15:54:26.000Z</time>
      </trkpt>
      <trkpt lat="42.19531" lon="2.24634">
        <ele>890.67</ele>
        <time>2024-09-25T15:54:31.000Z</time>
      </trkpt>
      <trkpt lat="42.19537" lon="2.24607">
        <ele>890.7</ele>
        <time>2024-09-25T15:54:36.000Z</time>
      </trkpt>
      <trkpt lat="42.19547" lon="2.2458">
        <ele>890.59</ele>
        <time>2024-09-25T15:54:41.000Z</time>
      </trkpt>
      <trkpt lat="42.19558" lon="2.24548">
        <ele>890.59</ele>
        <time>2024-09-25T15:54:46.000Z</time>
      </trkpt>
      <trkpt lat="42.19565" lon="2.24513">
        <ele>890.9</ele>
        <time>2024-09-25T15:54:51.000Z</time>
      </trkpt>
      <trkpt lat="42.1957" lon="2.24476">
        <ele>891.18</ele>
        <time>2024-09-25T15:54:56.000Z</time>
      </trkpt>
      <trkpt lat="42.19575" lon="2.24438">
        <ele>891.44</ele>
        <time>2024-09-25T15:55:01.000Z</time>
      </trkpt>
      <trkpt lat="42.1958" lon="2.24401">
        <ele>891.5</ele>
        <time>2024-09-25T15:55:06.000Z</time>
      </trkpt>
      <trkpt lat="42.19582" lon="2.24365">
        <ele>891.57</ele>
        <time>2024-09-25T15:55:11.000Z</time>
      </trkpt>
      <trkpt lat="42.19581" lon="2.24333">
        <ele>891.85</ele>
        <time>2024-09-25T15:55:16.000Z</time>
      </trkpt>
      <trkpt lat="42.19579" lon="2.24303">
        <ele>892.11</ele>
        <time>2024-09-25T15:55:21.000Z</time>
      </trkpt>
      <trkpt lat="42.19578" lon="2.24272">
        <ele>892.71</ele>
        <time>2024-09-25T15:55:26.000Z</time>
      </trkpt>
      <trkpt lat="42.19576" lon="2.24244">
        <ele>893.3</ele>
        <time>2024-09-25T15:55:31.000Z</time>
      </trkpt>
      <trkpt lat="42.19575" lon="2.24217">
        <ele>893.9</ele>
        <time>2024-09-25T15:55:36.000Z</time>
      </trkpt>
      <trkpt lat="42.19573" lon="2.24189">
        <ele>894.32</ele>
        <time>2024-09-25T15:55:41.000Z</time>
      </trkpt>
      <trkpt lat="42.19572" lon="2.24162">
        <ele>894.6</ele>
        <time>2024-09-25T15:55:46.000Z</time>
      </trkpt>
      <trkpt lat="42.19573" lon="2.24136">
        <ele>894.88</ele>
        <time>2024-09-25T15:55:51.000Z</time>
      </trkpt>
      <trkpt lat="42.1958" lon="2.2411">
        <ele>895.27</ele>
        <time>2024-09-25T15:55:56.000Z</time>
      </trkpt>
      <trkpt lat="42.19589" lon="2.24084">
        <ele>895.33</ele>
        <time>2024-09-25T15:56:01.000Z</time>
      </trkpt>
      <trkpt lat="42.19598" lon="2.24056">
        <ele>895.11</ele>
        <time>2024-09-25T15:56:06.000Z</time>
      </trkpt>
      <trkpt lat="42.19607" lon="2.24028">
        <ele>894.81</ele>
        <time>2024-09-25T15:56:11.000Z</time>
      </trkpt>
      <trkpt lat="42.19616" lon="2.24">
        <ele>894.45</ele>
        <time>2024-09-25T15:56:16.000Z</time>
      </trkpt>
      <trkpt lat="42.19616" lon="2.23967">
        <ele>894.16</ele>
        <time>2024-09-25T15:56:21.000Z</time>
      </trkpt>
      <trkpt lat="42.19611" lon="2.23933">
        <ele>893.95</ele>
        <time>2024-09-25T15:56:26.000Z</time>
      </trkpt>
      <trkpt lat="42.19606" lon="2.239">
        <ele>893.84</ele>
        <time>2024-09-25T15:56:31.000Z</time>
      </trkpt>
      <trkpt lat="42.19609" lon="2.23867">
        <ele>893.69</ele>
        <time>2024-09-25T15:56:36.000Z</time>
      </trkpt>
      <trkpt lat="42.19618" lon="2.23833">
        <ele>893.51</ele>
        <time>2024-09-25T15:56:41.000Z</time>
      </trkpt>
      <trkpt lat="42.19628" lon="2.23802">
        <ele>893.33</ele>
        <time>2024-09-25T15:56:46.000Z</time>
      </trkpt>
      <trkpt lat="42.19646" lon="2.23776">
        <ele>893.28</ele>
        <time>2024-09-25T15:56:51.000Z</time>
      </trkpt>
      <trkpt lat="42.19664" lon="2.23748">
        <ele>893.36</ele>
        <time>2024-09-25T15:56:56.000Z</time>
      </trkpt>
      <trkpt lat="42.19685" lon="2.23716">
        <ele>893.56</ele>
        <time>2024-09-25T15:57:01.000Z</time>
      </trkpt>
      <trkpt lat="42.19697" lon="2.23677">
        <ele>893.82</ele>
        <time>2024-09-25T15:57:06.000Z</time>
      </trkpt>
      <trkpt lat="42.19702" lon="2.23635">
        <ele>893.87</ele>
        <time>2024-09-25T15:57:11.000Z</time>
      </trkpt>
      <trkpt lat="42.19706" lon="2.23593">
        <ele>893.81</ele>
        <time>2024-09-25T15:57:16.000Z</time>
      </trkpt>
      <trkpt lat="42.19711" lon="2.23552">
        <ele>893.88</ele>
        <time>2024-09-25T15:57:21.000Z</time>
      </trkpt>
      <trkpt lat="42.19716" lon="2.2351">
        <ele>893.93</ele>
        <time>2024-09-25T15:57:26.000Z</time>
      </trkpt>
      <trkpt lat="42.19716" lon="2.23469">
        <ele>894.22</ele>
        <time>2024-09-25T15:57:31.000Z</time>
      </trkpt>
      <trkpt lat="42.19707" lon="2.23428">
        <ele>894.35</ele>
        <time>2024-09-25T15:57:36.000Z</time>
      </trkpt>
      <trkpt lat="42.19681" lon="2.23404">
        <ele>894.65</ele>
        <time>2024-09-25T15:57:41.000Z</time>
      </trkpt>
      <trkpt lat="42.19652" lon="2.23402">
        <ele>894.97</ele>
        <time>2024-09-25T15:57:46.000Z</time>
      </trkpt>
      <trkpt lat="42.19623" lon="2.23404">
        <ele>895.42</ele>
        <time>2024-09-25T15:57:51.000Z</time>
      </trkpt>
      <trkpt lat="42.19591" lon="2.23407">
        <ele>895.66</ele>
        <time>2024-09-25T15:57:56.000Z</time>
      </trkpt>
      <trkpt lat="42.19559" lon="2.23401">
        <ele>896.31</ele>
        <time>2024-09-25T15:58:01.000Z</time>
      </trkpt>
      <trkpt lat="42.19535" lon="2.23375">
        <ele>895.98</ele>
        <time>2024-09-25T15:58:06.000Z</time>
      </trkpt>
      <trkpt lat="42.19508" lon="2.23353">
        <ele>895.42</ele>
        <time>2024-09-25T15:58:11.000Z</time>
      </trkpt>
      <trkpt lat="42.19488" lon="2.2332">
        <ele>895.87</ele>
        <time>2024-09-25T15:58:16.000Z</time>
      </trkpt>
      <trkpt lat="42.19474" lon="2.23283">
        <ele>896.2</ele>
        <time>2024-09-25T15:58:21.000Z</time>
      </trkpt>
      <trkpt lat="42.19458" lon="2.23245">
        <ele>896.38</ele>
        <time>2024-09-25T15:58:26.000Z</time>
      </trkpt>
      <trkpt lat="42.19439" lon="2.23212">
        <ele>896.31</ele>
        <time>2024-09-25T15:58:31.000Z</time>
      </trkpt>
      <trkpt lat="42.19419" lon="2.23176">
        <ele>895.71</ele>
        <time>2024-09-25T15:58:36.000Z</time>
      </trkpt>
      <trkpt lat="42.19415" lon="2.23125">
        <ele>894.81</ele>
        <time>2024-09-25T15:58:41.000Z</time>
      </trkpt>
      <trkpt lat="42.1943" lon="2.23067">
        <ele>894.1</ele>
        <time>2024-09-25T15:58:46.000Z</time>
      </trkpt>
      <trkpt lat="42.19445" lon="2.23005">
        <ele>893.13</ele>
        <time>2024-09-25T15:58:51.000Z</time>
      </trkpt>
      <trkpt lat="42.19455" lon="2.22938">
        <ele>891.65</ele>
        <time>2024-09-25T15:58:56.000Z</time>
      </trkpt>
      <trkpt lat="42.19454" lon="2.22868">
        <ele>889.74</ele>
        <time>2024-09-25T15:59:01.000Z</time>
      </trkpt>
      <trkpt lat="42.19467" lon="2.22801">
        <ele>887.33</ele>
        <time>2024-09-25T15:59:06.000Z</time>
      </trkpt>
      <trkpt lat="42.19488" lon="2.22743">
        <ele>884.35</ele>
        <time>2024-09-25T15:59:11.000Z</time>
      </trkpt>
      <trkpt lat="42.19505" lon="2.22673">
        <ele>881.17</ele>
        <time>2024-09-25T15:59:16.000Z</time>
      </trkpt>
      <trkpt lat="42.19495" lon="2.22599">
        <ele>878.5</ele>
        <time>2024-09-25T15:59:21.000Z</time>
      </trkpt>
      <trkpt lat="42.1948" lon="2.22524">
        <ele>875.41</ele>
        <time>2024-09-25T15:59:26.000Z</time>
      </trkpt>
      <trkpt lat="42.19474" lon="2.22449">
        <ele>871.38</ele>
        <time>2024-09-25T15:59:31.000Z</time>
      </trkpt>
      <trkpt lat="42.19486" lon="2.22373">
        <ele>867.39</ele>
        <time>2024-09-25T15:59:36.000Z</time>
      </trkpt>
      <trkpt lat="42.19495" lon="2.22297">
        <ele>863.39</ele>
        <time>2024-09-25T15:59:41.000Z</time>
      </trkpt>
      <trkpt lat="42.19497" lon="2.2222">
        <ele>859.31</ele>
        <time>2024-09-25T15:59:46.000Z</time>
      </trkpt>
      <trkpt lat="42.1951" lon="2.22148">
        <ele>855.42</ele>
        <time>2024-09-25T15:59:51.000Z</time>
      </trkpt>
      <trkpt lat="42.19536" lon="2.2209">
        <ele>852.1</ele>
        <time>2024-09-25T15:59:56.000Z</time>
      </trkpt>
      <trkpt lat="42.19538" lon="2.22022">
        <ele>849.46</ele>
        <time>2024-09-25T16:00:01.000Z</time>
      </trkpt>
      <trkpt lat="42.19532" lon="2.21951">
        <ele>846.81</ele>
        <time>2024-09-25T16:00:06.000Z</time>
      </trkpt>
      <trkpt lat="42.19504" lon="2.21891">
        <ele>843.53</ele>
        <time>2024-09-25T16:00:11.000Z</time>
      </trkpt>
      <trkpt lat="42.19498" lon="2.21823">
        <ele>839.94</ele>
        <time>2024-09-25T16:00:16.000Z</time>
      </trkpt>
      <trkpt lat="42.19497" lon="2.21756">
        <ele>836.09</ele>
        <time>2024-09-25T16:00:21.000Z</time>
      </trkpt>
      <trkpt lat="42.1951" lon="2.21693">
        <ele>832.41</ele>
        <time>2024-09-25T16:00:26.000Z</time>
      </trkpt>
      <trkpt lat="42.19518" lon="2.21637">
        <ele>829.02</ele>
        <time>2024-09-25T16:00:31.000Z</time>
      </trkpt>
      <trkpt lat="42.19488" lon="2.21587">
        <ele>827.06</ele>
        <time>2024-09-25T16:00:36.000Z</time>
      </trkpt>
      <trkpt lat="42.19484" lon="2.21522">
        <ele>824.78</ele>
        <time>2024-09-25T16:00:41.000Z</time>
      </trkpt>
      <trkpt lat="42.19509" lon="2.21461">
        <ele>821.63</ele>
        <time>2024-09-25T16:00:46.000Z</time>
      </trkpt>
      <trkpt lat="42.19549" lon="2.21434">
        <ele>818.9</ele>
        <time>2024-09-25T16:00:51.000Z</time>
      </trkpt>
      <trkpt lat="42.19527" lon="2.21384">
        <ele>815.68</ele>
        <time>2024-09-25T16:00:56.000Z</time>
      </trkpt>
      <trkpt lat="42.19489" lon="2.21343">
        <ele>812.3</ele>
        <time>2024-09-25T16:01:01.000Z</time>
      </trkpt>
      <trkpt lat="42.19496" lon="2.21277">
        <ele>810.1</ele>
        <time>2024-09-25T16:01:06.000Z</time>
      </trkpt>
      <trkpt lat="42.19508" lon="2.21221">
        <ele>808.8</ele>
        <time>2024-09-25T16:01:11.000Z</time>
      </trkpt>
      <trkpt lat="42.19527" lon="2.21178">
        <ele>806.03</ele>
        <time>2024-09-25T16:01:16.000Z</time>
      </trkpt>
      <trkpt lat="42.19544" lon="2.21142">
        <ele>802.76</ele>
        <time>2024-09-25T16:01:21.000Z</time>
      </trkpt>
      <trkpt lat="42.19572" lon="2.21115">
        <ele>800.96</ele>
        <time>2024-09-25T16:01:26.000Z</time>
      </trkpt>
      <trkpt lat="42.19576" lon="2.21072">
        <ele>798.4</ele>
        <time>2024-09-25T16:01:31.000Z</time>
      </trkpt>
      <trkpt lat="42.19563" lon="2.21032">
        <ele>796.19</ele>
        <time>2024-09-25T16:01:36.000Z</time>
      </trkpt>
      <trkpt lat="42.19548" lon="2.20991">
        <ele>793.89</ele>
        <time>2024-09-25T16:01:41.000Z</time>
      </trkpt>
      <trkpt lat="42.19537" lon="2.20943">
        <ele>791.32</ele>
        <time>2024-09-25T16:01:46.000Z</time>
      </trkpt>
      <trkpt lat="42.19545" lon="2.20885">
        <ele>789.72</ele>
        <time>2024-09-25T16:01:51.000Z</time>
      </trkpt>
      <trkpt lat="42.19547" lon="2.20825">
        <ele>788.07</ele>
        <time>2024-09-25T16:01:56.000Z</time>
      </trkpt>
      <trkpt lat="42.19523" lon="2.20772">
        <ele>785.51</ele>
        <time>2024-09-25T16:02:01.000Z</time>
      </trkpt>
      <trkpt lat="42.19501" lon="2.20719">
        <ele>783.07</ele>
        <time>2024-09-25T16:02:06.000Z</time>
      </trkpt>
      <trkpt lat="42.19503" lon="2.20659">
        <ele>780.69</ele>
        <time>2024-09-25T16:02:11.000Z</time>
      </trkpt>
      <trkpt lat="42.19505" lon="2.206">
        <ele>777.94</ele>
        <time>2024-09-25T16:02:16.000Z</time>
      </trkpt>
      <trkpt lat="42.19498" lon="2.20544">
        <ele>775.39</ele>
        <time>2024-09-25T16:02:21.000Z</time>
      </trkpt>
      <trkpt lat="42.19474" lon="2.20495">
        <ele>772.67</ele>
        <time>2024-09-25T16:02:26.000Z</time>
      </trkpt>
      <trkpt lat="42.19487" lon="2.20436">
        <ele>770</ele>
        <time>2024-09-25T16:02:31.000Z</time>
      </trkpt>
      <trkpt lat="42.19524" lon="2.20397">
        <ele>767.5</ele>
        <time>2024-09-25T16:02:36.000Z</time>
      </trkpt>
      <trkpt lat="42.1955" lon="2.20342">
        <ele>764.51</ele>
        <time>2024-09-25T16:02:41.000Z</time>
      </trkpt>
      <trkpt lat="42.19536" lon="2.20287">
        <ele>763.34</ele>
        <time>2024-09-25T16:02:46.000Z</time>
      </trkpt>
      <trkpt lat="42.19506" lon="2.2025">
        <ele>761.99</ele>
        <time>2024-09-25T16:02:51.000Z</time>
      </trkpt>
      <trkpt lat="42.1949" lon="2.20196">
        <ele>759.76</ele>
        <time>2024-09-25T16:02:56.000Z</time>
      </trkpt>
      <trkpt lat="42.1948" lon="2.20134">
        <ele>757.64</ele>
        <time>2024-09-25T16:03:01.000Z</time>
      </trkpt>
      <trkpt lat="42.19468" lon="2.20073">
        <ele>755.23</ele>
        <time>2024-09-25T16:03:06.000Z</time>
      </trkpt>
      <trkpt lat="42.19447" lon="2.20017">
        <ele>751.83</ele>
        <time>2024-09-25T16:03:11.000Z</time>
      </trkpt>
      <trkpt lat="42.19469" lon="2.19968">
        <ele>748.83</ele>
        <time>2024-09-25T16:03:16.000Z</time>
      </trkpt>
      <trkpt lat="42.19514" lon="2.19936">
        <ele>746.92</ele>
        <time>2024-09-25T16:03:21.000Z</time>
      </trkpt>
      <trkpt lat="42.19563" lon="2.19906">
        <ele>744.04</ele>
        <time>2024-09-25T16:03:26.000Z</time>
      </trkpt>
      <trkpt lat="42.19606" lon="2.19857">
        <ele>741.14</ele>
        <time>2024-09-25T16:03:31.000Z</time>
      </trkpt>
      <trkpt lat="42.19654" lon="2.19838">
        <ele>739.53</ele>
        <time>2024-09-25T16:03:36.000Z</time>
      </trkpt>
      <trkpt lat="42.19691" lon="2.19803">
        <ele>737.58</ele>
        <time>2024-09-25T16:03:41.000Z</time>
      </trkpt>
      <trkpt lat="42.1972" lon="2.19774">
        <ele>734.96</ele>
        <time>2024-09-25T16:03:46.000Z</time>
      </trkpt>
      <trkpt lat="42.1971" lon="2.19743">
        <ele>732.25</ele>
        <time>2024-09-25T16:03:51.000Z</time>
      </trkpt>
      <trkpt lat="42.1968" lon="2.19704">
        <ele>729.12</ele>
        <time>2024-09-25T16:03:56.000Z</time>
      </trkpt>
      <trkpt lat="42.19658" lon="2.19668">
        <ele>724.78</ele>
        <time>2024-09-25T16:04:01.000Z</time>
      </trkpt>
      <trkpt lat="42.19647" lon="2.19649">
        <ele>722.55</ele>
        <time>2024-09-25T16:04:06.000Z</time>
      </trkpt>
      <trkpt lat="42.19641" lon="2.19638">
        <ele>722.93</ele>
        <time>2024-09-25T16:04:19.000Z</time>
      </trkpt>
      <trkpt lat="42.19634" lon="2.19627">
        <ele>723.36</ele>
        <time>2024-09-25T16:04:24.000Z</time>
      </trkpt>
      <trkpt lat="42.19638" lon="2.19605">
        <ele>722.95</ele>
        <time>2024-09-25T16:04:29.000Z</time>
      </trkpt>
      <trkpt lat="42.19645" lon="2.19597">
        <ele>721.7</ele>
        <time>2024-09-25T16:05:11.999Z</time>
      </trkpt>
      <trkpt lat="42.19653" lon="2.19593">
        <ele>714.24</ele>
        <time>2024-09-25T16:11:48.999Z</time>
      </trkpt>
      <trkpt lat="42.1966" lon="2.19583">
        <ele>713.92</ele>
        <time>2024-09-25T16:12:07.999Z</time>
      </trkpt>
      <trkpt lat="42.19671" lon="2.19569">
        <ele>713.73</ele>
        <time>2024-09-25T16:12:12.999Z</time>
      </trkpt>
      <trkpt lat="42.19687" lon="2.19555">
        <ele>713.33</ele>
        <time>2024-09-25T16:12:17.999Z</time>
      </trkpt>
      <trkpt lat="42.19704" lon="2.19541">
        <ele>712.91</ele>
        <time>2024-09-25T16:12:22.999Z</time>
      </trkpt>
      <trkpt lat="42.1972" lon="2.19524">
        <ele>712.23</ele>
        <time>2024-09-25T16:12:27.999Z</time>
      </trkpt>
      <trkpt lat="42.19735" lon="2.19505">
        <ele>711.64</ele>
        <time>2024-09-25T16:12:32.999Z</time>
      </trkpt>
      <trkpt lat="42.19748" lon="2.1949">
        <ele>711.57</ele>
        <time>2024-09-25T16:12:37.999Z</time>
      </trkpt>
      <trkpt lat="42.19764" lon="2.19475">
        <ele>711.28</ele>
        <time>2024-09-25T16:12:42.999Z</time>
      </trkpt>
      <trkpt lat="42.19779" lon="2.1946">
        <ele>711.2</ele>
        <time>2024-09-25T16:12:47.999Z</time>
      </trkpt>
      <trkpt lat="42.19787" lon="2.19451">
        <ele>711.17</ele>
        <time>2024-09-25T16:12:52.999Z</time>
      </trkpt>
      <trkpt lat="42.19793" lon="2.19442">
        <ele>711.13</ele>
        <time>2024-09-25T16:12:58.999Z</time>
      </trkpt>
      <trkpt lat="42.19801" lon="2.19433">
        <ele>711.11</ele>
        <time>2024-09-25T16:13:55.999Z</time>
      </trkpt>
      <trkpt lat="42.19814" lon="2.1942">
        <ele>711.03</ele>
        <time>2024-09-25T16:14:00.999Z</time>
      </trkpt>
      <trkpt lat="42.19831" lon="2.19407">
        <ele>710.96</ele>
        <time>2024-09-25T16:14:05.999Z</time>
      </trkpt>
      <trkpt lat="42.19846" lon="2.19389">
        <ele>710.93</ele>
        <time>2024-09-25T16:14:10.999Z</time>
      </trkpt>
      <trkpt lat="42.19865" lon="2.19369">
        <ele>710.9</ele>
        <time>2024-09-25T16:14:15.999Z</time>
      </trkpt>
      <trkpt lat="42.1988" lon="2.19351">
        <ele>710.88</ele>
        <time>2024-09-25T16:14:20.999Z</time>
      </trkpt>
      <trkpt lat="42.19896" lon="2.19334">
        <ele>710.87</ele>
        <time>2024-09-25T16:14:25.999Z</time>
      </trkpt>
      <trkpt lat="42.19912" lon="2.19314">
        <ele>710.86</ele>
        <time>2024-09-25T16:14:30.999Z</time>
      </trkpt>
      <trkpt lat="42.19926" lon="2.19297">
        <ele>710.84</ele>
        <time>2024-09-25T16:14:35.999Z</time>
      </trkpt>
      <trkpt lat="42.19941" lon="2.19281">
        <ele>710.73</ele>
        <time>2024-09-25T16:14:40.999Z</time>
      </trkpt>
      <trkpt lat="42.19958" lon="2.19274">
        <ele>710.71</ele>
        <time>2024-09-25T16:14:45.999Z</time>
      </trkpt>
      <trkpt lat="42.19976" lon="2.19265">
        <ele>710.63</ele>
        <time>2024-09-25T16:14:50.999Z</time>
      </trkpt>
      <trkpt lat="42.19987" lon="2.19248">
        <ele>710.59</ele>
        <time>2024-09-25T16:14:55.999Z</time>
      </trkpt>
      <trkpt lat="42.19987" lon="2.19233">
        <ele>710.4</ele>
        <time>2024-09-25T16:16:01.999Z</time>
      </trkpt>
      <trkpt lat="42.19991" lon="2.1921">
        <ele>710.23</ele>
        <time>2024-09-25T16:16:06.999Z</time>
      </trkpt>
      <trkpt lat="42.20004" lon="2.19188">
        <ele>710.04</ele>
        <time>2024-09-25T16:16:11.999Z</time>
      </trkpt>
      <trkpt lat="42.20016" lon="2.19164">
        <ele>709.95</ele>
        <time>2024-09-25T16:16:16.999Z</time>
      </trkpt>
      <trkpt lat="42.20031" lon="2.19149">
        <ele>709.91</ele>
        <time>2024-09-25T16:16:21.999Z</time>
      </trkpt>
      <trkpt lat="42.20042" lon="2.19133">
        <ele>709.86</ele>
        <time>2024-09-25T16:16:26.999Z</time>
      </trkpt>
      <trkpt lat="42.20051" lon="2.19118">
        <ele>709.8</ele>
        <time>2024-09-25T16:16:31.999Z</time>
      </trkpt>
      <trkpt lat="42.20062" lon="2.19103">
        <ele>709.74</ele>
        <time>2024-09-25T16:16:36.999Z</time>
      </trkpt>
      <trkpt lat="42.20071" lon="2.19087">
        <ele>709.67</ele>
        <time>2024-09-25T16:16:41.999Z</time>
      </trkpt>
      <trkpt lat="42.20074" lon="2.19075">
        <ele>709.52</ele>
        <time>2024-09-25T16:17:05.000Z</time>
      </trkpt>
      <trkpt lat="42.20066" lon="2.19066">
        <ele>709.39</ele>
        <time>2024-09-25T16:17:13.000Z</time>
      </trkpt>
      <trkpt lat="42.2006" lon="2.19056">
        <ele>709.25</ele>
        <time>2024-09-25T16:17:22.000Z</time>
      </trkpt>
      <trkpt lat="42.20054" lon="2.19046">
        <ele>709.14</ele>
        <time>2024-09-25T16:17:32.000Z</time>
      </trkpt>
      <trkpt lat="42.20047" lon="2.19039">
        <ele>708.61</ele>
        <time>2024-09-25T16:20:28.000Z</time>
      </trkpt>
      <trkpt lat="42.20037" lon="2.19041">
        <ele>707.63</ele>
        <time>2024-09-25T16:22:07.000Z</time>
      </trkpt>
      <trkpt lat="42.20031" lon="2.1905">
        <ele>707.42</ele>
        <time>2024-09-25T16:22:23.000Z</time>
      </trkpt>
      <trkpt lat="42.2002" lon="2.19054">
        <ele>707.3</ele>
        <time>2024-09-25T16:22:28.000Z</time>
      </trkpt>
      <trkpt lat="42.20009" lon="2.19058">
        <ele>707.14</ele>
        <time>2024-09-25T16:22:33.000Z</time>
      </trkpt>
      <trkpt lat="42.19999" lon="2.19064">
        <ele>706.97</ele>
        <time>2024-09-25T16:22:38.000Z</time>
      </trkpt>
      <trkpt lat="42.19991" lon="2.19069">
        <ele>706.82</ele>
        <time>2024-09-25T16:22:43.000Z</time>
      </trkpt>
      <trkpt lat="42.19987" lon="2.19081">
        <ele>706.65</ele>
        <time>2024-09-25T16:22:49.000Z</time>
      </trkpt>
      <trkpt lat="42.19978" lon="2.19083">
        <ele>706.41</ele>
        <time>2024-09-25T16:22:57.000Z</time>
      </trkpt>
      <trkpt lat="42.19964" lon="2.19084">
        <ele>706.26</ele>
        <time>2024-09-25T16:23:02.000Z</time>
      </trkpt>
      <trkpt lat="42.19951" lon="2.19087">
        <ele>706.11</ele>
        <time>2024-09-25T16:23:07.000Z</time>
      </trkpt>
      <trkpt lat="42.19944" lon="2.19097">
        <ele>705.96</ele>
        <time>2024-09-25T16:23:12.000Z</time>
      </trkpt>
      <trkpt lat="42.19935" lon="2.1911">
        <ele>705.83</ele>
        <time>2024-09-25T16:23:17.000Z</time>
      </trkpt>
      <trkpt lat="42.19928" lon="2.19119">
        <ele>705.7</ele>
        <time>2024-09-25T16:23:22.000Z</time>
      </trkpt>
      <trkpt lat="42.19918" lon="2.19122">
        <ele>705.56</ele>
        <time>2024-09-25T16:23:28.000Z</time>
      </trkpt>
      <trkpt lat="42.19907" lon="2.19121">
        <ele>705.48</ele>
        <time>2024-09-25T16:23:34.000Z</time>
      </trkpt>
      <trkpt lat="42.19897" lon="2.1912">
        <ele>705.42</ele>
        <time>2024-09-25T16:23:39.000Z</time>
      </trkpt>
      <trkpt lat="42.19888" lon="2.19117">
        <ele>705.35</ele>
        <time>2024-09-25T16:23:44.000Z</time>
      </trkpt>
      <trkpt lat="42.19879" lon="2.19113">
        <ele>705.27</ele>
        <time>2024-09-25T16:23:49.000Z</time>
      </trkpt>
      <trkpt lat="42.19867" lon="2.19111">
        <ele>705.2</ele>
        <time>2024-09-25T16:24:32.000Z</time>
      </trkpt>
      <trkpt lat="42.1985" lon="2.19109">
        <ele>705.21</ele>
        <time>2024-09-25T16:24:37.000Z</time>
      </trkpt>
      <trkpt lat="42.19837" lon="2.19102">
        <ele>705.23</ele>
        <time>2024-09-25T16:24:42.000Z</time>
      </trkpt>
      <trkpt lat="42.19846" lon="2.19108">
        <ele>705.31</ele>
        <time>2024-09-25T16:25:09.000Z</time>
      </trkpt>
      <trkpt lat="42.19856" lon="2.19111">
        <ele>705.31</ele>
        <time>2024-09-25T16:25:16.000Z</time>
      </trkpt>
      <trkpt lat="42.19865" lon="2.19109">
        <ele>705.26</ele>
        <time>2024-09-25T16:25:26.000Z</time>
      </trkpt>
      <trkpt lat="42.1987" lon="2.19098">
        <ele>705.33</ele>
        <time>2024-09-25T16:25:50.000Z</time>
      </trkpt>
      <trkpt lat="42.19874" lon="2.19083">
        <ele>705.39</ele>
        <time>2024-09-25T16:25:55.000Z</time>
      </trkpt>
      <trkpt lat="42.19879" lon="2.1907">
        <ele>705.4</ele>
        <time>2024-09-25T16:26:00.000Z</time>
      </trkpt>
      <trkpt lat="42.19884" lon="2.1906">
        <ele>705.39</ele>
        <time>2024-09-25T16:26:09.000Z</time>
      </trkpt>
      <trkpt lat="42.19888" lon="2.1905">
        <ele>705.56</ele>
        <time>2024-09-25T16:27:06.000Z</time>
      </trkpt>
      <trkpt lat="42.19896" lon="2.19062">
        <ele>710.35</ele>
        <time>2024-09-25T16:38:18.999Z</time>
      </trkpt>
      <trkpt lat="42.19889" lon="2.19055">
        <ele>713.25</ele>
        <time>2024-09-25T16:42:07.000Z</time>
      </trkpt>
    </trkseg>
  </trk>
</gpx>